<?xml version="1.0" encoding="UTF-8"?>
<gpx xmlns="http://www.topografix.com/GPX/1/1" xmlns:ns2="http://www.garmin.com/xmlschemas/GpxExtensions/v3" xmlns:ns3="http://www.garmin.com/xmlschemas/TrackPointExtension/v1" xmlns:xsi="http://www.w3.org/2001/XMLSchema-instance" xsi:schemaLocation="http://www.topografix.com/GPX/1/1 http://www.topografix.com/GPX/11.xsd" version="1.1" creator="Garmin Connect">
  <metadata>
    <name>VR - Road 2 Brescia/Baremone/Maniva</name>
    <link href="connect.garmin.com">
      <text>Garmin Connect</text>
    </link>
    <time>2017-11-13T12:35:38Z</time>
  </metadata>
  <trk>
    <trkseg>
      <trkpt lat="45.5329656600952" lon="10.213143825530993">
        <ele>146.0</ele>
        <time>2017-11-13T12:35:38Z</time>
      </trkpt>
      <trkpt lat="45.53309440612793" lon="10.213208198547363">
        <ele>145.82607991567826</ele>
        <time>2017-11-13T12:35:38.219000Z</time>
      </trkpt>
      <trkpt lat="45.53367384709418" lon="10.213444232940674">
        <ele>145.05784200480986</ele>
        <time>2017-11-13T12:35:39.185000Z</time>
      </trkpt>
      <trkpt lat="45.53367376327515" lon="10.213444232940674">
        <ele>145.05777294899238</ele>
        <time>2017-11-13T12:35:39.185000Z</time>
      </trkpt>
      <trkpt lat="45.534295733800896" lon="10.213701565390748">
        <ele>144.19093164023158</ele>
        <time>2017-11-13T12:35:40.223000Z</time>
      </trkpt>
      <trkpt lat="45.53429611958563" lon="10.213701725006104">
        <ele>144.19070621850233</ele>
        <time>2017-11-13T12:35:40.224000Z</time>
      </trkpt>
      <trkpt lat="45.53429610714519" lon="10.213701725006146">
        <ele>144.190692743001</ele>
        <time>2017-11-13T12:35:40.225000Z</time>
      </trkpt>
      <trkpt lat="45.5342960357666" lon="10.213701725006104">
        <ele>144.19061542565166</ele>
        <time>2017-11-13T12:35:40.225000Z</time>
      </trkpt>
      <trkpt lat="45.53429611958563" lon="10.213701725005103">
        <ele>144.19052463280102</ele>
        <time>2017-11-13T12:35:40.225000Z</time>
      </trkpt>
      <trkpt lat="45.53440340794623" lon="10.213744640350342">
        <ele>144.06983408524863</ele>
        <time>2017-11-13T12:35:40.404000Z</time>
      </trkpt>
      <trkpt lat="45.534274661913514" lon="10.214474201202393">
        <ele>143.49897432937232</ele>
        <time>2017-11-13T12:35:41.249000Z</time>
      </trkpt>
      <trkpt lat="45.53426009279782" lon="10.21454955869753">
        <ele>143.46824149595614</ele>
        <time>2017-11-13T12:35:41.337000Z</time>
      </trkpt>
      <trkpt lat="45.534260068877835" lon="10.214549682421413">
        <ele>143.46819103799055</ele>
        <time>2017-11-13T12:35:41.337000Z</time>
      </trkpt>
      <trkpt lat="45.534260077401996" lon="10.214549638330936">
        <ele>143.4681730566961</ele>
        <time>2017-11-13T12:35:41.337000Z</time>
      </trkpt>
      <trkpt lat="45.534260077401996" lon="10.214549386873841">
        <ele>143.46807420175728</ele>
        <time>2017-11-13T12:35:41.337000Z</time>
      </trkpt>
      <trkpt lat="45.534038627520204" lon="10.215697288513184">
        <ele>143.0</ele>
        <time>2017-11-13T12:35:42.674000Z</time>
      </trkpt>
      <trkpt lat="45.53403854370117" lon="10.215697288513184">
        <ele>143.0001117357047</ele>
        <time>2017-11-13T12:35:42.674000Z</time>
      </trkpt>
      <trkpt lat="45.53384550847113" lon="10.216641426086426">
        <ele>144.2518592750827</ele>
        <time>2017-11-13T12:35:43.778000Z</time>
      </trkpt>
      <trkpt lat="45.53365238942206" lon="10.217628479003906">
        <ele>145.8755063402407</ele>
        <time>2017-11-13T12:35:44.929000Z</time>
      </trkpt>
      <trkpt lat="45.53360947407782" lon="10.217907428741455">
        <ele>145.9714381877458</ele>
        <time>2017-11-13T12:35:45.250000Z</time>
      </trkpt>
      <trkpt lat="45.53360939025879" lon="10.217907428741455">
        <ele>145.97141313310215</ele>
        <time>2017-11-13T12:35:45.250000Z</time>
      </trkpt>
      <trkpt lat="45.53354510106146" lon="10.218079090118408">
        <ele>145.9306549536941</ele>
        <time>2017-11-13T12:35:45.469000Z</time>
      </trkpt>
      <trkpt lat="45.533523643389344" lon="10.21827220916748">
        <ele>145.88971290414568</ele>
        <time>2017-11-13T12:35:45.689000Z</time>
      </trkpt>
      <trkpt lat="45.533008659258485" lon="10.220825672149658">
        <ele>145.0</ele>
        <time>2017-11-13T12:35:48.673000Z</time>
      </trkpt>
      <trkpt lat="45.53300857543945" lon="10.220825672149658">
        <ele>144.99996895994187</ele>
        <time>2017-11-13T12:35:48.673000Z</time>
      </trkpt>
      <trkpt lat="45.53279408253729" lon="10.221920013427734">
        <ele>144.10546372327704</ele>
        <time>2017-11-13T12:35:49.949000Z</time>
      </trkpt>
      <trkpt lat="45.532751167193055" lon="10.222198963165283">
        <ele>143.9644274651844</ele>
        <time>2017-11-13T12:35:50.270000Z</time>
      </trkpt>
      <trkpt lat="45.53264387883246" lon="10.2227783203125">
        <ele>143.97808816087286</ele>
        <time>2017-11-13T12:35:50.943000Z</time>
      </trkpt>
      <trkpt lat="45.53262242116034" lon="10.222885608673096">
        <ele>143.91856864388362</ele>
        <time>2017-11-13T12:35:51.068000Z</time>
      </trkpt>
      <trkpt lat="45.53260096348822" lon="10.222992897033691">
        <ele>143.85904910589724</ele>
        <time>2017-11-13T12:35:51.193000Z</time>
      </trkpt>
      <trkpt lat="45.53255804814398" lon="10.223164558410645">
        <ele>143.76182000081198</ele>
        <time>2017-11-13T12:35:51.398000Z</time>
      </trkpt>
      <trkpt lat="45.53255796432495" lon="10.223164558410645">
        <ele>143.76175617107788</ele>
        <time>2017-11-13T12:35:51.398000Z</time>
      </trkpt>
      <trkpt lat="45.53234338760376" lon="10.224559307098389">
        <ele>142.0</ele>
        <time>2017-11-13T12:35:53.002000Z</time>
      </trkpt>
      <trkpt lat="45.53232201375067" lon="10.224688053131104">
        <ele>141.9100194392217</ele>
        <time>2017-11-13T12:35:53.151000Z</time>
      </trkpt>
      <trkpt lat="45.53219326771796" lon="10.225632190704346">
        <ele>140.58922659084854</ele>
        <time>2017-11-13T12:35:54.231000Z</time>
      </trkpt>
      <trkpt lat="45.532193183898926" lon="10.225632190704346">
        <ele>140.58914521808865</ele>
        <time>2017-11-13T12:35:54.231000Z</time>
      </trkpt>
      <trkpt lat="45.53206443786621" lon="10.226490497589111">
        <ele>139.99220905899097</ele>
        <time>2017-11-13T12:35:55.217000Z</time>
      </trkpt>
      <trkpt lat="45.53184986114502" lon="10.227391719818115">
        <ele>139.0</ele>
        <time>2017-11-13T12:35:56.286000Z</time>
      </trkpt>
      <trkpt lat="45.531699657440186" lon="10.227885246276855">
        <ele>139.16948135378925</ele>
        <time>2017-11-13T12:35:56.890000Z</time>
      </trkpt>
      <trkpt lat="45.531742572784424" lon="10.228357315063477">
        <ele>139.986080694458</ele>
        <time>2017-11-13T12:35:57.425000Z</time>
      </trkpt>
      <trkpt lat="45.53182269987037" lon="10.228587816491398">
        <ele>140.06712830814953</ele>
        <time>2017-11-13T12:35:57.714000Z</time>
      </trkpt>
      <trkpt lat="45.53182276838496" lon="10.228588013588082">
        <ele>140.06719761011368</ele>
        <time>2017-11-13T12:35:57.714000Z</time>
      </trkpt>
      <trkpt lat="45.531822787597775" lon="10.228588068857789">
        <ele>140.06721704371952</ele>
        <time>2017-11-13T12:35:57.714000Z</time>
      </trkpt>
      <trkpt lat="45.531822787597775" lon="10.228587817400694">
        <ele>140.06729624416835</ele>
        <time>2017-11-13T12:35:57.714000Z</time>
      </trkpt>
      <trkpt lat="45.53208589553833" lon="10.229344367980957">
        <ele>140.33333333333334</ele>
        <time>2017-11-13T12:35:58.663000Z</time>
      </trkpt>
      <trkpt lat="45.53251504898071" lon="10.229601860046387">
        <ele>139.66666666666666</ele>
        <time>2017-11-13T12:35:59.409000Z</time>
      </trkpt>
      <trkpt lat="45.53270825184882" lon="10.229687690734863">
        <ele>139.72947293640718</ele>
        <time>2017-11-13T12:35:59.733000Z</time>
      </trkpt>
      <trkpt lat="45.532708168029785" lon="10.229687690734863">
        <ele>139.72949895354148</ele>
        <time>2017-11-13T12:35:59.733000Z</time>
      </trkpt>
      <trkpt lat="45.534532153978944" lon="10.230653285980225">
        <ele>141.0</ele>
        <time>2017-11-13T12:36:02.852000Z</time>
      </trkpt>
      <trkpt lat="45.53457506932318" lon="10.230653285980225">
        <ele>141.0391907150731</ele>
        <time>2017-11-13T12:36:02.921000Z</time>
      </trkpt>
      <trkpt lat="45.53586252965033" lon="10.23101806640625">
        <ele>145.5711766123576</ele>
        <time>2017-11-13T12:36:05.025000Z</time>
      </trkpt>
      <trkpt lat="45.53590544499457" lon="10.23103952407837">
        <ele>145.5510460788182</ele>
        <time>2017-11-13T12:36:05.098000Z</time>
      </trkpt>
      <trkpt lat="45.536026997175995" lon="10.231083732439563">
        <ele>145.49551506947446</ele>
        <time>2017-11-13T12:36:05.299000Z</time>
      </trkpt>
      <trkpt lat="45.53602714653911" lon="10.231083786762827">
        <ele>145.49544683305507</ele>
        <time>2017-11-13T12:36:05.299000Z</time>
      </trkpt>
      <trkpt lat="45.53602782078087" lon="10.23108403198421">
        <ele>145.49513880624326</ele>
        <time>2017-11-13T12:36:05.299000Z</time>
      </trkpt>
      <trkpt lat="45.53602773696184" lon="10.231083864346147">
        <ele>145.49507493638941</ele>
        <time>2017-11-13T12:36:05.299000Z</time>
      </trkpt>
      <trkpt lat="45.53614139556885" lon="10.231125354766846">
        <ele>145.44313837743962</ele>
        <time>2017-11-13T12:36:05.487000Z</time>
      </trkpt>
      <trkpt lat="45.53614147938788" lon="10.231382846832275">
        <ele>145.36329020867436</ele>
        <time>2017-11-13T12:36:05.776000Z</time>
      </trkpt>
      <trkpt lat="45.53612002171576" lon="10.23153305053711">
        <ele>145.1530767673028</ele>
        <time>2017-11-13T12:36:05.948000Z</time>
      </trkpt>
      <trkpt lat="45.53609848022461" lon="10.232112407684326">
        <ele>143.02415607993814</ele>
        <time>2017-11-13T12:36:06.599000Z</time>
      </trkpt>
      <trkpt lat="45.53609856404364" lon="10.232198238372803">
        <ele>142.98797603417276</ele>
        <time>2017-11-13T12:36:06.695000Z</time>
      </trkpt>
      <trkpt lat="45.53607710637152" lon="10.232326984405518">
        <ele>142.93219090007892</ele>
        <time>2017-11-13T12:36:06.844000Z</time>
      </trkpt>
      <trkpt lat="45.53603410720825" lon="10.23303508758545">
        <ele>142.9659192653915</ele>
        <time>2017-11-13T12:36:07.642000Z</time>
      </trkpt>
      <trkpt lat="45.53607702255249" lon="10.23324966430664">
        <ele>142.8718544430046</ele>
        <time>2017-11-13T12:36:07.893000Z</time>
      </trkpt>
      <trkpt lat="45.53566932678223" lon="10.234386920928955">
        <ele>142.0</ele>
        <time>2017-11-13T12:36:09.328000Z</time>
      </trkpt>
      <trkpt lat="45.53566941060126" lon="10.234386920928955">
        <ele>141.99992368498638</ele>
        <time>2017-11-13T12:36:09.328000Z</time>
      </trkpt>
      <trkpt lat="45.5354118347168" lon="10.235137939453125">
        <ele>141.13329109186125</ele>
        <time>2017-11-13T12:36:10.267000Z</time>
      </trkpt>
      <trkpt lat="45.53541191853583" lon="10.235137939453125">
        <ele>141.13321477684767</ele>
        <time>2017-11-13T12:36:10.267000Z</time>
      </trkpt>
      <trkpt lat="45.534725273028016" lon="10.23700475692749">
        <ele>139.12180580304695</ele>
        <time>2017-11-13T12:36:12.635000Z</time>
      </trkpt>
      <trkpt lat="45.5345965269953" lon="10.237369537353516">
        <ele>139.0</ele>
        <time>2017-11-13T12:36:13.094000Z</time>
      </trkpt>
      <trkpt lat="45.53410300053656" lon="10.238699913024902">
        <ele>139.09899019405097</ele>
        <time>2017-11-13T12:36:14.785000Z</time>
      </trkpt>
      <trkpt lat="45.53388842381537" lon="10.2392578125">
        <ele>141.1412399362947</ele>
        <time>2017-11-13T12:36:15.500000Z</time>
      </trkpt>
      <trkpt lat="45.53352355957031" lon="10.2402663230896">
        <ele>144.0</ele>
        <time>2017-11-13T12:36:16.775000Z</time>
      </trkpt>
      <trkpt lat="45.53333044052124" lon="10.240716934204102">
        <ele>141.21814968274472</ele>
        <time>2017-11-13T12:36:17.368000Z</time>
      </trkpt>
      <trkpt lat="45.533008659258485" lon="10.241596698760986">
        <ele>141.3754866246033</ele>
        <time>2017-11-13T12:36:18.483000Z</time>
      </trkpt>
      <trkpt lat="45.53300857543945" lon="10.241596698760986">
        <ele>141.37538502970088</ele>
        <time>2017-11-13T12:36:18.483000Z</time>
      </trkpt>
      <trkpt lat="45.53287982940674" lon="10.241940021514893">
        <ele>142.0447428842417</ele>
        <time>2017-11-13T12:36:18.920000Z</time>
      </trkpt>
      <trkpt lat="45.53285837173462" lon="10.242176055908203">
        <ele>141.57682980238522</ele>
        <time>2017-11-13T12:36:19.187000Z</time>
      </trkpt>
      <trkpt lat="45.532751167193055" lon="10.242476463317871">
        <ele>140.91403546203813</ele>
        <time>2017-11-13T12:36:19.566000Z</time>
      </trkpt>
      <trkpt lat="45.532429218292236" lon="10.243334770202637">
        <ele>137.0</ele>
        <time>2017-11-13T12:36:20.659000Z</time>
      </trkpt>
      <trkpt lat="45.53242930211127" lon="10.243334770202637">
        <ele>137.00003519695034</ele>
        <time>2017-11-13T12:36:20.659000Z</time>
      </trkpt>
      <trkpt lat="45.53211884166881" lon="10.244154140954105">
        <ele>137.27405574355396</ele>
        <time>2017-11-13T12:36:21.705000Z</time>
      </trkpt>
      <trkpt lat="45.532118768337604" lon="10.244154334487753">
        <ele>137.27412046685131</ele>
        <time>2017-11-13T12:36:21.705000Z</time>
      </trkpt>
      <trkpt lat="45.532118920236826" lon="10.244153933599591">
        <ele>137.27425453554392</ele>
        <time>2017-11-13T12:36:21.705000Z</time>
      </trkpt>
      <trkpt lat="45.532118836417794" lon="10.244154101237655">
        <ele>137.27431511984537</ele>
        <time>2017-11-13T12:36:21.706000Z</time>
      </trkpt>
      <trkpt lat="45.53189286030829" lon="10.2447509765625">
        <ele>137.14055818144755</ele>
        <time>2017-11-13T12:36:22.468000Z</time>
      </trkpt>
      <trkpt lat="45.5316782835871" lon="10.245330333709717">
        <ele>138.0</ele>
        <time>2017-11-13T12:36:23.204000Z</time>
      </trkpt>
      <trkpt lat="45.5315709952265" lon="10.245630741119385">
        <ele>136.3130835587136</ele>
        <time>2017-11-13T12:36:23.583000Z</time>
      </trkpt>
      <trkpt lat="45.531463623046875" lon="10.246210098266602">
        <ele>135.68466909417432</ele>
        <time>2017-11-13T12:36:24.256000Z</time>
      </trkpt>
      <trkpt lat="45.53142079152167" lon="10.246660709381104">
        <ele>135.20782881518363</ele>
        <time>2017-11-13T12:36:24.767000Z</time>
      </trkpt>
      <trkpt lat="45.53135641850531" lon="10.247669219970703">
        <ele>136.2227138039615</ele>
        <time>2017-11-13T12:36:25.904000Z</time>
      </trkpt>
      <trkpt lat="45.5312495040351" lon="10.248951271176507">
        <ele>137.0</ele>
        <time>2017-11-13T12:36:27.354000Z</time>
      </trkpt>
      <trkpt lat="45.53124941018933" lon="10.248952396438433">
        <ele>136.99953096965325</ele>
        <time>2017-11-13T12:36:27.354000Z</time>
      </trkpt>
      <trkpt lat="45.531249549239874" lon="10.2489507291466">
        <ele>136.99883601104298</ele>
        <time>2017-11-13T12:36:27.356000Z</time>
      </trkpt>
      <trkpt lat="45.53124946542084" lon="10.248950896784663">
        <ele>136.99875076530256</ele>
        <time>2017-11-13T12:36:27.356000Z</time>
      </trkpt>
      <trkpt lat="45.531227588653564" lon="10.249214172363281">
        <ele>137.5556847636021</ele>
        <time>2017-11-13T12:36:27.654000Z</time>
      </trkpt>
      <trkpt lat="45.53105592727661" lon="10.250179767608643">
        <ele>136.81002445078366</ele>
        <time>2017-11-13T12:36:28.773000Z</time>
      </trkpt>
      <trkpt lat="45.53088426589966" lon="10.250780582427979">
        <ele>135.66479001564593</ele>
        <time>2017-11-13T12:36:29.502000Z</time>
      </trkpt>
      <trkpt lat="45.530691146850586" lon="10.2512526512146">
        <ele>132.69992853802097</ele>
        <time>2017-11-13T12:36:30.116000Z</time>
      </trkpt>
      <trkpt lat="45.530498027801514" lon="10.251445770263672">
        <ele>132.49135876468821</ele>
        <time>2017-11-13T12:36:30.494000Z</time>
      </trkpt>
      <trkpt lat="45.53043373860419" lon="10.251424312591553">
        <ele>132.43295763948362</ele>
        <time>2017-11-13T12:36:30.600000Z</time>
      </trkpt>
      <trkpt lat="45.53030499257147" lon="10.251531600952148">
        <ele>132.301089556922</ele>
        <time>2017-11-13T12:36:30.839000Z</time>
      </trkpt>
      <trkpt lat="45.53032636642456" lon="10.25172472000122">
        <ele>133.18263668945588</ele>
        <time>2017-11-13T12:36:31.059000Z</time>
      </trkpt>
      <trkpt lat="45.53015478886664" lon="10.252346992492676">
        <ele>133.91761692539663</ele>
        <time>2017-11-13T12:36:31.810000Z</time>
      </trkpt>
      <trkpt lat="45.53015470504761" lon="10.252346992492676">
        <ele>133.9177484276086</ele>
        <time>2017-11-13T12:36:31.810000Z</time>
      </trkpt>
      <trkpt lat="45.5296612624079" lon="10.253376960754395">
        <ele>135.95581184971766</ele>
        <time>2017-11-13T12:36:33.211000Z</time>
      </trkpt>
      <trkpt lat="45.528781497851014" lon="10.25522232055664">
        <ele>139.0</ele>
        <time>2017-11-13T12:36:35.718000Z</time>
      </trkpt>
      <trkpt lat="45.52876000200737" lon="10.25526516245098">
        <ele>138.9081898293773</ele>
        <time>2017-11-13T12:36:35.777000Z</time>
      </trkpt>
      <trkpt lat="45.528758166569936" lon="10.255268820532615">
        <ele>138.9003505588115</ele>
        <time>2017-11-13T12:36:35.782000Z</time>
      </trkpt>
      <trkpt lat="45.52875744178891" lon="10.255270265042782">
        <ele>138.89725497280742</ele>
        <time>2017-11-13T12:36:35.784000Z</time>
      </trkpt>
      <trkpt lat="45.52875752560794" lon="10.255270013585687">
        <ele>138.8967698104702</ele>
        <time>2017-11-13T12:36:35.784000Z</time>
      </trkpt>
      <trkpt lat="45.52871712483466" lon="10.255351066589355">
        <ele>138.7234595683257</ele>
        <time>2017-11-13T12:36:35.896000Z</time>
      </trkpt>
      <trkpt lat="45.52863129414618" lon="10.255587100982666">
        <ele>138.26013175113815</ele>
        <time>2017-11-13T12:36:36.195000Z</time>
      </trkpt>
      <trkpt lat="45.528481006622314" lon="10.256123542785645">
        <ele>138.58688875591224</ele>
        <time>2017-11-13T12:36:36.844000Z</time>
      </trkpt>
      <trkpt lat="45.528287971392274" lon="10.256574153900146">
        <ele>135.0</ele>
        <time>2017-11-13T12:36:37.437000Z</time>
      </trkpt>
      <trkpt lat="45.52830934524536" lon="10.256681442260742">
        <ele>133.98423296840096</ele>
        <time>2017-11-13T12:36:37.562000Z</time>
      </trkpt>
      <trkpt lat="45.52813768386841" lon="10.257861614227295">
        <ele>135.14718476923943</ele>
        <time>2017-11-13T12:36:38.916000Z</time>
      </trkpt>
      <trkpt lat="45.52800893783569" lon="10.258312225341797">
        <ele>135.0783944523685</ele>
        <time>2017-11-13T12:36:39.463000Z</time>
      </trkpt>
      <trkpt lat="45.52725791931152" lon="10.260329246520996">
        <ele>131.0</ele>
        <time>2017-11-13T12:36:42.028000Z</time>
      </trkpt>
      <trkpt lat="45.52702188491821" lon="10.260801315307617">
        <ele>131.23747216500297</ele>
        <time>2017-11-13T12:36:42.679000Z</time>
      </trkpt>
      <trkpt lat="45.52695759572089" lon="10.260865688323975">
        <ele>131.28336986473906</ele>
        <time>2017-11-13T12:36:42.805000Z</time>
      </trkpt>
      <trkpt lat="45.52682876586914" lon="10.261445045471191">
        <ele>131.5322562296527</ele>
        <time>2017-11-13T12:36:43.488000Z</time>
      </trkpt>
      <trkpt lat="45.52637823857367" lon="10.262389183044434">
        <ele>133.6227457331507</ele>
        <time>2017-11-13T12:36:44.771000Z</time>
      </trkpt>
      <trkpt lat="45.52590616978705" lon="10.263504981994629">
        <ele>134.18893279159394</ele>
        <time>2017-11-13T12:36:46.235000Z</time>
      </trkpt>
      <trkpt lat="45.52590608596802" lon="10.263504981994629">
        <ele>134.18877699519598</ele>
        <time>2017-11-13T12:36:46.235000Z</time>
      </trkpt>
      <trkpt lat="45.52536964416504" lon="10.2647066116333">
        <ele>131.0</ele>
        <time>2017-11-13T12:36:47.835000Z</time>
      </trkpt>
      <trkpt lat="45.52504777908325" lon="10.26522159576416">
        <ele>131.32008686830903</ele>
        <time>2017-11-13T12:36:48.610000Z</time>
      </trkpt>
      <trkpt lat="45.52470454014838" lon="10.265629291534424">
        <ele>129.66666666666666</ele>
        <time>2017-11-13T12:36:49.326000Z</time>
      </trkpt>
      <trkpt lat="45.52453279495239" lon="10.2657151222229">
        <ele>129.76880684385347</ele>
        <time>2017-11-13T12:36:49.618000Z</time>
      </trkpt>
      <trkpt lat="45.524489963427186" lon="10.2657151222229">
        <ele>129.7928485143262</ele>
        <time>2017-11-13T12:36:49.687000Z</time>
      </trkpt>
      <trkpt lat="45.52436121739447" lon="10.265843868255615">
        <ele>130.5477523850921</ele>
        <time>2017-11-13T12:36:49.939000Z</time>
      </trkpt>
      <trkpt lat="45.52433967590332" lon="10.265929698944092">
        <ele>130.58360618466435</ele>
        <time>2017-11-13T12:36:50.041000Z</time>
      </trkpt>
      <trkpt lat="45.52408218383789" lon="10.266294479370117">
        <ele>130.78724374019785</ele>
        <time>2017-11-13T12:36:50.623000Z</time>
      </trkpt>
      <trkpt lat="45.52377178106646" lon="10.266604964985511">
        <ele>131.0</ele>
        <time>2017-11-13T12:36:51.231000Z</time>
      </trkpt>
      <trkpt lat="45.52376919968" lon="10.266607547043055">
        <ele>131.00171977956703</ele>
        <time>2017-11-13T12:36:51.236000Z</time>
      </trkpt>
      <trkpt lat="45.52376803010702" lon="10.266608716920018">
        <ele>131.00249897621663</ele>
        <time>2017-11-13T12:36:51.238000Z</time>
      </trkpt>
      <trkpt lat="45.523545825853944" lon="10.266830921173096">
        <ele>131.15052412871117</ele>
        <time>2017-11-13T12:36:51.673000Z</time>
      </trkpt>
      <trkpt lat="45.52313804626465" lon="10.26721715927124">
        <ele>131.41753444519267</ele>
        <time>2017-11-13T12:36:52.458000Z</time>
      </trkpt>
      <trkpt lat="45.52255868911743" lon="10.267839431762695">
        <ele>132.1464593212098</ele>
        <time>2017-11-13T12:36:53.620000Z</time>
      </trkpt>
      <trkpt lat="45.52212953567505" lon="10.268397331237793">
        <ele>132.66666666666666</ele>
        <time>2017-11-13T12:36:54.551000Z</time>
      </trkpt>
      <trkpt lat="45.52212961949408" lon="10.268397331237793">
        <ele>132.6667005055143</ele>
        <time>2017-11-13T12:36:54.551000Z</time>
      </trkpt>
      <trkpt lat="45.52152872085571" lon="10.269427299499512">
        <ele>132.71247961639838</ele>
        <time>2017-11-13T12:36:56.056000Z</time>
      </trkpt>
      <trkpt lat="45.52109956741333" lon="10.270543098449707">
        <ele>134.40585488418796</ele>
        <time>2017-11-13T12:36:57.486000Z</time>
      </trkpt>
      <trkpt lat="45.52086353302002" lon="10.271401405334473">
        <ele>135.33333333333334</ele>
        <time>2017-11-13T12:36:58.522000Z</time>
      </trkpt>
      <trkpt lat="45.52067041397095" lon="10.272560119628906">
        <ele>134.51682548299485</ele>
        <time>2017-11-13T12:36:59.860000Z</time>
      </trkpt>
      <trkpt lat="45.52067049778998" lon="10.272560119628906">
        <ele>134.5168377731362</ele>
        <time>2017-11-13T12:36:59.860000Z</time>
      </trkpt>
      <trkpt lat="45.52056320942938" lon="10.273439884185791">
        <ele>134.94191233572352</ele>
        <time>2017-11-13T12:37:00.863000Z</time>
      </trkpt>
      <trkpt lat="45.520498836413026" lon="10.273997783660889">
        <ele>135.0</ele>
        <time>2017-11-13T12:37:01.498000Z</time>
      </trkpt>
      <trkpt lat="45.52032717503607" lon="10.275371074676514">
        <ele>136.68761741318883</ele>
        <time>2017-11-13T12:37:03.065000Z</time>
      </trkpt>
      <trkpt lat="45.520305717363954" lon="10.275499820709229">
        <ele>136.87934091332298</ele>
        <time>2017-11-13T12:37:03.214000Z</time>
      </trkpt>
      <trkpt lat="45.520241344347596" lon="10.276036262512207">
        <ele>138.66782063168156</ele>
        <time>2017-11-13T12:37:03.825000Z</time>
      </trkpt>
      <trkpt lat="45.52019842900336" lon="10.276336669921875">
        <ele>139.64710466743838</ele>
        <time>2017-11-13T12:37:04.169000Z</time>
      </trkpt>
      <trkpt lat="45.52009114064276" lon="10.277795791625977">
        <ele>148.0</ele>
        <time>2017-11-13T12:37:05.817000Z</time>
      </trkpt>
      <trkpt lat="45.52009114064276" lon="10.277924537658691">
        <ele>147.51931864843075</ele>
        <time>2017-11-13T12:37:05.962000Z</time>
      </trkpt>
      <trkpt lat="45.52006968297064" lon="10.278160572052002">
        <ele>146.63068242001086</ele>
        <time>2017-11-13T12:37:06.229000Z</time>
      </trkpt>
      <trkpt lat="45.520026767626405" lon="10.27897596359253">
        <ele>144.2444535425768</ele>
        <time>2017-11-13T12:37:07.147000Z</time>
      </trkpt>
      <trkpt lat="45.520006740077946" lon="10.279058177859326">
        <ele>143.91947822176905</ele>
        <time>2017-11-13T12:37:07.245000Z</time>
      </trkpt>
      <trkpt lat="45.520005704928785" lon="10.27906242719936">
        <ele>143.90268149040662</ele>
        <time>2017-11-13T12:37:07.250000Z</time>
      </trkpt>
      <trkpt lat="45.520005226135254" lon="10.279064392670989">
        <ele>143.89491240172168</ele>
        <time>2017-11-13T12:37:07.252000Z</time>
      </trkpt>
      <trkpt lat="45.51985510624945" lon="10.279684066772461">
        <ele>136.78026017812599</ele>
        <time>2017-11-13T12:37:07.988000Z</time>
      </trkpt>
      <trkpt lat="45.51968336105347" lon="10.280306339263916">
        <ele>134.88143145499035</ele>
        <time>2017-11-13T12:37:08.739000Z</time>
      </trkpt>
      <trkpt lat="45.5196834448725" lon="10.280306339263916">
        <ele>134.88132183028438</ele>
        <time>2017-11-13T12:37:08.740000Z</time>
      </trkpt>
      <trkpt lat="45.51946886815131" lon="10.281057357788086">
        <ele>133.4714162324547</ele>
        <time>2017-11-13T12:37:09.651000Z</time>
      </trkpt>
      <trkpt lat="45.519232833758" lon="10.281829833984375">
        <ele>132.93523608492382</ele>
        <time>2017-11-13T12:37:10.598000Z</time>
      </trkpt>
      <trkpt lat="45.51921137608588" lon="10.281894207000732">
        <ele>132.91807738898697</ele>
        <time>2017-11-13T12:37:10.678000Z</time>
      </trkpt>
      <trkpt lat="45.5189323425293" lon="10.282859802246094">
        <ele>133.0</ele>
        <time>2017-11-13T12:37:11.851000Z</time>
      </trkpt>
      <trkpt lat="45.51893242634833" lon="10.282859802246094">
        <ele>133.0000263010387</ele>
        <time>2017-11-13T12:37:11.851000Z</time>
      </trkpt>
      <trkpt lat="45.518760764971375" lon="10.283546447753906">
        <ele>132.8269808281744</ele>
        <time>2017-11-13T12:37:12.670000Z</time>
      </trkpt>
      <trkpt lat="45.51871784962714" lon="10.283632278442383">
        <ele>132.85016365953516</ele>
        <time>2017-11-13T12:37:12.788000Z</time>
      </trkpt>
      <trkpt lat="45.51861056126654" lon="10.284039974212646">
        <ele>132.94591358602824</ele>
        <time>2017-11-13T12:37:13.277000Z</time>
      </trkpt>
      <trkpt lat="45.51818140782416" lon="10.28569221496582">
        <ele>134.0</ele>
        <time>2017-11-13T12:37:15.256000Z</time>
      </trkpt>
      <trkpt lat="45.51813849247992" lon="10.285842418670654">
        <ele>134.0494344986857</ele>
        <time>2017-11-13T12:37:15.438000Z</time>
      </trkpt>
      <trkpt lat="45.517988288775086" lon="10.286486148834229">
        <ele>134.25620605267417</ele>
        <time>2017-11-13T12:37:16.200000Z</time>
      </trkpt>
      <trkpt lat="45.51785954274237" lon="10.287044048309326">
        <ele>135.00921332448968</ele>
        <time>2017-11-13T12:37:16.860000Z</time>
      </trkpt>
      <trkpt lat="45.517773712053895" lon="10.287408828735352">
        <ele>135.2841470433548</ele>
        <time>2017-11-13T12:37:17.292000Z</time>
      </trkpt>
      <trkpt lat="45.51745184697211" lon="10.288803577423096">
        <ele>137.0</ele>
        <time>2017-11-13T12:37:18.942000Z</time>
      </trkpt>
      <trkpt lat="45.51743038929999" lon="10.288867950439453">
        <ele>136.98635906722436</ele>
        <time>2017-11-13T12:37:19.022000Z</time>
      </trkpt>
      <trkpt lat="45.51712998189032" lon="10.29017686843872">
        <ele>136.72279601291888</ele>
        <time>2017-11-13T12:37:20.569000Z</time>
      </trkpt>
      <trkpt lat="45.51695832051337" lon="10.290906429290771">
        <ele>136.70511534105088</ele>
        <time>2017-11-13T12:37:21.434000Z</time>
      </trkpt>
      <trkpt lat="45.516293132677674" lon="10.293760299682617">
        <ele>134.0</ele>
        <time>2017-11-13T12:37:24.813000Z</time>
      </trkpt>
      <trkpt lat="45.51612147130072" lon="10.29444694519043">
        <ele>134.0</ele>
        <time>2017-11-13T12:37:25.632000Z</time>
      </trkpt>
      <trkpt lat="45.51594980992377" lon="10.29517650604248">
        <ele>134.28135635672712</ele>
        <time>2017-11-13T12:37:26.497000Z</time>
      </trkpt>
      <trkpt lat="45.51564931869507" lon="10.296549797058105">
        <ele>137.47399722548508</ele>
        <time>2017-11-13T12:37:28.113000Z</time>
      </trkpt>
      <trkpt lat="45.51552057266235" lon="10.29667854309082">
        <ele>136.93520011650546</ele>
        <time>2017-11-13T12:37:28.365000Z</time>
      </trkpt>
      <trkpt lat="45.51547774113715" lon="10.29670000076294">
        <ele>136.97212271828104</ele>
        <time>2017-11-13T12:37:28.438000Z</time>
      </trkpt>
      <trkpt lat="45.51543482579291" lon="10.296850204467773">
        <ele>137.06457432065588</ele>
        <time>2017-11-13T12:37:28.620000Z</time>
      </trkpt>
      <trkpt lat="45.515477657318115" lon="10.29691457748413">
        <ele>137.11516899305886</ele>
        <time>2017-11-13T12:37:28.720000Z</time>
      </trkpt>
      <trkpt lat="45.515499114990234" lon="10.297214984893799">
        <ele>137.2872732687933</ele>
        <time>2017-11-13T12:37:29.059000Z</time>
      </trkpt>
      <trkpt lat="45.51496275700629" lon="10.299510955810547">
        <ele>140.0</ele>
        <time>2017-11-13T12:37:31.778000Z</time>
      </trkpt>
      <trkpt lat="45.514812553301454" lon="10.300133228302002">
        <ele>139.89113013753322</ele>
        <time>2017-11-13T12:37:32.517000Z</time>
      </trkpt>
      <trkpt lat="45.514512145891786" lon="10.30142068862915">
        <ele>139.0</ele>
        <time>2017-11-13T12:37:34.041000Z</time>
      </trkpt>
      <trkpt lat="45.51446923054755" lon="10.301549434661865">
        <ele>139.0</ele>
        <time>2017-11-13T12:37:34.201000Z</time>
      </trkpt>
      <trkpt lat="45.51431902684271" lon="10.302236080169678">
        <ele>140.0</ele>
        <time>2017-11-13T12:37:35.009000Z</time>
      </trkpt>
      <trkpt lat="45.5140829924494" lon="10.3031587600708">
        <ele>139.0</ele>
        <time>2017-11-13T12:37:36.112000Z</time>
      </trkpt>
      <trkpt lat="45.51397570408881" lon="10.303587913513184">
        <ele>138.9660896128963</ele>
        <time>2017-11-13T12:37:36.624000Z</time>
      </trkpt>
      <trkpt lat="45.51367521286011" lon="10.304896831512451">
        <ele>138.53024964118893</ele>
        <time>2017-11-13T12:37:38.171000Z</time>
      </trkpt>
      <trkpt lat="45.51367529667914" lon="10.304896831512451">
        <ele>138.53036881899956</ele>
        <time>2017-11-13T12:37:38.171000Z</time>
      </trkpt>
      <trkpt lat="45.513525092974305" lon="10.305519104003906">
        <ele>139.51945299368666</ele>
        <time>2017-11-13T12:37:38.910000Z</time>
      </trkpt>
      <trkpt lat="45.5134391784668" lon="10.305862426757812">
        <ele>140.21601278545384</ele>
        <time>2017-11-13T12:37:39.320000Z</time>
      </trkpt>
      <trkpt lat="45.51335343159735" lon="10.306077003479004">
        <ele>140.46212615312757</ele>
        <time>2017-11-13T12:37:39.597000Z</time>
      </trkpt>
      <trkpt lat="45.513246059417725" lon="10.306248664855957">
        <ele>141.35922865461893</ele>
        <time>2017-11-13T12:37:39.855000Z</time>
      </trkpt>
      <trkpt lat="45.51316031254828" lon="10.306334495544434">
        <ele>141.37604955682795</ele>
        <time>2017-11-13T12:37:40.023000Z</time>
      </trkpt>
      <trkpt lat="45.51316031254828" lon="10.306570529937744">
        <ele>141.40261282373393</ele>
        <time>2017-11-13T12:37:40.288000Z</time>
      </trkpt>
      <trkpt lat="45.51318168640137" lon="10.306613445281982">
        <ele>141.40853809861295</ele>
        <time>2017-11-13T12:37:40.347000Z</time>
      </trkpt>
      <trkpt lat="45.5131817702204" lon="10.306828022003174">
        <ele>141.4326865176177</ele>
        <time>2017-11-13T12:37:40.588000Z</time>
      </trkpt>
      <trkpt lat="45.51318168640137" lon="10.306956768035889">
        <ele>141.4471755730442</ele>
        <time>2017-11-13T12:37:40.733000Z</time>
      </trkpt>
      <trkpt lat="45.51313885487616" lon="10.307085514068604">
        <ele>141.46321458967782</ele>
        <time>2017-11-13T12:37:40.893000Z</time>
      </trkpt>
      <trkpt lat="45.513031566515565" lon="10.307557582855225">
        <ele>141.5190655747917</ele>
        <time>2017-11-13T12:37:41.451000Z</time>
      </trkpt>
      <trkpt lat="45.51208742894232" lon="10.311613082885742">
        <ele>142.0</ele>
        <time>2017-11-13T12:37:46.252000Z</time>
      </trkpt>
      <trkpt lat="45.51208734512329" lon="10.311613082885742">
        <ele>142.0</ele>
        <time>2017-11-13T12:37:46.252000Z</time>
      </trkpt>
      <trkpt lat="45.512023055925965" lon="10.311827659606934">
        <ele>142.0</ele>
        <time>2017-11-13T12:37:46.514000Z</time>
      </trkpt>
      <trkpt lat="45.51191576756537" lon="10.312364101409912">
        <ele>142.41981724597147</ele>
        <time>2017-11-13T12:37:47.141000Z</time>
      </trkpt>
      <trkpt lat="45.51167964935303" lon="10.31339406967163">
        <ele>143.90200649906603</ele>
        <time>2017-11-13T12:37:48.358000Z</time>
      </trkpt>
      <trkpt lat="45.5111647490412" lon="10.315475463867188">
        <ele>146.0</ele>
        <time>2017-11-13T12:37:50.838000Z</time>
      </trkpt>
      <trkpt lat="45.51116466522217" lon="10.315475463867188">
        <ele>145.99998350194437</ele>
        <time>2017-11-13T12:37:50.838000Z</time>
      </trkpt>
      <trkpt lat="45.51095017232001" lon="10.316376686096191">
        <ele>146.53536840553213</ele>
        <time>2017-11-13T12:37:51.907000Z</time>
      </trkpt>
      <trkpt lat="45.510714054107666" lon="10.317363739013672">
        <ele>145.72484044335175</ele>
        <time>2017-11-13T12:37:53.079000Z</time>
      </trkpt>
      <trkpt lat="45.51054239273071" lon="10.317707061767578">
        <ele>145.12051594941258</ele>
        <time>2017-11-13T12:37:53.553000Z</time>
      </trkpt>
      <trkpt lat="45.510499561205506" lon="10.317728519439697">
        <ele>145.0819682527709</ele>
        <time>2017-11-13T12:37:53.626000Z</time>
      </trkpt>
      <trkpt lat="45.51043518818915" lon="10.31792163848877">
        <ele>144.95470808854756</ele>
        <time>2017-11-13T12:37:53.866000Z</time>
      </trkpt>
      <trkpt lat="45.510478019714355" lon="10.318028926849365">
        <ele>144.88122945464463</ele>
        <time>2017-11-13T12:37:54.005000Z</time>
      </trkpt>
      <trkpt lat="45.51043510437012" lon="10.318522453308105">
        <ele>144.25195492971895</ele>
        <time>2017-11-13T12:37:54.564000Z</time>
      </trkpt>
      <trkpt lat="45.5101562384516" lon="10.319702625274658">
        <ele>144.80593353955132</ele>
        <time>2017-11-13T12:37:55.963000Z</time>
      </trkpt>
      <trkpt lat="45.50981283187866" lon="10.32116174697876">
        <ele>144.0</ele>
        <time>2017-11-13T12:37:57.692000Z</time>
      </trkpt>
      <trkpt lat="45.50966262817383" lon="10.321526527404785">
        <ele>144.0598615069032</ele>
        <time>2017-11-13T12:37:58.167000Z</time>
      </trkpt>
      <trkpt lat="45.50959825515747" lon="10.3216552734375">
        <ele>144.1060404135546</ele>
        <time>2017-11-13T12:37:58.345000Z</time>
      </trkpt>
      <trkpt lat="45.50961971282959" lon="10.321762561798096">
        <ele>144.471950869408</ele>
        <time>2017-11-13T12:37:58.470000Z</time>
      </trkpt>
      <trkpt lat="45.50955533981323" lon="10.322234630584717">
        <ele>144.61237218305632</ele>
        <time>2017-11-13T12:37:59.010000Z</time>
      </trkpt>
      <trkpt lat="45.508267963305116" lon="10.327835083007812">
        <ele>147.0</ele>
        <time>2017-11-13T12:38:05.632000Z</time>
      </trkpt>
      <trkpt lat="45.50770145243382" lon="10.330195196024558">
        <ele>149.0</ele>
        <time>2017-11-13T12:38:08.435000Z</time>
      </trkpt>
      <trkpt lat="45.507700430990376" lon="10.330199451183937">
        <ele>149.0</ele>
        <time>2017-11-13T12:38:08.440000Z</time>
      </trkpt>
      <trkpt lat="45.507701095193624" lon="10.330196684226394">
        <ele>149.00086804661765</ele>
        <time>2017-11-13T12:38:08.443000Z</time>
      </trkpt>
      <trkpt lat="45.507701179012656" lon="10.330196348950267">
        <ele>149.00097369538778</ele>
        <time>2017-11-13T12:38:08.443000Z</time>
      </trkpt>
      <trkpt lat="45.50762423314154" lon="10.330517292022705">
        <ele>149.2365745381882</ele>
        <time>2017-11-13T12:38:08.824000Z</time>
      </trkpt>
      <trkpt lat="45.50762414932251" lon="10.330517292022705">
        <ele>149.23665761034198</ele>
        <time>2017-11-13T12:38:08.825000Z</time>
      </trkpt>
      <trkpt lat="45.50749548710883" lon="10.331075191497803">
        <ele>149.64460031119415</ele>
        <time>2017-11-13T12:38:09.485000Z</time>
      </trkpt>
      <trkpt lat="45.50734528340399" lon="10.331697463989258">
        <ele>150.76839890133695</ele>
        <time>2017-11-13T12:38:10.224000Z</time>
      </trkpt>
      <trkpt lat="45.50732374191284" lon="10.331783294677734">
        <ele>150.83172215518985</ele>
        <time>2017-11-13T12:38:10.326000Z</time>
      </trkpt>
      <trkpt lat="45.50719507969916" lon="10.332319736480713">
        <ele>151.09665446313616</ele>
        <time>2017-11-13T12:38:10.963000Z</time>
      </trkpt>
      <trkpt lat="45.50717362202704" lon="10.33238410949707">
        <ele>151.0975754802633</ele>
        <time>2017-11-13T12:38:11.043000Z</time>
      </trkpt>
      <trkpt lat="45.50717353820801" lon="10.332577228546143">
        <ele>151.76673733678228</ele>
        <time>2017-11-13T12:38:11.260000Z</time>
      </trkpt>
      <trkpt lat="45.50708770751953" lon="10.332856178283691">
        <ele>151.77067357814985</ele>
        <time>2017-11-13T12:38:11.602000Z</time>
      </trkpt>
      <trkpt lat="45.50687620045916" lon="10.333617901418199">
        <ele>151.44792599695913</ele>
        <time>2017-11-13T12:38:12.523000Z</time>
      </trkpt>
      <trkpt lat="45.50687352599279" lon="10.333627533108327">
        <ele>151.44264973412746</ele>
        <time>2017-11-13T12:38:12.535000Z</time>
      </trkpt>
      <trkpt lat="45.50687321461737" lon="10.33362865447998">
        <ele>151.44203544403678</ele>
        <time>2017-11-13T12:38:12.537000Z</time>
      </trkpt>
      <trkpt lat="45.50687313079834" lon="10.33362865447998">
        <ele>151.4419745332296</ele>
        <time>2017-11-13T12:38:12.537000Z</time>
      </trkpt>
      <trkpt lat="45.50863265991211" lon="10.334937572479248">
        <ele>149.0</ele>
        <time>2017-11-13T12:38:15.718000Z</time>
      </trkpt>
      <trkpt lat="45.50891920889853" lon="10.335510587984691">
        <ele>149.08897412280803</ele>
        <time>2017-11-13T12:38:16.509000Z</time>
      </trkpt>
      <trkpt lat="45.50892342624508" lon="10.335519021550406">
        <ele>149.0920699385308</ele>
        <time>2017-11-13T12:38:16.521000Z</time>
      </trkpt>
      <trkpt lat="45.50892426632345" lon="10.335520701482892">
        <ele>149.0926866125672</ele>
        <time>2017-11-13T12:38:16.523000Z</time>
      </trkpt>
      <trkpt lat="45.508924182504416" lon="10.33552061766386">
        <ele>149.09273025402365</ele>
        <time>2017-11-13T12:38:16.523000Z</time>
      </trkpt>
      <trkpt lat="45.50919064320624" lon="10.336053371429443">
        <ele>149.28830624816626</ele>
        <time>2017-11-13T12:38:17.258000Z</time>
      </trkpt>
      <trkpt lat="45.50919055938721" lon="10.336053371429443">
        <ele>149.28834198723405</ele>
        <time>2017-11-13T12:38:17.258000Z</time>
      </trkpt>
      <trkpt lat="45.509727001190186" lon="10.337061882019043">
        <ele>150.0</ele>
        <time>2017-11-13T12:38:18.680000Z</time>
      </trkpt>
      <trkpt lat="45.510851966038516" lon="10.339463126851621">
        <ele>150.0</ele>
        <time>2017-11-13T12:38:21.925000Z</time>
      </trkpt>
      <trkpt lat="45.5108560012036" lon="10.339471740304013">
        <ele>150.0024281849137</ele>
        <time>2017-11-13T12:38:21.937000Z</time>
      </trkpt>
      <trkpt lat="45.5108555406332" lon="10.339470757171512">
        <ele>150.0027053359647</ele>
        <time>2017-11-13T12:38:21.938000Z</time>
      </trkpt>
      <trkpt lat="45.51085537299514" lon="10.339470505714417">
        <ele>150.00278667507442</ele>
        <time>2017-11-13T12:38:21.938000Z</time>
      </trkpt>
      <trkpt lat="45.511958599090576" lon="10.341825485229492">
        <ele>151.0</ele>
        <time>2017-11-13T12:38:25.120000Z</time>
      </trkpt>
      <trkpt lat="45.51341772079468" lon="10.344958305358887">
        <ele>164.0</ele>
        <time>2017-11-13T12:38:29.346000Z</time>
      </trkpt>
      <trkpt lat="45.51416873931885" lon="10.346825122833252">
        <ele>159.0</ele>
        <time>2017-11-13T12:38:31.764000Z</time>
      </trkpt>
      <trkpt lat="45.51442623138428" lon="10.347683429718018">
        <ele>155.11198098301142</ele>
        <time>2017-11-13T12:38:32.813000Z</time>
      </trkpt>
      <trkpt lat="45.514469146728516" lon="10.348005294799805">
        <ele>154.91733068374165</ele>
        <time>2017-11-13T12:38:33.181000Z</time>
      </trkpt>
      <trkpt lat="45.514512062072754" lon="10.348820686340332">
        <ele>154.43154391729195</ele>
        <time>2017-11-13T12:38:34.100000Z</time>
      </trkpt>
      <trkpt lat="45.514512062072754" lon="10.35010814666748">
        <ele>153.0</ele>
        <time>2017-11-13T12:38:35.546000Z</time>
      </trkpt>
      <trkpt lat="45.514490604400635" lon="10.352082252502441">
        <ele>153.78149408230976</ele>
        <time>2017-11-13T12:38:37.764000Z</time>
      </trkpt>
      <trkpt lat="45.5144476890564" lon="10.352253913879395">
        <ele>153.79209425212267</ele>
        <time>2017-11-13T12:38:37.969000Z</time>
      </trkpt>
      <trkpt lat="45.51457651890814" lon="10.352575778961182">
        <ele>154.1469858230457</ele>
        <time>2017-11-13T12:38:38.385000Z</time>
      </trkpt>
      <trkpt lat="45.51447443674998" lon="10.355776530584363">
        <ele>154.0</ele>
        <time>2017-11-13T12:38:41.984000Z</time>
      </trkpt>
      <trkpt lat="45.514474030976295" lon="10.355789247868293">
        <ele>154.0</ele>
        <time>2017-11-13T12:38:41.998000Z</time>
      </trkpt>
      <trkpt lat="45.51447417587042" lon="10.355784706771374">
        <ele>154.00090563654206</ele>
        <time>2017-11-13T12:38:42.003000Z</time>
      </trkpt>
      <trkpt lat="45.51447417587042" lon="10.355784874409437">
        <ele>154.000939034202</ele>
        <time>2017-11-13T12:38:42.003000Z</time>
      </trkpt>
      <trkpt lat="45.51446923054755" lon="10.355944633483887">
        <ele>154.03279804717815</ele>
        <time>2017-11-13T12:38:42.183000Z</time>
      </trkpt>
      <trkpt lat="45.5144476890564" lon="10.356330871582031">
        <ele>154.10998963734627</ele>
        <time>2017-11-13T12:38:42.618000Z</time>
      </trkpt>
      <trkpt lat="45.514533603563905" lon="10.35635232925415">
        <ele>154.13478731101299</ele>
        <time>2017-11-13T12:38:42.758000Z</time>
      </trkpt>
      <trkpt lat="45.51468372344971" lon="10.356245040893555">
        <ele>154.18252102891896</ele>
        <time>2017-11-13T12:38:43.027000Z</time>
      </trkpt>
      <trkpt lat="45.51470526494086" lon="10.356287956237793">
        <ele>154.2075199458193</ele>
        <time>2017-11-13T12:38:43.086000Z</time>
      </trkpt>
      <trkpt lat="45.514705181121826" lon="10.356802940368652">
        <ele>154.11805974255378</ele>
        <time>2017-11-13T12:38:43.665000Z</time>
      </trkpt>
      <trkpt lat="45.514769554138184" lon="10.357167720794678">
        <ele>154.2961967750778</ele>
        <time>2017-11-13T12:38:44.088000Z</time>
      </trkpt>
      <trkpt lat="45.514748096466064" lon="10.357253551483154">
        <ele>154.33935162443927</ele>
        <time>2017-11-13T12:38:44.190000Z</time>
      </trkpt>
      <trkpt lat="45.514769554138184" lon="10.358648300170898">
        <ele>156.0</ele>
        <time>2017-11-13T12:38:45.757000Z</time>
      </trkpt>
      <trkpt lat="45.51485538482666" lon="10.35886287689209">
        <ele>155.90740289093318</ele>
        <time>2017-11-13T12:38:46.035000Z</time>
      </trkpt>
      <trkpt lat="45.5146408919245" lon="10.358905792236328">
        <ele>155.79156270264153</ele>
        <time>2017-11-13T12:38:46.382000Z</time>
      </trkpt>
      <trkpt lat="45.51446923054755" lon="10.358905792236328">
        <ele>155.69975226376718</ele>
        <time>2017-11-13T12:38:46.657000Z</time>
      </trkpt>
      <trkpt lat="45.5144476890564" lon="10.358905792236328">
        <ele>155.68823112959203</ele>
        <time>2017-11-13T12:38:46.692000Z</time>
      </trkpt>
      <trkpt lat="45.51440477371216" lon="10.361630916595459">
        <ele>154.0</ele>
        <time>2017-11-13T12:38:49.754000Z</time>
      </trkpt>
      <trkpt lat="45.51429748535156" lon="10.36285400390625">
        <ele>155.4609314741178</ele>
        <time>2017-11-13T12:38:51.139000Z</time>
      </trkpt>
      <trkpt lat="45.51440477371216" lon="10.36334753036499">
        <ele>154.84775498875894</ele>
        <time>2017-11-13T12:38:51.719000Z</time>
      </trkpt>
      <trkpt lat="45.51453351974487" lon="10.3635835647583">
        <ele>154.89997345123442</ele>
        <time>2017-11-13T12:38:52.055000Z</time>
      </trkpt>
      <trkpt lat="45.51704903666604" lon="10.366113418604446">
        <ele>156.0</ele>
        <time>2017-11-13T12:38:56.988000Z</time>
      </trkpt>
      <trkpt lat="45.517061549226575" lon="10.366126003184744">
        <ele>156.0</ele>
        <time>2017-11-13T12:38:57.013000Z</time>
      </trkpt>
      <trkpt lat="45.51706292666495" lon="10.366127388551831">
        <ele>156.00038074143848</ele>
        <time>2017-11-13T12:38:57.016000Z</time>
      </trkpt>
      <trkpt lat="45.517062759026885" lon="10.3661273047328">
        <ele>156.0004610551844</ele>
        <time>2017-11-13T12:38:57.016000Z</time>
      </trkpt>
      <trkpt lat="45.5182671546936" lon="10.36733865737915">
        <ele>157.0</ele>
        <time>2017-11-13T12:38:59.378000Z</time>
      </trkpt>
      <trkpt lat="45.51936149597168" lon="10.368947982788086">
        <ele>155.97937840087818</ele>
        <time>2017-11-13T12:39:01.897000Z</time>
      </trkpt>
      <trkpt lat="45.5217004660517" lon="10.37257432937622">
        <ele>160.0</ele>
        <time>2017-11-13T12:39:07.433000Z</time>
      </trkpt>
      <trkpt lat="45.521700382232666" lon="10.37257432937622">
        <ele>160.0</ele>
        <time>2017-11-13T12:39:07.433000Z</time>
      </trkpt>
      <trkpt lat="45.521957874298096" lon="10.372745990753174">
        <ele>160.0908262683075</ele>
        <time>2017-11-13T12:39:07.889000Z</time>
      </trkpt>
      <trkpt lat="45.52236557006836" lon="10.372660160064697">
        <ele>160.38698927905844</ele>
        <time>2017-11-13T12:39:08.550000Z</time>
      </trkpt>
      <trkpt lat="45.522751808166504" lon="10.372660160064697">
        <ele>160.99789482841427</ele>
        <time>2017-11-13T12:39:09.169000Z</time>
      </trkpt>
      <trkpt lat="45.52277326583862" lon="10.372703075408936">
        <ele>161.02444127658853</ele>
        <time>2017-11-13T12:39:09.228000Z</time>
      </trkpt>
      <trkpt lat="45.522751808166504" lon="10.372874736785889">
        <ele>161.08052209230712</ele>
        <time>2017-11-13T12:39:09.424000Z</time>
      </trkpt>
      <trkpt lat="45.52281626500189" lon="10.37407636642456">
        <ele>161.80144947956487</ele>
        <time>2017-11-13T12:39:10.778000Z</time>
      </trkpt>
      <trkpt lat="45.52273043431342" lon="10.374226570129395">
        <ele>161.8322550734872</ele>
        <time>2017-11-13T12:39:10.996000Z</time>
      </trkpt>
      <trkpt lat="45.522751891985536" lon="10.374312400817871">
        <ele>161.84673887690388</ele>
        <time>2017-11-13T12:39:11.098000Z</time>
      </trkpt>
      <trkpt lat="45.522751808166504" lon="10.374312400817871">
        <ele>161.84675789084767</ele>
        <time>2017-11-13T12:39:11.098000Z</time>
      </trkpt>
      <trkpt lat="45.52464008331299" lon="10.378711223602295">
        <ele>163.0</ele>
        <time>2017-11-13T12:39:16.892000Z</time>
      </trkpt>
      <trkpt lat="45.52642107009888" lon="10.38257360458374">
        <ele>166.0</ele>
        <time>2017-11-13T12:39:22.085000Z</time>
      </trkpt>
      <trkpt lat="45.526485526934266" lon="10.382938385009766">
        <ele>166.0</ele>
        <time>2017-11-13T12:39:22.508000Z</time>
      </trkpt>
      <trkpt lat="45.526485443115234" lon="10.382938385009766">
        <ele>165.99999139429266</ele>
        <time>2017-11-13T12:39:22.508000Z</time>
      </trkpt>
      <trkpt lat="45.52781581878662" lon="10.387165546417236">
        <ele>165.0</ele>
        <time>2017-11-13T12:39:27.713000Z</time>
      </trkpt>
      <trkpt lat="45.52809476852417" lon="10.387766361236572">
        <ele>166.0</ele>
        <time>2017-11-13T12:39:28.523000Z</time>
      </trkpt>
      <trkpt lat="45.52841663360596" lon="10.389096736907959">
        <ele>167.33333333333334</ele>
        <time>2017-11-13T12:39:30.104000Z</time>
      </trkpt>
      <trkpt lat="45.52906036376953" lon="10.390727519989014">
        <ele>166.0</ele>
        <time>2017-11-13T12:39:32.206000Z</time>
      </trkpt>
      <trkpt lat="45.53090572357178" lon="10.39607048034668">
        <ele>172.0</ele>
        <time>2017-11-13T12:39:38.896000Z</time>
      </trkpt>
      <trkpt lat="45.53090572357178" lon="10.396199226379395">
        <ele>172.0</ele>
        <time>2017-11-13T12:39:39.041000Z</time>
      </trkpt>
      <trkpt lat="45.53103446960449" lon="10.396456718444824">
        <ele>172.0</ele>
        <time>2017-11-13T12:39:39.396000Z</time>
      </trkpt>
      <trkpt lat="45.53154953755438" lon="10.397958755493164">
        <ele>172.0</ele>
        <time>2017-11-13T12:39:41.274000Z</time>
      </trkpt>
      <trkpt lat="45.53281545639038" lon="10.401585102081299">
        <ele>174.0</ele>
        <time>2017-11-13T12:39:45.824000Z</time>
      </trkpt>
      <trkpt lat="45.53303003311157" lon="10.402164459228516">
        <ele>174.09950570047036</ele>
        <time>2017-11-13T12:39:46.560000Z</time>
      </trkpt>
      <trkpt lat="45.5333948135376" lon="10.402872562408447">
        <ele>174.23296361198823</ele>
        <time>2017-11-13T12:39:47.547000Z</time>
      </trkpt>
      <trkpt lat="45.53358793258667" lon="10.403473377227783">
        <ele>175.0</ele>
        <time>2017-11-13T12:39:48.289000Z</time>
      </trkpt>
      <trkpt lat="45.53410291671753" lon="10.404610633850098">
        <ele>175.22559985556805</ele>
        <time>2017-11-13T12:39:49.810000Z</time>
      </trkpt>
      <trkpt lat="45.53433895111084" lon="10.405662059783936">
        <ele>176.07620148035278</ele>
        <time>2017-11-13T12:39:51.050000Z</time>
      </trkpt>
      <trkpt lat="45.53483247756958" lon="10.40703535079956">
        <ele>177.0</ele>
        <time>2017-11-13T12:39:52.783000Z</time>
      </trkpt>
      <trkpt lat="45.53508996963501" lon="10.407636165618896">
        <ele>177.78019809055763</ele>
        <time>2017-11-13T12:39:53.574000Z</time>
      </trkpt>
      <trkpt lat="45.535433292388916" lon="10.408129692077637">
        <ele>177.8923117326091</ele>
        <time>2017-11-13T12:39:54.355000Z</time>
      </trkpt>
      <trkpt lat="45.535712242126465" lon="10.408666133880615">
        <ele>178.0</ele>
        <time>2017-11-13T12:39:55.105000Z</time>
      </trkpt>
      <trkpt lat="45.53601264953613" lon="10.4095458984375">
        <ele>178.0707469523173</ele>
        <time>2017-11-13T12:39:56.204000Z</time>
      </trkpt>
      <trkpt lat="45.53646334446967" lon="10.410597324371338">
        <ele>178.27295875770585</ele>
        <time>2017-11-13T12:39:57.588000Z</time>
      </trkpt>
      <trkpt lat="45.53704261779785" lon="10.412850379943848">
        <ele>179.0</ele>
        <time>2017-11-13T12:40:00.283000Z</time>
      </trkpt>
      <trkpt lat="45.53730010986328" lon="10.414073467254639">
        <ele>180.87541014785347</ele>
        <time>2017-11-13T12:40:01.717000Z</time>
      </trkpt>
      <trkpt lat="45.537772262468934" lon="10.415811538696289">
        <ele>183.0</ele>
        <time>2017-11-13T12:40:03.810000Z</time>
      </trkpt>
      <trkpt lat="45.5377721786499" lon="10.415811538696289">
        <ele>183.0000365609557</ele>
        <time>2017-11-13T12:40:03.810000Z</time>
      </trkpt>
      <trkpt lat="45.53858765400946" lon="10.417656898498535">
        <ele>184.0</ele>
        <time>2017-11-13T12:40:06.260000Z</time>
      </trkpt>
      <trkpt lat="45.53867348469794" lon="10.41780710220337">
        <ele>183.94131851613213</ele>
        <time>2017-11-13T12:40:06.478000Z</time>
      </trkpt>
      <trkpt lat="45.53925275802612" lon="10.419116020202637">
        <ele>182.80595611681815</ele>
        <time>2017-11-13T12:40:08.217000Z</time>
      </trkpt>
      <trkpt lat="45.539467334747314" lon="10.419459342956543">
        <ele>182.41285745147175</ele>
        <time>2017-11-13T12:40:08.734000Z</time>
      </trkpt>
      <trkpt lat="45.54335125721991" lon="10.424137115478516">
        <ele>187.0</ele>
        <time>2017-11-13T12:40:16.880000Z</time>
      </trkpt>
      <trkpt lat="45.54335117340088" lon="10.424137115478516">
        <ele>187.0</ele>
        <time>2017-11-13T12:40:16.880000Z</time>
      </trkpt>
      <trkpt lat="45.5462934960084" lon="10.426476281630862">
        <ele>191.0</ele>
        <time>2017-11-13T12:40:22.279000Z</time>
      </trkpt>
      <trkpt lat="45.54630687014185" lon="10.42648691480214">
        <ele>190.98261079372102</ele>
        <time>2017-11-13T12:40:22.304000Z</time>
      </trkpt>
      <trkpt lat="45.54630906321108" lon="10.426488658413291">
        <ele>190.97975933900898</ele>
        <time>2017-11-13T12:40:22.308000Z</time>
      </trkpt>
      <trkpt lat="45.54630889557302" lon="10.426488490775228">
        <ele>190.9795268474439</ele>
        <time>2017-11-13T12:40:22.308000Z</time>
      </trkpt>
      <trkpt lat="45.54680585861206" lon="10.426883697509766">
        <ele>189.0</ele>
        <time>2017-11-13T12:40:23.220000Z</time>
      </trkpt>
      <trkpt lat="45.54691323079169" lon="10.426948070526123">
        <ele>188.97752582641837</ele>
        <time>2017-11-13T12:40:23.407000Z</time>
      </trkpt>
      <trkpt lat="45.549702644348145" lon="10.429565906524658">
        <ele>188.0</ele>
        <time>2017-11-13T12:40:28.758000Z</time>
      </trkpt>
      <trkpt lat="45.55126913823187" lon="10.430939197540283">
        <ele>192.0</ele>
        <time>2017-11-13T12:40:31.705000Z</time>
      </trkpt>
      <trkpt lat="45.55126905441284" lon="10.430939197540283">
        <ele>191.99996890785542</ele>
        <time>2017-11-13T12:40:31.705000Z</time>
      </trkpt>
      <trkpt lat="45.55206298828125" lon="10.43154001235962">
        <ele>191.0</ele>
        <time>2017-11-13T12:40:33.145000Z</time>
      </trkpt>
      <trkpt lat="45.55489540100098" lon="10.433406829833984">
        <ele>188.0</ele>
        <time>2017-11-13T12:40:38.146000Z</time>
      </trkpt>
      <trkpt lat="45.55910110473633" lon="10.436303615570068">
        <ele>191.0</ele>
        <time>2017-11-13T12:40:45.632000Z</time>
      </trkpt>
      <trkpt lat="45.56036710739136" lon="10.437376499176025">
        <ele>194.0</ele>
        <time>2017-11-13T12:40:47.992000Z</time>
      </trkpt>
      <trkpt lat="45.56113958358765" lon="10.43825626373291">
        <ele>189.0</ele>
        <time>2017-11-13T12:40:49.576000Z</time>
      </trkpt>
      <trkpt lat="45.56330680847168" lon="10.440530776977539">
        <ele>190.0</ele>
        <time>2017-11-13T12:40:53.887000Z</time>
      </trkpt>
      <trkpt lat="45.563907623291016" lon="10.441088676452637">
        <ele>190.0</ele>
        <time>2017-11-13T12:40:55.036000Z</time>
      </trkpt>
      <trkpt lat="45.56440123356879" lon="10.441367626190186">
        <ele>192.2172912992602</ele>
        <time>2017-11-13T12:40:55.887000Z</time>
      </trkpt>
      <trkpt lat="45.564401149749756" lon="10.441367626190186">
        <ele>192.21732560930786</ele>
        <time>2017-11-13T12:40:55.887000Z</time>
      </trkpt>
      <trkpt lat="45.565452575683594" lon="10.441818237304688">
        <ele>192.0</ele>
        <time>2017-11-13T12:40:57.647000Z</time>
      </trkpt>
      <trkpt lat="45.56809186935425" lon="10.442032814025879">
        <ele>192.0</ele>
        <time>2017-11-13T12:41:01.885000Z</time>
      </trkpt>
      <trkpt lat="45.56907892227173" lon="10.441968441009521">
        <ele>193.77952530195705</ele>
        <time>2017-11-13T12:41:03.469000Z</time>
      </trkpt>
      <trkpt lat="45.57101011276245" lon="10.441453456878662">
        <ele>196.0</ele>
        <time>2017-11-13T12:41:06.618000Z</time>
      </trkpt>
      <trkpt lat="45.571932876482606" lon="10.441303253173828">
        <ele>195.0</ele>
        <time>2017-11-13T12:41:08.107000Z</time>
      </trkpt>
      <trkpt lat="45.57281255722046" lon="10.441131591796875">
        <ele>194.82663080739425</ele>
        <time>2017-11-13T12:41:09.530000Z</time>
      </trkpt>
      <trkpt lat="45.57324171066284" lon="10.440981388092041">
        <ele>194.74035223970694</ele>
        <time>2017-11-13T12:41:10.238000Z</time>
      </trkpt>
      <trkpt lat="45.57525873184204" lon="10.440230369567871">
        <ele>193.0</ele>
        <time>2017-11-13T12:41:13.580000Z</time>
      </trkpt>
      <trkpt lat="45.57543581566973" lon="10.440138310474804">
        <ele>193.0</ele>
        <time>2017-11-13T12:41:13.882000Z</time>
      </trkpt>
      <trkpt lat="45.57545020048411" lon="10.440130832334079">
        <ele>193.0</ele>
        <time>2017-11-13T12:41:13.907000Z</time>
      </trkpt>
      <trkpt lat="45.575452856719494" lon="10.440129451453686">
        <ele>193.0</ele>
        <time>2017-11-13T12:41:13.911000Z</time>
      </trkpt>
      <trkpt lat="45.57545277290046" lon="10.44012961909175">
        <ele>193.0</ele>
        <time>2017-11-13T12:41:13.911000Z</time>
      </trkpt>
      <trkpt lat="45.57579525746405" lon="10.439951419830322">
        <ele>195.0</ele>
        <time>2017-11-13T12:41:14.495000Z</time>
      </trkpt>
      <trkpt lat="45.575902462005615" lon="10.439929962158203">
        <ele>193.77479590126265</ele>
        <time>2017-11-13T12:41:14.669000Z</time>
      </trkpt>
      <trkpt lat="45.57626724243164" lon="10.439822673797607">
        <ele>193.2678553029599</ele>
        <time>2017-11-13T12:41:15.266000Z</time>
      </trkpt>
      <trkpt lat="45.576159954071045" lon="10.439457893371582">
        <ele>193.68115566760537</ele>
        <time>2017-11-13T12:41:15.710000Z</time>
      </trkpt>
      <trkpt lat="45.57616003789008" lon="10.439457893371582">
        <ele>193.68128074997136</ele>
        <time>2017-11-13T12:41:15.710000Z</time>
      </trkpt>
      <trkpt lat="45.57585954666138" lon="10.438363552093506">
        <ele>195.9091837258915</ele>
        <time>2017-11-13T12:41:17.029000Z</time>
      </trkpt>
      <trkpt lat="45.575687885284424" lon="10.43750524520874">
        <ele>197.17494246228216</ele>
        <time>2017-11-13T12:41:18.031000Z</time>
      </trkpt>
      <trkpt lat="45.57573080062866" lon="10.43750524520874">
        <ele>197.243595309507</ele>
        <time>2017-11-13T12:41:18.100000Z</time>
      </trkpt>
      <trkpt lat="45.57579517364502" lon="10.43726921081543">
        <ele>197.8605823829197</ele>
        <time>2017-11-13T12:41:18.384000Z</time>
      </trkpt>
      <trkpt lat="45.575881004333496" lon="10.437097549438477">
        <ele>198.3701795630782</ele>
        <time>2017-11-13T12:41:18.621000Z</time>
      </trkpt>
      <trkpt lat="45.57609558105469" lon="10.436947345733643">
        <ele>198.655410010598</ele>
        <time>2017-11-13T12:41:19.004000Z</time>
      </trkpt>
      <trkpt lat="45.57616003789008" lon="10.436947345733643">
        <ele>198.73235113785987</ele>
        <time>2017-11-13T12:41:19.107000Z</time>
      </trkpt>
      <trkpt lat="45.57624586857855" lon="10.436947345733643">
        <ele>198.83480590290037</ele>
        <time>2017-11-13T12:41:19.245000Z</time>
      </trkpt>
      <trkpt lat="45.57645360576244" lon="10.436969529007424">
        <ele>199.01535771342003</ele>
        <time>2017-11-13T12:41:19.579000Z</time>
      </trkpt>
      <trkpt lat="45.57646887077932" lon="10.436971159093096">
        <ele>199.02862508540315</ele>
        <time>2017-11-13T12:41:19.604000Z</time>
      </trkpt>
      <trkpt lat="45.57647192850709" lon="10.436971485614777">
        <ele>199.03128266593754</ele>
        <time>2017-11-13T12:41:19.609000Z</time>
      </trkpt>
      <trkpt lat="45.57647184468806" lon="10.436971485614777">
        <ele>199.03135531340163</ele>
        <time>2017-11-13T12:41:19.610000Z</time>
      </trkpt>
      <trkpt lat="45.57684668339789" lon="10.43701171875">
        <ele>200.02381701919822</ele>
        <time>2017-11-13T12:41:20.213000Z</time>
      </trkpt>
      <trkpt lat="45.57703980244696" lon="10.43703317642212">
        <ele>200.19170221256786</ele>
        <time>2017-11-13T12:41:20.524000Z</time>
      </trkpt>
      <trkpt lat="45.577447498217225" lon="10.437054634094238">
        <ele>200.5452991739969</ele>
        <time>2017-11-13T12:41:21.178000Z</time>
      </trkpt>
      <trkpt lat="45.57749041356146" lon="10.437054634094238">
        <ele>200.54100384977383</ele>
        <time>2017-11-13T12:41:21.247000Z</time>
      </trkpt>
      <trkpt lat="45.57783373631537" lon="10.437097549438477">
        <ele>200.17317665676578</ele>
        <time>2017-11-13T12:41:21.799000Z</time>
      </trkpt>
      <trkpt lat="45.577962482348084" lon="10.437097549438477">
        <ele>200.15694025093407</ele>
        <time>2017-11-13T12:41:22.005000Z</time>
      </trkpt>
      <trkpt lat="45.57905682362616" lon="10.437204837799072">
        <ele>199.6852728849483</ele>
        <time>2017-11-13T12:41:23.764000Z</time>
      </trkpt>
      <trkpt lat="45.579443061724305" lon="10.437226295471191">
        <ele>200.48224786969345</ele>
        <time>2017-11-13T12:41:24.384000Z</time>
      </trkpt>
      <trkpt lat="45.579679096117616" lon="10.43724775314331">
        <ele>200.7659430242401</ele>
        <time>2017-11-13T12:41:24.763000Z</time>
      </trkpt>
      <trkpt lat="45.58015116490424" lon="10.437290668487549">
        <ele>202.0</ele>
        <time>2017-11-13T12:41:25.521000Z</time>
      </trkpt>
      <trkpt lat="45.580451572313905" lon="10.437312126159668">
        <ele>203.1177456126924</ele>
        <time>2017-11-13T12:41:26.003000Z</time>
      </trkpt>
      <trkpt lat="45.58045148849487" lon="10.437312126159668">
        <ele>203.1180570946719</ele>
        <time>2017-11-13T12:41:26.003000Z</time>
      </trkpt>
      <trkpt lat="45.58075197972357" lon="10.437333583831787">
        <ele>204.2361137860253</ele>
        <time>2017-11-13T12:41:26.485000Z</time>
      </trkpt>
      <trkpt lat="45.58090218342841" lon="10.437355041503906">
        <ele>207.13040598074733</ele>
        <time>2017-11-13T12:41:26.727000Z</time>
      </trkpt>
      <trkpt lat="45.581224048510194" lon="10.437376499176025">
        <ele>208.32779810247314</ele>
        <time>2017-11-13T12:41:27.244000Z</time>
      </trkpt>
      <trkpt lat="45.581460082903504" lon="10.437376499176025">
        <ele>209.2049313567393</ele>
        <time>2017-11-13T12:41:27.622000Z</time>
      </trkpt>
      <trkpt lat="45.58163174428046" lon="10.437355041503906">
        <ele>209.43221103072946</ele>
        <time>2017-11-13T12:41:27.898000Z</time>
      </trkpt>
      <trkpt lat="45.581674659624696" lon="10.437355041503906">
        <ele>210.8221480760307</ele>
        <time>2017-11-13T12:41:27.967000Z</time>
      </trkpt>
      <trkpt lat="45.58203944005072" lon="10.437290668487549">
        <ele>211.30693554285995</ele>
        <time>2017-11-13T12:41:28.556000Z</time>
      </trkpt>
      <trkpt lat="45.58203935623169" lon="10.437290668487549">
        <ele>211.30682066260633</ele>
        <time>2017-11-13T12:41:28.556000Z</time>
      </trkpt>
      <trkpt lat="45.58253288269043" lon="10.437204837799072">
        <ele>208.62541343934208</ele>
        <time>2017-11-13T12:41:29.353000Z</time>
      </trkpt>
      <trkpt lat="45.58306932449341" lon="10.43701171875">
        <ele>208.31618671593537</ele>
        <time>2017-11-13T12:41:30.240000Z</time>
      </trkpt>
      <trkpt lat="45.584163749590516" lon="10.436453819274902">
        <ele>208.0</ele>
        <time>2017-11-13T12:41:32.103000Z</time>
      </trkpt>
      <trkpt lat="45.58439978398383" lon="10.436389446258545">
        <ele>205.35611527078447</ele>
        <time>2017-11-13T12:41:32.488000Z</time>
      </trkpt>
      <trkpt lat="45.58450707234442" lon="10.436389446258545">
        <ele>205.06863029921297</ele>
        <time>2017-11-13T12:41:32.660000Z</time>
      </trkpt>
      <trkpt lat="45.584687261073334" lon="10.436494588223479">
        <ele>204.5470966023231</ele>
        <time>2017-11-13T12:41:32.972000Z</time>
      </trkpt>
      <trkpt lat="45.58470143253497" lon="10.436502857447236">
        <ele>204.506079061867</ele>
        <time>2017-11-13T12:41:32.997000Z</time>
      </trkpt>
      <trkpt lat="45.58470429852605" lon="10.43650452978909">
        <ele>204.49778380538154</ele>
        <time>2017-11-13T12:41:33.002000Z</time>
      </trkpt>
      <trkpt lat="45.58470421470702" lon="10.436504362151027">
        <ele>204.49739744634667</ele>
        <time>2017-11-13T12:41:33.002000Z</time>
      </trkpt>
      <trkpt lat="45.585114746548264" lon="10.436378970553275">
        <ele>203.37250335179132</ele>
        <time>2017-11-13T12:41:33.675000Z</time>
      </trkpt>
      <trkpt lat="45.58512971596348" lon="10.436374398305112">
        <ele>203.36584975369013</ele>
        <time>2017-11-13T12:41:33.700000Z</time>
      </trkpt>
      <trkpt lat="45.58513313824811" lon="10.436373353004456">
        <ele>203.36432861833342</ele>
        <time>2017-11-13T12:41:33.706000Z</time>
      </trkpt>
      <trkpt lat="45.585462628257275" lon="10.43609189465268">
        <ele>203.19747154531842</ele>
        <time>2017-11-13T12:41:34.321000Z</time>
      </trkpt>
      <trkpt lat="45.58547576698803" lon="10.436080671149691">
        <ele>203.19081794699028</ele>
        <time>2017-11-13T12:41:34.346000Z</time>
      </trkpt>
      <trkpt lat="45.58547853103871" lon="10.436078310012817">
        <ele>203.18941820109976</ele>
        <time>2017-11-13T12:41:34.351000Z</time>
      </trkpt>
      <trkpt lat="45.5860156864619" lon="10.435896797401513">
        <ele>201.94949844891525</ele>
        <time>2017-11-13T12:41:35.236000Z</time>
      </trkpt>
      <trkpt lat="45.586030583175436" lon="10.435891763534974">
        <ele>201.9428448482449</ele>
        <time>2017-11-13T12:41:35.261000Z</time>
      </trkpt>
      <trkpt lat="45.58603415846018" lon="10.435890555381775">
        <ele>201.9412479512354</ele>
        <time>2017-11-13T12:41:35.267000Z</time>
      </trkpt>
      <trkpt lat="45.58605194091797" lon="10.435895919799805">
        <ele>201.9333482570023</ele>
        <time>2017-11-13T12:41:35.296000Z</time>
      </trkpt>
      <trkpt lat="45.586052024737" lon="10.435895919799805">
        <ele>201.9333118242417</ele>
        <time>2017-11-13T12:41:35.296000Z</time>
      </trkpt>
      <trkpt lat="45.586609840393066" lon="10.43553113937378">
        <ele>203.0</ele>
        <time>2017-11-13T12:41:36.279000Z</time>
      </trkpt>
      <trkpt lat="45.58718919754028" lon="10.43553113937378">
        <ele>203.44008284349877</ele>
        <time>2017-11-13T12:41:37.208000Z</time>
      </trkpt>
      <trkpt lat="45.58723219670355" lon="10.435552597045898">
        <ele>203.47467972531535</ele>
        <time>2017-11-13T12:41:37.281000Z</time>
      </trkpt>
      <trkpt lat="45.58768272399902" lon="10.435616970062256">
        <ele>204.48527600205878</ele>
        <time>2017-11-13T12:41:38.007000Z</time>
      </trkpt>
      <trkpt lat="45.58781045510352" lon="10.435713319179788">
        <ele>204.4682179453179</ele>
        <time>2017-11-13T12:41:38.239000Z</time>
      </trkpt>
      <trkpt lat="45.58782399234415" lon="10.435723530513439">
        <ele>204.46641009161078</ele>
        <time>2017-11-13T12:41:38.264000Z</time>
      </trkpt>
      <trkpt lat="45.587843069806695" lon="10.435737920925021">
        <ele>204.46386235941313</ele>
        <time>2017-11-13T12:41:38.299000Z</time>
      </trkpt>
      <trkpt lat="45.58784290216863" lon="10.435737753286958">
        <ele>204.46383819457074</ele>
        <time>2017-11-13T12:41:38.299000Z</time>
      </trkpt>
      <trkpt lat="45.58881998062134" lon="10.436475276947021">
        <ele>204.0</ele>
        <time>2017-11-13T12:41:40.071000Z</time>
      </trkpt>
      <trkpt lat="45.58929213322699" lon="10.436904430389404">
        <ele>204.6362906370247</ele>
        <time>2017-11-13T12:41:40.968000Z</time>
      </trkpt>
      <trkpt lat="45.58929204940796" lon="10.436904430389404">
        <ele>204.63633601743712</ele>
        <time>2017-11-13T12:41:40.969000Z</time>
      </trkpt>
      <trkpt lat="45.59083700180054" lon="10.43849229812622">
        <ele>206.0</ele>
        <time>2017-11-13T12:41:44.020000Z</time>
      </trkpt>
      <trkpt lat="45.59120178222656" lon="10.438921451568604">
        <ele>206.65344767789193</ele>
        <time>2017-11-13T12:41:44.777000Z</time>
      </trkpt>
      <trkpt lat="45.59130907058716" lon="10.439071655273438">
        <ele>206.43920962291915</ele>
        <time>2017-11-13T12:41:45.018000Z</time>
      </trkpt>
      <trkpt lat="45.591499952448466" lon="10.439379236496656">
        <ele>204.69552336356844</ele>
        <time>2017-11-13T12:41:45.479000Z</time>
      </trkpt>
      <trkpt lat="45.59151010919085" lon="10.439395602858147">
        <ele>204.6736885901129</ele>
        <time>2017-11-13T12:41:45.504000Z</time>
      </trkpt>
      <trkpt lat="45.5915243178606" lon="10.439418498426676">
        <ele>204.64314304313714</ele>
        <time>2017-11-13T12:41:45.538000Z</time>
      </trkpt>
      <trkpt lat="45.59152423404157" lon="10.43941824696958">
        <ele>204.64357336882253</ele>
        <time>2017-11-13T12:41:45.538000Z</time>
      </trkpt>
      <trkpt lat="45.5916953086853" lon="10.439693927764893">
        <ele>208.21285123855046</ele>
        <time>2017-11-13T12:41:45.951000Z</time>
      </trkpt>
      <trkpt lat="45.59178113937378" lon="10.439844131469727">
        <ele>208.29225818078325</ele>
        <time>2017-11-13T12:41:46.169000Z</time>
      </trkpt>
      <trkpt lat="45.59182405471802" lon="10.439865589141846">
        <ele>208.3188635119225</ele>
        <time>2017-11-13T12:41:46.242000Z</time>
      </trkpt>
      <trkpt lat="45.592103004455566" lon="10.440123081207275">
        <ele>206.17985354093307</ele>
        <time>2017-11-13T12:41:46.774000Z</time>
      </trkpt>
      <trkpt lat="45.59212454594672" lon="10.440144538879395">
        <ele>206.19521894301297</ele>
        <time>2017-11-13T12:41:46.816000Z</time>
      </trkpt>
      <trkpt lat="45.592191664577015" lon="10.440194863776837">
        <ele>206.2395721555512</ele>
        <time>2017-11-13T12:41:46.938000Z</time>
      </trkpt>
      <trkpt lat="45.59220521976417" lon="10.440205027341202">
        <ele>206.2485296726376</ele>
        <time>2017-11-13T12:41:46.963000Z</time>
      </trkpt>
      <trkpt lat="45.59222470968962" lon="10.440219640731812">
        <ele>206.26140897488952</ele>
        <time>2017-11-13T12:41:46.998000Z</time>
      </trkpt>
      <trkpt lat="45.592224542051554" lon="10.440219473093748">
        <ele>206.26152870286748</ele>
        <time>2017-11-13T12:41:46.998000Z</time>
      </trkpt>
      <trkpt lat="45.59229620732367" lon="10.44027328491211">
        <ele>206.30890122720152</ele>
        <time>2017-11-13T12:41:47.128000Z</time>
      </trkpt>
      <trkpt lat="45.592446411028504" lon="10.440359115600586">
        <ele>206.40356148337796</ele>
        <time>2017-11-13T12:41:47.387000Z</time>
      </trkpt>
      <trkpt lat="45.59244632720947" lon="10.440359115600586">
        <ele>206.40361053139142</ele>
        <time>2017-11-13T12:41:47.387000Z</time>
      </trkpt>
      <trkpt lat="45.592896938323975" lon="10.44050931930542">
        <ele>207.34103740766207</ele>
        <time>2017-11-13T12:41:48.129000Z</time>
      </trkpt>
      <trkpt lat="45.59303512489906" lon="10.440516630411043">
        <ele>207.3406587030577</ele>
        <time>2017-11-13T12:41:48.351000Z</time>
      </trkpt>
      <trkpt lat="45.59305042208811" lon="10.440517439749236">
        <ele>207.3406167806355</ele>
        <time>2017-11-13T12:41:48.376000Z</time>
      </trkpt>
      <trkpt lat="45.59307279065251" lon="10.44051862321794">
        <ele>207.3405554788892</ele>
        <time>2017-11-13T12:41:48.412000Z</time>
      </trkpt>
      <trkpt lat="45.59307270683348" lon="10.44051862321794">
        <ele>207.34055524933783</ele>
        <time>2017-11-13T12:41:48.412000Z</time>
      </trkpt>
      <trkpt lat="45.59570789337158" lon="10.440659523010254">
        <ele>208.0</ele>
        <time>2017-11-13T12:41:52.640000Z</time>
      </trkpt>
      <trkpt lat="45.596201503649354" lon="10.440616607666016">
        <ele>208.0</ele>
        <time>2017-11-13T12:41:53.433000Z</time>
      </trkpt>
      <trkpt lat="45.597403049468994" lon="10.440165996551514">
        <ele>207.33333333333334</ele>
        <time>2017-11-13T12:41:55.424000Z</time>
      </trkpt>
      <trkpt lat="45.5977463722229" lon="10.43952226638794">
        <ele>208.0</ele>
        <time>2017-11-13T12:41:56.332000Z</time>
      </trkpt>
      <trkpt lat="45.597939575091004" lon="10.439393520355225">
        <ele>209.1854036464933</ele>
        <time>2017-11-13T12:41:56.674000Z</time>
      </trkpt>
      <trkpt lat="45.59813269414008" lon="10.439350605010986">
        <ele>210.27220260543217</ele>
        <time>2017-11-13T12:41:56.987000Z</time>
      </trkpt>
      <trkpt lat="45.59823989868164" lon="10.439350605010986">
        <ele>210.8683450081709</ele>
        <time>2017-11-13T12:41:57.159000Z</time>
      </trkpt>
      <trkpt lat="45.59851884841919" lon="10.43975830078125">
        <ele>216.08699160857944</ele>
        <time>2017-11-13T12:41:57.799000Z</time>
      </trkpt>
      <trkpt lat="45.5989200903803" lon="10.440259754946426">
        <ele>216.5103101727062</ele>
        <time>2017-11-13T12:41:58.653000Z</time>
      </trkpt>
      <trkpt lat="45.598931613809754" lon="10.440274156556953">
        <ele>216.5703335592622</ele>
        <time>2017-11-13T12:41:58.678000Z</time>
      </trkpt>
      <trkpt lat="45.598948085680604" lon="10.440294742584229">
        <ele>216.65613246542435</ele>
        <time>2017-11-13T12:41:58.713000Z</time>
      </trkpt>
      <trkpt lat="45.59894800186157" lon="10.440294742584229">
        <ele>216.65646113091688</ele>
        <time>2017-11-13T12:41:58.713000Z</time>
      </trkpt>
      <trkpt lat="45.598948085680604" lon="10.440294742583228">
        <ele>216.6567897964094</ele>
        <time>2017-11-13T12:41:58.713000Z</time>
      </trkpt>
      <trkpt lat="45.59894800186157" lon="10.440294742585229">
        <ele>216.657118461902</ele>
        <time>2017-11-13T12:41:58.713000Z</time>
      </trkpt>
      <trkpt lat="45.59929132461548" lon="10.440917015075684">
        <ele>222.83125141737938</ele>
        <time>2017-11-13T12:41:59.602000Z</time>
      </trkpt>
      <trkpt lat="45.59954881668091" lon="10.441131591796875">
        <ele>224.0</ele>
        <time>2017-11-13T12:42:00.080000Z</time>
      </trkpt>
      <trkpt lat="45.600149631500244" lon="10.442032814025879">
        <ele>231.02069269943414</ele>
        <time>2017-11-13T12:42:01.476000Z</time>
      </trkpt>
      <trkpt lat="45.6006646156311" lon="10.442655086517334">
        <ele>224.73573993563775</ele>
        <time>2017-11-13T12:42:02.557000Z</time>
      </trkpt>
      <trkpt lat="45.60124397277832" lon="10.442912578582764">
        <ele>238.6698946573661</ele>
        <time>2017-11-13T12:42:03.530000Z</time>
      </trkpt>
      <trkpt lat="45.60152292251587" lon="10.442976951599121">
        <ele>240.6716633479441</ele>
        <time>2017-11-13T12:42:03.983000Z</time>
      </trkpt>
      <trkpt lat="45.60175895690918" lon="10.443191528320312">
        <ele>246.28879312098124</ele>
        <time>2017-11-13T12:42:04.431000Z</time>
      </trkpt>
      <trkpt lat="45.601844787597656" lon="10.443363189697266">
        <ele>237.55903462014396</ele>
        <time>2017-11-13T12:42:04.668000Z</time>
      </trkpt>
      <trkpt lat="45.60201644897461" lon="10.443878173828125">
        <ele>235.58603639073968</ele>
        <time>2017-11-13T12:42:05.308000Z</time>
      </trkpt>
      <trkpt lat="45.60205936431885" lon="10.444457530975342">
        <ele>229.90435210056134</ele>
        <time>2017-11-13T12:42:05.961000Z</time>
      </trkpt>
      <trkpt lat="45.602145195007324" lon="10.44475793838501">
        <ele>229.77907506909654</ele>
        <time>2017-11-13T12:42:06.325000Z</time>
      </trkpt>
      <trkpt lat="45.60218811035156" lon="10.446774959564209">
        <ele>230.0</ele>
        <time>2017-11-13T12:42:08.588000Z</time>
      </trkpt>
      <trkpt lat="45.6023383140564" lon="10.447525978088379">
        <ele>231.99582742011262</ele>
        <time>2017-11-13T12:42:09.464000Z</time>
      </trkpt>
      <trkpt lat="45.60249942381893" lon="10.448116610057147">
        <ele>235.5093229673536</ele>
        <time>2017-11-13T12:42:10.175000Z</time>
      </trkpt>
      <trkpt lat="45.602504984312624" lon="10.448136995210287">
        <ele>248.36324773133813</ele>
        <time>2017-11-13T12:42:10.200000Z</time>
      </trkpt>
      <trkpt lat="45.602512741461396" lon="10.448165433481336">
        <ele>248.33675356869034</ele>
        <time>2017-11-13T12:42:10.234000Z</time>
      </trkpt>
      <trkpt lat="45.602512657642365" lon="10.44816518202424">
        <ele>248.33651179711111</ele>
        <time>2017-11-13T12:42:10.234000Z</time>
      </trkpt>
      <trkpt lat="45.60253143310547" lon="10.44823408126831">
        <ele>248.2723309257874</ele>
        <time>2017-11-13T12:42:10.317000Z</time>
      </trkpt>
      <trkpt lat="45.60257434844971" lon="10.448555946350098">
        <ele>241.98792411494415</ele>
        <time>2017-11-13T12:42:10.685000Z</time>
      </trkpt>
      <trkpt lat="45.602896213531494" lon="10.449349880218506">
        <ele>236.85812437666115</ele>
        <time>2017-11-13T12:42:11.714000Z</time>
      </trkpt>
      <trkpt lat="45.60296058654785" lon="10.449671745300293">
        <ele>236.56755699762093</ele>
        <time>2017-11-13T12:42:12.089000Z</time>
      </trkpt>
      <trkpt lat="45.60347557067871" lon="10.451087951660156">
        <ele>238.46748678095207</ele>
        <time>2017-11-13T12:42:13.879000Z</time>
      </trkpt>
      <trkpt lat="45.60356140136719" lon="10.451409816741943">
        <ele>238.97668718769046</ele>
        <time>2017-11-13T12:42:14.265000Z</time>
      </trkpt>
      <trkpt lat="45.60422658920288" lon="10.453448295593262">
        <ele>254.82445402503959</ele>
        <time>2017-11-13T12:42:16.788000Z</time>
      </trkpt>
      <trkpt lat="45.6046986579895" lon="10.455679893493652">
        <ele>238.0</ele>
        <time>2017-11-13T12:42:19.403000Z</time>
      </trkpt>
      <trkpt lat="45.60467720031738" lon="10.456452369689941">
        <ele>224.4608976097472</ele>
        <time>2017-11-13T12:42:20.270000Z</time>
      </trkpt>
      <trkpt lat="45.60472011566162" lon="10.456838607788086">
        <ele>220.29611529803321</ele>
        <time>2017-11-13T12:42:20.709000Z</time>
      </trkpt>
      <trkpt lat="45.6048059463501" lon="10.457203388214111">
        <ele>219.71845483589047</ele>
        <time>2017-11-13T12:42:21.141000Z</time>
      </trkpt>
      <trkpt lat="45.6048011052211" lon="10.457203388214149">
        <ele>219.70806841460217</ele>
        <time>2017-11-13T12:42:21.149000Z</time>
      </trkpt>
      <trkpt lat="45.60478579742878" lon="10.457203388214149">
        <ele>219.6752262449218</ele>
        <time>2017-11-13T12:42:21.174000Z</time>
      </trkpt>
      <trkpt lat="45.60478457249701" lon="10.457203388214111">
        <ele>219.6725982097179</ele>
        <time>2017-11-13T12:42:21.176000Z</time>
      </trkpt>
      <trkpt lat="45.6048059463501" lon="10.457203388213111">
        <ele>219.6267415835454</ele>
        <time>2017-11-13T12:42:21.210000Z</time>
      </trkpt>
      <trkpt lat="45.60478457249701" lon="10.457203388215111">
        <ele>219.58088495737286</ele>
        <time>2017-11-13T12:42:21.244000Z</time>
      </trkpt>
      <trkpt lat="45.60450553894043" lon="10.457332134246826">
        <ele>218.9518143734155</ele>
        <time>2017-11-13T12:42:21.714000Z</time>
      </trkpt>
      <trkpt lat="45.604441249743104" lon="10.457353591918945">
        <ele>218.81017441178813</ele>
        <time>2017-11-13T12:42:21.820000Z</time>
      </trkpt>
      <trkpt lat="45.604183757677674" lon="10.457439422607422">
        <ele>218.24291401596517</ele>
        <time>2017-11-13T12:42:22.244000Z</time>
      </trkpt>
      <trkpt lat="45.60403355397284" lon="10.45750379562378">
        <ele>216.01424950007743</ele>
        <time>2017-11-13T12:42:22.495000Z</time>
      </trkpt>
      <trkpt lat="45.603883350268006" lon="10.457568168640137">
        <ele>215.78558493368988</ele>
        <time>2017-11-13T12:42:22.746000Z</time>
      </trkpt>
      <trkpt lat="45.60375460423529" lon="10.457632541656494">
        <ele>215.58668906069929</ele>
        <time>2017-11-13T12:42:22.965000Z</time>
      </trkpt>
      <trkpt lat="45.60371160507202" lon="10.457653999328613">
        <ele>215.5202750466552</ele>
        <time>2017-11-13T12:42:23.038000Z</time>
      </trkpt>
      <trkpt lat="45.603572496117344" lon="10.457723387215525">
        <ele>215.30542578907216</ele>
        <time>2017-11-13T12:42:23.274000Z</time>
      </trkpt>
      <trkpt lat="45.60355804309672" lon="10.45773059639664">
        <ele>215.2831035750453</ele>
        <time>2017-11-13T12:42:23.299000Z</time>
      </trkpt>
      <trkpt lat="45.60353667475283" lon="10.457741254940629">
        <ele>215.25010087322968</ele>
        <time>2017-11-13T12:42:23.335000Z</time>
      </trkpt>
      <trkpt lat="45.60353675857186" lon="10.457741254940629">
        <ele>215.24997864617683</ele>
        <time>2017-11-13T12:42:23.335000Z</time>
      </trkpt>
      <trkpt lat="45.60349702835083" lon="10.457761287689209">
        <ele>215.1885439092388</ele>
        <time>2017-11-13T12:42:23.403000Z</time>
      </trkpt>
      <trkpt lat="45.60328245162964" lon="10.457825660705566">
        <ele>215.20215823147717</ele>
        <time>2017-11-13T12:42:23.754000Z</time>
      </trkpt>
      <trkpt lat="45.60326099395752" lon="10.457825660705566">
        <ele>215.17086810594674</ele>
        <time>2017-11-13T12:42:23.788000Z</time>
      </trkpt>
      <trkpt lat="45.60319662094116" lon="10.457868576049805">
        <ele>215.06728932050683</ele>
        <time>2017-11-13T12:42:23.902000Z</time>
      </trkpt>
      <trkpt lat="45.60317516326904" lon="10.4579758644104">
        <ele>214.95344814355755</ele>
        <time>2017-11-13T12:42:24.027000Z</time>
      </trkpt>
      <trkpt lat="45.60319662094116" lon="10.458018779754639">
        <ele>214.8996337408104</ele>
        <time>2017-11-13T12:42:24.086000Z</time>
      </trkpt>
      <trkpt lat="45.603346824645996" lon="10.45846939086914">
        <ele>215.44420567650718</ele>
        <time>2017-11-13T12:42:24.646000Z</time>
      </trkpt>
      <trkpt lat="45.60336836613715" lon="10.458512306213379">
        <ele>215.46576958867502</ele>
        <time>2017-11-13T12:42:24.705000Z</time>
      </trkpt>
      <trkpt lat="45.603521936730914" lon="10.459006677878742">
        <ele>215.68660541667478</ele>
        <time>2017-11-13T12:42:25.312000Z</time>
      </trkpt>
      <trkpt lat="45.60352814868232" lon="10.459026675481244">
        <ele>215.69553833027726</ele>
        <time>2017-11-13T12:42:25.337000Z</time>
      </trkpt>
      <trkpt lat="45.60353701002896" lon="10.4590552020818">
        <ele>215.70828113704655</ele>
        <time>2017-11-13T12:42:25.372000Z</time>
      </trkpt>
      <trkpt lat="45.60353701002896" lon="10.459054950624704">
        <ele>215.70838379826228</ele>
        <time>2017-11-13T12:42:25.372000Z</time>
      </trkpt>
      <trkpt lat="45.603861808776855" lon="10.460100173950195">
        <ele>216.50864376840988</ele>
        <time>2017-11-13T12:42:26.655000Z</time>
      </trkpt>
      <trkpt lat="45.60405501164496" lon="10.460765361785889">
        <ele>216.66862420969542</ele>
        <time>2017-11-13T12:42:27.463000Z</time>
      </trkpt>
      <trkpt lat="45.60446978007095" lon="10.462134363695563">
        <ele>217.0</ele>
        <time>2017-11-13T12:42:29.136000Z</time>
      </trkpt>
      <trkpt lat="45.604475863196555" lon="10.462154442465108">
        <ele>217.0</ele>
        <time>2017-11-13T12:42:29.161000Z</time>
      </trkpt>
      <trkpt lat="45.60448408126831" lon="10.462181568145752">
        <ele>217.0</ele>
        <time>2017-11-13T12:42:29.194000Z</time>
      </trkpt>
      <trkpt lat="45.60448416508734" lon="10.462181568145752">
        <ele>217.0</ele>
        <time>2017-11-13T12:42:29.194000Z</time>
      </trkpt>
      <trkpt lat="45.60405501164496" lon="10.460765361785889">
        <ele>217.0</ele>
        <time>2017-11-13T12:42:30.925000Z</time>
      </trkpt>
      <trkpt lat="45.603861808775896" lon="10.460100173950474">
        <ele>217.0</ele>
        <time>2017-11-13T12:42:31.733000Z</time>
      </trkpt>
      <trkpt lat="45.603947723284364" lon="10.460057258605957">
        <ele>216.9954269723875</ele>
        <time>2017-11-13T12:42:31.879000Z</time>
      </trkpt>
      <trkpt lat="45.60405492782593" lon="10.460615158081055">
        <ele>216.97508827570013</ele>
        <time>2017-11-13T12:42:32.528000Z</time>
      </trkpt>
      <trkpt lat="45.60650110244751" lon="10.468661785125732">
        <ele>216.0</ele>
        <time>2017-11-13T12:42:42.368000Z</time>
      </trkpt>
      <trkpt lat="45.60643672943115" lon="10.46870470046997">
        <ele>216.0</ele>
        <time>2017-11-13T12:42:42.482000Z</time>
      </trkpt>
      <trkpt lat="45.607380867004395" lon="10.471880435943604">
        <ele>221.0</ele>
        <time>2017-11-13T12:42:46.352000Z</time>
      </trkpt>
      <trkpt lat="45.60780700071923" lon="10.473565158372626">
        <ele>216.0</ele>
        <time>2017-11-13T12:42:48.361000Z</time>
      </trkpt>
      <trkpt lat="45.6078122056215" lon="10.473585736751332">
        <ele>216.0</ele>
        <time>2017-11-13T12:42:48.386000Z</time>
      </trkpt>
      <trkpt lat="45.60781898908317" lon="10.473612556234002">
        <ele>216.01786366793786</ele>
        <time>2017-11-13T12:42:48.418000Z</time>
      </trkpt>
      <trkpt lat="45.60781890526414" lon="10.473612304776907">
        <ele>216.018038143903</ele>
        <time>2017-11-13T12:42:48.418000Z</time>
      </trkpt>
      <trkpt lat="45.60830363072455" lon="10.475528240203857">
        <ele>220.6275486471142</ele>
        <time>2017-11-13T12:42:50.703000Z</time>
      </trkpt>
      <trkpt lat="45.60836800374091" lon="10.475678443908691">
        <ele>220.07121875370171</ele>
        <time>2017-11-13T12:42:50.901000Z</time>
      </trkpt>
      <trkpt lat="45.60849674977362" lon="10.475914478302002">
        <ele>221.03106641103736</ele>
        <time>2017-11-13T12:42:51.237000Z</time>
      </trkpt>
      <trkpt lat="45.60877569951117" lon="10.476429462432861">
        <ele>221.66905741420626</ele>
        <time>2017-11-13T12:42:51.967000Z</time>
      </trkpt>
      <trkpt lat="45.60877561569214" lon="10.476429462432861">
        <ele>221.66908954375597</ele>
        <time>2017-11-13T12:42:51.967000Z</time>
      </trkpt>
      <trkpt lat="45.60920485295355" lon="10.477137565612793">
        <ele>221.9203395760369</ele>
        <time>2017-11-13T12:42:53.018000Z</time>
      </trkpt>
      <trkpt lat="45.610127532854676" lon="10.478103160858154">
        <ele>225.11471525245136</ele>
        <time>2017-11-13T12:42:54.851000Z</time>
      </trkpt>
      <trkpt lat="45.61077126301825" lon="10.479090213775635">
        <ele>222.27020020424698</ele>
        <time>2017-11-13T12:42:56.364000Z</time>
      </trkpt>
      <trkpt lat="45.61156511306763" lon="10.480399131774902">
        <ele>222.71466552487846</ele>
        <time>2017-11-13T12:42:58.307000Z</time>
      </trkpt>
      <trkpt lat="45.611672485247254" lon="10.480742454528809">
        <ele>224.9421691570128</ele>
        <time>2017-11-13T12:42:58.729000Z</time>
      </trkpt>
      <trkpt lat="45.611672485247254" lon="10.480785369873047">
        <ele>224.93632693794862</ele>
        <time>2017-11-13T12:42:58.777000Z</time>
      </trkpt>
      <trkpt lat="45.61169385910034" lon="10.480828285217285">
        <ele>224.92915522450744</ele>
        <time>2017-11-13T12:42:58.836000Z</time>
      </trkpt>
      <trkpt lat="45.61180114746094" lon="10.480914115905762">
        <ele>223.4655718038268</ele>
        <time>2017-11-13T12:42:59.033000Z</time>
      </trkpt>
      <trkpt lat="45.611865520477295" lon="10.480892658233643">
        <ele>223.39554477741936</ele>
        <time>2017-11-13T12:42:59.139000Z</time>
      </trkpt>
      <trkpt lat="45.61205863952637" lon="10.480999946594238">
        <ele>223.17604563193518</ele>
        <time>2017-11-13T12:42:59.471000Z</time>
      </trkpt>
      <trkpt lat="45.61210163868964" lon="10.481064319610596">
        <ele>223.1100840260011</ele>
        <time>2017-11-13T12:42:59.571000Z</time>
      </trkpt>
      <trkpt lat="45.61248779296875" lon="10.481407642364502">
        <ele>222.62832402832672</ele>
        <time>2017-11-13T12:43:00.300000Z</time>
      </trkpt>
      <trkpt lat="45.61249159036401" lon="10.481409857510222">
        <ele>222.62397898686712</ele>
        <time>2017-11-13T12:43:00.307000Z</time>
      </trkpt>
      <trkpt lat="45.61250576391784" lon="10.48141812541382">
        <ele>222.60776137568124</ele>
        <time>2017-11-13T12:43:00.332000Z</time>
      </trkpt>
      <trkpt lat="45.61252702027559" lon="10.48143052496016">
        <ele>222.58343950379125</ele>
        <time>2017-11-13T12:43:00.369000Z</time>
      </trkpt>
      <trkpt lat="45.61252693645656" lon="10.481430357322097">
        <ele>222.58328679941647</ele>
        <time>2017-11-13T12:43:00.369000Z</time>
      </trkpt>
      <trkpt lat="45.61274536885321" lon="10.481557846069336">
        <ele>222.33333333333334</ele>
        <time>2017-11-13T12:43:00.747000Z</time>
      </trkpt>
      <trkpt lat="45.61356067657471" lon="10.481922626495361">
        <ele>224.3992665816245</ele>
        <time>2017-11-13T12:43:02.117000Z</time>
      </trkpt>
      <trkpt lat="45.61416149139404" lon="10.48243761062622">
        <ele>225.0</ele>
        <time>2017-11-13T12:43:03.240000Z</time>
      </trkpt>
      <trkpt lat="45.61444052495062" lon="10.482566356658936">
        <ele>224.9836367826421</ele>
        <time>2017-11-13T12:43:03.710000Z</time>
      </trkpt>
      <trkpt lat="45.61444044113159" lon="10.482566356658936">
        <ele>224.983536814609</ele>
        <time>2017-11-13T12:43:03.710000Z</time>
      </trkpt>
      <trkpt lat="45.61544895172119" lon="10.483016967773438">
        <ele>222.39001292538833</ele>
        <time>2017-11-13T12:43:05.404000Z</time>
      </trkpt>
      <trkpt lat="45.61630734242499" lon="10.483145713806152">
        <ele>222.0</ele>
        <time>2017-11-13T12:43:06.788000Z</time>
      </trkpt>
      <trkpt lat="45.616865241900086" lon="10.483231544494629">
        <ele>223.90621711213961</ele>
        <time>2017-11-13T12:43:07.688000Z</time>
      </trkpt>
      <trkpt lat="45.61890363693237" lon="10.483553409576416">
        <ele>226.0</ele>
        <time>2017-11-13T12:43:10.976000Z</time>
      </trkpt>
      <trkpt lat="45.61939716339111" lon="10.48370361328125">
        <ele>230.8169647942876</ele>
        <time>2017-11-13T12:43:11.785000Z</time>
      </trkpt>
      <trkpt lat="45.61965465545654" lon="10.48396110534668">
        <ele>231.1877133215324</ele>
        <time>2017-11-13T12:43:12.289000Z</time>
      </trkpt>
      <trkpt lat="45.61980536865977" lon="10.484332417710633">
        <ele>229.54199382522668</ele>
        <time>2017-11-13T12:43:12.770000Z</time>
      </trkpt>
      <trkpt lat="45.619813052256625" lon="10.484351347933638">
        <ele>229.57478853525382</ele>
        <time>2017-11-13T12:43:12.795000Z</time>
      </trkpt>
      <trkpt lat="45.61982438899577" lon="10.484379278495908">
        <ele>229.62317541151262</ele>
        <time>2017-11-13T12:43:12.831000Z</time>
      </trkpt>
      <trkpt lat="45.619824305176735" lon="10.484379194676876">
        <ele>229.623394540104</ele>
        <time>2017-11-13T12:43:12.832000Z</time>
      </trkpt>
      <trkpt lat="45.62025555409491" lon="10.4854416847229">
        <ele>234.79737257931984</ele>
        <time>2017-11-13T12:43:14.209000Z</time>
      </trkpt>
      <trkpt lat="45.62119969166815" lon="10.487544536590576">
        <ele>237.0</ele>
        <time>2017-11-13T12:43:17.011000Z</time>
      </trkpt>
      <trkpt lat="45.62167167663574" lon="10.488574504852295">
        <ele>253.2138372198043</ele>
        <time>2017-11-13T12:43:18.392000Z</time>
      </trkpt>
      <trkpt lat="45.62280893325806" lon="10.490612983703613">
        <ele>239.0</ele>
        <time>2017-11-13T12:43:21.316000Z</time>
      </trkpt>
      <trkpt lat="45.62293767929077" lon="10.4909348487854">
        <ele>231.87036410144378</ele>
        <time>2017-11-13T12:43:21.732000Z</time>
      </trkpt>
      <trkpt lat="45.62319525517523" lon="10.492050647735596">
        <ele>230.40324973053202</ele>
        <time>2017-11-13T12:43:23.049000Z</time>
      </trkpt>
      <trkpt lat="45.623366916552186" lon="10.492587089538574">
        <ele>230.33333333333334</ele>
        <time>2017-11-13T12:43:23.710000Z</time>
      </trkpt>
      <trkpt lat="45.62373169697821" lon="10.49370288848877">
        <ele>230.18056850896753</ele>
        <time>2017-11-13T12:43:25.091000Z</time>
      </trkpt>
      <trkpt lat="45.62373161315918" lon="10.49370288848877">
        <ele>230.18071973098952</ele>
        <time>2017-11-13T12:43:25.091000Z</time>
      </trkpt>
      <trkpt lat="45.624117935076356" lon="10.494539737701416">
        <ele>232.11257608483217</ele>
        <time>2017-11-13T12:43:26.215000Z</time>
      </trkpt>
      <trkpt lat="45.624117851257324" lon="10.494539737701416">
        <ele>232.11272730685417</ele>
        <time>2017-11-13T12:43:26.215000Z</time>
      </trkpt>
      <trkpt lat="45.62420376576483" lon="10.494754314422607">
        <ele>232.09136735199536</ele>
        <time>2017-11-13T12:43:26.492000Z</time>
      </trkpt>
      <trkpt lat="45.6242036819458" lon="10.494754314422607">
        <ele>232.09151857401739</ele>
        <time>2017-11-13T12:43:26.493000Z</time>
      </trkpt>
      <trkpt lat="45.62482603825629" lon="10.495977401733398">
        <ele>236.0</ele>
        <time>2017-11-13T12:43:28.189000Z</time>
      </trkpt>
      <trkpt lat="45.62493332661688" lon="10.49619197845459">
        <ele>235.28114842632033</ele>
        <time>2017-11-13T12:43:28.485000Z</time>
      </trkpt>
      <trkpt lat="45.62501907348633" lon="10.496470928192139">
        <ele>232.78408861934759</ele>
        <time>2017-11-13T12:43:28.827000Z</time>
      </trkpt>
      <trkpt lat="45.625061988830566" lon="10.496664047241211">
        <ele>232.23186570004916</ele>
        <time>2017-11-13T12:43:29.054000Z</time>
      </trkpt>
      <trkpt lat="45.625083446502686" lon="10.49692153930664">
        <ele>231.5251785175916</ele>
        <time>2017-11-13T12:43:29.345000Z</time>
      </trkpt>
      <trkpt lat="45.625104987993836" lon="10.497372150421143">
        <ele>231.3006251650953</ele>
        <time>2017-11-13T12:43:29.851000Z</time>
      </trkpt>
      <trkpt lat="45.625126445665956" lon="10.49769401550293">
        <ele>230.8065445006342</ele>
        <time>2017-11-13T12:43:30.213000Z</time>
      </trkpt>
      <trkpt lat="45.625126361846924" lon="10.497822761535645">
        <ele>230.9388813857797</ele>
        <time>2017-11-13T12:43:30.357000Z</time>
      </trkpt>
      <trkpt lat="45.62516927719116" lon="10.49816608428955">
        <ele>231.29737204130092</ele>
        <time>2017-11-13T12:43:30.748000Z</time>
      </trkpt>
      <trkpt lat="45.625147903338075" lon="10.498208999633789">
        <ele>231.3515272336472</ele>
        <time>2017-11-13T12:43:30.807000Z</time>
      </trkpt>
      <trkpt lat="45.62519081868231" lon="10.498402118682861">
        <ele>232.89314603527683</ele>
        <time>2017-11-13T12:43:31.034000Z</time>
      </trkpt>
      <trkpt lat="45.62527656555176" lon="10.4984450340271">
        <ele>233.02667207067398</ele>
        <time>2017-11-13T12:43:31.180000Z</time>
      </trkpt>
      <trkpt lat="45.62553405761719" lon="10.49870252609253">
        <ele>233.44098745225264</ele>
        <time>2017-11-13T12:43:31.684000Z</time>
      </trkpt>
      <trkpt lat="45.625576972961426" lon="10.498788356781006">
        <ele>233.5382838521791</ele>
        <time>2017-11-13T12:43:31.802000Z</time>
      </trkpt>
      <trkpt lat="45.626113414764404" lon="10.499153137207031">
        <ele>234.32153614593938</ele>
        <time>2017-11-13T12:43:32.754000Z</time>
      </trkpt>
      <trkpt lat="45.62624224461615" lon="10.499281883239746">
        <ele>235.52878355858283</ele>
        <time>2017-11-13T12:43:33.006000Z</time>
      </trkpt>
      <trkpt lat="45.62624216079712" lon="10.499281883239746">
        <ele>235.52889408099577</ele>
        <time>2017-11-13T12:43:33.006000Z</time>
      </trkpt>
      <trkpt lat="45.62645682133734" lon="10.4994535446167">
        <ele>235.85319829032338</ele>
        <time>2017-11-13T12:43:33.400000Z</time>
      </trkpt>
      <trkpt lat="45.62645673751831" lon="10.4994535446167">
        <ele>235.85312869999746</ele>
        <time>2017-11-13T12:43:33.400000Z</time>
      </trkpt>
      <trkpt lat="45.626671398058534" lon="10.499625205993652">
        <ele>234.64893130344686</ele>
        <time>2017-11-13T12:43:33.794000Z</time>
      </trkpt>
      <trkpt lat="45.62699326314032" lon="10.499882698059082">
        <ele>233.97786646765152</ele>
        <time>2017-11-13T12:43:34.385000Z</time>
      </trkpt>
      <trkpt lat="45.627658450976014" lon="10.500483512878418">
        <ele>231.54630917213726</ele>
        <time>2017-11-13T12:43:35.646000Z</time>
      </trkpt>
      <trkpt lat="45.62802314758301" lon="10.500848293304443">
        <ele>231.70490908930364</ele>
        <time>2017-11-13T12:43:36.359000Z</time>
      </trkpt>
      <trkpt lat="45.6287664295331" lon="10.50168609653941">
        <ele>231.0</ele>
        <time>2017-11-13T12:43:37.876000Z</time>
      </trkpt>
      <trkpt lat="45.628778451806106" lon="10.50169964789373">
        <ele>231.00431600488307</ele>
        <time>2017-11-13T12:43:37.901000Z</time>
      </trkpt>
      <trkpt lat="45.62879629433155" lon="10.501719759777188">
        <ele>231.01072148562594</ele>
        <time>2017-11-13T12:43:37.937000Z</time>
      </trkpt>
      <trkpt lat="45.62879612669349" lon="10.501719675958157">
        <ele>231.01077155565983</ele>
        <time>2017-11-13T12:43:37.937000Z</time>
      </trkpt>
      <trkpt lat="45.62920340336859" lon="10.50217866897583">
        <ele>230.4903068262331</ele>
        <time>2017-11-13T12:43:38.768000Z</time>
      </trkpt>
      <trkpt lat="45.62920331954956" lon="10.50217866897583">
        <ele>230.49033045830558</ele>
        <time>2017-11-13T12:43:38.768000Z</time>
      </trkpt>
      <trkpt lat="45.62969692982733" lon="10.502843856811523">
        <ele>231.0148905388396</ele>
        <time>2017-11-13T12:43:39.855000Z</time>
      </trkpt>
      <trkpt lat="45.630340576171875" lon="10.504260063171387">
        <ele>235.0</ele>
        <time>2017-11-13T12:43:41.749000Z</time>
      </trkpt>
      <trkpt lat="45.630834102630615" lon="10.50518274307251">
        <ele>235.74878903157227</ele>
        <time>2017-11-13T12:43:43.051000Z</time>
      </trkpt>
      <trkpt lat="45.631113052368164" lon="10.505483150482178">
        <ele>235.9273855791132</ele>
        <time>2017-11-13T12:43:43.611000Z</time>
      </trkpt>
      <trkpt lat="45.63141345977783" lon="10.50565481185913">
        <ele>235.85739776781705</ele>
        <time>2017-11-13T12:43:44.130000Z</time>
      </trkpt>
      <trkpt lat="45.63203581608832" lon="10.505976676940918">
        <ele>237.25912445484934</ele>
        <time>2017-11-13T12:43:45.191000Z</time>
      </trkpt>
      <trkpt lat="45.63203573226929" lon="10.505976676940918">
        <ele>237.25913311704107</ele>
        <time>2017-11-13T12:43:45.192000Z</time>
      </trkpt>
      <trkpt lat="45.63323736190796" lon="10.506620407104492">
        <ele>235.05840631030162</ele>
        <time>2017-11-13T12:43:47.249000Z</time>
      </trkpt>
      <trkpt lat="45.63370943069458" lon="10.506877899169922">
        <ele>240.0</ele>
        <time>2017-11-13T12:43:48.059000Z</time>
      </trkpt>
      <trkpt lat="45.63377380371094" lon="10.50692081451416">
        <ele>240.02530213994316</ele>
        <time>2017-11-13T12:43:48.173000Z</time>
      </trkpt>
      <trkpt lat="45.63437461853027" lon="10.507307052612305">
        <ele>239.92663831998175</ele>
        <time>2017-11-13T12:43:49.229000Z</time>
      </trkpt>
      <trkpt lat="45.63544750213623" lon="10.507864952087402">
        <ele>241.0</ele>
        <time>2017-11-13T12:43:51.059000Z</time>
      </trkpt>
      <trkpt lat="45.63600548543036" lon="10.508015155792236">
        <ele>240.33333333333334</ele>
        <time>2017-11-13T12:43:51.969000Z</time>
      </trkpt>
      <trkpt lat="45.63606448949082" lon="10.507994652662404">
        <ele>240.34096792903551</ele>
        <time>2017-11-13T12:43:52.066000Z</time>
      </trkpt>
      <trkpt lat="45.63607936497958" lon="10.50798948361995">
        <ele>240.342892683851</ele>
        <time>2017-11-13T12:43:52.091000Z</time>
      </trkpt>
      <trkpt lat="45.63610221259296" lon="10.507981544360518">
        <ele>240.34584896012984</ele>
        <time>2017-11-13T12:43:52.129000Z</time>
      </trkpt>
      <trkpt lat="45.63610238023102" lon="10.507981544360518">
        <ele>240.3458700377706</ele>
        <time>2017-11-13T12:43:52.129000Z</time>
      </trkpt>
      <trkpt lat="45.63662767410278" lon="10.507800579071045">
        <ele>240.41380591022963</ele>
        <time>2017-11-13T12:43:52.995000Z</time>
      </trkpt>
      <trkpt lat="45.636627757921815" lon="10.507800579071045">
        <ele>240.41381644904996</ele>
        <time>2017-11-13T12:43:52.995000Z</time>
      </trkpt>
      <trkpt lat="45.63853749074042" lon="10.506899356842041">
        <ele>241.0</ele>
        <time>2017-11-13T12:43:56.219000Z</time>
      </trkpt>
      <trkpt lat="45.6397819519043" lon="10.506298542022705">
        <ele>242.0</ele>
        <time>2017-11-13T12:43:58.325000Z</time>
      </trkpt>
      <trkpt lat="45.6401252746582" lon="10.506041049957275">
        <ele>248.39843131143596</ele>
        <time>2017-11-13T12:43:58.946000Z</time>
      </trkpt>
      <trkpt lat="45.640125358477235" lon="10.506041049957275">
        <ele>248.3977045539838</ele>
        <time>2017-11-13T12:43:58.946000Z</time>
      </trkpt>
      <trkpt lat="45.64076900482178" lon="10.505611896514893">
        <ele>236.57366640906332</ele>
        <time>2017-11-13T12:44:00.084000Z</time>
      </trkpt>
      <trkpt lat="45.641584396362305" lon="10.505397319793701">
        <ele>237.8236900154625</ele>
        <time>2017-11-13T12:44:01.413000Z</time>
      </trkpt>
      <trkpt lat="45.64175605773926" lon="10.505461692810059">
        <ele>238.0990491844309</ele>
        <time>2017-11-13T12:44:01.697000Z</time>
      </trkpt>
      <trkpt lat="45.641841888427734" lon="10.50544023513794">
        <ele>238.19938545847864</ele>
        <time>2017-11-13T12:44:01.837000Z</time>
      </trkpt>
      <trkpt lat="45.64201354980469" lon="10.505332946777344">
        <ele>238.41510904243535</ele>
        <time>2017-11-13T12:44:02.137000Z</time>
      </trkpt>
      <trkpt lat="45.644545555114746" lon="10.50518274307251">
        <ele>243.0</ele>
        <time>2017-11-13T12:44:06.200000Z</time>
      </trkpt>
      <trkpt lat="45.64497470855713" lon="10.505118370056152">
        <ele>242.66062513915827</ele>
        <time>2017-11-13T12:44:06.892000Z</time>
      </trkpt>
      <trkpt lat="45.645382488146424" lon="10.50492525100708">
        <ele>240.81140445440897</ele>
        <time>2017-11-13T12:44:07.581000Z</time>
      </trkpt>
      <trkpt lat="45.6457257270813" lon="10.504603385925293">
        <ele>240.0</ele>
        <time>2017-11-13T12:44:08.239000Z</time>
      </trkpt>
      <trkpt lat="45.646069049835205" lon="10.503809452056885">
        <ele>243.1878912744628</ele>
        <time>2017-11-13T12:44:09.285000Z</time>
      </trkpt>
      <trkpt lat="45.64608148458732" lon="10.503722563737254">
        <ele>243.33241288214003</ele>
        <time>2017-11-13T12:44:09.384000Z</time>
      </trkpt>
      <trkpt lat="45.64608455469574" lon="10.50370111115709">
        <ele>243.36809501729724</ele>
        <time>2017-11-13T12:44:09.409000Z</time>
      </trkpt>
      <trkpt lat="45.64608925022185" lon="10.503668300807476">
        <ele>243.4226685530698</ele>
        <time>2017-11-13T12:44:09.447000Z</time>
      </trkpt>
      <trkpt lat="45.64608925022185" lon="10.503668216988444">
        <ele>243.42280513695903</ele>
        <time>2017-11-13T12:44:09.447000Z</time>
      </trkpt>
      <trkpt lat="45.6461763381958" lon="10.503058433532715">
        <ele>243.43697480775174</ele>
        <time>2017-11-13T12:44:10.145000Z</time>
      </trkpt>
      <trkpt lat="45.6461763381958" lon="10.5029296875">
        <ele>243.81983661732878</ele>
        <time>2017-11-13T12:44:10.289000Z</time>
      </trkpt>
      <trkpt lat="45.64617642201483" lon="10.502779483795166">
        <ele>244.2665088701386</ele>
        <time>2017-11-13T12:44:10.457000Z</time>
      </trkpt>
      <trkpt lat="45.64617642201483" lon="10.502650737762451">
        <ele>244.64937067914278</ele>
        <time>2017-11-13T12:44:10.601000Z</time>
      </trkpt>
      <trkpt lat="45.64617642201483" lon="10.501985549926758">
        <ele>248.96082335899777</ele>
        <time>2017-11-13T12:44:11.346000Z</time>
      </trkpt>
      <trkpt lat="45.646090507507324" lon="10.50018310546875">
        <ele>257.0</ele>
        <time>2017-11-13T12:44:13.371000Z</time>
      </trkpt>
      <trkpt lat="45.646090591326356" lon="10.50018310546875">
        <ele>256.99950280059517</ele>
        <time>2017-11-13T12:44:13.371000Z</time>
      </trkpt>
      <trkpt lat="45.64602613449097" lon="10.499517917633057">
        <ele>251.88135158677346</ele>
        <time>2017-11-13T12:44:14.124000Z</time>
      </trkpt>
      <trkpt lat="45.646090507507324" lon="10.49917459487915">
        <ele>251.69366185819845</ele>
        <time>2017-11-13T12:44:14.522000Z</time>
      </trkpt>
      <trkpt lat="45.64666994847357" lon="10.49741506576538">
        <ele>251.0</ele>
        <time>2017-11-13T12:44:16.702000Z</time>
      </trkpt>
      <trkpt lat="45.64673432148993" lon="10.497329235076904">
        <ele>251.12266628364372</ele>
        <time>2017-11-13T12:44:16.843000Z</time>
      </trkpt>
      <trkpt lat="45.647893035784364" lon="10.495312213897705">
        <ele>255.0</ele>
        <time>2017-11-13T12:44:19.769000Z</time>
      </trkpt>
      <trkpt lat="45.648193359375" lon="10.494754314422607">
        <ele>247.73984955280704</ele>
        <time>2017-11-13T12:44:20.558000Z</time>
      </trkpt>
      <trkpt lat="45.64819344319403" lon="10.494754314422607">
        <ele>247.73976249168004</ele>
        <time>2017-11-13T12:44:20.558000Z</time>
      </trkpt>
      <trkpt lat="45.64849376678467" lon="10.494260787963867">
        <ele>254.93132897246298</ele>
        <time>2017-11-13T12:44:21.291000Z</time>
      </trkpt>
      <trkpt lat="45.64862251281738" lon="10.493896007537842">
        <ele>250.30128632071558</ele>
        <time>2017-11-13T12:44:21.749000Z</time>
      </trkpt>
      <trkpt lat="45.649106989732545" lon="10.492243265172613">
        <ele>246.0</ele>
        <time>2017-11-13T12:44:23.757000Z</time>
      </trkpt>
      <trkpt lat="45.64911290942202" lon="10.492223070091049">
        <ele>246.30753365699414</ele>
        <time>2017-11-13T12:44:23.782000Z</time>
      </trkpt>
      <trkpt lat="45.649121068418026" lon="10.492195235565305">
        <ele>246.73140177392258</ele>
        <time>2017-11-13T12:44:23.816000Z</time>
      </trkpt>
      <trkpt lat="45.649121068418026" lon="10.49219498410821">
        <ele>246.7349331085708</ele>
        <time>2017-11-13T12:44:23.816000Z</time>
      </trkpt>
      <trkpt lat="45.649352073669434" lon="10.491406917572021">
        <ele>267.40240071673946</ele>
        <time>2017-11-13T12:44:24.774000Z</time>
      </trkpt>
      <trkpt lat="45.64950227737427" lon="10.490634441375732">
        <ele>269.06281014228443</ele>
        <time>2017-11-13T12:44:25.673000Z</time>
      </trkpt>
      <trkpt lat="45.64963102340698" lon="10.48945426940918">
        <ele>266.09441187555655</ele>
        <time>2017-11-13T12:44:27.012000Z</time>
      </trkpt>
      <trkpt lat="45.649802684783936" lon="10.487329959869385">
        <ele>267.0</ele>
        <time>2017-11-13T12:44:29.408000Z</time>
      </trkpt>
      <trkpt lat="45.649824142456055" lon="10.486664772033691">
        <ele>264.91105378748733</ele>
        <time>2017-11-13T12:44:30.154000Z</time>
      </trkpt>
      <trkpt lat="45.64973831176758" lon="10.485506057739258">
        <ele>261.99122172239214</ele>
        <time>2017-11-13T12:44:31.460000Z</time>
      </trkpt>
      <trkpt lat="45.64973839558661" lon="10.485506057739258">
        <ele>261.9909212561499</ele>
        <time>2017-11-13T12:44:31.460000Z</time>
      </trkpt>
      <trkpt lat="45.64973831176758" lon="10.48496961593628">
        <ele>258.31333971840195</ele>
        <time>2017-11-13T12:44:32.061000Z</time>
      </trkpt>
      <trkpt lat="45.649888599291444" lon="10.483832359313965">
        <ele>258.06450850069206</ele>
        <time>2017-11-13T12:44:33.358000Z</time>
      </trkpt>
      <trkpt lat="45.64995288848877" lon="10.483531951904297">
        <ele>258.71487400766404</ele>
        <time>2017-11-13T12:44:33.710000Z</time>
      </trkpt>
      <trkpt lat="45.6499529723078" lon="10.483531951904297">
        <ele>258.71512222580094</ele>
        <time>2017-11-13T12:44:33.710000Z</time>
      </trkpt>
      <trkpt lat="45.65001726150513" lon="10.483145713806152">
        <ele>263.8703637781036</ele>
        <time>2017-11-13T12:44:34.155000Z</time>
      </trkpt>
      <trkpt lat="45.65023192204535" lon="10.482244491577148">
        <ele>262.66837921231564</ele>
        <time>2017-11-13T12:44:35.222000Z</time>
      </trkpt>
      <trkpt lat="45.65074690617621" lon="10.480570793151855">
        <ele>258.0</ele>
        <time>2017-11-13T12:44:37.271000Z</time>
      </trkpt>
      <trkpt lat="45.651068687438965" lon="10.479412078857422">
        <ele>272.6666666666667</ele>
        <time>2017-11-13T12:44:38.668000Z</time>
      </trkpt>
      <trkpt lat="45.65139055252075" lon="10.47722339630127">
        <ele>258.0</ele>
        <time>2017-11-13T12:44:41.174000Z</time>
      </trkpt>
      <trkpt lat="45.65136909484863" lon="10.476815700531006">
        <ele>257.5720403208414</ele>
        <time>2017-11-13T12:44:41.632000Z</time>
      </trkpt>
      <trkpt lat="45.65117597579956" lon="10.47621488571167">
        <ele>256.54650710608104</ele>
        <time>2017-11-13T12:44:42.373000Z</time>
      </trkpt>
      <trkpt lat="45.650832653045654" lon="10.475656986236572">
        <ele>255.10801147090152</ele>
        <time>2017-11-13T12:44:43.206000Z</time>
      </trkpt>
      <trkpt lat="45.65063953399658" lon="10.47522783279419">
        <ele>255.1241353664967</ele>
        <time>2017-11-13T12:44:43.778000Z</time>
      </trkpt>
      <trkpt lat="45.650618160143495" lon="10.475163459777832">
        <ele>255.12638675391767</ele>
        <time>2017-11-13T12:44:43.858000Z</time>
      </trkpt>
      <trkpt lat="45.65053232945502" lon="10.475077629089355">
        <ele>255.1311194781853</ele>
        <time>2017-11-13T12:44:44.026000Z</time>
      </trkpt>
      <trkpt lat="45.65048933029175" lon="10.475077629089355">
        <ele>255.13306274637497</ele>
        <time>2017-11-13T12:44:44.095000Z</time>
      </trkpt>
      <trkpt lat="45.65001726150513" lon="10.47473430633545">
        <ele>256.4903289472699</ele>
        <time>2017-11-13T12:44:44.944000Z</time>
      </trkpt>
      <trkpt lat="45.64911603927612" lon="10.474240779876709">
        <ele>253.0</ele>
        <time>2017-11-13T12:44:46.491000Z</time>
      </trkpt>
      <trkpt lat="45.64877271652222" lon="10.47396183013916">
        <ele>255.35691517472083</ele>
        <time>2017-11-13T12:44:47.124000Z</time>
      </trkpt>
      <trkpt lat="45.6480432394892" lon="10.473060607910156">
        <ele>256.0419439942254</ele>
        <time>2017-11-13T12:44:48.669000Z</time>
      </trkpt>
      <trkpt lat="45.64671277999878" lon="10.471279621124268">
        <ele>265.0</ele>
        <time>2017-11-13T12:44:51.590000Z</time>
      </trkpt>
      <trkpt lat="45.64617642201483" lon="10.470507144927979">
        <ele>265.46396009680257</ele>
        <time>2017-11-13T12:44:52.810000Z</time>
      </trkpt>
      <trkpt lat="45.643601417541504" lon="10.465679168701172">
        <ele>261.0</ele>
        <time>2017-11-13T12:44:59.616000Z</time>
      </trkpt>
      <trkpt lat="45.64340829849243" lon="10.464949607849121">
        <ele>263.0</ele>
        <time>2017-11-13T12:45:00.490000Z</time>
      </trkpt>
      <trkpt lat="45.64327955245972" lon="10.46422004699707">
        <ele>255.0</ele>
        <time>2017-11-13T12:45:01.333000Z</time>
      </trkpt>
      <trkpt lat="45.64340838231146" lon="10.46372652053833">
        <ele>261.8918791365956</ele>
        <time>2017-11-13T12:45:01.923000Z</time>
      </trkpt>
      <trkpt lat="45.64347275532782" lon="10.463662147521973">
        <ele>262.05997701266676</ele>
        <time>2017-11-13T12:45:02.049000Z</time>
      </trkpt>
      <trkpt lat="45.64351567067206" lon="10.463404655456543">
        <ele>262.4560392250565</ele>
        <time>2017-11-13T12:45:02.346000Z</time>
      </trkpt>
      <trkpt lat="45.64340829849243" lon="10.46321153640747">
        <ele>263.4918894573431</ele>
        <time>2017-11-13T12:45:02.623000Z</time>
      </trkpt>
      <trkpt lat="45.64323663711548" lon="10.462868213653564">
        <ele>260.1004743661695</ele>
        <time>2017-11-13T12:45:03.096000Z</time>
      </trkpt>
      <trkpt lat="45.64327955245972" lon="10.461323261260986">
        <ele>259.0</ele>
        <time>2017-11-13T12:45:04.829000Z</time>
      </trkpt>
      <trkpt lat="45.64336538314819" lon="10.461044311523438">
        <ele>260.94686474182663</ele>
        <time>2017-11-13T12:45:05.171000Z</time>
      </trkpt>
      <trkpt lat="45.64340838231146" lon="10.4610013961792">
        <ele>261.0158148220923</ele>
        <time>2017-11-13T12:45:05.255000Z</time>
      </trkpt>
      <trkpt lat="45.64347267150879" lon="10.460872650146484">
        <ele>261.1612722286047</ele>
        <time>2017-11-13T12:45:05.432000Z</time>
      </trkpt>
      <trkpt lat="45.64349421299994" lon="10.46074390411377">
        <ele>260.6163135385087</ele>
        <time>2017-11-13T12:45:05.580000Z</time>
      </trkpt>
      <trkpt lat="45.64345121383667" lon="10.460615158081055">
        <ele>260.7474919861085</ele>
        <time>2017-11-13T12:45:05.740000Z</time>
      </trkpt>
      <trkpt lat="45.64345121383667" lon="10.460293292999268">
        <ele>261.043405647156</ele>
        <time>2017-11-13T12:45:06.101000Z</time>
      </trkpt>
      <trkpt lat="45.64392328262329" lon="10.459692478179932">
        <ele>261.5410298805935</ele>
        <time>2017-11-13T12:45:07.114000Z</time>
      </trkpt>
      <trkpt lat="45.64540386199951" lon="10.456795692443848">
        <ele>269.0</ele>
        <time>2017-11-13T12:45:11.136000Z</time>
      </trkpt>
      <trkpt lat="45.64607200686836" lon="10.45480051437412">
        <ele>274.0</ele>
        <time>2017-11-13T12:45:13.615000Z</time>
      </trkpt>
      <trkpt lat="45.64607862013692" lon="10.454780765432982">
        <ele>274.01759985334115</ele>
        <time>2017-11-13T12:45:13.640000Z</time>
      </trkpt>
      <trkpt lat="45.646087657660246" lon="10.454753777012229">
        <ele>274.065885693226</ele>
        <time>2017-11-13T12:45:13.674000Z</time>
      </trkpt>
      <trkpt lat="45.64608774147928" lon="10.454753609374166">
        <ele>274.0662182528162</ele>
        <time>2017-11-13T12:45:13.674000Z</time>
      </trkpt>
      <trkpt lat="45.64694881439209" lon="10.452182292938232">
        <ele>281.0</ele>
        <time>2017-11-13T12:45:16.869000Z</time>
      </trkpt>
      <trkpt lat="45.64744234085083" lon="10.450294017791748">
        <ele>271.0</ele>
        <time>2017-11-13T12:45:19.128000Z</time>
      </trkpt>
      <trkpt lat="45.647785663604736" lon="10.449371337890625">
        <ele>279.3601716669348</ele>
        <time>2017-11-13T12:45:20.299000Z</time>
      </trkpt>
      <trkpt lat="45.64793586730957" lon="10.449113845825195">
        <ele>272.90352661711415</ele>
        <time>2017-11-13T12:45:20.675000Z</time>
      </trkpt>
      <trkpt lat="45.648343563079834" lon="10.448770523071289">
        <ele>281.0</ele>
        <time>2017-11-13T12:45:21.433000Z</time>
      </trkpt>
      <trkpt lat="45.64862251281738" lon="10.448577404022217">
        <ele>278.964793189933</ele>
        <time>2017-11-13T12:45:21.930000Z</time>
      </trkpt>
      <trkpt lat="45.64937353134155" lon="10.44825553894043">
        <ele>268.14937565658676</ele>
        <time>2017-11-13T12:45:23.187000Z</time>
      </trkpt>
      <trkpt lat="45.64969539642334" lon="10.447998046875">
        <ele>268.55782275543123</ele>
        <time>2017-11-13T12:45:23.778000Z</time>
      </trkpt>
      <trkpt lat="45.65023183822632" lon="10.447354316711426">
        <ele>272.0</ele>
        <time>2017-11-13T12:45:24.901000Z</time>
      </trkpt>
      <trkpt lat="45.65051078796387" lon="10.446474552154541">
        <ele>271.0</ele>
        <time>2017-11-13T12:45:25.984000Z</time>
      </trkpt>
      <trkpt lat="45.65089702606201" lon="10.443470478057861">
        <ele>272.0</ele>
        <time>2017-11-13T12:45:29.407000Z</time>
      </trkpt>
      <trkpt lat="45.65089702606201" lon="10.44252634048462">
        <ele>272.6666666666667</ele>
        <time>2017-11-13T12:45:30.465000Z</time>
      </trkpt>
      <trkpt lat="45.650832653045654" lon="10.441560745239258">
        <ele>272.0</ele>
        <time>2017-11-13T12:45:31.552000Z</time>
      </trkpt>
      <trkpt lat="45.65025329589844" lon="10.4380202293396">
        <ele>277.0</ele>
        <time>2017-11-13T12:45:35.627000Z</time>
      </trkpt>
      <trkpt lat="45.65018892288208" lon="10.437419414520264">
        <ele>275.9305820879431</ele>
        <time>2017-11-13T12:45:36.308000Z</time>
      </trkpt>
      <trkpt lat="45.65018892288208" lon="10.43677568435669">
        <ele>275.50404399583357</ele>
        <time>2017-11-13T12:45:37.029000Z</time>
      </trkpt>
      <trkpt lat="45.65025329589844" lon="10.436239242553711">
        <ele>274.4853603366896</ele>
        <time>2017-11-13T12:45:37.639000Z</time>
      </trkpt>
      <trkpt lat="45.65040349960327" lon="10.435552597045898">
        <ele>271.80545837761076</ele>
        <time>2017-11-13T12:45:38.445000Z</time>
      </trkpt>
      <trkpt lat="45.6504035834223" lon="10.435552597045898">
        <ele>271.8053264274019</ele>
        <time>2017-11-13T12:45:38.445000Z</time>
      </trkpt>
      <trkpt lat="45.650832736864686" lon="10.43450117111206">
        <ele>268.798832712505</ele>
        <time>2017-11-13T12:45:39.809000Z</time>
      </trkpt>
      <trkpt lat="45.652828216552734" lon="10.430488586425781">
        <ele>274.0</ele>
        <time>2017-11-13T12:45:45.327000Z</time>
      </trkpt>
      <trkpt lat="45.65317153930664" lon="10.429844856262207">
        <ele>268.0</ele>
        <time>2017-11-13T12:45:46.234000Z</time>
      </trkpt>
      <trkpt lat="45.653836727142334" lon="10.42879343032837">
        <ele>274.12266696097475</ele>
        <time>2017-11-13T12:45:47.823000Z</time>
      </trkpt>
      <trkpt lat="45.654137134552" lon="10.42851448059082">
        <ele>276.09388388269304</ele>
        <time>2017-11-13T12:45:48.397000Z</time>
      </trkpt>
      <trkpt lat="45.654373252764344" lon="10.428450107574463">
        <ele>289.9194493656955</ele>
        <time>2017-11-13T12:45:48.782000Z</time>
      </trkpt>
      <trkpt lat="45.65441608428955" lon="10.428471565246582">
        <ele>290.89345673683493</ele>
        <time>2017-11-13T12:45:48.855000Z</time>
      </trkpt>
      <trkpt lat="45.65452337265015" lon="10.428493022918701">
        <ele>292.43834733067337</ele>
        <time>2017-11-13T12:45:49.029000Z</time>
      </trkpt>
      <trkpt lat="45.65465211868286" lon="10.428385734558105">
        <ele>294.56312504306203</ele>
        <time>2017-11-13T12:45:49.268000Z</time>
      </trkpt>
      <trkpt lat="45.6546950340271" lon="10.42827844619751">
        <ele>285.6777649161069</ele>
        <time>2017-11-13T12:45:49.407000Z</time>
      </trkpt>
      <trkpt lat="45.65475940704346" lon="10.428106784820557">
        <ele>284.80781549939803</ele>
        <time>2017-11-13T12:45:49.625000Z</time>
      </trkpt>
      <trkpt lat="45.65523147583008" lon="10.427570343017578">
        <ele>284.95617341490356</ele>
        <time>2017-11-13T12:45:50.591000Z</time>
      </trkpt>
      <trkpt lat="45.655810832977295" lon="10.427098274230957">
        <ele>278.0298134362243</ele>
        <time>2017-11-13T12:45:51.660000Z</time>
      </trkpt>
      <trkpt lat="45.65677651204169" lon="10.426089763641357">
        <ele>280.0</ele>
        <time>2017-11-13T12:45:53.577000Z</time>
      </trkpt>
      <trkpt lat="45.65709829330444" lon="10.425724983215332">
        <ele>275.63335981236656</ele>
        <time>2017-11-13T12:45:54.235000Z</time>
      </trkpt>
      <trkpt lat="45.657377326861024" lon="10.425124168395996">
        <ele>273.95500184243434</ele>
        <time>2017-11-13T12:45:55.043000Z</time>
      </trkpt>
      <trkpt lat="45.65748461522162" lon="10.42478084564209">
        <ele>273.7466655727755</ele>
        <time>2017-11-13T12:45:55.464000Z</time>
      </trkpt>
      <trkpt lat="45.657548904418945" lon="10.424351692199707">
        <ele>274.52369397555253</ele>
        <time>2017-11-13T12:45:55.956000Z</time>
      </trkpt>
      <trkpt lat="45.65763473510742" lon="10.424115657806396">
        <ele>278.11660582935696</ele>
        <time>2017-11-13T12:45:56.254000Z</time>
      </trkpt>
      <trkpt lat="45.657784938812256" lon="10.4240083694458">
        <ele>278.65185915985313</ele>
        <time>2017-11-13T12:45:56.523000Z</time>
      </trkpt>
      <trkpt lat="45.65793522633612" lon="10.423901081085205">
        <ele>279.18735131392356</ele>
        <time>2017-11-13T12:45:56.792000Z</time>
      </trkpt>
      <trkpt lat="45.65795668400824" lon="10.423643589019775">
        <ele>279.76521299820917</ele>
        <time>2017-11-13T12:45:57.083000Z</time>
      </trkpt>
      <trkpt lat="45.657806396484375" lon="10.423493385314941">
        <ele>280.34970067673675</ele>
        <time>2017-11-13T12:45:57.377000Z</time>
      </trkpt>
      <trkpt lat="45.65767765045166" lon="10.423085689544678">
        <ele>281.264035766507</ele>
        <time>2017-11-13T12:45:57.878000Z</time>
      </trkpt>
      <trkpt lat="45.65767773427069" lon="10.422999858856201">
        <ele>281.2476006514218</ele>
        <time>2017-11-13T12:45:57.974000Z</time>
      </trkpt>
      <trkpt lat="45.65767773427069" lon="10.422742366790771">
        <ele>281.19829535429204</ele>
        <time>2017-11-13T12:45:58.263000Z</time>
      </trkpt>
      <trkpt lat="45.657527446746826" lon="10.419974327087402">
        <ele>278.0</ele>
        <time>2017-11-13T12:46:01.374000Z</time>
      </trkpt>
      <trkpt lat="45.65752753056586" lon="10.419416427612305">
        <ele>277.92377008291356</ele>
        <time>2017-11-13T12:46:01.999000Z</time>
      </trkpt>
      <trkpt lat="45.657570445910096" lon="10.419223308563232">
        <ele>277.86481755762077</ele>
        <time>2017-11-13T12:46:02.226000Z</time>
      </trkpt>
      <trkpt lat="45.657570362091064" lon="10.419223308563232">
        <ele>277.86478267040115</ele>
        <time>2017-11-13T12:46:02.226000Z</time>
      </trkpt>
      <trkpt lat="45.6577205657959" lon="10.418901443481445">
        <ele>277.08552803055824</ele>
        <time>2017-11-13T12:46:02.660000Z</time>
      </trkpt>
      <trkpt lat="45.65995216369629" lon="10.416970252990723">
        <ele>276.0</ele>
        <time>2017-11-13T12:46:06.841000Z</time>
      </trkpt>
      <trkpt lat="45.66237688064575" lon="10.414502620697021">
        <ele>280.0</ele>
        <time>2017-11-13T12:46:11.611000Z</time>
      </trkpt>
      <trkpt lat="45.66291340626776" lon="10.413966178894043">
        <ele>280.0</ele>
        <time>2017-11-13T12:46:12.660000Z</time>
      </trkpt>
      <trkpt lat="45.66490888595581" lon="10.412099361419678">
        <ele>277.0</ele>
        <time>2017-11-13T12:46:16.482000Z</time>
      </trkpt>
      <trkpt lat="45.66544532775879" lon="10.411691665649414">
        <ele>284.0</ele>
        <time>2017-11-13T12:46:17.456000Z</time>
      </trkpt>
      <trkpt lat="45.667312145233154" lon="10.41079044342041">
        <ele>278.0</ele>
        <time>2017-11-13T12:46:20.615000Z</time>
      </trkpt>
      <trkpt lat="45.66795587539673" lon="10.410382747650146">
        <ele>284.01272199405685</ele>
        <time>2017-11-13T12:46:21.744000Z</time>
      </trkpt>
      <trkpt lat="45.67033767700195" lon="10.409910678863525">
        <ele>287.0</ele>
        <time>2017-11-13T12:46:25.599000Z</time>
      </trkpt>
      <trkpt lat="45.67059516906738" lon="10.409975051879883">
        <ele>286.9081397774333</ele>
        <time>2017-11-13T12:46:26.018000Z</time>
      </trkpt>
      <trkpt lat="45.67072399891913" lon="10.410103797912598">
        <ele>288.85291880920687</ele>
        <time>2017-11-13T12:46:26.270000Z</time>
      </trkpt>
      <trkpt lat="45.67087420262396" lon="10.41006088256836">
        <ele>291.4657580098405</ele>
        <time>2017-11-13T12:46:26.516000Z</time>
      </trkpt>
      <trkpt lat="45.67093849182129" lon="10.409867763519287">
        <ele>286.07989373379183</ele>
        <time>2017-11-13T12:46:26.756000Z</time>
      </trkpt>
      <trkpt lat="45.67113161087036" lon="10.409696102142334">
        <ele>285.95913604634956</ele>
        <time>2017-11-13T12:46:27.120000Z</time>
      </trkpt>
      <trkpt lat="45.6727409362793" lon="10.409352779388428">
        <ele>284.4606927172735</ele>
        <time>2017-11-13T12:46:29.728000Z</time>
      </trkpt>
      <trkpt lat="45.67292183630426" lon="10.409361724609647">
        <ele>284.3636156112923</ele>
        <time>2017-11-13T12:46:30.018000Z</time>
      </trkpt>
      <trkpt lat="45.67293713581106" lon="10.4093624811488">
        <ele>284.35540537556125</ele>
        <time>2017-11-13T12:46:30.042000Z</time>
      </trkpt>
      <trkpt lat="45.67296129651368" lon="10.40936367586255">
        <ele>284.3424399207542</ele>
        <time>2017-11-13T12:46:30.081000Z</time>
      </trkpt>
      <trkpt lat="45.672961212694645" lon="10.40936367586255">
        <ele>284.3423949674369</ele>
        <time>2017-11-13T12:46:30.081000Z</time>
      </trkpt>
      <trkpt lat="45.67359924316406" lon="10.409395694732666">
        <ele>283.0</ele>
        <time>2017-11-13T12:46:31.104000Z</time>
      </trkpt>
      <trkpt lat="45.67563772201538" lon="10.410232543945312">
        <ele>285.0</ele>
        <time>2017-11-13T12:46:34.504000Z</time>
      </trkpt>
      <trkpt lat="45.67741870880127" lon="10.409717559814453">
        <ele>284.9037962056499</ele>
        <time>2017-11-13T12:46:37.417000Z</time>
      </trkpt>
      <trkpt lat="45.67771920002997" lon="10.40980339050293">
        <ele>287.0</ele>
        <time>2017-11-13T12:46:37.908000Z</time>
      </trkpt>
      <trkpt lat="45.677826488390565" lon="10.409824848175049">
        <ele>287.049670678553</ele>
        <time>2017-11-13T12:46:38.082000Z</time>
      </trkpt>
      <trkpt lat="45.67789077758789" lon="10.40980339050293">
        <ele>287.1241950745953</ele>
        <time>2017-11-13T12:46:38.188000Z</time>
      </trkpt>
      <trkpt lat="45.6782341003418" lon="10.409610271453857">
        <ele>287.5406356229849</ele>
        <time>2017-11-13T12:46:38.779000Z</time>
      </trkpt>
      <trkpt lat="45.67928561009467" lon="10.409460067749023">
        <ele>289.7335984361187</ele>
        <time>2017-11-13T12:46:40.473000Z</time>
      </trkpt>
      <trkpt lat="45.67986488342285" lon="10.409395694732666">
        <ele>290.5895969527107</ele>
        <time>2017-11-13T12:46:41.404000Z</time>
      </trkpt>
      <trkpt lat="45.680251121520996" lon="10.409224033355713">
        <ele>292.188968689564</ele>
        <time>2017-11-13T12:46:42.052000Z</time>
      </trkpt>
      <trkpt lat="45.680573070421815" lon="10.408923625946045">
        <ele>290.7018740609999</ele>
        <time>2017-11-13T12:46:42.668000Z</time>
      </trkpt>
      <trkpt lat="45.68057298660278" lon="10.408923625946045">
        <ele>290.7019132251601</ele>
        <time>2017-11-13T12:46:42.668000Z</time>
      </trkpt>
      <trkpt lat="45.68158149719238" lon="10.407636165618896">
        <ele>293.0</ele>
        <time>2017-11-13T12:46:44.834000Z</time>
      </trkpt>
      <trkpt lat="45.68218239583075" lon="10.406692028045654">
        <ele>300.578318584318</ele>
        <time>2017-11-13T12:46:46.264000Z</time>
      </trkpt>
      <trkpt lat="45.68265438079834" lon="10.404889583587646">
        <ele>312.0</ele>
        <time>2017-11-13T12:46:48.420000Z</time>
      </trkpt>
      <trkpt lat="45.68336248397827" lon="10.403623580932617">
        <ele>301.41491600776266</ele>
        <time>2017-11-13T12:46:50.236000Z</time>
      </trkpt>
      <trkpt lat="45.683748722076416" lon="10.403409004211426">
        <ele>300.5616306354457</ele>
        <time>2017-11-13T12:46:50.900000Z</time>
      </trkpt>
      <trkpt lat="45.68512201309204" lon="10.402979850769043">
        <ele>297.0</ele>
        <time>2017-11-13T12:46:53.153000Z</time>
      </trkpt>
      <trkpt lat="45.68542242050171" lon="10.402829647064209">
        <ele>297.6759133969097</ele>
        <time>2017-11-13T12:46:53.663000Z</time>
      </trkpt>
      <trkpt lat="45.68758964538574" lon="10.401027202606201">
        <ele>306.0</ele>
        <time>2017-11-13T12:46:57.681000Z</time>
      </trkpt>
      <trkpt lat="45.68836212158203" lon="10.400640964508057">
        <ele>292.0</ele>
        <time>2017-11-13T12:46:58.993000Z</time>
      </trkpt>
      <trkpt lat="45.68844795227051" lon="10.400533676147461">
        <ele>292.1267597955303</ele>
        <time>2017-11-13T12:46:59.176000Z</time>
      </trkpt>
      <trkpt lat="45.68846949376166" lon="10.400362014770508">
        <ele>292.4175494802951</ele>
        <time>2017-11-13T12:46:59.371000Z</time>
      </trkpt>
      <trkpt lat="45.68842649459839" lon="10.40004014968872">
        <ele>292.9639158529237</ele>
        <time>2017-11-13T12:46:59.738000Z</time>
      </trkpt>
      <trkpt lat="45.68844795227051" lon="10.399739742279053">
        <ele>294.46739223492995</ele>
        <time>2017-11-13T12:47:00.076000Z</time>
      </trkpt>
      <trkpt lat="45.68859815597534" lon="10.399503707885742">
        <ele>294.9997377515809</ele>
        <time>2017-11-13T12:47:00.434000Z</time>
      </trkpt>
      <trkpt lat="45.68992853164673" lon="10.398516654968262">
        <ele>300.0</ele>
        <time>2017-11-13T12:47:02.836000Z</time>
      </trkpt>
      <trkpt lat="45.69010019302368" lon="10.398216247558594">
        <ele>298.90156499189874</ele>
        <time>2017-11-13T12:47:03.271000Z</time>
      </trkpt>
      <trkpt lat="45.69022902287543" lon="10.397787094116211">
        <ele>298.78309722025324</ele>
        <time>2017-11-13T12:47:03.794000Z</time>
      </trkpt>
      <trkpt lat="45.69070109166205" lon="10.396735668182373">
        <ele>299.1327682285486</ele>
        <time>2017-11-13T12:47:05.194000Z</time>
      </trkpt>
      <trkpt lat="45.69143056869507" lon="10.39581298828125">
        <ele>299.0</ele>
        <time>2017-11-13T12:47:06.755000Z</time>
      </trkpt>
      <trkpt lat="45.691752433776855" lon="10.395212173461914">
        <ele>299.0</ele>
        <time>2017-11-13T12:47:07.603000Z</time>
      </trkpt>
      <trkpt lat="45.692546367645264" lon="10.392293930053711">
        <ele>299.0</ele>
        <time>2017-11-13T12:47:11.110000Z</time>
      </trkpt>
      <trkpt lat="45.6926965713501" lon="10.391929149627686">
        <ele>300.17075223527905</ele>
        <time>2017-11-13T12:47:11.584000Z</time>
      </trkpt>
      <trkpt lat="45.69291114807129" lon="10.391607284545898">
        <ele>306.63037864000506</ele>
        <time>2017-11-13T12:47:12.082000Z</time>
      </trkpt>
      <trkpt lat="45.69310426712036" lon="10.391414165496826">
        <ele>309.0</ele>
        <time>2017-11-13T12:47:12.460000Z</time>
      </trkpt>
      <trkpt lat="45.69340475834906" lon="10.391263961791992">
        <ele>307.46312487586806</ele>
        <time>2017-11-13T12:47:12.970000Z</time>
      </trkpt>
      <trkpt lat="45.69340467453003" lon="10.391263961791992">
        <ele>307.4632468395639</ele>
        <time>2017-11-13T12:47:12.970000Z</time>
      </trkpt>
      <trkpt lat="45.694026947021484" lon="10.390942096710205">
        <ele>308.4259876449096</ele>
        <time>2017-11-13T12:47:14.031000Z</time>
      </trkpt>
      <trkpt lat="45.69563627243042" lon="10.389890670776367">
        <ele>315.0</ele>
        <time>2017-11-13T12:47:16.867000Z</time>
      </trkpt>
      <trkpt lat="45.69683790206909" lon="10.388796329498291">
        <ele>305.0</ele>
        <time>2017-11-13T12:47:19.150000Z</time>
      </trkpt>
      <trkpt lat="45.69818981923163" lon="10.388453006744385">
        <ele>305.0</ele>
        <time>2017-11-13T12:47:21.351000Z</time>
      </trkpt>
      <trkpt lat="45.69870471954346" lon="10.388345718383789">
        <ele>303.6666666666667</ele>
        <time>2017-11-13T12:47:22.185000Z</time>
      </trkpt>
      <trkpt lat="45.698726177215576" lon="10.388431549072266">
        <ele>303.7895912184641</ele>
        <time>2017-11-13T12:47:22.287000Z</time>
      </trkpt>
      <trkpt lat="45.69885492324829" lon="10.388474464416504">
        <ele>304.0447962952672</ele>
        <time>2017-11-13T12:47:22.499000Z</time>
      </trkpt>
      <trkpt lat="45.69891929626465" lon="10.388281345367432">
        <ele>305.0</ele>
        <time>2017-11-13T12:47:22.739000Z</time>
      </trkpt>
      <trkpt lat="45.700211280733775" lon="10.387979004305187">
        <ele>306.86000471711515</ele>
        <time>2017-11-13T12:47:24.838000Z</time>
      </trkpt>
      <trkpt lat="45.70022638890676" lon="10.387975468713686">
        <ele>306.87050070818526</ele>
        <time>2017-11-13T12:47:24.863000Z</time>
      </trkpt>
      <trkpt lat="45.70025101304054" lon="10.387969706207514">
        <ele>306.8876076535639</ele>
        <time>2017-11-13T12:47:24.903000Z</time>
      </trkpt>
      <trkpt lat="45.70093640126288" lon="10.38780927658081">
        <ele>307.69709839183156</ele>
        <time>2017-11-13T12:47:26.016000Z</time>
      </trkpt>
      <trkpt lat="45.70136555470526" lon="10.387659072875977">
        <ele>308.0</ele>
        <time>2017-11-13T12:47:26.724000Z</time>
      </trkpt>
      <trkpt lat="45.70185899734497" lon="10.38731575012207">
        <ele>309.00265846311896</ele>
        <time>2017-11-13T12:47:27.604000Z</time>
      </trkpt>
      <trkpt lat="45.70209511555731" lon="10.387122631072998">
        <ele>309.33441304923844</ele>
        <time>2017-11-13T12:47:28.040000Z</time>
      </trkpt>
      <trkpt lat="45.70215940475464" lon="10.387101173400879">
        <ele>309.4149504795562</ele>
        <time>2017-11-13T12:47:28.146000Z</time>
      </trkpt>
      <trkpt lat="45.70241689682007" lon="10.386993885040283">
        <ele>309.7421287919239</ele>
        <time>2017-11-13T12:47:28.576000Z</time>
      </trkpt>
      <trkpt lat="45.702717304229736" lon="10.386993885040283">
        <ele>310.7753013876567</ele>
        <time>2017-11-13T12:47:29.058000Z</time>
      </trkpt>
      <trkpt lat="45.70288904942572" lon="10.387122631072998">
        <ele>310.878589938499</ele>
        <time>2017-11-13T12:47:29.369000Z</time>
      </trkpt>
      <trkpt lat="45.703060710802674" lon="10.38733720779419">
        <ele>311.0</ele>
        <time>2017-11-13T12:47:29.734000Z</time>
      </trkpt>
      <trkpt lat="45.70306062698364" lon="10.38733720779419">
        <ele>311.0001472018672</ele>
        <time>2017-11-13T12:47:29.734000Z</time>
      </trkpt>
      <trkpt lat="45.70344694890082" lon="10.387723445892334">
        <ele>312.8276134499518</ele>
        <time>2017-11-13T12:47:30.489000Z</time>
      </trkpt>
      <trkpt lat="45.70387601852417" lon="10.3885817527771">
        <ele>313.12219441094163</ele>
        <time>2017-11-13T12:47:31.671000Z</time>
      </trkpt>
      <trkpt lat="45.704283714294434" lon="10.389697551727295">
        <ele>322.0</ele>
        <time>2017-11-13T12:47:33.081000Z</time>
      </trkpt>
      <trkpt lat="45.705249309539795" lon="10.39456844329834">
        <ele>334.0</ele>
        <time>2017-11-13T12:47:38.750000Z</time>
      </trkpt>
      <trkpt lat="45.70563554763794" lon="10.39583444595337">
        <ele>319.0</ele>
        <time>2017-11-13T12:47:40.297000Z</time>
      </trkpt>
      <trkpt lat="45.7061505317688" lon="10.3985595703125">
        <ele>329.0</ele>
        <time>2017-11-13T12:47:43.458000Z</time>
      </trkpt>
      <trkpt lat="45.706322276964784" lon="10.399160385131836">
        <ele>328.6707018291043</ele>
        <time>2017-11-13T12:47:44.185000Z</time>
      </trkpt>
      <trkpt lat="45.70694446563721" lon="10.4005765914917">
        <ele>329.15535780172354</ele>
        <time>2017-11-13T12:47:46.058000Z</time>
      </trkpt>
      <trkpt lat="45.707026902498676" lon="10.400731249948677">
        <ele>329.05666966661846</ele>
        <time>2017-11-13T12:47:46.276000Z</time>
      </trkpt>
      <trkpt lat="45.70703619083131" lon="10.400748675691764">
        <ele>329.00455717410335</ele>
        <time>2017-11-13T12:47:46.301000Z</time>
      </trkpt>
      <trkpt lat="45.70705066435039" lon="10.400775829330087">
        <ele>328.92335299690626</ele>
        <time>2017-11-13T12:47:46.339000Z</time>
      </trkpt>
      <trkpt lat="45.70705058053136" lon="10.400775577872992">
        <ele>328.92269062831184</ele>
        <time>2017-11-13T12:47:46.339000Z</time>
      </trkpt>
      <trkpt lat="45.70763119496405" lon="10.401864051818848">
        <ele>323.0</ele>
        <time>2017-11-13T12:47:47.872000Z</time>
      </trkpt>
      <trkpt lat="45.707802856341004" lon="10.402250289916992">
        <ele>322.6193238095907</ele>
        <time>2017-11-13T12:47:48.385000Z</time>
      </trkpt>
      <trkpt lat="45.70788868702948" lon="10.402421951293945">
        <ele>322.4437760195513</ele>
        <time>2017-11-13T12:47:48.621000Z</time>
      </trkpt>
      <trkpt lat="45.70881128311157" lon="10.404589176177979">
        <ele>319.0</ele>
        <time>2017-11-13T12:47:51.462000Z</time>
      </trkpt>
      <trkpt lat="45.70894002914429" lon="10.40478229522705">
        <ele>319.27934128480996</ele>
        <time>2017-11-13T12:47:51.761000Z</time>
      </trkpt>
      <trkpt lat="45.709261894226074" lon="10.405104160308838">
        <ele>319.3927140092982</ele>
        <time>2017-11-13T12:47:52.390000Z</time>
      </trkpt>
      <trkpt lat="45.709776962175965" lon="10.40529727935791">
        <ele>319.99856128961835</ele>
        <time>2017-11-13T12:47:53.244000Z</time>
      </trkpt>
      <trkpt lat="45.709819877520204" lon="10.40531873703003">
        <ele>320.2767142387078</ele>
        <time>2017-11-13T12:47:53.317000Z</time>
      </trkpt>
      <trkpt lat="45.70999153889716" lon="10.405383110046387">
        <ele>321.36255836413716</ele>
        <time>2017-11-13T12:47:53.601000Z</time>
      </trkpt>
      <trkpt lat="45.71042060852051" lon="10.40555477142334">
        <ele>327.08864733231417</ele>
        <time>2017-11-13T12:47:54.315000Z</time>
      </trkpt>
      <trkpt lat="45.71067810058594" lon="10.405769348144531">
        <ele>329.02078240708187</ele>
        <time>2017-11-13T12:47:54.793000Z</time>
      </trkpt>
      <trkpt lat="45.71093559265137" lon="10.4060697555542">
        <ele>334.17477643089615</ele>
        <time>2017-11-13T12:47:55.325000Z</time>
      </trkpt>
      <trkpt lat="45.711514949798584" lon="10.406949520111084">
        <ele>333.5038589009033</ele>
        <time>2017-11-13T12:47:56.679000Z</time>
      </trkpt>
      <trkpt lat="45.711815441027284" lon="10.407507419586182">
        <ele>338.0</ele>
        <time>2017-11-13T12:47:57.468000Z</time>
      </trkpt>
      <trkpt lat="45.71331739425659" lon="10.411734580993652">
        <ele>333.0</ele>
        <time>2017-11-13T12:48:02.777000Z</time>
      </trkpt>
      <trkpt lat="45.713467597961426" lon="10.411992073059082">
        <ele>342.253776527054</ele>
        <time>2017-11-13T12:48:03.153000Z</time>
      </trkpt>
      <trkpt lat="45.713703632354736" lon="10.412249565124512">
        <ele>342.99734280238977</ele>
        <time>2017-11-13T12:48:03.629000Z</time>
      </trkpt>
      <trkpt lat="45.71466931141913" lon="10.412893295288086">
        <ele>345.0</ele>
        <time>2017-11-13T12:48:05.337000Z</time>
      </trkpt>
      <trkpt lat="45.71490526199341" lon="10.413086414337158">
        <ele>345.57449620428514</ele>
        <time>2017-11-13T12:48:05.773000Z</time>
      </trkpt>
      <trkpt lat="45.715205669403076" lon="10.413472652435303">
        <ele>346.42790062286207</ele>
        <time>2017-11-13T12:48:06.420000Z</time>
      </trkpt>
      <trkpt lat="45.71627855300903" lon="10.4150390625">
        <ele>352.0</ele>
        <time>2017-11-13T12:48:08.876000Z</time>
      </trkpt>
      <trkpt lat="45.716514587402344" lon="10.415511131286621">
        <ele>351.6574579252324</ele>
        <time>2017-11-13T12:48:09.526000Z</time>
      </trkpt>
      <trkpt lat="45.71653604507446" lon="10.415618419647217">
        <ele>351.52154161809284</ele>
        <time>2017-11-13T12:48:09.651000Z</time>
      </trkpt>
      <trkpt lat="45.71662187576294" lon="10.415704250335693">
        <ele>351.33895043006805</ele>
        <time>2017-11-13T12:48:09.819000Z</time>
      </trkpt>
      <trkpt lat="45.71683645248413" lon="10.415918827056885">
        <ele>357.8824730344649</ele>
        <time>2017-11-13T12:48:10.239000Z</time>
      </trkpt>
      <trkpt lat="45.71717977523804" lon="10.416476726531982">
        <ele>356.97680247844124</ele>
        <time>2017-11-13T12:48:11.071000Z</time>
      </trkpt>
      <trkpt lat="45.72089195251465" lon="10.421969890594482">
        <ele>335.0</ele>
        <time>2017-11-13T12:48:19.628000Z</time>
      </trkpt>
      <trkpt lat="45.7210636138916" lon="10.42229175567627">
        <ele>335.0</ele>
        <time>2017-11-13T12:48:20.081000Z</time>
      </trkpt>
      <trkpt lat="45.721707344055176" lon="10.424072742462158">
        <ele>333.0</ele>
        <time>2017-11-13T12:48:22.326000Z</time>
      </trkpt>
      <trkpt lat="45.72237253189087" lon="10.424931049346924">
        <ele>331.0</ele>
        <time>2017-11-13T12:48:23.761000Z</time>
      </trkpt>
      <trkpt lat="45.7223726157099" lon="10.424931049346924">
        <ele>331.0001418822713</ele>
        <time>2017-11-13T12:48:23.761000Z</time>
      </trkpt>
      <trkpt lat="45.723230838775635" lon="10.426476001739502">
        <ele>338.0</ele>
        <time>2017-11-13T12:48:25.971000Z</time>
      </trkpt>
      <trkpt lat="45.7246470451355" lon="10.428428649902344">
        <ele>342.0</ele>
        <time>2017-11-13T12:48:29.122000Z</time>
      </trkpt>
      <trkpt lat="45.72490462101996" lon="10.428943634033203">
        <ele>342.1371936072889</ele>
        <time>2017-11-13T12:48:29.831000Z</time>
      </trkpt>
      <trkpt lat="45.72505474090576" lon="10.42928695678711">
        <ele>342.89158975733443</ele>
        <time>2017-11-13T12:48:30.284000Z</time>
      </trkpt>
      <trkpt lat="45.72687864303589" lon="10.431733131408691">
        <ele>345.0</ele>
        <time>2017-11-13T12:48:34.290000Z</time>
      </trkpt>
      <trkpt lat="45.7276725769043" lon="10.432548522949219">
        <ele>338.0</ele>
        <time>2017-11-13T12:48:35.856000Z</time>
      </trkpt>
      <trkpt lat="45.72838068008423" lon="10.43250560760498">
        <ele>346.09695513919945</ele>
        <time>2017-11-13T12:48:36.992000Z</time>
      </trkpt>
      <trkpt lat="45.72859534062445" lon="10.432634353637695">
        <ele>346.5665925755878</ele>
        <time>2017-11-13T12:48:37.365000Z</time>
      </trkpt>
      <trkpt lat="45.728960037231445" lon="10.433106422424316">
        <ele>347.5585226928181</ele>
        <time>2017-11-13T12:48:38.153000Z</time>
      </trkpt>
      <trkpt lat="45.72941064834595" lon="10.433900356292725">
        <ele>348.0330341830334</ele>
        <time>2017-11-13T12:48:39.298000Z</time>
      </trkpt>
      <trkpt lat="45.729711055755615" lon="10.434222221374512">
        <ele>343.7247441646053</ele>
        <time>2017-11-13T12:48:39.899000Z</time>
      </trkpt>
      <trkpt lat="45.730440616607666" lon="10.434565544128418">
        <ele>347.4144198243619</ele>
        <time>2017-11-13T12:48:41.130000Z</time>
      </trkpt>
      <trkpt lat="45.73067665100098" lon="10.43452262878418">
        <ele>348.2477794848665</ele>
        <time>2017-11-13T12:48:41.511000Z</time>
      </trkpt>
      <trkpt lat="45.73112726211548" lon="10.43428659439087">
        <ele>351.2616035464577</ele>
        <time>2017-11-13T12:48:42.280000Z</time>
      </trkpt>
      <trkpt lat="45.73112734593451" lon="10.43428659439087">
        <ele>351.2619939886321</ele>
        <time>2017-11-13T12:48:42.280000Z</time>
      </trkpt>
      <trkpt lat="45.73181390762329" lon="10.433943271636963">
        <ele>361.3160004114538</ele>
        <time>2017-11-13T12:48:43.446000Z</time>
      </trkpt>
      <trkpt lat="45.731964111328125" lon="10.433921813964844">
        <ele>361.69598546892183</ele>
        <time>2017-11-13T12:48:43.688000Z</time>
      </trkpt>
      <trkpt lat="45.73333740234375" lon="10.434565544128418">
        <ele>365.0</ele>
        <time>2017-11-13T12:48:46.004000Z</time>
      </trkpt>
      <trkpt lat="45.73438882827759" lon="10.43452262878418">
        <ele>367.8360930392987</ele>
        <time>2017-11-13T12:48:47.690000Z</time>
      </trkpt>
      <trkpt lat="45.73505401611328" lon="10.434393882751465">
        <ele>378.7950656016064</ele>
        <time>2017-11-13T12:48:48.766000Z</time>
      </trkpt>
      <trkpt lat="45.73535442352295" lon="10.43450117111206">
        <ele>378.9222755256949</ele>
        <time>2017-11-13T12:48:49.262000Z</time>
      </trkpt>
      <trkpt lat="45.73625564575195" lon="10.435123443603516">
        <ele>378.0</ele>
        <time>2017-11-13T12:48:50.866000Z</time>
      </trkpt>
      <trkpt lat="45.73687791824341" lon="10.435466766357422">
        <ele>389.4087080814225</ele>
        <time>2017-11-13T12:48:51.935000Z</time>
      </trkpt>
      <trkpt lat="45.73752164840698" lon="10.43628215789795">
        <ele>400.0</ele>
        <time>2017-11-13T12:48:53.312000Z</time>
      </trkpt>
      <trkpt lat="45.73790797032416" lon="10.436325073242188">
        <ele>399.35323719747294</ele>
        <time>2017-11-13T12:48:53.933000Z</time>
      </trkpt>
      <trkpt lat="45.7381010055542" lon="10.436432361602783">
        <ele>399.00764046461626</ele>
        <time>2017-11-13T12:48:54.265000Z</time>
      </trkpt>
      <trkpt lat="45.7386589050293" lon="10.43726921081543">
        <ele>398.0994259933382</ele>
        <time>2017-11-13T12:48:55.560000Z</time>
      </trkpt>
      <trkpt lat="45.73874473571777" lon="10.437462329864502">
        <ele>397.52407734704394</ele>
        <time>2017-11-13T12:48:55.816000Z</time>
      </trkpt>
      <trkpt lat="45.73876619338989" lon="10.437805652618408">
        <ele>392.3245309016467</ele>
        <time>2017-11-13T12:48:56.202000Z</time>
      </trkpt>
      <trkpt lat="45.73887348175049" lon="10.438642501831055">
        <ele>391.7266194045449</ele>
        <time>2017-11-13T12:48:57.154000Z</time>
      </trkpt>
      <trkpt lat="45.738959312438965" lon="10.438814163208008">
        <ele>392.10586627068415</ele>
        <time>2017-11-13T12:48:57.390000Z</time>
      </trkpt>
      <trkpt lat="45.73930263519287" lon="10.439350605010986">
        <ele>399.4130381262771</ele>
        <time>2017-11-13T12:48:58.204000Z</time>
      </trkpt>
      <trkpt lat="45.73938854970038" lon="10.439887046813965">
        <ele>397.78583375070775</ele>
        <time>2017-11-13T12:48:58.820000Z</time>
      </trkpt>
      <trkpt lat="45.739860618487" lon="10.443127155303955">
        <ele>379.0</ele>
        <time>2017-11-13T12:49:02.523000Z</time>
      </trkpt>
      <trkpt lat="45.73988207615912" lon="10.443363189697266">
        <ele>368.61052690706055</ele>
        <time>2017-11-13T12:49:02.789000Z</time>
      </trkpt>
      <trkpt lat="45.73988207615912" lon="10.443427562713623">
        <ele>368.39515710157815</ele>
        <time>2017-11-13T12:49:02.861000Z</time>
      </trkpt>
      <trkpt lat="45.740010822191834" lon="10.444328784942627">
        <ele>368.3174660214573</ele>
        <time>2017-11-13T12:49:03.890000Z</time>
      </trkpt>
      <trkpt lat="45.740010822191834" lon="10.444478988647461">
        <ele>367.8529265111265</ele>
        <time>2017-11-13T12:49:04.058000Z</time>
      </trkpt>
      <trkpt lat="45.73990345001221" lon="10.444650650024414">
        <ele>361.80667644999625</ele>
        <time>2017-11-13T12:49:04.316000Z</time>
      </trkpt>
      <trkpt lat="45.73925971984863" lon="10.444886684417725">
        <ele>360.20363018677705</ele>
        <time>2017-11-13T12:49:05.381000Z</time>
      </trkpt>
      <trkpt lat="45.737285697832704" lon="10.446925163269043">
        <ele>353.0</ele>
        <time>2017-11-13T12:49:09.282000Z</time>
      </trkpt>
      <trkpt lat="45.736749256029725" lon="10.44726848602295">
        <ele>353.0</ele>
        <time>2017-11-13T12:49:10.224000Z</time>
      </trkpt>
      <trkpt lat="45.73614835739136" lon="10.447633266448975">
        <ele>363.21163628127084</ele>
        <time>2017-11-13T12:49:11.270000Z</time>
      </trkpt>
      <trkpt lat="45.73601961135864" lon="10.447783470153809">
        <ele>364.8584346854579</ele>
        <time>2017-11-13T12:49:11.536000Z</time>
      </trkpt>
      <trkpt lat="45.735483169555664" lon="10.448427200317383">
        <ele>374.7989411966502</ele>
        <time>2017-11-13T12:49:12.658000Z</time>
      </trkpt>
      <trkpt lat="45.73511838912964" lon="10.449199676513672">
        <ele>392.3549623928014</ele>
        <time>2017-11-13T12:49:13.702000Z</time>
      </trkpt>
      <trkpt lat="45.73503255844116" lon="10.450057983398438">
        <ele>398.99944325644424</ele>
        <time>2017-11-13T12:49:14.672000Z</time>
      </trkpt>
      <trkpt lat="45.73509693145752" lon="10.450422763824463">
        <ele>398.9598126412786</ele>
        <time>2017-11-13T12:49:15.093000Z</time>
      </trkpt>
      <trkpt lat="45.73526859283447" lon="10.450787544250488">
        <ele>398.91347415366164</ele>
        <time>2017-11-13T12:49:15.585000Z</time>
      </trkpt>
      <trkpt lat="45.73529005050659" lon="10.451109409332275">
        <ele>399.87941856129737</ele>
        <time>2017-11-13T12:49:15.947000Z</time>
      </trkpt>
      <trkpt lat="45.73526859283447" lon="10.4514741897583">
        <ele>399.84086077121236</ele>
        <time>2017-11-13T12:49:16.357000Z</time>
      </trkpt>
      <trkpt lat="45.73511838912964" lon="10.45198917388916">
        <ele>399.97626830200426</ele>
        <time>2017-11-13T12:49:16.982000Z</time>
      </trkpt>
      <trkpt lat="45.734732151031494" lon="10.452783107757568">
        <ele>388.4099179128111</ele>
        <time>2017-11-13T12:49:18.065000Z</time>
      </trkpt>
      <trkpt lat="45.734195709228516" lon="10.453319549560547">
        <ele>386.83499094456874</ele>
        <time>2017-11-13T12:49:19.114000Z</time>
      </trkpt>
      <trkpt lat="45.73383092880249" lon="10.454349517822266">
        <ele>392.5306175493611</ele>
        <time>2017-11-13T12:49:20.406000Z</time>
      </trkpt>
      <trkpt lat="45.73355197906494" lon="10.454692840576172">
        <ele>392.82065410191575</ele>
        <time>2017-11-13T12:49:20.996000Z</time>
      </trkpt>
      <trkpt lat="45.7335090637207" lon="10.454885959625244">
        <ele>392.6719531091535</ele>
        <time>2017-11-13T12:49:21.223000Z</time>
      </trkpt>
      <trkpt lat="45.73353052139282" lon="10.455100536346436">
        <ele>390.5129087057841</ele>
        <time>2017-11-13T12:49:21.466000Z</time>
      </trkpt>
      <trkpt lat="45.733729936346876" lon="10.45575834808126">
        <ele>389.98671320713555</ele>
        <time>2017-11-13T12:49:22.269000Z</time>
      </trkpt>
      <trkpt lat="45.733736034718625" lon="10.455778465100103">
        <ele>389.9706212758681</ele>
        <time>2017-11-13T12:49:22.294000Z</time>
      </trkpt>
      <trkpt lat="45.73373" lon="10.45579">
        <ele>389.96004460206376</ele>
        <time>2017-11-13T12:49:22.310000Z</time>
      </trkpt>
      <trkpt lat="45.734440000000006" lon="10.45776">
        <ele>389.0</ele>
        <time>2017-11-13T12:49:24.791000Z</time>
      </trkpt>
      <trkpt lat="45.734640000000006" lon="10.458250000000001">
        <ele>388.62669104849783</ele>
        <time>2017-11-13T12:49:25.426000Z</time>
      </trkpt>
      <trkpt lat="45.73498" lon="10.45889">
        <ele>383.41611990137267</ele>
        <time>2017-11-13T12:49:26.326000Z</time>
      </trkpt>
      <trkpt lat="45.735510000000005" lon="10.45977">
        <ele>384.0</ele>
        <time>2017-11-13T12:49:27.627000Z</time>
      </trkpt>
      <trkpt lat="45.73563" lon="10.460040000000001">
        <ele>380.2403954550796</ele>
        <time>2017-11-13T12:49:27.985000Z</time>
      </trkpt>
      <trkpt lat="45.73575" lon="10.460550000000001">
        <ele>378.40274062545745</ele>
        <time>2017-11-13T12:49:28.587000Z</time>
      </trkpt>
      <trkpt lat="45.7359" lon="10.46091">
        <ele>380.9712990470701</ele>
        <time>2017-11-13T12:49:29.056000Z</time>
      </trkpt>
      <trkpt lat="45.73612000000001" lon="10.46128">
        <ele>381.243994408808</ele>
        <time>2017-11-13T12:49:29.600000Z</time>
      </trkpt>
      <trkpt lat="45.736340000000006" lon="10.461590000000001">
        <ele>381.49202733840485</ele>
        <time>2017-11-13T12:49:30.095000Z</time>
      </trkpt>
      <trkpt lat="45.736470000000004" lon="10.461730000000001">
        <ele>379.28941748653824</ele>
        <time>2017-11-13T12:49:30.356000Z</time>
      </trkpt>
      <trkpt lat="45.73657" lon="10.4618">
        <ele>379.37887972310097</ele>
        <time>2017-11-13T12:49:30.534000Z</time>
      </trkpt>
      <trkpt lat="45.73669" lon="10.46185">
        <ele>381.14600040318504</ele>
        <time>2017-11-13T12:49:30.734000Z</time>
      </trkpt>
      <trkpt lat="45.736790000000006" lon="10.461870000000001">
        <ele>381.416342547679</ele>
        <time>2017-11-13T12:49:30.896000Z</time>
      </trkpt>
      <trkpt lat="45.73702" lon="10.46185">
        <ele>382.03329175242465</ele>
        <time>2017-11-13T12:49:31.265000Z</time>
      </trkpt>
      <trkpt lat="45.73734" lon="10.46184">
        <ele>383.9966335055057</ele>
        <time>2017-11-13T12:49:31.778000Z</time>
      </trkpt>
      <trkpt lat="45.73758" lon="10.4619">
        <ele>390.4910319494083</ele>
        <time>2017-11-13T12:49:32.169000Z</time>
      </trkpt>
      <trkpt lat="45.73825" lon="10.462230000000002">
        <ele>394.8368531653667</ele>
        <time>2017-11-13T12:49:33.305000Z</time>
      </trkpt>
      <trkpt lat="45.738530000000004" lon="10.462480000000001">
        <ele>405.41789440983376</ele>
        <time>2017-11-13T12:49:33.834000Z</time>
      </trkpt>
      <trkpt lat="45.738730000000004" lon="10.462760000000001">
        <ele>399.4245882491287</ele>
        <time>2017-11-13T12:49:34.282000Z</time>
      </trkpt>
      <trkpt lat="45.73895" lon="10.46311">
        <ele>401.0</ele>
        <time>2017-11-13T12:49:34.809000Z</time>
      </trkpt>
      <trkpt lat="45.73917" lon="10.46353">
        <ele>408.47048258718104</ele>
        <time>2017-11-13T12:49:35.397000Z</time>
      </trkpt>
      <trkpt lat="45.73930000000001" lon="10.463930000000001">
        <ele>409.70605495980345</ele>
        <time>2017-11-13T12:49:35.891000Z</time>
      </trkpt>
      <trkpt lat="45.73942" lon="10.46447">
        <ele>405.9596315869151</ele>
        <time>2017-11-13T12:49:36.525000Z</time>
      </trkpt>
      <trkpt lat="45.739540000000005" lon="10.46476">
        <ele>406.90368905128247</ele>
        <time>2017-11-13T12:49:36.902000Z</time>
      </trkpt>
      <trkpt lat="45.739850000000004" lon="10.46523">
        <ele>402.9859993806217</ele>
        <time>2017-11-13T12:49:37.626000Z</time>
      </trkpt>
      <trkpt lat="45.740050000000004" lon="10.465620000000001">
        <ele>415.46264835940224</ele>
        <time>2017-11-13T12:49:38.167000Z</time>
      </trkpt>
      <trkpt lat="45.740260000000006" lon="10.466140000000001">
        <ele>405.9244320929927</ele>
        <time>2017-11-13T12:49:38.839000Z</time>
      </trkpt>
      <trkpt lat="45.740410000000004" lon="10.466660000000001">
        <ele>403.57375119533594</ele>
        <time>2017-11-13T12:49:39.469000Z</time>
      </trkpt>
      <trkpt lat="45.74051" lon="10.467360000000001">
        <ele>397.58869417454525</ele>
        <time>2017-11-13T12:49:40.268000Z</time>
      </trkpt>
      <trkpt lat="45.74058" lon="10.46803">
        <ele>393.0917506256182</ele>
        <time>2017-11-13T12:49:41.026000Z</time>
      </trkpt>
      <trkpt lat="45.740640000000006" lon="10.46826">
        <ele>392.7061493224537</ele>
        <time>2017-11-13T12:49:41.301000Z</time>
      </trkpt>
      <trkpt lat="45.740840000000006" lon="10.46873">
        <ele>398.5083460113232</ele>
        <time>2017-11-13T12:49:41.917000Z</time>
      </trkpt>
      <trkpt lat="45.741040000000005" lon="10.469000000000001">
        <ele>397.9156317233382</ele>
        <time>2017-11-13T12:49:42.358000Z</time>
      </trkpt>
      <trkpt lat="45.74123" lon="10.469180000000001">
        <ele>391.0909893815478</ele>
        <time>2017-11-13T12:49:42.723000Z</time>
      </trkpt>
      <trkpt lat="45.742050000000006" lon="10.469740000000002">
        <ele>397.60506024129353</ele>
        <time>2017-11-13T12:49:44.179000Z</time>
      </trkpt>
      <trkpt lat="45.742230000000006" lon="10.469930000000002">
        <ele>397.32138460122354</ele>
        <time>2017-11-13T12:49:44.537000Z</time>
      </trkpt>
      <trkpt lat="45.74242" lon="10.470170000000001">
        <ele>391.0</ele>
        <time>2017-11-13T12:49:44.943000Z</time>
      </trkpt>
      <trkpt lat="45.742830000000005" lon="10.4709">
        <ele>400.8813929593742</ele>
        <time>2017-11-13T12:49:45.991000Z</time>
      </trkpt>
      <trkpt lat="45.74311" lon="10.471240000000002">
        <ele>403.9951608483314</ele>
        <time>2017-11-13T12:49:46.579000Z</time>
      </trkpt>
      <trkpt lat="45.74356" lon="10.471710000000002">
        <ele>409.3861645531825</ele>
        <time>2017-11-13T12:49:47.472000Z</time>
      </trkpt>
      <trkpt lat="45.74432" lon="10.472480000000001">
        <ele>431.0</ele>
        <time>2017-11-13T12:49:48.964000Z</time>
      </trkpt>
      <trkpt lat="45.744780000000006" lon="10.47278">
        <ele>414.8450227900055</ele>
        <time>2017-11-13T12:49:49.774000Z</time>
      </trkpt>
      <trkpt lat="45.74531" lon="10.47315">
        <ele>413.66524407152224</ele>
        <time>2017-11-13T12:49:50.719000Z</time>
      </trkpt>
      <trkpt lat="45.745610000000006" lon="10.47338">
        <ele>401.18835619906093</ele>
        <time>2017-11-13T12:49:51.264000Z</time>
      </trkpt>
      <trkpt lat="45.745740000000005" lon="10.47353">
        <ele>401.1746323348288</ele>
        <time>2017-11-13T12:49:51.532000Z</time>
      </trkpt>
      <trkpt lat="45.746100000000006" lon="10.47427">
        <ele>405.4561947826115</ele>
        <time>2017-11-13T12:49:52.541000Z</time>
      </trkpt>
      <trkpt lat="45.74636" lon="10.47478">
        <ele>407.3782954872108</ele>
        <time>2017-11-13T12:49:53.248000Z</time>
      </trkpt>
      <trkpt lat="45.74672" lon="10.475230000000002">
        <ele>409.6273151745059</ele>
        <time>2017-11-13T12:49:54.014000Z</time>
      </trkpt>
      <trkpt lat="45.74783" lon="10.47648">
        <ele>413.0</ele>
        <time>2017-11-13T12:49:56.277000Z</time>
      </trkpt>
      <trkpt lat="45.74895" lon="10.47765">
        <ele>399.39243310008914</ele>
        <time>2017-11-13T12:49:58.499000Z</time>
      </trkpt>
      <trkpt lat="45.7494" lon="10.47817">
        <ele>409.0</ele>
        <time>2017-11-13T12:49:59.426000Z</time>
      </trkpt>
      <trkpt lat="45.749770000000005" lon="10.47854">
        <ele>403.49287474462926</ele>
        <time>2017-11-13T12:50:00.149000Z</time>
      </trkpt>
      <trkpt lat="45.75009000000001" lon="10.47877">
        <ele>406.5615131663288</ele>
        <time>2017-11-13T12:50:00.723000Z</time>
      </trkpt>
      <trkpt lat="45.751490000000004" lon="10.47953">
        <ele>400.0</ele>
        <time>2017-11-13T12:50:03.123000Z</time>
      </trkpt>
      <trkpt lat="45.752" lon="10.479800000000001">
        <ele>407.636499380306</ele>
        <time>2017-11-13T12:50:03.995000Z</time>
      </trkpt>
      <trkpt lat="45.754380000000005" lon="10.481140000000002">
        <ele>428.0</ele>
        <time>2017-11-13T12:50:08.094000Z</time>
      </trkpt>
      <trkpt lat="45.754810000000006" lon="10.481420000000002">
        <ele>428.0</ele>
        <time>2017-11-13T12:50:08.851000Z</time>
      </trkpt>
      <trkpt lat="45.75497000000001" lon="10.481630000000001">
        <ele>428.0</ele>
        <time>2017-11-13T12:50:09.199000Z</time>
      </trkpt>
      <trkpt lat="45.75509" lon="10.481850000000001">
        <ele>433.946653200011</ele>
        <time>2017-11-13T12:50:09.511000Z</time>
      </trkpt>
      <trkpt lat="45.75556" lon="10.482800000000001">
        <ele>427.78097766379943</ele>
        <time>2017-11-13T12:50:10.814000Z</time>
      </trkpt>
      <trkpt lat="45.755970000000005" lon="10.483490000000002">
        <ele>431.68967917936</ele>
        <time>2017-11-13T12:50:11.828000Z</time>
      </trkpt>
      <trkpt lat="45.756350000000005" lon="10.48395">
        <ele>430.86617451488513</ele>
        <time>2017-11-13T12:50:12.625000Z</time>
      </trkpt>
      <trkpt lat="45.75668" lon="10.48422">
        <ele>428.6525900251933</ele>
        <time>2017-11-13T12:50:13.234000Z</time>
      </trkpt>
      <trkpt lat="45.758430000000004" lon="10.48545">
        <ele>444.0</ele>
        <time>2017-11-13T12:50:16.359000Z</time>
      </trkpt>
      <trkpt lat="45.75878" lon="10.485800000000001">
        <ele>438.2184602167534</ele>
        <time>2017-11-13T12:50:17.043000Z</time>
      </trkpt>
      <trkpt lat="45.758950000000006" lon="10.486040000000001">
        <ele>427.6525153327302</ele>
        <time>2017-11-13T12:50:17.426000Z</time>
      </trkpt>
      <trkpt lat="45.759310000000006" lon="10.48666">
        <ele>440.15868065546175</ele>
        <time>2017-11-13T12:50:18.328000Z</time>
      </trkpt>
      <trkpt lat="45.75952" lon="10.487010000000001">
        <ele>431.0186340831454</ele>
        <time>2017-11-13T12:50:18.844000Z</time>
      </trkpt>
      <trkpt lat="45.7597" lon="10.487250000000001">
        <ele>430.6572953823216</ele>
        <time>2017-11-13T12:50:19.238000Z</time>
      </trkpt>
      <trkpt lat="45.760070000000006" lon="10.48761">
        <ele>427.0</ele>
        <time>2017-11-13T12:50:19.955000Z</time>
      </trkpt>
      <trkpt lat="45.760600000000004" lon="10.487910000000001">
        <ele>430.1536360961809</ele>
        <time>2017-11-13T12:50:20.869000Z</time>
      </trkpt>
      <trkpt lat="45.76097" lon="10.488140000000001">
        <ele>441.71895460906103</ele>
        <time>2017-11-13T12:50:21.516000Z</time>
      </trkpt>
      <trkpt lat="45.76115" lon="10.48831">
        <ele>440.12027242434283</ele>
        <time>2017-11-13T12:50:21.862000Z</time>
      </trkpt>
      <trkpt lat="45.761410000000005" lon="10.488710000000001">
        <ele>426.6249076175561</ele>
        <time>2017-11-13T12:50:22.473000Z</time>
      </trkpt>
      <trkpt lat="45.76153" lon="10.48897">
        <ele>425.0119166529492</ele>
        <time>2017-11-13T12:50:22.822000Z</time>
      </trkpt>
      <trkpt lat="45.761590000000005" lon="10.489220000000001">
        <ele>416.97734149532465</ele>
        <time>2017-11-13T12:50:23.118000Z</time>
      </trkpt>
      <trkpt lat="45.761750000000006" lon="10.489730000000002">
        <ele>428.58192138837666</ele>
        <time>2017-11-13T12:50:23.743000Z</time>
      </trkpt>
      <trkpt lat="45.761970000000005" lon="10.4901">
        <ele>415.9610835232846</ele>
        <time>2017-11-13T12:50:24.287000Z</time>
      </trkpt>
      <trkpt lat="45.76223" lon="10.49038">
        <ele>413.12848060686355</ele>
        <time>2017-11-13T12:50:24.808000Z</time>
      </trkpt>
      <trkpt lat="45.762530000000005" lon="10.49061">
        <ele>417.83179038033904</ele>
        <time>2017-11-13T12:50:25.353000Z</time>
      </trkpt>
      <trkpt lat="45.762950000000004" lon="10.490870000000001">
        <ele>402.180237092822</ele>
        <time>2017-11-13T12:50:26.086000Z</time>
      </trkpt>
      <trkpt lat="45.76368" lon="10.491190000000001">
        <ele>408.3703199714366</ele>
        <time>2017-11-13T12:50:27.310000Z</time>
      </trkpt>
      <trkpt lat="45.76449" lon="10.49144">
        <ele>414.4221922133425</ele>
        <time>2017-11-13T12:50:28.638000Z</time>
      </trkpt>
      <trkpt lat="45.76449" lon="10.49141">
        <ele>414.2794076319814</ele>
        <time>2017-11-13T12:50:28.672000Z</time>
      </trkpt>
      <trkpt lat="45.764520000000005" lon="10.49136">
        <ele>413.96552168899916</ele>
        <time>2017-11-13T12:50:28.746000Z</time>
      </trkpt>
      <trkpt lat="45.76455000000001" lon="10.49132">
        <ele>413.685991848956</ele>
        <time>2017-11-13T12:50:28.812000Z</time>
      </trkpt>
      <trkpt lat="45.76464000000001" lon="10.491280000000001">
        <ele>413.0431246503435</ele>
        <time>2017-11-13T12:50:28.963000Z</time>
      </trkpt>
      <trkpt lat="45.764720000000004" lon="10.49132">
        <ele>412.46506970667775</ele>
        <time>2017-11-13T12:50:29.099000Z</time>
      </trkpt>
      <trkpt lat="45.76478" lon="10.49141">
        <ele>411.87257014325655</ele>
        <time>2017-11-13T12:50:29.238000Z</time>
      </trkpt>
      <trkpt lat="45.764790000000005" lon="10.49154">
        <ele>411.25009011960725</ele>
        <time>2017-11-13T12:50:29.384000Z</time>
      </trkpt>
      <trkpt lat="45.7653" lon="10.49172">
        <ele>402.0</ele>
        <time>2017-11-13T12:50:30.226000Z</time>
      </trkpt>
      <trkpt lat="45.765550000000005" lon="10.49178">
        <ele>402.3101213003961</ele>
        <time>2017-11-13T12:50:30.632000Z</time>
      </trkpt>
      <trkpt lat="45.76577" lon="10.491800000000001">
        <ele>402.57982247777454</ele>
        <time>2017-11-13T12:50:30.985000Z</time>
      </trkpt>
      <trkpt lat="45.76597" lon="10.491850000000001">
        <ele>403.49487369590344</ele>
        <time>2017-11-13T12:50:31.310000Z</time>
      </trkpt>
      <trkpt lat="45.766180000000006" lon="10.491950000000001">
        <ele>403.76560426845737</ele>
        <time>2017-11-13T12:50:31.665000Z</time>
      </trkpt>
      <trkpt lat="45.76655" lon="10.492170000000002">
        <ele>404.0715600459471</ele>
        <time>2017-11-13T12:50:32.307000Z</time>
      </trkpt>
      <trkpt lat="45.76686" lon="10.49243">
        <ele>409.3458894486095</ele>
        <time>2017-11-13T12:50:32.883000Z</time>
      </trkpt>
      <trkpt lat="45.76702" lon="10.49254">
        <ele>404.8147598685948</ele>
        <time>2017-11-13T12:50:33.167000Z</time>
      </trkpt>
      <trkpt lat="45.76726" lon="10.492590000000002">
        <ele>405.0</ele>
        <time>2017-11-13T12:50:33.556000Z</time>
      </trkpt>
      <trkpt lat="45.7674" lon="10.49263">
        <ele>406.53490807096915</ele>
        <time>2017-11-13T12:50:33.785000Z</time>
      </trkpt>
      <trkpt lat="45.76747" lon="10.49268">
        <ele>407.3758143103262</ele>
        <time>2017-11-13T12:50:33.910000Z</time>
      </trkpt>
      <trkpt lat="45.767660000000014" lon="10.49286">
        <ele>420.15785371747916</ele>
        <time>2017-11-13T12:50:34.275000Z</time>
      </trkpt>
      <trkpt lat="45.76823" lon="10.49374">
        <ele>424.8314718732531</ele>
        <time>2017-11-13T12:50:35.618000Z</time>
      </trkpt>
      <trkpt lat="45.768480000000004" lon="10.49412">
        <ele>443.9718333092507</ele>
        <time>2017-11-13T12:50:36.202000Z</time>
      </trkpt>
      <trkpt lat="45.768600000000006" lon="10.4944">
        <ele>440.1197032102639</ele>
        <time>2017-11-13T12:50:36.569000Z</time>
      </trkpt>
      <trkpt lat="45.76877" lon="10.494950000000001">
        <ele>445.27195426162234</ele>
        <time>2017-11-13T12:50:37.242000Z</time>
      </trkpt>
      <trkpt lat="45.76878000000001" lon="10.49483">
        <ele>445.8577432019346</ele>
        <time>2017-11-13T12:50:37.377000Z</time>
      </trkpt>
      <trkpt lat="45.768730000000005" lon="10.494560000000002">
        <ele>447.2117955532246</ele>
        <time>2017-11-13T12:50:37.689000Z</time>
      </trkpt>
      <trkpt lat="45.76852" lon="10.493780000000001">
        <ele>452.6218558733576</ele>
        <time>2017-11-13T12:50:38.624000Z</time>
      </trkpt>
      <trkpt lat="45.76831000000001" lon="10.49323">
        <ele>441.34615365621517</ele>
        <time>2017-11-13T12:50:39.325000Z</time>
      </trkpt>
      <trkpt lat="45.76829" lon="10.492890000000001">
        <ele>440.8333274419538</ele>
        <time>2017-11-13T12:50:39.707000Z</time>
      </trkpt>
      <trkpt lat="45.76814" lon="10.49197">
        <ele>453.61133022284895</ele>
        <time>2017-11-13T12:50:40.764000Z</time>
      </trkpt>
      <trkpt lat="45.768040000000006" lon="10.49169">
        <ele>457.7492066080229</ele>
        <time>2017-11-13T12:50:41.116000Z</time>
      </trkpt>
      <trkpt lat="45.767920000000004" lon="10.4913">
        <ele>473.6896344150437</ele>
        <time>2017-11-13T12:50:41.593000Z</time>
      </trkpt>
      <trkpt lat="45.76769" lon="10.491000000000001">
        <ele>479.5534853858773</ele>
        <time>2017-11-13T12:50:42.092000Z</time>
      </trkpt>
      <trkpt lat="45.767610000000005" lon="10.49078">
        <ele>485.9934165946458</ele>
        <time>2017-11-13T12:50:42.369000Z</time>
      </trkpt>
      <trkpt lat="45.767610000000005" lon="10.490720000000001">
        <ele>486.34165013803045</ele>
        <time>2017-11-13T12:50:42.436000Z</time>
      </trkpt>
      <trkpt lat="45.767630000000004" lon="10.49071">
        <ele>486.5178843638707</ele>
        <time>2017-11-13T12:50:42.470000Z</time>
      </trkpt>
      <trkpt lat="45.76769" lon="10.49074">
        <ele>487.04658697970575</ele>
        <time>2017-11-13T12:50:42.572000Z</time>
      </trkpt>
      <trkpt lat="45.767830000000004" lon="10.49088">
        <ele>483.46681001820724</ele>
        <time>2017-11-13T12:50:42.846000Z</time>
      </trkpt>
      <trkpt lat="45.768" lon="10.49112">
        <ele>485.4519649541549</ele>
        <time>2017-11-13T12:50:43.229000Z</time>
      </trkpt>
      <trkpt lat="45.768260000000005" lon="10.49136">
        <ele>488.0248676689507</ele>
        <time>2017-11-13T12:50:43.725000Z</time>
      </trkpt>
      <trkpt lat="45.768550000000005" lon="10.49183">
        <ele>505.79977369535885</ele>
        <time>2017-11-13T12:50:44.427000Z</time>
      </trkpt>
      <trkpt lat="45.768890000000006" lon="10.49277">
        <ele>506.0092646513952</ele>
        <time>2017-11-13T12:50:45.611000Z</time>
      </trkpt>
      <trkpt lat="45.76921" lon="10.49328">
        <ele>529.130557368804</ele>
        <time>2017-11-13T12:50:46.378000Z</time>
      </trkpt>
      <trkpt lat="45.76926" lon="10.493350000000001">
        <ele>520.425657019692</ele>
        <time>2017-11-13T12:50:46.490000Z</time>
      </trkpt>
      <trkpt lat="45.76932" lon="10.49337">
        <ele>518.9229092234983</ele>
        <time>2017-11-13T12:50:46.589000Z</time>
      </trkpt>
      <trkpt lat="45.769360000000006" lon="10.493350000000001">
        <ele>517.889460827184</ele>
        <time>2017-11-13T12:50:46.657000Z</time>
      </trkpt>
      <trkpt lat="45.76939" lon="10.493300000000001">
        <ele>523.7671745224228</ele>
        <time>2017-11-13T12:50:46.731000Z</time>
      </trkpt>
      <trkpt lat="45.76937" lon="10.493210000000001">
        <ele>522.1598314225024</ele>
        <time>2017-11-13T12:50:46.837000Z</time>
      </trkpt>
      <trkpt lat="45.769310000000004" lon="10.493070000000001">
        <ele>519.3637666821569</ele>
        <time>2017-11-13T12:50:47.021000Z</time>
      </trkpt>
      <trkpt lat="45.76919" lon="10.49291">
        <ele>515.365930438089</ele>
        <time>2017-11-13T12:50:47.284000Z</time>
      </trkpt>
      <trkpt lat="45.76903" lon="10.49252">
        <ele>489.0</ele>
        <time>2017-11-13T12:50:47.790000Z</time>
      </trkpt>
      <trkpt lat="45.768980000000006" lon="10.49224">
        <ele>497.91016401454925</ele>
        <time>2017-11-13T12:50:48.113000Z</time>
      </trkpt>
      <trkpt lat="45.76897" lon="10.491660000000001">
        <ele>507.4136050703137</ele>
        <time>2017-11-13T12:50:48.762000Z</time>
      </trkpt>
      <trkpt lat="45.76894" lon="10.49135">
        <ele>509.8429295422239</ele>
        <time>2017-11-13T12:50:49.112000Z</time>
      </trkpt>
      <trkpt lat="45.768890000000006" lon="10.491140000000001">
        <ele>511.56533013909876</ele>
        <time>2017-11-13T12:50:49.360000Z</time>
      </trkpt>
      <trkpt lat="45.76874" lon="10.49088">
        <ele>514.1843198770965</ele>
        <time>2017-11-13T12:50:49.737000Z</time>
      </trkpt>
      <trkpt lat="45.76859" lon="10.490680000000001">
        <ele>514.0937037554004</ele>
        <time>2017-11-13T12:50:50.065000Z</time>
      </trkpt>
      <trkpt lat="45.76834" lon="10.490340000000002">
        <ele>511.6983174366137</ele>
        <time>2017-11-13T12:50:50.617000Z</time>
      </trkpt>
      <trkpt lat="45.768260000000005" lon="10.490070000000001">
        <ele>500.27591005011465</ele>
        <time>2017-11-13T12:50:50.945000Z</time>
      </trkpt>
      <trkpt lat="45.76827" lon="10.48963">
        <ele>495.89155083058705</ele>
        <time>2017-11-13T12:50:51.437000Z</time>
      </trkpt>
      <trkpt lat="45.768260000000005" lon="10.489410000000001">
        <ele>495.0313394091084</ele>
        <time>2017-11-13T12:50:51.684000Z</time>
      </trkpt>
      <trkpt lat="45.76829" lon="10.48924">
        <ele>494.3471406773554</ele>
        <time>2017-11-13T12:50:51.880000Z</time>
      </trkpt>
      <trkpt lat="45.76843" lon="10.48905">
        <ele>499.5801530564069</ele>
        <time>2017-11-13T12:50:52.189000Z</time>
      </trkpt>
      <trkpt lat="45.76863" lon="10.48892">
        <ele>501.74404929492835</ele>
        <time>2017-11-13T12:50:52.541000Z</time>
      </trkpt>
      <trkpt lat="45.768750000000004" lon="10.48892">
        <ele>502.9265166574194</ele>
        <time>2017-11-13T12:50:52.733000Z</time>
      </trkpt>
      <trkpt lat="45.76883" lon="10.488980000000002">
        <ele>503.81619286864355</ele>
        <time>2017-11-13T12:50:52.878000Z</time>
      </trkpt>
      <trkpt lat="45.7689" lon="10.489070000000002">
        <ele>504.742737371935</ele>
        <time>2017-11-13T12:50:53.029000Z</time>
      </trkpt>
      <trkpt lat="45.76906" lon="10.489410000000001">
        <ele>512.8951893870376</ele>
        <time>2017-11-13T12:50:53.488000Z</time>
      </trkpt>
      <trkpt lat="45.769090000000006" lon="10.48961">
        <ele>514.3013349241033</ele>
        <time>2017-11-13T12:50:53.717000Z</time>
      </trkpt>
      <trkpt lat="45.769040000000004" lon="10.489730000000002">
        <ele>515.2621140879857</ele>
        <time>2017-11-13T12:50:53.873000Z</time>
      </trkpt>
      <trkpt lat="45.76901" lon="10.48977">
        <ele>515.6817858968719</ele>
        <time>2017-11-13T12:50:53.939000Z</time>
      </trkpt>
      <trkpt lat="45.76899" lon="10.489820000000002">
        <ele>516.0936242020795</ele>
        <time>2017-11-13T12:50:54.003000Z</time>
      </trkpt>
      <trkpt lat="45.76905000000001" lon="10.48995">
        <ele>517.2074385931811</ele>
        <time>2017-11-13T12:50:54.177000Z</time>
      </trkpt>
      <trkpt lat="45.769110000000005" lon="10.48999">
        <ele>517.8852509324447</ele>
        <time>2017-11-13T12:50:54.283000Z</time>
      </trkpt>
      <trkpt lat="45.769180000000006" lon="10.489970000000001">
        <ele>536.0913239787351</ele>
        <time>2017-11-13T12:50:54.397000Z</time>
      </trkpt>
      <trkpt lat="45.76923" lon="10.489920000000001">
        <ele>536.8367283705797</ele>
        <time>2017-11-13T12:50:54.495000Z</time>
      </trkpt>
      <trkpt lat="45.769310000000004" lon="10.48967">
        <ele>539.1826671877183</ele>
        <time>2017-11-13T12:50:54.803000Z</time>
      </trkpt>
      <trkpt lat="45.76948" lon="10.48888">
        <ele>538.5673056117836</ele>
        <time>2017-11-13T12:50:55.728000Z</time>
      </trkpt>
      <trkpt lat="45.76955" lon="10.48868">
        <ele>540.4758066423811</ele>
        <time>2017-11-13T12:50:55.978000Z</time>
      </trkpt>
      <trkpt lat="45.769690000000004" lon="10.48845">
        <ele>541.7475864140755</ele>
        <time>2017-11-13T12:50:56.319000Z</time>
      </trkpt>
      <trkpt lat="45.76988" lon="10.48811">
        <ele>536.895954355768</ele>
        <time>2017-11-13T12:50:56.806000Z</time>
      </trkpt>
      <trkpt lat="45.77013" lon="10.487540000000001">
        <ele>556.3677979852092</ele>
        <time>2017-11-13T12:50:57.559000Z</time>
      </trkpt>
      <trkpt lat="45.770250000000004" lon="10.48728">
        <ele>549.0</ele>
        <time>2017-11-13T12:50:57.908000Z</time>
      </trkpt>
      <trkpt lat="45.770390000000006" lon="10.48713">
        <ele>551.3780409804154</ele>
        <time>2017-11-13T12:50:58.188000Z</time>
      </trkpt>
      <trkpt lat="45.7706" lon="10.48695">
        <ele>554.7070530882357</ele>
        <time>2017-11-13T12:50:58.580000Z</time>
      </trkpt>
      <trkpt lat="45.77066000000001" lon="10.486920000000001">
        <ele>555.5716407320257</ele>
        <time>2017-11-13T12:50:58.682000Z</time>
      </trkpt>
      <trkpt lat="45.770680000000006" lon="10.48698">
        <ele>556.202758595133</ele>
        <time>2017-11-13T12:50:58.756000Z</time>
      </trkpt>
      <trkpt lat="45.770590000000006" lon="10.48709">
        <ele>557.8119145559463</ele>
        <time>2017-11-13T12:50:58.946000Z</time>
      </trkpt>
      <trkpt lat="45.770450000000004" lon="10.48722">
        <ele>560.0814223765921</ele>
        <time>2017-11-13T12:50:59.213000Z</time>
      </trkpt>
      <trkpt lat="45.77038" lon="10.487340000000001">
        <ele>561.5660645762266</ele>
        <time>2017-11-13T12:50:59.388000Z</time>
      </trkpt>
      <trkpt lat="45.77031" lon="10.4875">
        <ele>572.0252123093368</ele>
        <time>2017-11-13T12:50:59.599000Z</time>
      </trkpt>
      <trkpt lat="45.77028000000001" lon="10.48764">
        <ele>573.4151954836875</ele>
        <time>2017-11-13T12:50:59.763000Z</time>
      </trkpt>
      <trkpt lat="45.77029" lon="10.487680000000001">
        <ele>573.818469626463</ele>
        <time>2017-11-13T12:50:59.810000Z</time>
      </trkpt>
      <trkpt lat="45.77031" lon="10.48769">
        <ele>574.106665703821</ele>
        <time>2017-11-13T12:50:59.844000Z</time>
      </trkpt>
      <trkpt lat="45.770340000000004" lon="10.487670000000001">
        <ele>574.5568223853699</ele>
        <time>2017-11-13T12:50:59.897000Z</time>
      </trkpt>
      <trkpt lat="45.770390000000006" lon="10.487530000000001">
        <ele>575.724204920654</ele>
        <time>2017-11-13T12:51:00.073000Z</time>
      </trkpt>
      <trkpt lat="45.77051" lon="10.48733">
        <ele>569.0155732565053</ele>
        <time>2017-11-13T12:51:00.368000Z</time>
      </trkpt>
      <trkpt lat="45.7706" lon="10.487210000000001">
        <ele>570.323378219307</ele>
        <time>2017-11-13T12:51:00.565000Z</time>
      </trkpt>
      <trkpt lat="45.77067" lon="10.487160000000001">
        <ele>571.155544922637</ele>
        <time>2017-11-13T12:51:00.690000Z</time>
      </trkpt>
      <trkpt lat="45.77075000000001" lon="10.487110000000001">
        <ele>572.0841634128475</ele>
        <time>2017-11-13T12:51:00.830000Z</time>
      </trkpt>
      <trkpt lat="45.77082" lon="10.487020000000001">
        <ele>573.084658375733</ele>
        <time>2017-11-13T12:51:00.981000Z</time>
      </trkpt>
      <trkpt lat="45.770950000000006" lon="10.48681">
        <ele>589.1685928279022</ele>
        <time>2017-11-13T12:51:01.295000Z</time>
      </trkpt>
      <trkpt lat="45.771150000000006" lon="10.486740000000001">
        <ele>589.9344586565521</ele>
        <time>2017-11-13T12:51:01.625000Z</time>
      </trkpt>
      <trkpt lat="45.77131000000001" lon="10.486730000000001">
        <ele>590.530235628111</ele>
        <time>2017-11-13T12:51:01.882000Z</time>
      </trkpt>
      <trkpt lat="45.77140000000001" lon="10.486730000000001">
        <ele>590.8650421680528</ele>
        <time>2017-11-13T12:51:02.026000Z</time>
      </trkpt>
      <trkpt lat="45.771440000000005" lon="10.48662">
        <ele>586.795811950238</ele>
        <time>2017-11-13T12:51:02.165000Z</time>
      </trkpt>
      <trkpt lat="45.771390000000004" lon="10.48647">
        <ele>586.7030321773327</ele>
        <time>2017-11-13T12:51:02.351000Z</time>
      </trkpt>
      <trkpt lat="45.77127" lon="10.486270000000001">
        <ele>586.5558034244528</ele>
        <time>2017-11-13T12:51:02.646000Z</time>
      </trkpt>
      <trkpt lat="45.771240000000006" lon="10.486220000000001">
        <ele>586.518996224857</ele>
        <time>2017-11-13T12:51:02.720000Z</time>
      </trkpt>
      <trkpt lat="45.771240000000006" lon="10.486130000000001">
        <ele>586.4687687904816</ele>
        <time>2017-11-13T12:51:02.821000Z</time>
      </trkpt>
      <trkpt lat="45.77138" lon="10.48572">
        <ele>577.5473427421299</ele>
        <time>2017-11-13T12:51:03.331000Z</time>
      </trkpt>
      <trkpt lat="45.77143" lon="10.48554">
        <ele>577.4392156340019</ele>
        <time>2017-11-13T12:51:03.548000Z</time>
      </trkpt>
      <trkpt lat="45.7715" lon="10.485510000000001">
        <ele>577.3807604135687</ele>
        <time>2017-11-13T12:51:03.665000Z</time>
      </trkpt>
      <trkpt lat="45.77159" lon="10.485510000000001">
        <ele>577.308752322799</ele>
        <time>2017-11-13T12:51:03.809000Z</time>
      </trkpt>
      <trkpt lat="45.771800000000006" lon="10.48553">
        <ele>589.1403631186112</ele>
        <time>2017-11-13T12:51:04.146000Z</time>
      </trkpt>
      <trkpt lat="45.771930000000005" lon="10.4855">
        <ele>589.4908618146028</ele>
        <time>2017-11-13T12:51:04.357000Z</time>
      </trkpt>
      <trkpt lat="45.77201" lon="10.485460000000002">
        <ele>589.7163914506594</ele>
        <time>2017-11-13T12:51:04.493000Z</time>
      </trkpt>
      <trkpt lat="45.772200000000005" lon="10.48521">
        <ele>590.4028661781321</ele>
        <time>2017-11-13T12:51:04.906000Z</time>
      </trkpt>
      <trkpt lat="45.772270000000006" lon="10.485090000000001">
        <ele>591.320867471466</ele>
        <time>2017-11-13T12:51:05.081000Z</time>
      </trkpt>
      <trkpt lat="45.77232" lon="10.484910000000001">
        <ele>586.1245104956364</ele>
        <time>2017-11-13T12:51:05.298000Z</time>
      </trkpt>
      <trkpt lat="45.77237" lon="10.48451">
        <ele>588.5092267427177</ele>
        <time>2017-11-13T12:51:05.752000Z</time>
      </trkpt>
      <trkpt lat="45.772400000000005" lon="10.484440000000001">
        <ele>588.9913521074062</ele>
        <time>2017-11-13T12:51:05.844000Z</time>
      </trkpt>
      <trkpt lat="45.77246" lon="10.484440000000001">
        <ele>589.4961445738609</ele>
        <time>2017-11-13T12:51:05.940000Z</time>
      </trkpt>
      <trkpt lat="45.77257" lon="10.48451">
        <ele>600.5086677593839</ele>
        <time>2017-11-13T12:51:06.133000Z</time>
      </trkpt>
      <trkpt lat="45.77275" lon="10.484850000000002">
        <ele>603.8626803838914</ele>
        <time>2017-11-13T12:51:06.610000Z</time>
      </trkpt>
      <trkpt lat="45.772890000000004" lon="10.48511">
        <ele>604.1102880976614</ele>
        <time>2017-11-13T12:51:06.977000Z</time>
      </trkpt>
      <trkpt lat="45.773050000000005" lon="10.48522">
        <ele>606.1092805929467</ele>
        <time>2017-11-13T12:51:07.261000Z</time>
      </trkpt>
      <trkpt lat="45.7732" lon="10.48526">
        <ele>607.8280745476599</ele>
        <time>2017-11-13T12:51:07.506000Z</time>
      </trkpt>
      <trkpt lat="45.77333" lon="10.48521">
        <ele>609.3443616486763</ele>
        <time>2017-11-13T12:51:07.722000Z</time>
      </trkpt>
      <trkpt lat="45.773740000000004" lon="10.48497">
        <ele>625.0</ele>
        <time>2017-11-13T12:51:08.432000Z</time>
      </trkpt>
      <trkpt lat="45.77402000000001" lon="10.48479">
        <ele>625.4952485634963</ele>
        <time>2017-11-13T12:51:08.924000Z</time>
      </trkpt>
      <trkpt lat="45.774080000000005" lon="10.484710000000002">
        <ele>625.6274878565251</ele>
        <time>2017-11-13T12:51:09.055000Z</time>
      </trkpt>
      <trkpt lat="45.77411" lon="10.484620000000001">
        <ele>625.7397757912075</ele>
        <time>2017-11-13T12:51:09.167000Z</time>
      </trkpt>
      <trkpt lat="45.77411" lon="10.48445">
        <ele>625.9311444614895</ele>
        <time>2017-11-13T12:51:09.357000Z</time>
      </trkpt>
      <trkpt lat="45.77407" lon="10.484390000000001">
        <ele>626.0245764808151</ele>
        <time>2017-11-13T12:51:09.450000Z</time>
      </trkpt>
      <trkpt lat="45.773970000000006" lon="10.484380000000002">
        <ele>626.1863615405181</ele>
        <time>2017-11-13T12:51:09.611000Z</time>
      </trkpt>
      <trkpt lat="45.773790000000005" lon="10.484470000000002">
        <ele>626.4940284167888</ele>
        <time>2017-11-13T12:51:09.917000Z</time>
      </trkpt>
      <trkpt lat="45.77365" lon="10.484470000000002">
        <ele>626.7199785510716</ele>
        <time>2017-11-13T12:51:10.141000Z</time>
      </trkpt>
      <trkpt lat="45.773590000000006" lon="10.484440000000001">
        <ele>626.9933389632497</ele>
        <time>2017-11-13T12:51:10.243000Z</time>
      </trkpt>
      <trkpt lat="45.77356" lon="10.48437">
        <ele>627.2398590664124</ele>
        <time>2017-11-13T12:51:10.335000Z</time>
      </trkpt>
      <trkpt lat="45.77356" lon="10.484160000000001">
        <ele>637.8699764484119</ele>
        <time>2017-11-13T12:51:10.570000Z</time>
      </trkpt>
      <trkpt lat="45.77358" lon="10.484010000000001">
        <ele>638.3282098677413</ele>
        <time>2017-11-13T12:51:10.741000Z</time>
      </trkpt>
      <trkpt lat="45.77356" lon="10.48381">
        <ele>638.9344579261798</ele>
        <time>2017-11-13T12:51:10.967000Z</time>
      </trkpt>
      <trkpt lat="45.773540000000004" lon="10.483640000000001">
        <ele>639.4517582882954</ele>
        <time>2017-11-13T12:51:11.160000Z</time>
      </trkpt>
      <trkpt lat="45.77347" lon="10.48352">
        <ele>639.9211514002012</ele>
        <time>2017-11-13T12:51:11.335000Z</time>
      </trkpt>
      <trkpt lat="45.77329" lon="10.483260000000001">
        <ele>634.3536832143594</ele>
        <time>2017-11-13T12:51:11.745000Z</time>
      </trkpt>
      <trkpt lat="45.773160000000004" lon="10.482970000000002">
        <ele>634.8895014137055</ele>
        <time>2017-11-13T12:51:12.130000Z</time>
      </trkpt>
      <trkpt lat="45.773120000000006" lon="10.482660000000001">
        <ele>632.4806081308134</ele>
        <time>2017-11-13T12:51:12.483000Z</time>
      </trkpt>
      <trkpt lat="45.77297" lon="10.48231">
        <ele>625.6751023805915</ele>
        <time>2017-11-13T12:51:12.942000Z</time>
      </trkpt>
      <trkpt lat="45.77293" lon="10.48215">
        <ele>624.3763851799996</ele>
        <time>2017-11-13T12:51:13.132000Z</time>
      </trkpt>
      <trkpt lat="45.772920000000006" lon="10.481940000000002">
        <ele>622.7680388904125</ele>
        <time>2017-11-13T12:51:13.367000Z</time>
      </trkpt>
      <trkpt lat="45.772940000000006" lon="10.48179">
        <ele>621.6011354002027</ele>
        <time>2017-11-13T12:51:13.538000Z</time>
      </trkpt>
      <trkpt lat="45.773" lon="10.4817">
        <ele>620.6498503224759</ele>
        <time>2017-11-13T12:51:13.677000Z</time>
      </trkpt>
      <trkpt lat="45.77309" lon="10.4816">
        <ele>610.0691575537011</ele>
        <time>2017-11-13T12:51:13.860000Z</time>
      </trkpt>
      <trkpt lat="45.773230000000005" lon="10.48149">
        <ele>608.3202729095777</ele>
        <time>2017-11-13T12:51:14.116000Z</time>
      </trkpt>
      <trkpt lat="45.773360000000004" lon="10.48141">
        <ele>621.9242539694491</ele>
        <time>2017-11-13T12:51:14.343000Z</time>
      </trkpt>
      <trkpt lat="45.773480000000006" lon="10.481390000000001">
        <ele>623.2939760673422</ele>
        <time>2017-11-13T12:51:14.537000Z</time>
      </trkpt>
      <trkpt lat="45.77358" lon="10.48141">
        <ele>624.4387545270289</ele>
        <time>2017-11-13T12:51:14.699000Z</time>
      </trkpt>
      <trkpt lat="45.773680000000006" lon="10.48135">
        <ele>625.6678370681763</ele>
        <time>2017-11-13T12:51:14.873000Z</time>
      </trkpt>
      <trkpt lat="45.77376" lon="10.481290000000001">
        <ele>626.6914886598012</ele>
        <time>2017-11-13T12:51:15.018000Z</time>
      </trkpt>
      <trkpt lat="45.773860000000006" lon="10.481160000000001">
        <ele>628.2219825957069</ele>
        <time>2017-11-13T12:51:15.234000Z</time>
      </trkpt>
      <trkpt lat="45.774190000000004" lon="10.480820000000001">
        <ele>641.9842985593367</ele>
        <time>2017-11-13T12:51:15.885000Z</time>
      </trkpt>
      <trkpt lat="45.77454" lon="10.48056">
        <ele>649.8372806164655</ele>
        <time>2017-11-13T12:51:16.517000Z</time>
      </trkpt>
      <trkpt lat="45.774890000000006" lon="10.48019">
        <ele>658.6725468090226</ele>
        <time>2017-11-13T12:51:17.214000Z</time>
      </trkpt>
      <trkpt lat="45.77499" lon="10.47999">
        <ele>659.1598080093858</ele>
        <time>2017-11-13T12:51:17.489000Z</time>
      </trkpt>
      <trkpt lat="45.775110000000005" lon="10.479740000000001">
        <ele>679.127149176722</ele>
        <time>2017-11-13T12:51:17.828000Z</time>
      </trkpt>
      <trkpt lat="45.775180000000006" lon="10.47944">
        <ele>683.6100801127187</ele>
        <time>2017-11-13T12:51:18.182000Z</time>
      </trkpt>
      <trkpt lat="45.77525000000001" lon="10.47891">
        <ele>686.7901625123585</ele>
        <time>2017-11-13T12:51:18.785000Z</time>
      </trkpt>
      <trkpt lat="45.77534000000001" lon="10.47845">
        <ele>687.5237480152773</ele>
        <time>2017-11-13T12:51:19.319000Z</time>
      </trkpt>
      <trkpt lat="45.7755" lon="10.477910000000001">
        <ele>690.4246226367359</ele>
        <time>2017-11-13T12:51:19.975000Z</time>
      </trkpt>
      <trkpt lat="45.77557" lon="10.47756">
        <ele>690.9836978794402</ele>
        <time>2017-11-13T12:51:20.382000Z</time>
      </trkpt>
      <trkpt lat="45.77561" lon="10.477250000000002">
        <ele>690.8674491847472</ele>
        <time>2017-11-13T12:51:20.735000Z</time>
      </trkpt>
      <trkpt lat="45.775600000000004" lon="10.476550000000001">
        <ele>691.6828957485604</ele>
        <time>2017-11-13T12:51:21.518000Z</time>
      </trkpt>
      <trkpt lat="45.775600000000004" lon="10.47629">
        <ele>691.8619288270053</ele>
        <time>2017-11-13T12:51:21.809000Z</time>
      </trkpt>
      <trkpt lat="45.77561" lon="10.476090000000001">
        <ele>692.0</ele>
        <time>2017-11-13T12:51:22.033000Z</time>
      </trkpt>
      <trkpt lat="45.77564" lon="10.476080000000001">
        <ele>692.2003705840729</ele>
        <time>2017-11-13T12:51:22.082000Z</time>
      </trkpt>
      <trkpt lat="45.77566" lon="10.47611">
        <ele>692.3886732545635</ele>
        <time>2017-11-13T12:51:22.128000Z</time>
      </trkpt>
      <trkpt lat="45.77572000000001" lon="10.476500000000001">
        <ele>694.2007952192953</ele>
        <time>2017-11-13T12:51:22.575000Z</time>
      </trkpt>
      <trkpt lat="45.77588" lon="10.477450000000001">
        <ele>733.5540942978201</ele>
        <time>2017-11-13T12:51:23.668000Z</time>
      </trkpt>
      <trkpt lat="45.77599000000001" lon="10.47802">
        <ele>740.652012775704</ele>
        <time>2017-11-13T12:51:24.329000Z</time>
      </trkpt>
      <trkpt lat="45.77606" lon="10.4785">
        <ele>739.6727757611216</ele>
        <time>2017-11-13T12:51:24.877000Z</time>
      </trkpt>
      <trkpt lat="45.77606" lon="10.47892">
        <ele>742.5454859052156</ele>
        <time>2017-11-13T12:51:25.347000Z</time>
      </trkpt>
      <trkpt lat="45.77593" lon="10.47968">
        <ele>749.5644410170939</ele>
        <time>2017-11-13T12:51:26.222000Z</time>
      </trkpt>
      <trkpt lat="45.77584" lon="10.48029">
        <ele>758.6637064492528</ele>
        <time>2017-11-13T12:51:26.919000Z</time>
      </trkpt>
      <trkpt lat="45.775710000000004" lon="10.480780000000001">
        <ele>733.8507731138707</ele>
        <time>2017-11-13T12:51:27.505000Z</time>
      </trkpt>
      <trkpt lat="45.775490000000005" lon="10.48131">
        <ele>737.1493133468365</ele>
        <time>2017-11-13T12:51:28.195000Z</time>
      </trkpt>
      <trkpt lat="45.775290000000005" lon="10.481800000000002">
        <ele>739.0753943777427</ele>
        <time>2017-11-13T12:51:28.830000Z</time>
      </trkpt>
      <trkpt lat="45.775240000000004" lon="10.48192">
        <ele>740.308091611636</ele>
        <time>2017-11-13T12:51:28.986000Z</time>
      </trkpt>
      <trkpt lat="45.77526" lon="10.48196">
        <ele>741.0295690451418</ele>
        <time>2017-11-13T12:51:29.041000Z</time>
      </trkpt>
      <trkpt lat="45.7753" lon="10.48198">
        <ele>741.9199326022944</ele>
        <time>2017-11-13T12:51:29.109000Z</time>
      </trkpt>
      <trkpt lat="45.77546" lon="10.48198">
        <ele>745.2827630685642</ele>
        <time>2017-11-13T12:51:29.366000Z</time>
      </trkpt>
      <trkpt lat="45.775760000000005" lon="10.482040000000001">
        <ele>751.649120494547</ele>
        <time>2017-11-13T12:51:29.852000Z</time>
      </trkpt>
      <trkpt lat="45.776180000000004" lon="10.482180000000001">
        <ele>775.0453103266306</ele>
        <time>2017-11-13T12:51:30.543000Z</time>
      </trkpt>
      <trkpt lat="45.776340000000005" lon="10.48226">
        <ele>776.6567859267002</ele>
        <time>2017-11-13T12:51:30.815000Z</time>
      </trkpt>
      <trkpt lat="45.77649" lon="10.482360000000002">
        <ele>778.2299569664192</ele>
        <time>2017-11-13T12:51:31.080000Z</time>
      </trkpt>
      <trkpt lat="45.776610000000005" lon="10.482500000000002">
        <ele>767.0345630864625</ele>
        <time>2017-11-13T12:51:31.328000Z</time>
      </trkpt>
      <trkpt lat="45.776740000000004" lon="10.48258">
        <ele>783.3799308696217</ele>
        <time>2017-11-13T12:51:31.555000Z</time>
      </trkpt>
      <trkpt lat="45.77695000000001" lon="10.482640000000002">
        <ele>785.4163048338078</ele>
        <time>2017-11-13T12:51:31.898000Z</time>
      </trkpt>
      <trkpt lat="45.77702" lon="10.482700000000001">
        <ele>786.19189399164</ele>
        <time>2017-11-13T12:51:32.029000Z</time>
      </trkpt>
      <trkpt lat="45.77707" lon="10.482790000000001">
        <ele>786.9550801581223</ele>
        <time>2017-11-13T12:51:32.158000Z</time>
      </trkpt>
      <trkpt lat="45.77716" lon="10.483070000000001">
        <ele>789.0</ele>
        <time>2017-11-13T12:51:32.503000Z</time>
      </trkpt>
      <trkpt lat="45.77727" lon="10.483170000000001">
        <ele>789.4990870644441</ele>
        <time>2017-11-13T12:51:32.712000Z</time>
      </trkpt>
      <trkpt lat="45.777460000000005" lon="10.483270000000001">
        <ele>790.274638318333</ele>
        <time>2017-11-13T12:51:33.036000Z</time>
      </trkpt>
      <trkpt lat="45.777570000000004" lon="10.48338">
        <ele>792.121864527614</ele>
        <time>2017-11-13T12:51:33.251000Z</time>
      </trkpt>
      <trkpt lat="45.777640000000005" lon="10.48366">
        <ele>792.9167852885363</ele>
        <time>2017-11-13T12:51:33.584000Z</time>
      </trkpt>
      <trkpt lat="45.7777" lon="10.483770000000002">
        <ele>793.28998746687</ele>
        <time>2017-11-13T12:51:33.740000Z</time>
      </trkpt>
      <trkpt lat="45.77778000000001" lon="10.483830000000001">
        <ele>793.6359401421801</ele>
        <time>2017-11-13T12:51:33.885000Z</time>
      </trkpt>
      <trkpt lat="45.77798000000001" lon="10.48385">
        <ele>794.404170201958</ele>
        <time>2017-11-13T12:51:34.206000Z</time>
      </trkpt>
      <trkpt lat="45.778150000000004" lon="10.483830000000001">
        <ele>795.0577724944334</ele>
        <time>2017-11-13T12:51:34.479000Z</time>
      </trkpt>
      <trkpt lat="45.778420000000004" lon="10.48408">
        <ele>810.1244588983408</ele>
        <time>2017-11-13T12:51:34.994000Z</time>
      </trkpt>
      <trkpt lat="45.778490000000005" lon="10.48414">
        <ele>810.3105421871837</ele>
        <time>2017-11-13T12:51:35.125000Z</time>
      </trkpt>
      <trkpt lat="45.77853" lon="10.48423">
        <ele>800.8137053109734</ele>
        <time>2017-11-13T12:51:35.244000Z</time>
      </trkpt>
      <trkpt lat="45.778580000000005" lon="10.484470000000002">
        <ele>801.2123027770659</ele>
        <time>2017-11-13T12:51:35.524000Z</time>
      </trkpt>
      <trkpt lat="45.7787" lon="10.484660000000002">
        <ele>801.6202090689853</ele>
        <time>2017-11-13T12:51:35.811000Z</time>
      </trkpt>
      <trkpt lat="45.77881000000001" lon="10.484720000000001">
        <ele>801.8887451936529</ele>
        <time>2017-11-13T12:51:36Z</time>
      </trkpt>
      <trkpt lat="45.77904" lon="10.484900000000001">
        <ele>803.1011242762587</ele>
        <time>2017-11-13T12:51:36.420000Z</time>
      </trkpt>
      <trkpt lat="45.77922" lon="10.48506">
        <ele>798.7476832930856</ele>
        <time>2017-11-13T12:51:36.760000Z</time>
      </trkpt>
      <trkpt lat="45.779320000000006" lon="10.485090000000001">
        <ele>799.7220485867</ele>
        <time>2017-11-13T12:51:36.924000Z</time>
      </trkpt>
      <trkpt lat="45.779560000000004" lon="10.485090000000001">
        <ele>802.0109621623502</ele>
        <time>2017-11-13T12:51:37.309000Z</time>
      </trkpt>
      <trkpt lat="45.779830000000004" lon="10.48507">
        <ele>804.5894237786027</ele>
        <time>2017-11-13T12:51:37.742000Z</time>
      </trkpt>
      <trkpt lat="45.77994" lon="10.48511">
        <ele>805.6717199397484</ele>
        <time>2017-11-13T12:51:37.924000Z</time>
      </trkpt>
      <trkpt lat="45.78004000000001" lon="10.485180000000001">
        <ele>811.7330154361526</ele>
        <time>2017-11-13T12:51:38.102000Z</time>
      </trkpt>
      <trkpt lat="45.780210000000004" lon="10.485320000000002">
        <ele>813.6027117000313</ele>
        <time>2017-11-13T12:51:38.416000Z</time>
      </trkpt>
      <trkpt lat="45.780300000000004" lon="10.48535">
        <ele>814.4839426654411</ele>
        <time>2017-11-13T12:51:38.564000Z</time>
      </trkpt>
      <trkpt lat="45.78041" lon="10.485320000000002">
        <ele>815.360946695144</ele>
        <time>2017-11-13T12:51:38.744000Z</time>
      </trkpt>
      <trkpt lat="45.7805" lon="10.485280000000001">
        <ele>816.0989436051836</ele>
        <time>2017-11-13T12:51:38.895000Z</time>
      </trkpt>
      <trkpt lat="45.780570000000004" lon="10.485190000000001">
        <ele>816.835336802559</ele>
        <time>2017-11-13T12:51:39.046000Z</time>
      </trkpt>
      <trkpt lat="45.78069000000001" lon="10.48502">
        <ele>818.156574283149</ele>
        <time>2017-11-13T12:51:39.316000Z</time>
      </trkpt>
      <trkpt lat="45.780770000000004" lon="10.484960000000001">
        <ele>830.1970324352519</ele>
        <time>2017-11-13T12:51:39.461000Z</time>
      </trkpt>
      <trkpt lat="45.780840000000005" lon="10.48497">
        <ele>834.1789288347212</ele>
        <time>2017-11-13T12:51:39.574000Z</time>
      </trkpt>
      <trkpt lat="45.78096" lon="10.48507">
        <ele>822.1432104220297</ele>
        <time>2017-11-13T12:51:39.797000Z</time>
      </trkpt>
      <trkpt lat="45.78108" lon="10.485230000000001">
        <ele>822.1010404990744</ele>
        <time>2017-11-13T12:51:40.060000Z</time>
      </trkpt>
      <trkpt lat="45.781180000000006" lon="10.48536">
        <ele>822.0663035480469</ele>
        <time>2017-11-13T12:51:40.276000Z</time>
      </trkpt>
      <trkpt lat="45.78126" lon="10.485410000000002">
        <ele>822.0438449213034</ele>
        <time>2017-11-13T12:51:40.416000Z</time>
      </trkpt>
      <trkpt lat="45.78132" lon="10.48544">
        <ele>822.0274921950846</ele>
        <time>2017-11-13T12:51:40.518000Z</time>
      </trkpt>
      <trkpt lat="45.78141" lon="10.485430000000001">
        <ele>821.8418853447253</ele>
        <time>2017-11-13T12:51:40.663000Z</time>
      </trkpt>
      <trkpt lat="45.781620000000004" lon="10.48531">
        <ele>821.3770734824453</ele>
        <time>2017-11-13T12:51:41.025000Z</time>
      </trkpt>
      <trkpt lat="45.78182" lon="10.48516">
        <ele>814.9129923971168</ele>
        <time>2017-11-13T12:51:41.387000Z</time>
      </trkpt>
      <trkpt lat="45.78192000000001" lon="10.485050000000001">
        <ele>814.6538469100695</ele>
        <time>2017-11-13T12:51:41.589000Z</time>
      </trkpt>
      <trkpt lat="45.78201000000001" lon="10.48498">
        <ele>825.443325138151</ele>
        <time>2017-11-13T12:51:41.753000Z</time>
      </trkpt>
      <trkpt lat="45.78208" lon="10.484950000000001">
        <ele>825.2931046080862</ele>
        <time>2017-11-13T12:51:41.870000Z</time>
      </trkpt>
      <trkpt lat="45.78226" lon="10.48493">
        <ele>824.921890941146</ele>
        <time>2017-11-13T12:51:42.159000Z</time>
      </trkpt>
      <trkpt lat="45.78235" lon="10.484850000000002">
        <ele>824.7041675379072</ele>
        <time>2017-11-13T12:51:42.329000Z</time>
      </trkpt>
      <trkpt lat="45.782560000000004" lon="10.48456">
        <ele>820.4380350484471</ele>
        <time>2017-11-13T12:51:42.796000Z</time>
      </trkpt>
      <trkpt lat="45.782680000000006" lon="10.484440000000001">
        <ele>821.4208887776223</ele>
        <time>2017-11-13T12:51:43.031000Z</time>
      </trkpt>
      <trkpt lat="45.782900000000005" lon="10.484290000000001">
        <ele>825.0320493908024</ele>
        <time>2017-11-13T12:51:43.422000Z</time>
      </trkpt>
      <trkpt lat="45.7832" lon="10.48403">
        <ele>837.8950515651869</ele>
        <time>2017-11-13T12:51:43.984000Z</time>
      </trkpt>
      <trkpt lat="45.783440000000006" lon="10.483690000000001">
        <ele>847.2295585136084</ele>
        <time>2017-11-13T12:51:44.525000Z</time>
      </trkpt>
      <trkpt lat="45.783590000000004" lon="10.48362">
        <ele>849.5679377137039</ele>
        <time>2017-11-13T12:51:44.778000Z</time>
      </trkpt>
      <trkpt lat="45.783710000000006" lon="10.483720000000002">
        <ele>850.2189557709762</ele>
        <time>2017-11-13T12:51:45.001000Z</time>
      </trkpt>
      <trkpt lat="45.78378000000001" lon="10.48389">
        <ele>850.8647393755713</ele>
        <time>2017-11-13T12:51:45.222000Z</time>
      </trkpt>
      <trkpt lat="45.783770000000004" lon="10.484100000000002">
        <ele>851.5532647962882</ele>
        <time>2017-11-13T12:51:45.457000Z</time>
      </trkpt>
      <trkpt lat="45.78385" lon="10.48437">
        <ele>850.8461991002064</ele>
        <time>2017-11-13T12:51:45.785000Z</time>
      </trkpt>
      <trkpt lat="45.783930000000005" lon="10.484580000000001">
        <ele>851.6289349807763</ele>
        <time>2017-11-13T12:51:46.053000Z</time>
      </trkpt>
      <trkpt lat="45.783840000000005" lon="10.485040000000001">
        <ele>854.1917229944183</ele>
        <time>2017-11-13T12:51:46.587000Z</time>
      </trkpt>
      <trkpt lat="45.783750000000005" lon="10.48568">
        <ele>853.2321042939747</ele>
        <time>2017-11-13T12:51:47.317000Z</time>
      </trkpt>
      <trkpt lat="45.78372595334839" lon="10.485872373553217">
        <ele>858.7538406700987</ele>
        <time>2017-11-13T12:51:47.535000Z</time>
      </trkpt>
      <trkpt lat="45.78372" lon="10.48592">
        <ele>858.9655326976441</ele>
        <time>2017-11-13T12:51:47.589000Z</time>
      </trkpt>
      <trkpt lat="45.78371540643275" lon="10.485919201746583">
        <ele>858.9945624080461</ele>
        <time>2017-11-13T12:51:47.596000Z</time>
      </trkpt>
      <trkpt lat="45.78371549025178" lon="10.48591903410852">
        <ele>858.9954648799134</ele>
        <time>2017-11-13T12:51:47.596000Z</time>
      </trkpt>
      <trkpt lat="45.78369855880737" lon="10.48621416091919">
        <ele>860.2910404510594</ele>
        <time>2017-11-13T12:51:47.927000Z</time>
      </trkpt>
      <trkpt lat="45.78380584716797" lon="10.486664772033691">
        <ele>862.3742502240224</ele>
        <time>2017-11-13T12:51:48.459000Z</time>
      </trkpt>
      <trkpt lat="45.78378438949585" lon="10.486900806427002">
        <ele>865.7489965733208</ele>
        <time>2017-11-13T12:51:48.725000Z</time>
      </trkpt>
      <trkpt lat="45.78359127044678" lon="10.48717975616455">
        <ele>865.4107722078552</ele>
        <time>2017-11-13T12:51:49.164000Z</time>
      </trkpt>
      <trkpt lat="45.78348398208618" lon="10.487587451934814">
        <ele>868.7024778579826</ele>
        <time>2017-11-13T12:51:49.651000Z</time>
      </trkpt>
      <trkpt lat="45.78322649002075" lon="10.487651824951172">
        <ele>854.0466349301636</ele>
        <time>2017-11-13T12:51:50.070000Z</time>
      </trkpt>
      <trkpt lat="45.78301191329956" lon="10.48793077468872">
        <ele>855.7477736755642</ele>
        <time>2017-11-13T12:51:50.534000Z</time>
      </trkpt>
      <trkpt lat="45.78281879425049" lon="10.488338470458984">
        <ele>869.0998363129512</ele>
        <time>2017-11-13T12:51:51.085000Z</time>
      </trkpt>
      <trkpt lat="45.78230381011963" lon="10.48868179321289">
        <ele>858.5782751840537</ele>
        <time>2017-11-13T12:51:51.995000Z</time>
      </trkpt>
      <trkpt lat="45.782132148742676" lon="10.488831996917725">
        <ele>858.1575306699788</ele>
        <time>2017-11-13T12:51:52.317000Z</time>
      </trkpt>
      <trkpt lat="45.782132148742676" lon="10.488917827606201">
        <ele>858.0322947453669</ele>
        <time>2017-11-13T12:51:52.413000Z</time>
      </trkpt>
      <trkpt lat="45.7824969291687" lon="10.488638877868652">
        <ele>857.1673352634248</ele>
        <time>2017-11-13T12:51:53.076000Z</time>
      </trkpt>
      <trkpt lat="45.78271150588989" lon="10.488617420196533">
        <ele>869.4242744205939</ele>
        <time>2017-11-13T12:51:53.421000Z</time>
      </trkpt>
      <trkpt lat="45.782926082611084" lon="10.488488674163818">
        <ele>873.6223876401164</ele>
        <time>2017-11-13T12:51:53.794000Z</time>
      </trkpt>
      <trkpt lat="45.783183574676514" lon="10.48818826675415">
        <ele>868.2802120272705</ele>
        <time>2017-11-13T12:51:54.326000Z</time>
      </trkpt>
      <trkpt lat="45.783913135528564" lon="10.488166809082031">
        <ele>895.7836866027586</ele>
        <time>2017-11-13T12:51:55.496000Z</time>
      </trkpt>
      <trkpt lat="45.78404196538031" lon="10.488080978393555">
        <ele>900.2606618968921</ele>
        <time>2017-11-13T12:51:55.724000Z</time>
      </trkpt>
      <trkpt lat="45.78410625457764" lon="10.487673282623291">
        <ele>909.4471714836628</ele>
        <time>2017-11-13T12:51:56.191000Z</time>
      </trkpt>
      <trkpt lat="45.784385204315186" lon="10.487265586853027">
        <ele>940.0</ele>
        <time>2017-11-13T12:51:56.830000Z</time>
      </trkpt>
      <trkpt lat="45.784385204315186" lon="10.48694372177124">
        <ele>939.7645113872505</ele>
        <time>2017-11-13T12:51:57.190000Z</time>
      </trkpt>
      <trkpt lat="45.78444957733154" lon="10.486750602722168">
        <ele>939.6079068636664</ele>
        <time>2017-11-13T12:51:57.429000Z</time>
      </trkpt>
      <trkpt lat="45.784406661987305" lon="10.486578941345215">
        <ele>934.807819619083</ele>
        <time>2017-11-13T12:51:57.633000Z</time>
      </trkpt>
      <trkpt lat="45.78444957733154" lon="10.486106872558594">
        <ele>934.4595143279442</ele>
        <time>2017-11-13T12:51:58.165000Z</time>
      </trkpt>
      <trkpt lat="45.78459978103638" lon="10.48569917678833">
        <ele>928.7888278461893</ele>
        <time>2017-11-13T12:51:58.680000Z</time>
      </trkpt>
      <trkpt lat="45.7849645614624" lon="10.485291481018066">
        <ele>928.303599503441</ele>
        <time>2017-11-13T12:51:59.421000Z</time>
      </trkpt>
      <trkpt lat="45.784991362002295" lon="10.485190271636847">
        <ele>930.59232778431</ele>
        <time>2017-11-13T12:51:59.542000Z</time>
      </trkpt>
      <trkpt lat="45.78500504605472" lon="10.485138595104218">
        <ele>954.7609296125961</ele>
        <time>2017-11-13T12:51:59.604000Z</time>
      </trkpt>
      <trkpt lat="45.78500512987375" lon="10.485138511285186">
        <ele>954.7640275130825</ele>
        <time>2017-11-13T12:51:59.604000Z</time>
      </trkpt>
      <trkpt lat="45.78500504605543" lon="10.485138595104925">
        <ele>954.7671254044512</ele>
        <time>2017-11-13T12:51:59.604000Z</time>
      </trkpt>
      <trkpt lat="45.78524351119995" lon="10.484240055084229">
        <ele>974.4254917817001</ele>
        <time>2017-11-13T12:52:00.679000Z</time>
      </trkpt>
      <trkpt lat="45.78522205352783" lon="10.484154224395752">
        <ele>981.7035872466873</ele>
        <time>2017-11-13T12:52:00.781000Z</time>
      </trkpt>
      <trkpt lat="45.78502893447876" lon="10.483896732330322">
        <ele>988.3865991212493</ele>
        <time>2017-11-13T12:52:01.204000Z</time>
      </trkpt>
      <trkpt lat="45.785157680511475" lon="10.483253002166748">
        <ele>981.841956812479</ele>
        <time>2017-11-13T12:52:01.953000Z</time>
      </trkpt>
      <trkpt lat="45.785071849823" lon="10.482566356658936">
        <ele>976.7606936242119</ele>
        <time>2017-11-13T12:52:02.733000Z</time>
      </trkpt>
      <trkpt lat="45.785179138183594" lon="10.482308864593506">
        <ele>963.9091533795514</ele>
        <time>2017-11-13T12:52:03.068000Z</time>
      </trkpt>
      <trkpt lat="45.785372257232666" lon="10.481557846069336">
        <ele>971.8997722169191</ele>
        <time>2017-11-13T12:52:03.963000Z</time>
      </trkpt>
      <trkpt lat="45.78547954559326" lon="10.480291843414307">
        <ele>972.0257080916371</ele>
        <time>2017-11-13T12:52:05.389000Z</time>
      </trkpt>
      <trkpt lat="45.78560829162598" lon="10.479626655578613">
        <ele>975.2491584714413</ele>
        <time>2017-11-13T12:52:06.161000Z</time>
      </trkpt>
      <trkpt lat="45.785865783691406" lon="10.479111671447754">
        <ele>997.6285255574279</ele>
        <time>2017-11-13T12:52:06.869000Z</time>
      </trkpt>
      <trkpt lat="45.786123275756836" lon="10.478382110595703">
        <ele>1005.0</ele>
        <time>2017-11-13T12:52:07.783000Z</time>
      </trkpt>
      <trkpt lat="45.786166191101074" lon="10.47771692276001">
        <ele>1005.0990587263327</ele>
        <time>2017-11-13T12:52:08.530000Z</time>
      </trkpt>
      <trkpt lat="45.7860803604126" lon="10.477566719055176">
        <ele>1005.418549455162</ele>
        <time>2017-11-13T12:52:08.747000Z</time>
      </trkpt>
      <trkpt lat="45.78595161437988" lon="10.477588176727295">
        <ele>1005.7243440617576</ele>
        <time>2017-11-13T12:52:08.955000Z</time>
      </trkpt>
      <trkpt lat="45.78569412231445" lon="10.477781295776367">
        <ele>1005.5719526205095</ele>
        <time>2017-11-13T12:52:09.421000Z</time>
      </trkpt>
      <trkpt lat="45.785629749298096" lon="10.47769546508789">
        <ele>1006.4333378574484</ele>
        <time>2017-11-13T12:52:09.562000Z</time>
      </trkpt>
      <trkpt lat="45.785651206970215" lon="10.477588176727295">
        <ele>1007.1960761510691</ele>
        <time>2017-11-13T12:52:09.687000Z</time>
      </trkpt>
      <trkpt lat="45.78595161437988" lon="10.477416515350342">
        <ele>1021.6984148416473</ele>
        <time>2017-11-13T12:52:10.205000Z</time>
      </trkpt>
      <trkpt lat="45.786402225494385" lon="10.477309226989746">
        <ele>1026.1746977371126</ele>
        <time>2017-11-13T12:52:10.937000Z</time>
      </trkpt>
      <trkpt lat="45.78646659851074" lon="10.4774808883667">
        <ele>1027.113987809942</ele>
        <time>2017-11-13T12:52:11.155000Z</time>
      </trkpt>
      <trkpt lat="45.78633785247803" lon="10.477845668792725">
        <ele>1019.0197567051522</ele>
        <time>2017-11-13T12:52:11.612000Z</time>
      </trkpt>
      <trkpt lat="45.786380767822266" lon="10.477888584136963">
        <ele>1019.0636349280439</ele>
        <time>2017-11-13T12:52:11.696000Z</time>
      </trkpt>
      <trkpt lat="45.78656701527831" lon="10.477516164347971">
        <ele>1019.3316558364282</ele>
        <time>2017-11-13T12:52:12.208000Z</time>
      </trkpt>
      <trkpt lat="45.786589393392205" lon="10.477471416816115">
        <ele>1027.6971927240418</ele>
        <time>2017-11-13T12:52:12.270000Z</time>
      </trkpt>
      <trkpt lat="45.786589393392205" lon="10.477471332997084">
        <ele>1027.6972417435968</ele>
        <time>2017-11-13T12:52:12.270000Z</time>
      </trkpt>
      <trkpt lat="45.78658939339321" lon="10.477471416816115">
        <ele>1027.6972907631518</ele>
        <time>2017-11-13T12:52:12.270000Z</time>
      </trkpt>
      <trkpt lat="45.786681175231934" lon="10.477287769317627">
        <ele>1035.1627607509515</ele>
        <time>2017-11-13T12:52:12.523000Z</time>
      </trkpt>
      <trkpt lat="45.786638259887695" lon="10.477159023284912">
        <ele>1027.9128813902482</ele>
        <time>2017-11-13T12:52:12.683000Z</time>
      </trkpt>
      <trkpt lat="45.78625202178955" lon="10.476987361907959">
        <ele>1028.2520048924898</ele>
        <time>2017-11-13T12:52:13.331000Z</time>
      </trkpt>
      <trkpt lat="45.78575849533081" lon="10.47694444656372">
        <ele>1030.3333333333333</ele>
        <time>2017-11-13T12:52:14.124000Z</time>
      </trkpt>
      <trkpt lat="45.78571557998657" lon="10.476858615875244">
        <ele>1030.4990378547363</ele>
        <time>2017-11-13T12:52:14.242000Z</time>
      </trkpt>
      <trkpt lat="45.78577995300293" lon="10.476815700531006">
        <ele>1030.658758564127</ele>
        <time>2017-11-13T12:52:14.356000Z</time>
      </trkpt>
      <trkpt lat="45.785908699035645" lon="10.476858615875244">
        <ele>1029.2894833416628</ele>
        <time>2017-11-13T12:52:14.568000Z</time>
      </trkpt>
      <trkpt lat="45.78633785247803" lon="10.476815700531006">
        <ele>1030.2573906395874</ele>
        <time>2017-11-13T12:52:15.258000Z</time>
      </trkpt>
      <trkpt lat="45.78672409057617" lon="10.476858615875244">
        <ele>1040.9313083334123</ele>
        <time>2017-11-13T12:52:15.879000Z</time>
      </trkpt>
      <trkpt lat="45.7870888710022" lon="10.476601123809814">
        <ele>1051.437299399167</ele>
        <time>2017-11-13T12:52:16.531000Z</time>
      </trkpt>
      <trkpt lat="45.78719615936279" lon="10.476665496826172">
        <ele>1052.4401800217568</ele>
        <time>2017-11-13T12:52:16.717000Z</time>
      </trkpt>
      <trkpt lat="45.78721761703491" lon="10.477008819580078">
        <ele>1047.5129113148384</ele>
        <time>2017-11-13T12:52:17.102000Z</time>
      </trkpt>
      <trkpt lat="45.787153244018555" lon="10.477738380432129">
        <ele>1042.3121193345144</ele>
        <time>2017-11-13T12:52:17.924000Z</time>
      </trkpt>
      <trkpt lat="45.786874294281006" lon="10.478081703186035">
        <ele>1038.0515857584614</ele>
        <time>2017-11-13T12:52:18.513000Z</time>
      </trkpt>
      <trkpt lat="45.78674554824829" lon="10.478425025939941">
        <ele>1042.234351316225</ele>
        <time>2017-11-13T12:52:18.949000Z</time>
      </trkpt>
      <trkpt lat="45.786659717559814" lon="10.478489398956299">
        <ele>1019.4450579136629</ele>
        <time>2017-11-13T12:52:19.104000Z</time>
      </trkpt>
      <trkpt lat="45.786649568425545" lon="10.478509697232996">
        <ele>1019.6226135103657</ele>
        <time>2017-11-13T12:52:19.132000Z</time>
      </trkpt>
      <trkpt lat="45.786638259887695" lon="10.478532314300537">
        <ele>1019.820452398907</ele>
        <time>2017-11-13T12:52:19.163000Z</time>
      </trkpt>
      <trkpt lat="45.78665602952242" lon="10.478544048964977">
        <ele>1020.0198854203381</ele>
        <time>2017-11-13T12:52:19.194000Z</time>
      </trkpt>
      <trkpt lat="45.78665611334145" lon="10.478544132784009">
        <ele>1020.0209271328267</ele>
        <time>2017-11-13T12:52:19.195000Z</time>
      </trkpt>
      <trkpt lat="45.78665602952171" lon="10.478544048965684">
        <ele>1020.0219688483825</ele>
        <time>2017-11-13T12:52:19.195000Z</time>
      </trkpt>
      <trkpt lat="45.78670263290405" lon="10.478575229644775">
        <ele>1042.212887127771</ele>
        <time>2017-11-13T12:52:19.277000Z</time>
      </trkpt>
      <trkpt lat="45.78693866729736" lon="10.478124618530273">
        <ele>1038.8859007433532</ele>
        <time>2017-11-13T12:52:19.907000Z</time>
      </trkpt>
      <trkpt lat="45.78728199005127" lon="10.47797441482544">
        <ele>1042.545077065328</ele>
        <time>2017-11-13T12:52:20.482000Z</time>
      </trkpt>
      <trkpt lat="45.78747510910034" lon="10.477159023284912">
        <ele>1049.0</ele>
        <time>2017-11-13T12:52:21.445000Z</time>
      </trkpt>
      <trkpt lat="45.78768968582153" lon="10.476601123809814">
        <ele>1072.763894280142</ele>
        <time>2017-11-13T12:52:22.157000Z</time>
      </trkpt>
      <trkpt lat="45.787625312805176" lon="10.476021766662598">
        <ele>1080.8335820648947</ele>
        <time>2017-11-13T12:52:22.813000Z</time>
      </trkpt>
      <trkpt lat="45.78747510910034" lon="10.475785732269287">
        <ele>1083.2290020122975</ele>
        <time>2017-11-13T12:52:23.170000Z</time>
      </trkpt>
      <trkpt lat="45.78745365142822" lon="10.475635528564453">
        <ele>1084.2171724539155</ele>
        <time>2017-11-13T12:52:23.341000Z</time>
      </trkpt>
      <trkpt lat="45.787646770477295" lon="10.475506782531738">
        <ele>1087.5188558947539</ele>
        <time>2017-11-13T12:52:23.682000Z</time>
      </trkpt>
      <trkpt lat="45.78781843185425" lon="10.475549697875977">
        <ele>1089.1293672684105</ele>
        <time>2017-11-13T12:52:23.961000Z</time>
      </trkpt>
      <trkpt lat="45.787861347198486" lon="10.476107597351074">
        <ele>1093.4134894365498</ele>
        <time>2017-11-13T12:52:24.588000Z</time>
      </trkpt>
      <trkpt lat="45.7879900932312" lon="10.476601123809814">
        <ele>1092.6380773300627</ele>
        <time>2017-11-13T12:52:25.177000Z</time>
      </trkpt>
      <trkpt lat="45.78781843185425" lon="10.477631092071533">
        <ele>1100.205895226478</ele>
        <time>2017-11-13T12:52:26.361000Z</time>
      </trkpt>
      <trkpt lat="45.787861347198486" lon="10.478167533874512">
        <ele>1101.1752686003163</ele>
        <time>2017-11-13T12:52:26.965000Z</time>
      </trkpt>
      <trkpt lat="45.78775405883789" lon="10.478596687316895">
        <ele>1105.3270629282686</ele>
        <time>2017-11-13T12:52:27.475000Z</time>
      </trkpt>
      <trkpt lat="45.78747510910034" lon="10.478918552398682">
        <ele>1086.060005180474</ele>
        <time>2017-11-13T12:52:28.049000Z</time>
      </trkpt>
      <trkpt lat="45.78751802444458" lon="10.4789400100708">
        <ele>1103.4608963651326</ele>
        <time>2017-11-13T12:52:28.122000Z</time>
      </trkpt>
      <trkpt lat="45.787861347198486" lon="10.478682518005371">
        <ele>1106.8783816086789</ele>
        <time>2017-11-13T12:52:28.743000Z</time>
      </trkpt>
      <trkpt lat="45.788140296936035" lon="10.478124618530273">
        <ele>1107.7675404803413</ele>
        <time>2017-11-13T12:52:29.510000Z</time>
      </trkpt>
      <trkpt lat="45.78818321228027" lon="10.47745943069458">
        <ele>1113.2745297509762</ele>
        <time>2017-11-13T12:52:30.257000Z</time>
      </trkpt>
      <trkpt lat="45.78869819641113" lon="10.476515293121338">
        <ele>1146.0</ele>
        <time>2017-11-13T12:52:31.597000Z</time>
      </trkpt>
      <trkpt lat="45.78878402709961" lon="10.475871562957764">
        <ele>1149.00094706034</ele>
        <time>2017-11-13T12:52:32.330000Z</time>
      </trkpt>
      <trkpt lat="45.788891315460205" lon="10.475420951843262">
        <ele>1147.8478547818574</ele>
        <time>2017-11-13T12:52:32.862000Z</time>
      </trkpt>
      <trkpt lat="45.78919172286987" lon="10.474648475646973">
        <ele>1159.8977802167701</ele>
        <time>2017-11-13T12:52:33.851000Z</time>
      </trkpt>
      <trkpt lat="45.78994274139404" lon="10.474069118499756">
        <ele>1178.066488109505</ele>
        <time>2017-11-13T12:52:35.218000Z</time>
      </trkpt>
      <trkpt lat="45.79005002975464" lon="10.473833084106445">
        <ele>1194.8528564320873</ele>
        <time>2017-11-13T12:52:35.533000Z</time>
      </trkpt>
      <trkpt lat="45.7900071144104" lon="10.473575592041016">
        <ele>1195.2231487558422</ele>
        <time>2017-11-13T12:52:35.829000Z</time>
      </trkpt>
      <trkpt lat="45.78981399536133" lon="10.473403930664062">
        <ele>1182.6788949175445</ele>
        <time>2017-11-13T12:52:36.193000Z</time>
      </trkpt>
      <trkpt lat="45.78968524932861" lon="10.473103523254395">
        <ele>1193.5054204596693</ele>
        <time>2017-11-13T12:52:36.587000Z</time>
      </trkpt>
      <trkpt lat="45.78925609588623" lon="10.472781658172607">
        <ele>1194.476861188068</ele>
        <time>2017-11-13T12:52:37.363000Z</time>
      </trkpt>
      <trkpt lat="45.78904151916504" lon="10.472116470336914">
        <ele>1195.028725929531</ele>
        <time>2017-11-13T12:52:38.182000Z</time>
      </trkpt>
      <trkpt lat="45.7891058921814" lon="10.472116470336914">
        <ele>1195.308168732711</ele>
        <time>2017-11-13T12:52:38.285000Z</time>
      </trkpt>
      <trkpt lat="45.789363384246826" lon="10.472674369812012">
        <ele>1199.0</ele>
        <time>2017-11-13T12:52:39.033000Z</time>
      </trkpt>
      <trkpt lat="45.789620876312256" lon="10.47269582748413">
        <ele>1200.6396189929071</ele>
        <time>2017-11-13T12:52:39.446000Z</time>
      </trkpt>
      <trkpt lat="45.78998565673828" lon="10.472846031188965">
        <ele>1205.8465708709057</ele>
        <time>2017-11-13T12:52:40.054000Z</time>
      </trkpt>
      <trkpt lat="45.79005002975464" lon="10.47295331954956">
        <ele>1221.2006467142626</ele>
        <time>2017-11-13T12:52:40.212000Z</time>
      </trkpt>
      <trkpt lat="45.79028606414795" lon="10.473017692565918">
        <ele>1224.497048883073</ele>
        <time>2017-11-13T12:52:40.597000Z</time>
      </trkpt>
      <trkpt lat="45.7904577255249" lon="10.473189353942871">
        <ele>1227.3682435604294</ele>
        <time>2017-11-13T12:52:40.932000Z</time>
      </trkpt>
      <trkpt lat="45.791122913360596" lon="10.473511219024658">
        <ele>1235.0</ele>
        <time>2017-11-13T12:52:42.057000Z</time>
      </trkpt>
      <trkpt lat="45.791165828704834" lon="10.473597049713135">
        <ele>1234.081219871023</ele>
        <time>2017-11-13T12:52:42.175000Z</time>
      </trkpt>
      <trkpt lat="45.791015625" lon="10.473854541778564">
        <ele>1231.1607586988805</ele>
        <time>2017-11-13T12:52:42.550000Z</time>
      </trkpt>
      <trkpt lat="45.79092979431152" lon="10.474262237548828">
        <ele>1229.122669094941</ele>
        <time>2017-11-13T12:52:43.026000Z</time>
      </trkpt>
      <trkpt lat="45.79073667526245" lon="10.474412441253662">
        <ele>1212.381816367105</ele>
        <time>2017-11-13T12:52:43.378000Z</time>
      </trkpt>
      <trkpt lat="45.79069375991821" lon="10.474562644958496">
        <ele>1210.9697205071864</ele>
        <time>2017-11-13T12:52:43.559000Z</time>
      </trkpt>
      <trkpt lat="45.79022169113159" lon="10.47520637512207">
        <ele>1226.7534317018244</ele>
        <time>2017-11-13T12:52:44.603000Z</time>
      </trkpt>
      <trkpt lat="45.79026460647583" lon="10.475270748138428">
        <ele>1227.3683703916076</ele>
        <time>2017-11-13T12:52:44.703000Z</time>
      </trkpt>
      <trkpt lat="45.79095125198364" lon="10.474669933319092">
        <ele>1240.0</ele>
        <time>2017-11-13T12:52:45.992000Z</time>
      </trkpt>
      <trkpt lat="45.791122913360596" lon="10.474605560302734">
        <ele>1242.915556666201</ele>
        <time>2017-11-13T12:52:46.276000Z</time>
      </trkpt>
      <trkpt lat="45.791358947753906" lon="10.474348068237305">
        <ele>1247.7885973186133</ele>
        <time>2017-11-13T12:52:46.751000Z</time>
      </trkpt>
      <trkpt lat="45.7915735244751" lon="10.47421932220459">
        <ele>1251.6106298108482</ele>
        <time>2017-11-13T12:52:47.124000Z</time>
      </trkpt>
      <trkpt lat="45.79193830490112" lon="10.472931861877441">
        <ele>1281.8662950799583</ele>
        <time>2017-11-13T12:52:48.677000Z</time>
      </trkpt>
      <trkpt lat="45.79200267791748" lon="10.472910404205322">
        <ele>1282.2433589626053</ele>
        <time>2017-11-13T12:52:48.783000Z</time>
      </trkpt>
      <trkpt lat="45.7920241355896" lon="10.473017692565918">
        <ele>1282.6873824891927</ele>
        <time>2017-11-13T12:52:48.908000Z</time>
      </trkpt>
      <trkpt lat="45.79193830490112" lon="10.473253726959229">
        <ele>1281.7587284769277</ele>
        <time>2017-11-13T12:52:49.206000Z</time>
      </trkpt>
      <trkpt lat="45.79193830490112" lon="10.473661422729492">
        <ele>1279.0031494141103</ele>
        <time>2017-11-13T12:52:49.662000Z</time>
      </trkpt>
      <trkpt lat="45.79185247421265" lon="10.4744553565979">
        <ele>1278.305189280731</ele>
        <time>2017-11-13T12:52:50.560000Z</time>
      </trkpt>
      <trkpt lat="45.79159498214722" lon="10.474755764007568">
        <ele>1260.1140622091723</ele>
        <time>2017-11-13T12:52:51.092000Z</time>
      </trkpt>
      <trkpt lat="45.79148769378662" lon="10.475077629089355">
        <ele>1266.8053311859849</ele>
        <time>2017-11-13T12:52:51.491000Z</time>
      </trkpt>
      <trkpt lat="45.791401863098145" lon="10.475142002105713">
        <ele>1266.1659508010268</ele>
        <time>2017-11-13T12:52:51.646000Z</time>
      </trkpt>
      <trkpt lat="45.79120874404907" lon="10.475163459777832">
        <ele>1265.4049305936974</ele>
        <time>2017-11-13T12:52:51.957000Z</time>
      </trkpt>
      <trkpt lat="45.79103708267212" lon="10.475356578826904">
        <ele>1264.5477428812283</ele>
        <time>2017-11-13T12:52:52.307000Z</time>
      </trkpt>
      <trkpt lat="45.79077959060669" lon="10.475742816925049">
        <ele>1252.3831118523547</ele>
        <time>2017-11-13T12:52:52.904000Z</time>
      </trkpt>
      <trkpt lat="45.79052209854126" lon="10.476236343383789">
        <ele>1265.0133772351467</ele>
        <time>2017-11-13T12:52:53.593000Z</time>
      </trkpt>
      <trkpt lat="45.79050064086914" lon="10.476322174072266">
        <ele>1265.6089962777867</ele>
        <time>2017-11-13T12:52:53.695000Z</time>
      </trkpt>
      <trkpt lat="45.790865421295166" lon="10.475828647613525">
        <ele>1271.6403470213074</ele>
        <time>2017-11-13T12:52:54.499000Z</time>
      </trkpt>
      <trkpt lat="45.79118728637695" lon="10.475528240203857">
        <ele>1275.2379516630983</ele>
        <time>2017-11-13T12:52:55.115000Z</time>
      </trkpt>
      <trkpt lat="45.79172372817993" lon="10.475399494171143">
        <ele>1288.0</ele>
        <time>2017-11-13T12:52:55.987000Z</time>
      </trkpt>
      <trkpt lat="45.791895389556885" lon="10.475142002105713">
        <ele>1291.1587240024608</ele>
        <time>2017-11-13T12:52:56.385000Z</time>
      </trkpt>
      <trkpt lat="45.79223871231079" lon="10.47497034072876">
        <ele>1295.7822270065806</ele>
        <time>2017-11-13T12:52:56.968000Z</time>
      </trkpt>
      <trkpt lat="45.792388916015625" lon="10.47473430633545">
        <ele>1298.6156175908293</ele>
        <time>2017-11-13T12:52:57.325000Z</time>
      </trkpt>
      <trkpt lat="45.792603492736816" lon="10.473897457122803">
        <ele>1315.1880555755595</ele>
        <time>2017-11-13T12:52:58.322000Z</time>
      </trkpt>
      <trkpt lat="45.79277515411377" lon="10.473489761352539">
        <ele>1319.5482589832586</ele>
        <time>2017-11-13T12:52:58.854000Z</time>
      </trkpt>
      <trkpt lat="45.79279661178589" lon="10.473017692565918">
        <ele>1329.5458869168162</ele>
        <time>2017-11-13T12:52:59.383000Z</time>
      </trkpt>
      <trkpt lat="45.79275369644165" lon="10.47269582748413">
        <ele>1331.7063792764018</ele>
        <time>2017-11-13T12:52:59.749000Z</time>
      </trkpt>
      <trkpt lat="45.79279661178589" lon="10.47248125076294">
        <ele>1338.0740177435953</ele>
        <time>2017-11-13T12:52:59.999000Z</time>
      </trkpt>
      <trkpt lat="45.79273223876953" lon="10.4719877243042">
        <ele>1339.6506441992017</ele>
        <time>2017-11-13T12:53:00.560000Z</time>
      </trkpt>
      <trkpt lat="45.79226016998291" lon="10.47145128250122">
        <ele>1338.6964406848904</ele>
        <time>2017-11-13T12:53:01.526000Z</time>
      </trkpt>
      <trkpt lat="45.792109966278076" lon="10.471065044403076">
        <ele>1340.0851833183879</ele>
        <time>2017-11-13T12:53:02.020000Z</time>
      </trkpt>
      <trkpt lat="45.79159498214722" lon="10.470571517944336">
        <ele>1344.1579070366085</ele>
        <time>2017-11-13T12:53:03.013000Z</time>
      </trkpt>
      <trkpt lat="45.79144477844238" lon="10.470678806304932">
        <ele>1344.2754249650768</ele>
        <time>2017-11-13T12:53:03.282000Z</time>
      </trkpt>
      <trkpt lat="45.79125165939331" lon="10.471258163452148">
        <ele>1333.922345462014</ele>
        <time>2017-11-13T12:53:04Z</time>
      </trkpt>
      <trkpt lat="45.791165828704834" lon="10.471129417419434">
        <ele>1336.5568785521134</ele>
        <time>2017-11-13T12:53:04.199000Z</time>
      </trkpt>
      <trkpt lat="45.79099416732788" lon="10.470614433288574">
        <ele>1355.6660685301385</ele>
        <time>2017-11-13T12:53:04.837000Z</time>
      </trkpt>
      <trkpt lat="45.79099416732788" lon="10.470077991485596">
        <ele>1363.6003555827667</ele>
        <time>2017-11-13T12:53:05.437000Z</time>
      </trkpt>
      <trkpt lat="45.79110145568848" lon="10.46971321105957">
        <ele>1377.4560037721587</ele>
        <time>2017-11-13T12:53:05.880000Z</time>
      </trkpt>
      <trkpt lat="45.79120874404907" lon="10.469133853912354">
        <ele>1384.4246813390448</ele>
        <time>2017-11-13T12:53:06.550000Z</time>
      </trkpt>
      <trkpt lat="45.791165828704834" lon="10.468940734863281">
        <ele>1384.7936997164852</ele>
        <time>2017-11-13T12:53:06.777000Z</time>
      </trkpt>
      <trkpt lat="45.791165828704834" lon="10.468297004699707">
        <ele>1385.6323476372647</ele>
        <time>2017-11-13T12:53:07.497000Z</time>
      </trkpt>
      <trkpt lat="45.79125174321234" lon="10.467932224273682">
        <ele>1386.3333333333333</ele>
        <time>2017-11-13T12:53:07.927000Z</time>
      </trkpt>
      <trkpt lat="45.79129457473755" lon="10.467696189880371">
        <ele>1385.9284501150516</ele>
        <time>2017-11-13T12:53:08.200000Z</time>
      </trkpt>
      <trkpt lat="45.79131603240967" lon="10.46771764755249">
        <ele>1385.8661712746277</ele>
        <time>2017-11-13T12:53:08.242000Z</time>
      </trkpt>
      <trkpt lat="45.79129457473755" lon="10.46821117401123">
        <ele>1385.045295907099</ele>
        <time>2017-11-13T12:53:08.795000Z</time>
      </trkpt>
      <trkpt lat="45.791358947753906" lon="10.468575954437256">
        <ele>1384.7539792157374</ele>
        <time>2017-11-13T12:53:09.216000Z</time>
      </trkpt>
      <trkpt lat="45.7915735244751" lon="10.469005107879639">
        <ele>1383.87732751422</ele>
        <time>2017-11-13T12:53:09.806000Z</time>
      </trkpt>
      <trkpt lat="45.791616439819336" lon="10.469326972961426">
        <ele>1381.3122249560977</ele>
        <time>2017-11-13T12:53:10.172000Z</time>
      </trkpt>
      <trkpt lat="45.791659355163574" lon="10.469348430633545">
        <ele>1382.5128161887988</ele>
        <time>2017-11-13T12:53:10.245000Z</time>
      </trkpt>
      <trkpt lat="45.79168081283569" lon="10.469284057617188">
        <ele>1393.8270494205608</ele>
        <time>2017-11-13T12:53:10.325000Z</time>
      </trkpt>
      <trkpt lat="45.791659355163574" lon="10.468919277191162">
        <ele>1394.2366069988796</ele>
        <time>2017-11-13T12:53:10.734000Z</time>
      </trkpt>
      <trkpt lat="45.79155206680298" lon="10.468597412109375">
        <ele>1400.8077855134159</ele>
        <time>2017-11-13T12:53:11.133000Z</time>
      </trkpt>
      <trkpt lat="45.7915735244751" lon="10.468168258666992">
        <ele>1408.3994951063635</ele>
        <time>2017-11-13T12:53:11.614000Z</time>
      </trkpt>
      <trkpt lat="45.79172372817993" lon="10.467889308929443">
        <ele>1433.5579769579624</ele>
        <time>2017-11-13T12:53:12.008000Z</time>
      </trkpt>
      <trkpt lat="45.79173630376412" lon="10.46777595975155">
        <ele>1433.5569795244962</ele>
        <time>2017-11-13T12:53:12.136000Z</time>
      </trkpt>
      <trkpt lat="45.791742419824004" lon="10.467720832675695">
        <ele>1433.5564944254772</ele>
        <time>2017-11-13T12:53:12.198000Z</time>
      </trkpt>
      <trkpt lat="45.791742419824004" lon="10.467720665037632">
        <ele>1433.5564929686468</ele>
        <time>2017-11-13T12:53:12.199000Z</time>
      </trkpt>
      <trkpt lat="45.79174518585205" lon="10.467696189880371">
        <ele>1433.556277495746</ele>
        <time>2017-11-13T12:53:12.227000Z</time>
      </trkpt>
      <trkpt lat="45.79168081283569" lon="10.466279983520508">
        <ele>1433.2106025262822</ele>
        <time>2017-11-13T12:53:13.813000Z</time>
      </trkpt>
      <trkpt lat="45.791659355163574" lon="10.466108322143555">
        <ele>1423.4127751929766</ele>
        <time>2017-11-13T12:53:14.008000Z</time>
      </trkpt>
      <trkpt lat="45.79155206680298" lon="10.46597957611084">
        <ele>1423.385454058118</ele>
        <time>2017-11-13T12:53:14.232000Z</time>
      </trkpt>
      <trkpt lat="45.791637897491455" lon="10.465936660766602">
        <ele>1423.3677015802584</ele>
        <time>2017-11-13T12:53:14.378000Z</time>
      </trkpt>
      <trkpt lat="45.79170227050781" lon="10.466001033782959">
        <ele>1432.0190415726108</ele>
        <time>2017-11-13T12:53:14.504000Z</time>
      </trkpt>
      <trkpt lat="45.79183101654053" lon="10.466322898864746">
        <ele>1431.9685104463733</ele>
        <time>2017-11-13T12:53:14.919000Z</time>
      </trkpt>
      <trkpt lat="45.791873931884766" lon="10.466794967651367">
        <ele>1434.2370143428452</ele>
        <time>2017-11-13T12:53:15.451000Z</time>
      </trkpt>
      <trkpt lat="45.791916847229004" lon="10.466859340667725">
        <ele>1434.2248860710395</ele>
        <time>2017-11-13T12:53:15.551000Z</time>
      </trkpt>
      <trkpt lat="45.79198122024536" lon="10.466816425323486">
        <ele>1434.2110219402755</ele>
        <time>2017-11-13T12:53:15.665000Z</time>
      </trkpt>
      <trkpt lat="45.79200267791748" lon="10.46670913696289">
        <ele>1434.1958225197834</ele>
        <time>2017-11-13T12:53:15.790000Z</time>
      </trkpt>
      <trkpt lat="45.79198122024536" lon="10.465271472930908">
        <ele>1427.0</ele>
        <time>2017-11-13T12:53:17.397000Z</time>
      </trkpt>
      <trkpt lat="45.791659438982606" lon="10.464649200439453">
        <ele>1418.4695340194512</ele>
        <time>2017-11-13T12:53:18.263000Z</time>
      </trkpt>
      <trkpt lat="45.79131603240967" lon="10.464606285095215">
        <ele>1417.7056155463408</ele>
        <time>2017-11-13T12:53:18.816000Z</time>
      </trkpt>
      <trkpt lat="45.79120874404907" lon="10.464541912078857">
        <ele>1417.447880905169</ele>
        <time>2017-11-13T12:53:19.002000Z</time>
      </trkpt>
      <trkpt lat="45.790886878967285" lon="10.46372652053833">
        <ele>1416.0</ele>
        <time>2017-11-13T12:53:20.049000Z</time>
      </trkpt>
      <trkpt lat="45.79080113209784" lon="10.463705062866211">
        <ele>1418.6135546462222</ele>
        <time>2017-11-13T12:53:20.189000Z</time>
      </trkpt>
      <trkpt lat="45.7905650138855" lon="10.463705062866211">
        <ele>1419.373705109766</ele>
        <time>2017-11-13T12:53:20.568000Z</time>
      </trkpt>
      <trkpt lat="45.79020023345947" lon="10.463533401489258">
        <ele>1420.6096734811047</ele>
        <time>2017-11-13T12:53:21.183000Z</time>
      </trkpt>
      <trkpt lat="45.78970670700073" lon="10.463533401489258">
        <ele>1423.1985147765765</ele>
        <time>2017-11-13T12:53:21.974000Z</time>
      </trkpt>
      <trkpt lat="45.789663791656494" lon="10.463383197784424">
        <ele>1423.562906194819</ele>
        <time>2017-11-13T12:53:22.155000Z</time>
      </trkpt>
      <trkpt lat="45.789642333984375" lon="10.462546348571777">
        <ele>1421.3925606111407</ele>
        <time>2017-11-13T12:53:23.091000Z</time>
      </trkpt>
      <trkpt lat="45.78972816467285" lon="10.461773872375488">
        <ele>1422.211473019378</ele>
        <time>2017-11-13T12:53:23.965000Z</time>
      </trkpt>
      <trkpt lat="45.78951358795166" lon="10.461087226867676">
        <ele>1423.6500109645465</ele>
        <time>2017-11-13T12:53:24.806000Z</time>
      </trkpt>
      <trkpt lat="45.78949213027954" lon="10.460636615753174">
        <ele>1430.3492330330039</ele>
        <time>2017-11-13T12:53:25.311000Z</time>
      </trkpt>
      <trkpt lat="45.7895565032959" lon="10.460379123687744">
        <ele>1430.7727054678887</ele>
        <time>2017-11-13T12:53:25.617000Z</time>
      </trkpt>
      <trkpt lat="45.79017877578735" lon="10.459542274475098">
        <ele>1428.0</ele>
        <time>2017-11-13T12:53:26.985000Z</time>
      </trkpt>
      <trkpt lat="45.79028606414795" lon="10.459091663360596">
        <ele>1436.7979501208267</ele>
        <time>2017-11-13T12:53:27.517000Z</time>
      </trkpt>
      <trkpt lat="45.79075813293457" lon="10.458211898803711">
        <ele>1443.4314753350056</ele>
        <time>2017-11-13T12:53:28.758000Z</time>
      </trkpt>
      <trkpt lat="45.79075813293457" lon="10.458018779754639">
        <ele>1444.7997379676226</ele>
        <time>2017-11-13T12:53:28.974000Z</time>
      </trkpt>
      <trkpt lat="45.79050064086914" lon="10.45750379562378">
        <ele>1449.289567885254</ele>
        <time>2017-11-13T12:53:29.682000Z</time>
      </trkpt>
      <trkpt lat="45.79047918319702" lon="10.457310676574707">
        <ele>1453.6750999553872</ele>
        <time>2017-11-13T12:53:29.901000Z</time>
      </trkpt>
      <trkpt lat="45.79073667526245" lon="10.456602573394775">
        <ele>1463.0</ele>
        <time>2017-11-13T12:53:30.794000Z</time>
      </trkpt>
      <trkpt lat="45.790908336639404" lon="10.45574426651001">
        <ele>1445.0356965014496</ele>
        <time>2017-11-13T12:53:31.792000Z</time>
      </trkpt>
      <trkpt lat="45.790908336639404" lon="10.453405380249023">
        <ele>1427.0</ele>
        <time>2017-11-13T12:53:34.406000Z</time>
      </trkpt>
      <trkpt lat="45.79097270965576" lon="10.452868938446045">
        <ele>1429.6622675248539</ele>
        <time>2017-11-13T12:53:35.014000Z</time>
      </trkpt>
      <trkpt lat="45.79082250595093" lon="10.45175313949585">
        <ele>1459.7115647997798</ele>
        <time>2017-11-13T12:53:36.284000Z</time>
      </trkpt>
      <trkpt lat="45.79099416732788" lon="10.45072317123413">
        <ele>1443.426304080489</ele>
        <time>2017-11-13T12:53:37.468000Z</time>
      </trkpt>
      <trkpt lat="45.79084396362305" lon="10.45022964477539">
        <ele>1442.7528691485177</ele>
        <time>2017-11-13T12:53:38.070000Z</time>
      </trkpt>
      <trkpt lat="45.79084396362305" lon="10.449800491333008">
        <ele>1443.5495037308563</ele>
        <time>2017-11-13T12:53:38.550000Z</time>
      </trkpt>
      <trkpt lat="45.790865421295166" lon="10.449564456939697">
        <ele>1445.6856067829233</ele>
        <time>2017-11-13T12:53:38.816000Z</time>
      </trkpt>
      <trkpt lat="45.791015625" lon="10.449156761169434">
        <ele>1451.156906563607</ele>
        <time>2017-11-13T12:53:39.331000Z</time>
      </trkpt>
      <trkpt lat="45.79103708267212" lon="10.448620319366455">
        <ele>1455.9788436310903</ele>
        <time>2017-11-13T12:53:39.932000Z</time>
      </trkpt>
      <trkpt lat="45.79075813293457" lon="10.447225570678711">
        <ele>1481.0</ele>
        <time>2017-11-13T12:53:41.554000Z</time>
      </trkpt>
      <trkpt lat="45.79082250595093" lon="10.446410179138184">
        <ele>1482.5681612765432</ele>
        <time>2017-11-13T12:53:42.471000Z</time>
      </trkpt>
      <trkpt lat="45.79082250595093" lon="10.44623851776123">
        <ele>1482.9963863167675</ele>
        <time>2017-11-13T12:53:42.663000Z</time>
      </trkpt>
      <trkpt lat="45.79071521759033" lon="10.44574499130249">
        <ele>1484.285982488346</ele>
        <time>2017-11-13T12:53:43.241000Z</time>
      </trkpt>
      <trkpt lat="45.79075813293457" lon="10.445358753204346">
        <ele>1485.261646025977</ele>
        <time>2017-11-13T12:53:43.678000Z</time>
      </trkpt>
      <trkpt lat="45.790607929229736" lon="10.445101261138916">
        <ele>1486.0991223614026</ele>
        <time>2017-11-13T12:53:44.053000Z</time>
      </trkpt>
      <trkpt lat="45.79043626785278" lon="10.444672107696533">
        <ele>1490.0</ele>
        <time>2017-11-13T12:53:44.606000Z</time>
      </trkpt>
      <trkpt lat="45.79050064086914" lon="10.444414615631104">
        <ele>1490.951439129153</ele>
        <time>2017-11-13T12:53:44.912000Z</time>
      </trkpt>
      <trkpt lat="45.79069375991821" lon="10.44426441192627">
        <ele>1492.0473126784498</ele>
        <time>2017-11-13T12:53:45.264000Z</time>
      </trkpt>
      <trkpt lat="45.79107999801636" lon="10.444157123565674">
        <ele>1488.6764358597402</ele>
        <time>2017-11-13T12:53:45.895000Z</time>
      </trkpt>
      <trkpt lat="45.791144371032715" lon="10.444071292877197">
        <ele>1489.114880388758</ele>
        <time>2017-11-13T12:53:46.036000Z</time>
      </trkpt>
      <trkpt lat="45.79110145568848" lon="10.443835258483887">
        <ele>1489.9633029914846</ele>
        <time>2017-11-13T12:53:46.309000Z</time>
      </trkpt>
      <trkpt lat="45.79080104827881" lon="10.443320274353027">
        <ele>1503.6320079617706</ele>
        <time>2017-11-13T12:53:47.060000Z</time>
      </trkpt>
      <trkpt lat="45.79075813293457" lon="10.443127155303955">
        <ele>1503.2970812327521</ele>
        <time>2017-11-13T12:53:47.287000Z</time>
      </trkpt>
      <trkpt lat="45.79075813293457" lon="10.442934036254883">
        <ele>1502.9779685787605</ele>
        <time>2017-11-13T12:53:47.503000Z</time>
      </trkpt>
      <trkpt lat="45.79123020172119" lon="10.442204475402832">
        <ele>1498.0</ele>
        <time>2017-11-13T12:53:48.616000Z</time>
      </trkpt>
      <trkpt lat="45.791616439819336" lon="10.442140102386475">
        <ele>1498.7791120249892</ele>
        <time>2017-11-13T12:53:49.239000Z</time>
      </trkpt>
      <trkpt lat="45.79174518585205" lon="10.441946983337402">
        <ele>1499.152400778663</ele>
        <time>2017-11-13T12:53:49.538000Z</time>
      </trkpt>
      <trkpt lat="45.791873931884766" lon="10.44100284576416">
        <ele>1501.8297888647937</ele>
        <time>2017-11-13T12:53:50.613000Z</time>
      </trkpt>
      <trkpt lat="45.79178810119629" lon="10.440659523010254">
        <ele>1502.870327044957</ele>
        <time>2017-11-13T12:53:51.021000Z</time>
      </trkpt>
      <trkpt lat="45.79180955886841" lon="10.44025182723999">
        <ele>1503.6631049758862</ele>
        <time>2017-11-13T12:53:51.478000Z</time>
      </trkpt>
      <trkpt lat="45.7917873237327" lon="10.440058948424957">
        <ele>1504.2050352794333</ele>
        <time>2017-11-13T12:53:51.697000Z</time>
      </trkpt>
      <trkpt lat="45.79178097657859" lon="10.440003890544176">
        <ele>1504.3597310929727</ele>
        <time>2017-11-13T12:53:51.759000Z</time>
      </trkpt>
      <trkpt lat="45.79178089275956" lon="10.44000313617289">
        <ele>1504.361848641455</ele>
        <time>2017-11-13T12:53:51.761000Z</time>
      </trkpt>
      <trkpt lat="45.79178089275956" lon="10.440003303810954">
        <ele>1504.362313344646</ele>
        <time>2017-11-13T12:53:51.761000Z</time>
      </trkpt>
      <trkpt lat="45.79176261871814" lon="10.439844907783389">
        <ele>1506.8073669279747</ele>
        <time>2017-11-13T12:53:51.940000Z</time>
      </trkpt>
      <trkpt lat="45.791756166145205" lon="10.439788978546858">
        <ele>1506.9645142755908</ele>
        <time>2017-11-13T12:53:52.003000Z</time>
      </trkpt>
      <trkpt lat="45.791756166145205" lon="10.439788894727826">
        <ele>1506.9647466272897</ele>
        <time>2017-11-13T12:53:52.003000Z</time>
      </trkpt>
      <trkpt lat="45.79174518585205" lon="10.439693927764893">
        <ele>1507.2315959441576</ele>
        <time>2017-11-13T12:53:52.111000Z</time>
      </trkpt>
      <trkpt lat="45.79174518585205" lon="10.439221858978271">
        <ele>1508.540200969198</ele>
        <time>2017-11-13T12:53:52.639000Z</time>
      </trkpt>
      <trkpt lat="45.79178810119629" lon="10.439136028289795">
        <ele>1512.4945334339463</ele>
        <time>2017-11-13T12:53:52.757000Z</time>
      </trkpt>
      <trkpt lat="45.79281806945801" lon="10.438148975372314">
        <ele>1516.0</ele>
        <time>2017-11-13T12:53:54.743000Z</time>
      </trkpt>
      <trkpt lat="45.79296827316284" lon="10.437977313995361">
        <ele>1518.4275494153178</ele>
        <time>2017-11-13T12:53:55.051000Z</time>
      </trkpt>
      <trkpt lat="45.793375968933105" lon="10.437870025634766">
        <ele>1537.6666516377156</ele>
        <time>2017-11-13T12:53:55.716000Z</time>
      </trkpt>
      <trkpt lat="45.7935905456543" lon="10.43774127960205">
        <ele>1540.6065646827703</ele>
        <time>2017-11-13T12:53:56.089000Z</time>
      </trkpt>
      <trkpt lat="45.793633460998535" lon="10.437633991241455">
        <ele>1541.6966228224983</ele>
        <time>2017-11-13T12:53:56.227000Z</time>
      </trkpt>
      <trkpt lat="45.79397678375244" lon="10.43750524520874">
        <ele>1546.1819348320078</ele>
        <time>2017-11-13T12:53:56.796000Z</time>
      </trkpt>
      <trkpt lat="45.7940411567688" lon="10.437204837799072">
        <ele>1544.2107298372448</ele>
        <time>2017-11-13T12:53:57.147000Z</time>
      </trkpt>
      <trkpt lat="45.79399824142456" lon="10.436818599700928">
        <ele>1542.5872442791908</ele>
        <time>2017-11-13T12:53:57.584000Z</time>
      </trkpt>
      <trkpt lat="45.794105529785156" lon="10.435724258422852">
        <ele>1529.0</ele>
        <time>2017-11-13T12:53:58.819000Z</time>
      </trkpt>
      <trkpt lat="45.79401969909668" lon="10.43527364730835">
        <ele>1532.006908800445</ele>
        <time>2017-11-13T12:53:59.341000Z</time>
      </trkpt>
      <trkpt lat="45.79408407211304" lon="10.435123443603516">
        <ele>1533.141827799832</ele>
        <time>2017-11-13T12:53:59.538000Z</time>
      </trkpt>
      <trkpt lat="45.79442739486694" lon="10.434930324554443">
        <ele>1536.546517099043</ele>
        <time>2017-11-13T12:54:00.129000Z</time>
      </trkpt>
      <trkpt lat="45.795865058898926" lon="10.434350967407227">
        <ele>1561.0</ele>
        <time>2017-11-13T12:54:02.523000Z</time>
      </trkpt>
      <trkpt lat="45.79603646595694" lon="10.43426027918152">
        <ele>1559.2909703288913</ele>
        <time>2017-11-13T12:54:02.816000Z</time>
      </trkpt>
      <trkpt lat="45.79607401974499" lon="10.434240410104394">
        <ele>1558.4491478108891</ele>
        <time>2017-11-13T12:54:02.880000Z</time>
      </trkpt>
      <trkpt lat="45.796074103564024" lon="10.434240326285362">
        <ele>1558.4469988379694</ele>
        <time>2017-11-13T12:54:02.880000Z</time>
      </trkpt>
      <trkpt lat="45.79622983932495" lon="10.434157848358154">
        <ele>1539.9555474996566</ele>
        <time>2017-11-13T12:54:03.146000Z</time>
      </trkpt>
      <trkpt lat="45.796637535095215" lon="10.433835983276367">
        <ele>1530.1681662157619</ele>
        <time>2017-11-13T12:54:03.892000Z</time>
      </trkpt>
      <trkpt lat="45.79678773880005" lon="10.433707237243652">
        <ele>1533.8214410301614</ele>
        <time>2017-11-13T12:54:04.173000Z</time>
      </trkpt>
      <trkpt lat="45.797109603881836" lon="10.433063507080078">
        <ele>1513.5393979742828</ele>
        <time>2017-11-13T12:54:05.058000Z</time>
      </trkpt>
      <trkpt lat="45.797109603881836" lon="10.432827472686768">
        <ele>1511.4161128595922</ele>
        <time>2017-11-13T12:54:05.322000Z</time>
      </trkpt>
      <trkpt lat="45.79725980758667" lon="10.43250560760498">
        <ele>1509.782895263145</ele>
        <time>2017-11-13T12:54:05.755000Z</time>
      </trkpt>
      <trkpt lat="45.79732418060303" lon="10.432162284851074">
        <ele>1499.9504021915425</ele>
        <time>2017-11-13T12:54:06.152000Z</time>
      </trkpt>
      <trkpt lat="45.7975172996521" lon="10.432054996490479">
        <ele>1503.0311585736602</ele>
        <time>2017-11-13T12:54:06.484000Z</time>
      </trkpt>
      <trkpt lat="45.79768896102905" lon="10.431818962097168">
        <ele>1501.5929053497878</ele>
        <time>2017-11-13T12:54:06.865000Z</time>
      </trkpt>
      <trkpt lat="45.79783916473389" lon="10.4315185546875">
        <ele>1503.285740857623</ele>
        <time>2017-11-13T12:54:07.278000Z</time>
      </trkpt>
      <trkpt lat="45.79781964539175" lon="10.431108646960157">
        <ele>1502.2034080665792</ele>
        <time>2017-11-13T12:54:07.737000Z</time>
      </trkpt>
      <trkpt lat="45.79781770706177" lon="10.431067943572998">
        <ele>1502.095933584552</ele>
        <time>2017-11-13T12:54:07.783000Z</time>
      </trkpt>
      <trkpt lat="45.79782256856561" lon="10.431054029613733">
        <ele>1502.0549349297337</ele>
        <time>2017-11-13T12:54:07.800000Z</time>
      </trkpt>
      <trkpt lat="45.797822400927544" lon="10.431054783985019">
        <ele>1502.0528491902733</ele>
        <time>2017-11-13T12:54:07.802000Z</time>
      </trkpt>
      <trkpt lat="45.797822484746575" lon="10.431054448708892">
        <ele>1502.0519109092486</ele>
        <time>2017-11-13T12:54:07.802000Z</time>
      </trkpt>
      <trkpt lat="45.79794645309448" lon="10.430703163146973">
        <ele>1496.6813962810886</ele>
        <time>2017-11-13T12:54:08.242000Z</time>
      </trkpt>
      <trkpt lat="45.798096656799316" lon="10.430102348327637">
        <ele>1495.0</ele>
        <time>2017-11-13T12:54:08.955000Z</time>
      </trkpt>
      <trkpt lat="45.79803228378296" lon="10.429737567901611">
        <ele>1491.9975136281957</ele>
        <time>2017-11-13T12:54:09.376000Z</time>
      </trkpt>
      <trkpt lat="45.79803228378296" lon="10.429308414459229">
        <ele>1490.8541751654</ele>
        <time>2017-11-13T12:54:09.856000Z</time>
      </trkpt>
      <trkpt lat="45.798139572143555" lon="10.42875051498413">
        <ele>1487.9789979351417</ele>
        <time>2017-11-13T12:54:10.503000Z</time>
      </trkpt>
      <trkpt lat="45.79818248748779" lon="10.427634716033936">
        <ele>1484.6684713312036</ele>
        <time>2017-11-13T12:54:11.752000Z</time>
      </trkpt>
      <trkpt lat="45.798139572143555" lon="10.427420139312744">
        <ele>1484.7260296326028</ele>
        <time>2017-11-13T12:54:12.001000Z</time>
      </trkpt>
      <trkpt lat="45.79801082611084" lon="10.427141189575195">
        <ele>1484.8122875906413</ele>
        <time>2017-11-13T12:54:12.375000Z</time>
      </trkpt>
      <trkpt lat="45.79794645309448" lon="10.426561832427979">
        <ele>1488.6585076468245</ele>
        <time>2017-11-13T12:54:13.031000Z</time>
      </trkpt>
      <trkpt lat="45.79781770706177" lon="10.426175594329834">
        <ele>1489.8029205197065</ele>
        <time>2017-11-13T12:54:13.510000Z</time>
      </trkpt>
      <trkpt lat="45.79781770706177" lon="10.42604684829712">
        <ele>1490.1470789878658</ele>
        <time>2017-11-13T12:54:13.654000Z</time>
      </trkpt>
      <trkpt lat="45.797860622406006" lon="10.425832271575928">
        <ele>1491.4104772228627</ele>
        <time>2017-11-13T12:54:13.904000Z</time>
      </trkpt>
      <trkpt lat="45.798161029815674" lon="10.425124168395996">
        <ele>1493.626239306279</ele>
        <time>2017-11-13T12:54:14.830000Z</time>
      </trkpt>
      <trkpt lat="45.798118114471436" lon="10.424222946166992">
        <ele>1501.30675130674</ele>
        <time>2017-11-13T12:54:15.840000Z</time>
      </trkpt>
      <trkpt lat="45.797903537750244" lon="10.423622131347656">
        <ele>1503.7008615068273</ele>
        <time>2017-11-13T12:54:16.595000Z</time>
      </trkpt>
      <trkpt lat="45.79773187637329" lon="10.422441959381104">
        <ele>1501.6666666666667</ele>
        <time>2017-11-13T12:54:17.942000Z</time>
      </trkpt>
      <trkpt lat="45.79773196019232" lon="10.422441959381104">
        <ele>1501.6668384232992</ele>
        <time>2017-11-13T12:54:17.942000Z</time>
      </trkpt>
      <trkpt lat="45.79777479171753" lon="10.422098636627197">
        <ele>1502.165114942986</ele>
        <time>2017-11-13T12:54:18.332000Z</time>
      </trkpt>
      <trkpt lat="45.79773187637329" lon="10.42128324508667">
        <ele>1505.0</ele>
        <time>2017-11-13T12:54:19.246000Z</time>
      </trkpt>
      <trkpt lat="45.797646045684814" lon="10.420811176300049">
        <ele>1498.4552111544306</ele>
        <time>2017-11-13T12:54:19.791000Z</time>
      </trkpt>
      <trkpt lat="45.79781094320697" lon="10.42039889547429">
        <ele>1497.2749272674992</ele>
        <time>2017-11-13T12:54:20.322000Z</time>
      </trkpt>
      <trkpt lat="45.79783086664975" lon="10.420349081978202">
        <ele>1497.1323207584112</ele>
        <time>2017-11-13T12:54:20.386000Z</time>
      </trkpt>
      <trkpt lat="45.797830782830715" lon="10.420349333435297">
        <ele>1497.131628640301</ele>
        <time>2017-11-13T12:54:20.386000Z</time>
      </trkpt>
      <trkpt lat="45.797830866648795" lon="10.420349081977886">
        <ele>1497.1309365229463</ele>
        <time>2017-11-13T12:54:20.386000Z</time>
      </trkpt>
      <trkpt lat="45.797860622406006" lon="10.42027473449707">
        <ele>1496.9180590999624</ele>
        <time>2017-11-13T12:54:20.482000Z</time>
      </trkpt>
      <trkpt lat="45.79794645309448" lon="10.420253276824951">
        <ele>1496.6077446683448</ele>
        <time>2017-11-13T12:54:20.622000Z</time>
      </trkpt>
      <trkpt lat="45.79824686050415" lon="10.420403480529785">
        <ele>1495.4746277804577</ele>
        <time>2017-11-13T12:54:21.132000Z</time>
      </trkpt>
      <trkpt lat="45.798633098602295" lon="10.420360565185547">
        <ele>1506.139736021799</ele>
        <time>2017-11-13T12:54:21.753000Z</time>
      </trkpt>
      <trkpt lat="45.798869132995605" lon="10.42003870010376">
        <ele>1508.9407197944</ele>
        <time>2017-11-13T12:54:22.275000Z</time>
      </trkpt>
      <trkpt lat="45.79895496368408" lon="10.419824123382568">
        <ele>1510.4240560212738</ele>
        <time>2017-11-13T12:54:22.551000Z</time>
      </trkpt>
      <trkpt lat="45.7989764213562" lon="10.419609546661377">
        <ele>1511.5988524443944</ele>
        <time>2017-11-13T12:54:22.793000Z</time>
      </trkpt>
      <trkpt lat="45.799198950272384" lon="10.419201501930646">
        <ele>1517.739769149849</ele>
        <time>2017-11-13T12:54:23.372000Z</time>
      </trkpt>
      <trkpt lat="45.799223855137825" lon="10.419155834242702">
        <ele>1515.6435702105712</ele>
        <time>2017-11-13T12:54:23.437000Z</time>
      </trkpt>
      <trkpt lat="45.79922377131879" lon="10.419156085699797">
        <ele>1515.6431077617005</ele>
        <time>2017-11-13T12:54:23.437000Z</time>
      </trkpt>
      <trkpt lat="45.79923391342163" lon="10.419137477874756">
        <ele>1515.6039187153408</ele>
        <time>2017-11-13T12:54:23.463000Z</time>
      </trkpt>
      <trkpt lat="45.79944849014282" lon="10.41905164718628">
        <ele>1515.0737692972332</ele>
        <time>2017-11-13T12:54:23.820000Z</time>
      </trkpt>
      <trkpt lat="45.79951286315918" lon="10.418708324432373">
        <ele>1514.4838949516245</ele>
        <time>2017-11-13T12:54:24.217000Z</time>
      </trkpt>
      <trkpt lat="45.79974889755249" lon="10.418708324432373">
        <ele>1513.9221639792293</ele>
        <time>2017-11-13T12:54:24.595000Z</time>
      </trkpt>
      <trkpt lat="45.799899101257324" lon="10.418601036071777">
        <ele>1513.52282881869</ele>
        <time>2017-11-13T12:54:24.864000Z</time>
      </trkpt>
      <trkpt lat="45.80004930496216" lon="10.41830062866211">
        <ele>1511.9094698031106</ele>
        <time>2017-11-13T12:54:25.277000Z</time>
      </trkpt>
      <trkpt lat="45.80022096633911" lon="10.418128967285156">
        <ele>1512.1937054293678</ele>
        <time>2017-11-13T12:54:25.612000Z</time>
      </trkpt>
      <trkpt lat="45.800392711535096" lon="10.417571067810059">
        <ele>1512.7712167336413</ele>
        <time>2017-11-13T12:54:26.294000Z</time>
      </trkpt>
      <trkpt lat="45.80047845840454" lon="10.417485237121582">
        <ele>1514.8863009178265</ele>
        <time>2017-11-13T12:54:26.462000Z</time>
      </trkpt>
      <trkpt lat="45.80077886581421" lon="10.417206287384033">
        <ele>1517.561834711799</ele>
        <time>2017-11-13T12:54:27.036000Z</time>
      </trkpt>
      <trkpt lat="45.801143646240234" lon="10.416669845581055">
        <ele>1525.4656887536528</ele>
        <time>2017-11-13T12:54:27.874000Z</time>
      </trkpt>
      <trkpt lat="45.801615715026855" lon="10.416369438171387">
        <ele>1540.2904505129889</ele>
        <time>2017-11-13T12:54:28.702000Z</time>
      </trkpt>
      <trkpt lat="45.80172300338745" lon="10.416240692138672">
        <ele>1531.8056498126123</ele>
        <time>2017-11-13T12:54:28.926000Z</time>
      </trkpt>
      <trkpt lat="45.802109241485596" lon="10.41480302810669">
        <ele>1563.0</ele>
        <time>2017-11-13T12:54:30.648000Z</time>
      </trkpt>
      <trkpt lat="45.80219507217407" lon="10.414652824401855">
        <ele>1563.3664934270853</ele>
        <time>2017-11-13T12:54:30.865000Z</time>
      </trkpt>
      <trkpt lat="45.80249547958374" lon="10.414395332336426">
        <ele>1564.313766717535</ele>
        <time>2017-11-13T12:54:31.426000Z</time>
      </trkpt>
      <trkpt lat="45.80268859863281" lon="10.413966178894043">
        <ele>1563.551158855902</ele>
        <time>2017-11-13T12:54:31.997000Z</time>
      </trkpt>
      <trkpt lat="45.80268859863281" lon="10.413858890533447">
        <ele>1563.9510902644615</ele>
        <time>2017-11-13T12:54:32.117000Z</time>
      </trkpt>
      <trkpt lat="45.80283880233765" lon="10.413687229156494">
        <ele>1564.9779854844776</ele>
        <time>2017-11-13T12:54:32.425000Z</time>
      </trkpt>
      <trkpt lat="45.80307483673096" lon="10.41327953338623">
        <ele>1573.6201217450234</ele>
        <time>2017-11-13T12:54:33.017000Z</time>
      </trkpt>
      <trkpt lat="45.80324649810791" lon="10.412571430206299">
        <ele>1575.0</ele>
        <time>2017-11-13T12:54:33.855000Z</time>
      </trkpt>
      <trkpt lat="45.80351350525117" lon="10.412140111125963">
        <ele>1585.3333333333333</ele>
        <time>2017-11-13T12:54:34.500000Z</time>
      </trkpt>
      <trkpt lat="45.80352544784546" lon="10.412120819091797">
        <ele>1585.3333333333333</ele>
        <time>2017-11-13T12:54:34.529000Z</time>
      </trkpt>
      <trkpt lat="45.80352544784546" lon="10.412088297307491">
        <ele>1585.3333333333333</ele>
        <time>2017-11-13T12:54:34.565000Z</time>
      </trkpt>
      <trkpt lat="45.80352544784546" lon="10.412088464945555">
        <ele>1585.3333333333333</ele>
        <time>2017-11-13T12:54:34.567000Z</time>
      </trkpt>
      <trkpt lat="45.80352544784546" lon="10.41203498840332">
        <ele>1585.3333333333333</ele>
        <time>2017-11-13T12:54:34.627000Z</time>
      </trkpt>
      <trkpt lat="45.8034610748291" lon="10.412013530731201">
        <ele>1585.3333333333333</ele>
        <time>2017-11-13T12:54:34.733000Z</time>
      </trkpt>
      <trkpt lat="45.80296754837036" lon="10.41254997253418">
        <ele>1575.0</ele>
        <time>2017-11-13T12:54:35.726000Z</time>
      </trkpt>
      <trkpt lat="45.80271005630493" lon="10.412979125976562">
        <ele>1577.1332874135148</ele>
        <time>2017-11-13T12:54:36.359000Z</time>
      </trkpt>
      <trkpt lat="45.80266714096069" lon="10.41327953338623">
        <ele>1578.2886319241443</ele>
        <time>2017-11-13T12:54:36.702000Z</time>
      </trkpt>
      <trkpt lat="45.80258131027222" lon="10.413386821746826">
        <ele>1573.4220436442074</ele>
        <time>2017-11-13T12:54:36.885000Z</time>
      </trkpt>
      <trkpt lat="45.8025598526001" lon="10.413365364074707">
        <ele>1573.8356259505736</ele>
        <time>2017-11-13T12:54:36.927000Z</time>
      </trkpt>
      <trkpt lat="45.80273151397705" lon="10.412163734436035">
        <ele>1602.6893277592462</ele>
        <time>2017-11-13T12:54:38.298000Z</time>
      </trkpt>
      <trkpt lat="45.802881717681885" lon="10.411927700042725">
        <ele>1607.2245534870137</ele>
        <time>2017-11-13T12:54:38.655000Z</time>
      </trkpt>
      <trkpt lat="45.803117752075195" lon="10.411326885223389">
        <ele>1624.0112902927547</ele>
        <time>2017-11-13T12:54:39.426000Z</time>
      </trkpt>
      <trkpt lat="45.803160667419434" lon="10.411176681518555">
        <ele>1625.9828734126484</ele>
        <time>2017-11-13T12:54:39.607000Z</time>
      </trkpt>
      <trkpt lat="45.80318212509155" lon="10.41079044342041">
        <ele>1636.6888268482187</ele>
        <time>2017-11-13T12:54:40.040000Z</time>
      </trkpt>
      <trkpt lat="45.8034610748291" lon="10.410597324371338">
        <ele>1640.3750358949455</ele>
        <time>2017-11-13T12:54:40.537000Z</time>
      </trkpt>
      <trkpt lat="45.803589820861816" lon="10.410339832305908">
        <ele>1642.0530692304328</ele>
        <time>2017-11-13T12:54:40.891000Z</time>
      </trkpt>
      <trkpt lat="45.80374002456665" lon="10.409932136535645">
        <ele>1645.8283427637646</ele>
        <time>2017-11-13T12:54:41.406000Z</time>
      </trkpt>
      <trkpt lat="45.80374002456665" lon="10.40952444076538">
        <ele>1645.672714781278</ele>
        <time>2017-11-13T12:54:41.862000Z</time>
      </trkpt>
      <trkpt lat="45.80367565155029" lon="10.409095287322998">
        <ele>1646.5051462661843</ele>
        <time>2017-11-13T12:54:42.353000Z</time>
      </trkpt>
      <trkpt lat="45.80350399017334" lon="10.408880710601807">
        <ele>1646.3804674810006</ele>
        <time>2017-11-13T12:54:42.718000Z</time>
      </trkpt>
      <trkpt lat="45.803160667419434" lon="10.408709049224854">
        <ele>1643.8480457956884</ele>
        <time>2017-11-13T12:54:43.301000Z</time>
      </trkpt>
      <trkpt lat="45.80294609069824" lon="10.408494472503662">
        <ele>1646.1235674202574</ele>
        <time>2017-11-13T12:54:43.720000Z</time>
      </trkpt>
      <trkpt lat="45.80247402191162" lon="10.407721996307373">
        <ele>1662.045225230423</ele>
        <time>2017-11-13T12:54:44.868000Z</time>
      </trkpt>
      <trkpt lat="45.80236681737006" lon="10.407421588897705">
        <ele>1669.638072455593</ele>
        <time>2017-11-13T12:54:45.245000Z</time>
      </trkpt>
      <trkpt lat="45.80236681737006" lon="10.407335758209229">
        <ele>1670.4670598155653</ele>
        <time>2017-11-13T12:54:45.341000Z</time>
      </trkpt>
      <trkpt lat="45.80251693725586" lon="10.407099723815918">
        <ele>1668.3128648626061</ele>
        <time>2017-11-13T12:54:45.698000Z</time>
      </trkpt>
      <trkpt lat="45.80275297164917" lon="10.406992435455322">
        <ele>1671.4763457014953</ele>
        <time>2017-11-13T12:54:46.095000Z</time>
      </trkpt>
      <trkpt lat="45.80283880233765" lon="10.406863689422607">
        <ele>1673.0630245888333</ele>
        <time>2017-11-13T12:54:46.294000Z</time>
      </trkpt>
      <trkpt lat="45.80292463302612" lon="10.406177043914795">
        <ele>1685.943096966738</ele>
        <time>2017-11-13T12:54:47.074000Z</time>
      </trkpt>
      <trkpt lat="45.80305337905884" lon="10.405726432800293">
        <ele>1698.435422919206</ele>
        <time>2017-11-13T12:54:47.618000Z</time>
      </trkpt>
      <trkpt lat="45.80318212509155" lon="10.405597686767578">
        <ele>1698.8951897680315</ele>
        <time>2017-11-13T12:54:47.870000Z</time>
      </trkpt>
      <trkpt lat="45.803589820861816" lon="10.405662059783936">
        <ele>1704.7634236776148</ele>
        <time>2017-11-13T12:54:48.528000Z</time>
      </trkpt>
      <trkpt lat="45.80406188964844" lon="10.406198501586914">
        <ele>1699.1943683827687</ele>
        <time>2017-11-13T12:54:49.493000Z</time>
      </trkpt>
      <trkpt lat="45.80466270446777" lon="10.406134128570557">
        <ele>1705.3974689226955</ele>
        <time>2017-11-13T12:54:50.459000Z</time>
      </trkpt>
      <trkpt lat="45.805134773254395" lon="10.406455993652344">
        <ele>1700.5411596119902</ele>
        <time>2017-11-13T12:54:51.297000Z</time>
      </trkpt>
      <trkpt lat="45.805864334106445" lon="10.406348705291748">
        <ele>1689.404227035145</ele>
        <time>2017-11-13T12:54:52.473000Z</time>
      </trkpt>
      <trkpt lat="45.80597162246704" lon="10.406370162963867">
        <ele>1691.1828453628211</ele>
        <time>2017-11-13T12:54:52.647000Z</time>
      </trkpt>
      <trkpt lat="45.80601453781128" lon="10.406434535980225">
        <ele>1692.2023368652515</ele>
        <time>2017-11-13T12:54:52.747000Z</time>
      </trkpt>
      <trkpt lat="45.806013225930045" lon="10.406454404711678">
        <ele>1692.4307642956298</ele>
        <time>2017-11-13T12:54:52.769000Z</time>
      </trkpt>
      <trkpt lat="45.80600934103131" lon="10.406513242051005">
        <ele>1693.1072072696459</ele>
        <time>2017-11-13T12:54:52.835000Z</time>
      </trkpt>
      <trkpt lat="45.80600934103131" lon="10.4065134935081">
        <ele>1693.110085347661</ele>
        <time>2017-11-13T12:54:52.835000Z</time>
      </trkpt>
      <trkpt lat="45.80600934103031" lon="10.406513242051005">
        <ele>1693.112963425676</ele>
        <time>2017-11-13T12:54:52.835000Z</time>
      </trkpt>
      <trkpt lat="45.80599308013916" lon="10.406756401062012">
        <ele>1711.242176147479</ele>
        <time>2017-11-13T12:54:53.108000Z</time>
      </trkpt>
      <trkpt lat="45.80573558807373" lon="10.40705680847168">
        <ele>1712.6916215754306</ele>
        <time>2017-11-13T12:54:53.640000Z</time>
      </trkpt>
      <trkpt lat="45.80558546818793" lon="10.4075288772583">
        <ele>1717.220944789097</ele>
        <time>2017-11-13T12:54:54.220000Z</time>
      </trkpt>
      <trkpt lat="45.805649757385254" lon="10.407679080963135">
        <ele>1716.6833618373867</ele>
        <time>2017-11-13T12:54:54.417000Z</time>
      </trkpt>
      <trkpt lat="45.8057083531986" lon="10.407679080963103">
        <ele>1716.4269877032118</ele>
        <time>2017-11-13T12:54:54.511000Z</time>
      </trkpt>
      <trkpt lat="45.805750004947186" lon="10.407679080963135">
        <ele>1716.2447488985572</ele>
        <time>2017-11-13T12:54:54.578000Z</time>
      </trkpt>
      <trkpt lat="45.80575704574585" lon="10.407679080963135">
        <ele>1716.2139433075356</ele>
        <time>2017-11-13T12:54:54.589000Z</time>
      </trkpt>
      <trkpt lat="45.8062291983515" lon="10.407164096832275">
        <ele>1714.6188370180844</ele>
        <time>2017-11-13T12:54:55.540000Z</time>
      </trkpt>
      <trkpt lat="45.806379318237305" lon="10.406906604766846">
        <ele>1709.5997509698263</ele>
        <time>2017-11-13T12:54:55.915000Z</time>
      </trkpt>
      <trkpt lat="45.80655097961426" lon="10.406584739685059">
        <ele>1688.2068746136695</ele>
        <time>2017-11-13T12:54:56.368000Z</time>
      </trkpt>
      <trkpt lat="45.80680847167969" lon="10.406670570373535">
        <ele>1697.2033351095806</ele>
        <time>2017-11-13T12:54:56.792000Z</time>
      </trkpt>
      <trkpt lat="45.807044506073" lon="10.406584739685059">
        <ele>1675.6470703031616</ele>
        <time>2017-11-13T12:54:57.182000Z</time>
      </trkpt>
      <trkpt lat="45.80725908279419" lon="10.406627655029297">
        <ele>1671.0</ele>
        <time>2017-11-13T12:54:57.529000Z</time>
      </trkpt>
      <trkpt lat="45.80743074417114" lon="10.406692028045654">
        <ele>1689.5272512131116</ele>
        <time>2017-11-13T12:54:57.813000Z</time>
      </trkpt>
      <trkpt lat="45.80779552459717" lon="10.40703535079956">
        <ele>1682.5885033703664</ele>
        <time>2017-11-13T12:54:58.512000Z</time>
      </trkpt>
      <trkpt lat="45.80803155899048" lon="10.407121181488037">
        <ele>1685.5993747361497</ele>
        <time>2017-11-13T12:54:58.902000Z</time>
      </trkpt>
      <trkpt lat="45.808117389678955" lon="10.4075288772583">
        <ele>1700.93682395469</ele>
        <time>2017-11-13T12:54:59.378000Z</time>
      </trkpt>
      <trkpt lat="45.80818176269531" lon="10.407636165618896">
        <ele>1702.1569546510989</ele>
        <time>2017-11-13T12:54:59.536000Z</time>
      </trkpt>
      <trkpt lat="45.808610916137695" lon="10.407936573028564">
        <ele>1698.3588271413962</ele>
        <time>2017-11-13T12:55:00.302000Z</time>
      </trkpt>
      <trkpt lat="45.809147357940674" lon="10.407443046569824">
        <ele>1682.7373120688017</ele>
        <time>2017-11-13T12:55:01.324000Z</time>
      </trkpt>
      <trkpt lat="45.809597969055176" lon="10.407679080963135">
        <ele>1694.5467893435316</ele>
        <time>2017-11-13T12:55:02.093000Z</time>
      </trkpt>
      <trkpt lat="45.80981254577637" lon="10.407700538635254">
        <ele>1692.0849186300004</ele>
        <time>2017-11-13T12:55:02.438000Z</time>
      </trkpt>
      <trkpt lat="45.810134410858154" lon="10.407657623291016">
        <ele>1688.7185088221504</ele>
        <time>2017-11-13T12:55:02.956000Z</time>
      </trkpt>
      <trkpt lat="45.81056356430054" lon="10.407421588897705">
        <ele>1667.7914326091568</ele>
        <time>2017-11-13T12:55:03.693000Z</time>
      </trkpt>
      <trkpt lat="45.81094980239868" lon="10.4075288772583">
        <ele>1680.276340123631</ele>
        <time>2017-11-13T12:55:04.324000Z</time>
      </trkpt>
      <trkpt lat="45.811142921447754" lon="10.40755033493042">
        <ele>1679.002237653093</ele>
        <time>2017-11-13T12:55:04.635000Z</time>
      </trkpt>
      <trkpt lat="45.811378955841064" lon="10.407378673553467">
        <ele>1665.5948906228398</ele>
        <time>2017-11-13T12:55:05.059000Z</time>
      </trkpt>
      <trkpt lat="45.81150770187378" lon="10.407378673553467">
        <ele>1664.7480249642686</ele>
        <time>2017-11-13T12:55:05.265000Z</time>
      </trkpt>
      <trkpt lat="45.81204414367676" lon="10.408022403717041">
        <ele>1658.8144979832405</ele>
        <time>2017-11-13T12:55:06.386000Z</time>
      </trkpt>
      <trkpt lat="45.812344551086426" lon="10.408644676208496">
        <ele>1662.4350253571647</ele>
        <time>2017-11-13T12:55:07.232000Z</time>
      </trkpt>
      <trkpt lat="45.81240892410278" lon="10.408966541290283">
        <ele>1660.9400509919576</ele>
        <time>2017-11-13T12:55:07.606000Z</time>
      </trkpt>
      <trkpt lat="45.81255912780762" lon="10.409588813781738">
        <ele>1650.0</ele>
        <time>2017-11-13T12:55:08.342000Z</time>
      </trkpt>
      <trkpt lat="45.81305265426636" lon="10.409588813781738">
        <ele>1648.3999625191093</ele>
        <time>2017-11-13T12:55:09.133000Z</time>
      </trkpt>
      <trkpt lat="45.81318140029907" lon="10.40978193283081">
        <ele>1647.7960896435425</ele>
        <time>2017-11-13T12:55:09.432000Z</time>
      </trkpt>
      <trkpt lat="45.813374519348145" lon="10.410189628601074">
        <ele>1639.0155304052514</ele>
        <time>2017-11-13T12:55:09.983000Z</time>
      </trkpt>
      <trkpt lat="45.81356763839722" lon="10.41102647781372">
        <ele>1656.9388303078704</ele>
        <time>2017-11-13T12:55:10.968000Z</time>
      </trkpt>
      <trkpt lat="45.813632011413574" lon="10.411112308502197">
        <ele>1657.3569443249426</ele>
        <time>2017-11-13T12:55:11.109000Z</time>
      </trkpt>
      <trkpt lat="45.81391096115112" lon="10.411112308502197">
        <ele>1655.9419560808558</ele>
        <time>2017-11-13T12:55:11.556000Z</time>
      </trkpt>
      <trkpt lat="45.81423282623291" lon="10.411005020141602">
        <ele>1639.9324597708128</ele>
        <time>2017-11-13T12:55:12.086000Z</time>
      </trkpt>
      <trkpt lat="45.81442594528198" lon="10.41102647781372">
        <ele>1639.0901398762335</ele>
        <time>2017-11-13T12:55:12.397000Z</time>
      </trkpt>
      <trkpt lat="45.81476926803589" lon="10.411262512207031">
        <ele>1637.4346009802587</ele>
        <time>2017-11-13T12:55:13.007000Z</time>
      </trkpt>
      <trkpt lat="45.814876556396484" lon="10.411455631256104">
        <ele>1636.6860796855942</ele>
        <time>2017-11-13T12:55:13.283000Z</time>
      </trkpt>
      <trkpt lat="45.81517696380615" lon="10.411670207977295">
        <ele>1636.560114336931</ele>
        <time>2017-11-13T12:55:13.821000Z</time>
      </trkpt>
      <trkpt lat="45.815327167510986" lon="10.412077903747559">
        <ele>1636.8370134408967</ele>
        <time>2017-11-13T12:55:14.336000Z</time>
      </trkpt>
      <trkpt lat="45.815606117248535" lon="10.41229248046875">
        <ele>1637.1096903589532</ele>
        <time>2017-11-13T12:55:14.843000Z</time>
      </trkpt>
      <trkpt lat="45.81633576191962" lon="10.412592887878418">
        <ele>1655.0798968414201</ele>
        <time>2017-11-13T12:55:16.060000Z</time>
      </trkpt>
      <trkpt lat="45.81674337387085" lon="10.41280746459961">
        <ele>1658.164183305644</ele>
        <time>2017-11-13T12:55:16.756000Z</time>
      </trkpt>
      <trkpt lat="45.817129695788026" lon="10.412571430206299">
        <ele>1661.1469422880834</ele>
        <time>2017-11-13T12:55:17.429000Z</time>
      </trkpt>
      <trkpt lat="45.817623138427734" lon="10.412507057189941">
        <ele>1667.0</ele>
        <time>2017-11-13T12:55:18.223000Z</time>
      </trkpt>
      <trkpt lat="45.81790208816528" lon="10.41231393814087">
        <ele>1650.1012891844023</ele>
        <time>2017-11-13T12:55:18.720000Z</time>
      </trkpt>
      <trkpt lat="45.81845998764038" lon="10.412206649780273">
        <ele>1643.8940600104977</ele>
        <time>2017-11-13T12:55:19.622000Z</time>
      </trkpt>
      <trkpt lat="45.81878185272217" lon="10.412249565124512">
        <ele>1640.5208359597925</ele>
        <time>2017-11-13T12:55:20.140000Z</time>
      </trkpt>
      <trkpt lat="45.81966161727905" lon="10.41252851486206">
        <ele>1663.401526167132</ele>
        <time>2017-11-13T12:55:21.584000Z</time>
      </trkpt>
      <trkpt lat="45.81976890563965" lon="10.412464141845703">
        <ele>1652.1559689258436</ele>
        <time>2017-11-13T12:55:21.770000Z</time>
      </trkpt>
      <trkpt lat="45.82000494003296" lon="10.411992073059082">
        <ele>1655.1282643752868</ele>
        <time>2017-11-13T12:55:22.419000Z</time>
      </trkpt>
      <trkpt lat="45.820112228393555" lon="10.411841869354248">
        <ele>1654.8848717897351</ele>
        <time>2017-11-13T12:55:22.659000Z</time>
      </trkpt>
      <trkpt lat="45.82028388977051" lon="10.41179895401001">
        <ele>1654.601936839393</ele>
        <time>2017-11-13T12:55:22.938000Z</time>
      </trkpt>
      <trkpt lat="45.820627212524414" lon="10.411949157714844">
        <ele>1654.0191286777108</ele>
        <time>2017-11-13T12:55:23.513000Z</time>
      </trkpt>
      <trkpt lat="45.82097053527832" lon="10.411927700042725">
        <ele>1656.7944614372384</ele>
        <time>2017-11-13T12:55:24.064000Z</time>
      </trkpt>
      <trkpt lat="45.821077823638916" lon="10.411884784698486">
        <ele>1655.9262875841935</ele>
        <time>2017-11-13T12:55:24.243000Z</time>
      </trkpt>
      <trkpt lat="45.82146406173706" lon="10.411520004272461">
        <ele>1647.3220544598441</ele>
        <time>2017-11-13T12:55:24.984000Z</time>
      </trkpt>
      <trkpt lat="45.8217001799494" lon="10.411434173583984">
        <ele>1650.0430089831004</ele>
        <time>2017-11-13T12:55:25.374000Z</time>
      </trkpt>
      <trkpt lat="45.82178592681885" lon="10.411369800567627">
        <ele>1649.6672771393944</ele>
        <time>2017-11-13T12:55:25.529000Z</time>
      </trkpt>
      <trkpt lat="45.821850299835205" lon="10.411241054534912">
        <ele>1649.2385361691715</ele>
        <time>2017-11-13T12:55:25.706000Z</time>
      </trkpt>
      <trkpt lat="45.8220648765564" lon="10.410661697387695">
        <ele>1644.4633057619615</ele>
        <time>2017-11-13T12:55:26.439000Z</time>
      </trkpt>
      <trkpt lat="45.822322368621826" lon="10.410382747650146">
        <ele>1644.9760160076376</ele>
        <time>2017-11-13T12:55:26.956000Z</time>
      </trkpt>
      <trkpt lat="45.822608681431525" lon="10.410134610069047">
        <ele>1648.8408872410812</ele>
        <time>2017-11-13T12:55:27.492000Z</time>
      </trkpt>
      <trkpt lat="45.82264423370361" lon="10.410103797912598">
        <ele>1648.9068899161314</ele>
        <time>2017-11-13T12:55:27.559000Z</time>
      </trkpt>
      <trkpt lat="45.822659454756916" lon="10.410134239989373">
        <ele>1648.94838260086</ele>
        <time>2017-11-13T12:55:27.601000Z</time>
      </trkpt>
      <trkpt lat="45.82264423370272" lon="10.410103797913045">
        <ele>1648.9898752935035</ele>
        <time>2017-11-13T12:55:27.643000Z</time>
      </trkpt>
      <trkpt lat="45.822837352752686" lon="10.40978193283081">
        <ele>1648.7935698513993</ele>
        <time>2017-11-13T12:55:28.118000Z</time>
      </trkpt>
      <trkpt lat="45.82300901412964" lon="10.409138202667236">
        <ele>1642.969692580493</ele>
        <time>2017-11-13T12:55:28.888000Z</time>
      </trkpt>
      <trkpt lat="45.823609828948975" lon="10.40780782699585">
        <ele>1650.3333333333333</ele>
        <time>2017-11-13T12:55:30.659000Z</time>
      </trkpt>
      <trkpt lat="45.823631286621094" lon="10.407700538635254">
        <ele>1649.8849526423019</ele>
        <time>2017-11-13T12:55:30.784000Z</time>
      </trkpt>
      <trkpt lat="45.823588371276855" lon="10.40755033493042">
        <ele>1649.2328329095535</ele>
        <time>2017-11-13T12:55:30.965000Z</time>
      </trkpt>
      <trkpt lat="45.82328796386719" lon="10.408129692077637">
        <ele>1633.6652855729353</ele>
        <time>2017-11-13T12:55:31.772000Z</time>
      </trkpt>
      <trkpt lat="45.82292318344116" lon="10.4085373878479">
        <ele>1637.0</ele>
        <time>2017-11-13T12:55:32.513000Z</time>
      </trkpt>
      <trkpt lat="45.82273006439209" lon="10.408923625946045">
        <ele>1634.2246405537444</ele>
        <time>2017-11-13T12:55:33.044000Z</time>
      </trkpt>
      <trkpt lat="45.82266569137573" lon="10.408966541290283">
        <ele>1633.6299746255565</ele>
        <time>2017-11-13T12:55:33.158000Z</time>
      </trkpt>
      <trkpt lat="45.822645706226886" lon="10.408953217845932">
        <ele>1633.4453555043021</ele>
        <time>2017-11-13T12:55:33.193000Z</time>
      </trkpt>
      <trkpt lat="45.822601318359375" lon="10.408923625946045">
        <ele>1633.0353086014356</ele>
        <time>2017-11-13T12:55:33.271000Z</time>
      </trkpt>
      <trkpt lat="45.822601318363766" lon="10.408896734293718">
        <ele>1632.8783057368062</ele>
        <time>2017-11-13T12:55:33.301000Z</time>
      </trkpt>
      <trkpt lat="45.822601318359375" lon="10.408859169110656">
        <ele>1632.6589870694625</ele>
        <time>2017-11-13T12:55:33.343000Z</time>
      </trkpt>
      <trkpt lat="45.822601318359375" lon="10.408859085291624">
        <ele>1632.6584977046614</ele>
        <time>2017-11-13T12:55:33.343000Z</time>
      </trkpt>
      <trkpt lat="45.822601318359375" lon="10.40879487991333">
        <ele>1632.2836442670912</ele>
        <time>2017-11-13T12:55:33.415000Z</time>
      </trkpt>
      <trkpt lat="45.82300901412964" lon="10.40806531906128">
        <ele>1620.823885793753</ele>
        <time>2017-11-13T12:55:34.460000Z</time>
      </trkpt>
      <trkpt lat="45.82345962524414" lon="10.406606197357178">
        <ele>1613.0</ele>
        <time>2017-11-13T12:55:36.243000Z</time>
      </trkpt>
      <trkpt lat="45.8234167098999" lon="10.40654182434082">
        <ele>1612.9983721252172</ele>
        <time>2017-11-13T12:55:36.343000Z</time>
      </trkpt>
      <trkpt lat="45.823352336883545" lon="10.406606197357178">
        <ele>1612.9963147307008</ele>
        <time>2017-11-13T12:55:36.469000Z</time>
      </trkpt>
      <trkpt lat="45.82313776016235" lon="10.407207012176514">
        <ele>1609.6506448091186</ele>
        <time>2017-11-13T12:55:37.223000Z</time>
      </trkpt>
      <trkpt lat="45.82277297973633" lon="10.407850742340088">
        <ele>1614.9688131523635</ele>
        <time>2017-11-13T12:55:38.150000Z</time>
      </trkpt>
      <trkpt lat="45.82264423370361" lon="10.407893657684326">
        <ele>1613.5662960501134</ele>
        <time>2017-11-13T12:55:38.362000Z</time>
      </trkpt>
      <trkpt lat="45.822601318359375" lon="10.407721996307373">
        <ele>1612.2176983301088</ele>
        <time>2017-11-13T12:55:38.566000Z</time>
      </trkpt>
      <trkpt lat="45.822880268096924" lon="10.407121181488037">
        <ele>1601.5458020861054</ele>
        <time>2017-11-13T12:55:39.373000Z</time>
      </trkpt>
      <trkpt lat="45.82313776016235" lon="10.405962467193604">
        <ele>1582.303771098752</ele>
        <time>2017-11-13T12:55:40.732000Z</time>
      </trkpt>
      <trkpt lat="45.823609828948975" lon="10.40531873703003">
        <ele>1587.1437584811874</ele>
        <time>2017-11-13T12:55:41.776000Z</time>
      </trkpt>
      <trkpt lat="45.82367420196533" lon="10.405104160308838">
        <ele>1586.6871042046994</ele>
        <time>2017-11-13T12:55:42.037000Z</time>
      </trkpt>
      <trkpt lat="45.823631286621094" lon="10.403730869293213">
        <ele>1578.0</ele>
        <time>2017-11-13T12:55:43.573000Z</time>
      </trkpt>
      <trkpt lat="45.823566913604736" lon="10.40280818939209">
        <ele>1579.6743910273678</ele>
        <time>2017-11-13T12:55:44.609000Z</time>
      </trkpt>
      <trkpt lat="45.82348108291626" lon="10.402529239654541">
        <ele>1578.5685826220981</ele>
        <time>2017-11-13T12:55:44.950000Z</time>
      </trkpt>
      <trkpt lat="45.82324504852295" lon="10.402143001556396">
        <ele>1562.3723015637045</ele>
        <time>2017-11-13T12:55:45.524000Z</time>
      </trkpt>
      <trkpt lat="45.82320213317871" lon="10.401971340179443">
        <ele>1561.710934999963</ele>
        <time>2017-11-13T12:55:45.728000Z</time>
      </trkpt>
      <trkpt lat="45.82343816757202" lon="10.401520729064941">
        <ele>1570.0</ele>
        <time>2017-11-13T12:55:46.358000Z</time>
      </trkpt>
      <trkpt lat="45.82348108291626" lon="10.400876998901367">
        <ele>1565.872839536747</ele>
        <time>2017-11-13T12:55:47.080000Z</time>
      </trkpt>
      <trkpt lat="45.823631286621094" lon="10.400168895721436">
        <ele>1553.8155487624151</ele>
        <time>2017-11-13T12:55:47.907000Z</time>
      </trkpt>
      <trkpt lat="45.82399606704712" lon="10.3995680809021">
        <ele>1542.396528616471</ele>
        <time>2017-11-13T12:55:48.797000Z</time>
      </trkpt>
      <trkpt lat="45.82418918609619" lon="10.399138927459717">
        <ele>1555.6666666666667</ele>
        <time>2017-11-13T12:55:49.368000Z</time>
      </trkpt>
      <trkpt lat="45.82418918609619" lon="10.399010181427002">
        <ele>1555.0808998969649</ele>
        <time>2017-11-13T12:55:49.512000Z</time>
      </trkpt>
      <trkpt lat="45.82414627075195" lon="10.398945808410645">
        <ele>1537.008907892431</ele>
        <time>2017-11-13T12:55:49.612000Z</time>
      </trkpt>
      <trkpt lat="45.82406044006348" lon="10.398967266082764">
        <ele>1536.4400823383282</ele>
        <time>2017-11-13T12:55:49.752000Z</time>
      </trkpt>
      <trkpt lat="45.823845863342285" lon="10.399417877197266">
        <ele>1538.2902723963507</ele>
        <time>2017-11-13T12:55:50.362000Z</time>
      </trkpt>
      <trkpt lat="45.82315921783447" lon="10.399932861328125">
        <ele>1520.226440725861</ele>
        <time>2017-11-13T12:55:51.604000Z</time>
      </trkpt>
      <trkpt lat="45.823116302490234" lon="10.400083065032959">
        <ele>1526.4383704478448</ele>
        <time>2017-11-13T12:55:51.785000Z</time>
      </trkpt>
      <trkpt lat="45.82300901412964" lon="10.400984287261963">
        <ele>1527.0</ele>
        <time>2017-11-13T12:55:52.806000Z</time>
      </trkpt>
      <trkpt lat="45.8229660987854" lon="10.401005744934082">
        <ele>1526.250658212149</ele>
        <time>2017-11-13T12:55:52.879000Z</time>
      </trkpt>
      <trkpt lat="45.82292318344116" lon="10.400919914245605">
        <ele>1525.0368215345577</ele>
        <time>2017-11-13T12:55:52.997000Z</time>
      </trkpt>
      <trkpt lat="45.82292318344116" lon="10.39980411529541">
        <ele>1500.2156399012438</ele>
        <time>2017-11-13T12:55:54.244000Z</time>
      </trkpt>
      <trkpt lat="45.82303047180176" lon="10.39954662322998">
        <ele>1496.7683798861133</ele>
        <time>2017-11-13T12:55:54.579000Z</time>
      </trkpt>
      <trkpt lat="45.82324504852295" lon="10.39931058883667">
        <ele>1496.9719185866586</ele>
        <time>2017-11-13T12:55:55.012000Z</time>
      </trkpt>
      <trkpt lat="45.82315921783447" lon="10.399203300476074">
        <ele>1497.0576111220846</ele>
        <time>2017-11-13T12:55:55.194000Z</time>
      </trkpt>
      <trkpt lat="45.822815895080566" lon="10.39954662322998">
        <ele>1497.3726405372936</ele>
        <time>2017-11-13T12:55:55.865000Z</time>
      </trkpt>
      <trkpt lat="45.82268714904785" lon="10.39980411529541">
        <ele>1497.5389029355956</ele>
        <time>2017-11-13T12:55:56.219000Z</time>
      </trkpt>
      <trkpt lat="45.8225154876709" lon="10.401005744934082">
        <ele>1510.5841189841897</ele>
        <time>2017-11-13T12:55:57.589000Z</time>
      </trkpt>
      <trkpt lat="45.822386741638184" lon="10.40107011795044">
        <ele>1492.3726842504684</ele>
        <time>2017-11-13T12:55:57.808000Z</time>
      </trkpt>
      <trkpt lat="45.822365283966064" lon="10.400962829589844">
        <ele>1489.7797245546562</ele>
        <time>2017-11-13T12:55:57.933000Z</time>
      </trkpt>
      <trkpt lat="45.822386741638184" lon="10.400404930114746">
        <ele>1473.4664466348704</ele>
        <time>2017-11-13T12:55:58.557000Z</time>
      </trkpt>
      <trkpt lat="45.82219362258911" lon="10.399696826934814">
        <ele>1465.4357113438134</ele>
        <time>2017-11-13T12:55:59.407000Z</time>
      </trkpt>
      <trkpt lat="45.82247257232666" lon="10.39905309677124">
        <ele>1458.7487758364568</ele>
        <time>2017-11-13T12:56:00.254000Z</time>
      </trkpt>
      <trkpt lat="45.82251557148993" lon="10.397336483001709">
        <ele>1459.867301398065</ele>
        <time>2017-11-13T12:56:02.173000Z</time>
      </trkpt>
      <trkpt lat="45.82242965698242" lon="10.396521091461182">
        <ele>1439.190022705914</ele>
        <time>2017-11-13T12:56:03.094000Z</time>
      </trkpt>
      <trkpt lat="45.82245111465454" lon="10.39579153060913">
        <ele>1436.4679443624946</ele>
        <time>2017-11-13T12:56:03.910000Z</time>
      </trkpt>
      <trkpt lat="45.82225799560547" lon="10.395212173461914">
        <ele>1436.0</ele>
        <time>2017-11-13T12:56:04.627000Z</time>
      </trkpt>
      <trkpt lat="45.82215070724487" lon="10.394504070281982">
        <ele>1435.6666666666667</ele>
        <time>2017-11-13T12:56:05.437000Z</time>
      </trkpt>
      <trkpt lat="45.82204341888428" lon="10.394439697265625">
        <ele>1435.6666666666667</ele>
        <time>2017-11-13T12:56:05.623000Z</time>
      </trkpt>
      <trkpt lat="45.82204350270331" lon="10.394439697265625">
        <ele>1435.6666666666667</ele>
        <time>2017-11-13T12:56:05.623000Z</time>
      </trkpt>
      <trkpt lat="45.82200050354004" lon="10.39456844329834">
        <ele>1435.6666666666667</ele>
        <time>2017-11-13T12:56:05.783000Z</time>
      </trkpt>
      <trkpt lat="45.82204341888428" lon="10.395190715789795">
        <ele>1436.0</ele>
        <time>2017-11-13T12:56:06.482000Z</time>
      </trkpt>
      <trkpt lat="45.82202196121216" lon="10.395448207855225">
        <ele>1436.0</ele>
        <time>2017-11-13T12:56:06.772000Z</time>
      </trkpt>
      <trkpt lat="45.82191467285156" lon="10.395619869232178">
        <ele>1435.2593934076706</ele>
        <time>2017-11-13T12:56:07.030000Z</time>
      </trkpt>
      <trkpt lat="45.82154989242554" lon="10.396006107330322">
        <ele>1425.503354490139</ele>
        <time>2017-11-13T12:56:07.757000Z</time>
      </trkpt>
      <trkpt lat="45.82142114639282" lon="10.396478176116943">
        <ele>1423.8751458169681</ele>
        <time>2017-11-13T12:56:08.323000Z</time>
      </trkpt>
      <trkpt lat="45.8215069770813" lon="10.397508144378662">
        <ele>1424.5434285759582</ele>
        <time>2017-11-13T12:56:09.482000Z</time>
      </trkpt>
      <trkpt lat="45.82144260406494" lon="10.397593975067139">
        <ele>1424.0475563074876</ele>
        <time>2017-11-13T12:56:09.623000Z</time>
      </trkpt>
      <trkpt lat="45.821335315704346" lon="10.39757251739502">
        <ele>1423.4362723662334</ele>
        <time>2017-11-13T12:56:09.797000Z</time>
      </trkpt>
      <trkpt lat="45.821356773376465" lon="10.397143363952637">
        <ele>1420.0775717349081</ele>
        <time>2017-11-13T12:56:10.278000Z</time>
      </trkpt>
      <trkpt lat="45.82118511199951" lon="10.396091938018799">
        <ele>1413.5055310365278</ele>
        <time>2017-11-13T12:56:11.484000Z</time>
      </trkpt>
      <trkpt lat="45.82131385803223" lon="10.395534038543701">
        <ele>1408.3964313385866</ele>
        <time>2017-11-13T12:56:12.141000Z</time>
      </trkpt>
      <trkpt lat="45.82148551940918" lon="10.395104885101318">
        <ele>1406.3399704923231</ele>
        <time>2017-11-13T12:56:12.694000Z</time>
      </trkpt>
      <trkpt lat="45.82148551940918" lon="10.39456844329834">
        <ele>1404.7166167076446</ele>
        <time>2017-11-13T12:56:13.293000Z</time>
      </trkpt>
      <trkpt lat="45.821356773376465" lon="10.393946170806885">
        <ele>1401.348941395787</ele>
        <time>2017-11-13T12:56:14.018000Z</time>
      </trkpt>
      <trkpt lat="45.82131385803223" lon="10.39308786392212">
        <ele>1395.4760986338727</ele>
        <time>2017-11-13T12:56:14.979000Z</time>
      </trkpt>
      <trkpt lat="45.82118511199951" lon="10.392723083496094">
        <ele>1392.7953156454505</ele>
        <time>2017-11-13T12:56:15.436000Z</time>
      </trkpt>
      <trkpt lat="45.821120738983154" lon="10.392272472381592">
        <ele>1380.7795898860077</ele>
        <time>2017-11-13T12:56:15.950000Z</time>
      </trkpt>
      <trkpt lat="45.820884704589844" lon="10.391950607299805">
        <ele>1377.7162966220137</ele>
        <time>2017-11-13T12:56:16.472000Z</time>
      </trkpt>
      <trkpt lat="45.82090616226196" lon="10.39182186126709">
        <ele>1376.8484065503017</ele>
        <time>2017-11-13T12:56:16.620000Z</time>
      </trkpt>
      <trkpt lat="45.82099207676947" lon="10.391736030578613">
        <ele>1375.8635552624048</ele>
        <time>2017-11-13T12:56:16.788000Z</time>
      </trkpt>
      <trkpt lat="45.821828842163086" lon="10.391778945922852">
        <ele>1384.3483683384645</ele>
        <time>2017-11-13T12:56:18.130000Z</time>
      </trkpt>
      <trkpt lat="45.82221508026123" lon="10.391242504119873">
        <ele>1370.3758112933913</ele>
        <time>2017-11-13T12:56:18.992000Z</time>
      </trkpt>
      <trkpt lat="45.82227945327759" lon="10.390985012054443">
        <ele>1364.8742641411245</ele>
        <time>2017-11-13T12:56:19.298000Z</time>
      </trkpt>
      <trkpt lat="45.82230091094971" lon="10.39006233215332">
        <ele>1337.9746215496618</ele>
        <time>2017-11-13T12:56:20.329000Z</time>
      </trkpt>
      <trkpt lat="45.82242965698242" lon="10.389461517333984">
        <ele>1315.0</ele>
        <time>2017-11-13T12:56:21.031000Z</time>
      </trkpt>
      <trkpt lat="45.82249402999878" lon="10.389289855957031">
        <ele>1314.8046606143243</ele>
        <time>2017-11-13T12:56:21.249000Z</time>
      </trkpt>
      <trkpt lat="45.82255840301514" lon="10.389246940612793">
        <ele>1310.3692619292917</ele>
        <time>2017-11-13T12:56:21.363000Z</time>
      </trkpt>
      <trkpt lat="45.82270860671997" lon="10.38931131362915">
        <ele>1310.1438534622619</ele>
        <time>2017-11-13T12:56:21.614000Z</time>
      </trkpt>
      <trkpt lat="45.822880268096924" lon="10.389654636383057">
        <ele>1309.7204337487838</ele>
        <time>2017-11-13T12:56:22.086000Z</time>
      </trkpt>
      <trkpt lat="45.82318067550659" lon="10.38982629776001">
        <ele>1309.2554813824777</ele>
        <time>2017-11-13T12:56:22.604000Z</time>
      </trkpt>
      <trkpt lat="45.823330879211426" lon="10.389976501464844">
        <ele>1308.9922285232017</ele>
        <time>2017-11-13T12:56:22.897000Z</time>
      </trkpt>
      <trkpt lat="45.82371711730957" lon="10.39006233215332">
        <ele>1320.2841344134272</ele>
        <time>2017-11-13T12:56:23.524000Z</time>
      </trkpt>
      <trkpt lat="45.82401752471924" lon="10.39029836654663">
        <ele>1322.5846022284868</ele>
        <time>2017-11-13T12:56:24.073000Z</time>
      </trkpt>
      <trkpt lat="45.82414627075195" lon="10.39029836654663">
        <ele>1323.2057844585759</ele>
        <time>2017-11-13T12:56:24.279000Z</time>
      </trkpt>
      <trkpt lat="45.82427501678467" lon="10.390212535858154">
        <ele>1327.890728837646</ele>
        <time>2017-11-13T12:56:24.507000Z</time>
      </trkpt>
      <trkpt lat="45.824360847473145" lon="10.389955043792725">
        <ele>1321.5170982568868</ele>
        <time>2017-11-13T12:56:24.826000Z</time>
      </trkpt>
      <trkpt lat="45.82448959350586" lon="10.38982629776001">
        <ele>1321.8486880406829</ele>
        <time>2017-11-13T12:56:25.078000Z</time>
      </trkpt>
      <trkpt lat="45.82468271255493" lon="10.389740467071533">
        <ele>1322.2758864911445</ele>
        <time>2017-11-13T12:56:25.402000Z</time>
      </trkpt>
      <trkpt lat="45.824832916259766" lon="10.38956880569458">
        <ele>1322.6816340601938</ele>
        <time>2017-11-13T12:56:25.710000Z</time>
      </trkpt>
      <trkpt lat="45.824875831604004" lon="10.389440059661865">
        <ele>1322.8917855164036</ele>
        <time>2017-11-13T12:56:25.869000Z</time>
      </trkpt>
      <trkpt lat="45.8248330000788" lon="10.389246940612793">
        <ele>1323.1902095270295</ele>
        <time>2017-11-13T12:56:26.095000Z</time>
      </trkpt>
      <trkpt lat="45.8244252204895" lon="10.388689041137695">
        <ele>1326.7140686639743</ele>
        <time>2017-11-13T12:56:26.998000Z</time>
      </trkpt>
      <trkpt lat="45.824382305145264" lon="10.388495922088623">
        <ele>1326.5967506708205</ele>
        <time>2017-11-13T12:56:27.224000Z</time>
      </trkpt>
      <trkpt lat="45.82429647445679" lon="10.387659072875977">
        <ele>1328.1071845533395</ele>
        <time>2017-11-13T12:56:28.169000Z</time>
      </trkpt>
      <trkpt lat="45.82414627075195" lon="10.387187004089355">
        <ele>1322.838312275315</ele>
        <time>2017-11-13T12:56:28.749000Z</time>
      </trkpt>
      <trkpt lat="45.82391023635864" lon="10.386993885040283">
        <ele>1321.6345415694962</ele>
        <time>2017-11-13T12:56:29.185000Z</time>
      </trkpt>
      <trkpt lat="45.82365274429321" lon="10.386886596679688">
        <ele>1320.2408602574703</ele>
        <time>2017-11-13T12:56:29.615000Z</time>
      </trkpt>
      <trkpt lat="45.82330942153931" lon="10.38684368133545">
        <ele>1309.7828992888165</ele>
        <time>2017-11-13T12:56:30.167000Z</time>
      </trkpt>
      <trkpt lat="45.82322359085083" lon="10.38630723953247">
        <ele>1313.7892197741005</ele>
        <time>2017-11-13T12:56:30.782000Z</time>
      </trkpt>
      <trkpt lat="45.82300901412964" lon="10.385921001434326">
        <ele>1312.0</ele>
        <time>2017-11-13T12:56:31.334000Z</time>
      </trkpt>
      <trkpt lat="45.82264423370361" lon="10.385642051696777">
        <ele>1326.6666666666667</ele>
        <time>2017-11-13T12:56:31.997000Z</time>
      </trkpt>
      <trkpt lat="45.8215069770813" lon="10.385363101959229">
        <ele>1312.0</ele>
        <time>2017-11-13T12:56:33.847000Z</time>
      </trkpt>
      <trkpt lat="45.82122802734375" lon="10.385234355926514">
        <ele>1310.2000168381155</ele>
        <time>2017-11-13T12:56:34.317000Z</time>
      </trkpt>
      <trkpt lat="45.821120738983154" lon="10.385255813598633">
        <ele>1309.5345972250575</ele>
        <time>2017-11-13T12:56:34.491000Z</time>
      </trkpt>
      <trkpt lat="45.82114219665527" lon="10.385406017303467">
        <ele>1308.5385926715771</ele>
        <time>2017-11-13T12:56:34.662000Z</time>
      </trkpt>
      <trkpt lat="45.821142280474305" lon="10.385406017303467">
        <ele>1308.5378113777754</ele>
        <time>2017-11-13T12:56:34.662000Z</time>
      </trkpt>
      <trkpt lat="45.82193613052368" lon="10.38583517074585">
        <ele>1292.2971334598294</ele>
        <time>2017-11-13T12:56:36.022000Z</time>
      </trkpt>
      <trkpt lat="45.82219362258911" lon="10.386135578155518">
        <ele>1295.1895632029248</ele>
        <time>2017-11-13T12:56:36.554000Z</time>
      </trkpt>
      <trkpt lat="45.82253694534302" lon="10.38632869720459">
        <ele>1306.7369490801634</ele>
        <time>2017-11-13T12:56:37.145000Z</time>
      </trkpt>
      <trkpt lat="45.822579860687256" lon="10.386414527893066">
        <ele>1305.6432472798012</ele>
        <time>2017-11-13T12:56:37.263000Z</time>
      </trkpt>
      <trkpt lat="45.8225154876709" lon="10.386521816253662">
        <ele>1304.1774661785764</ele>
        <time>2017-11-13T12:56:37.421000Z</time>
      </trkpt>
      <trkpt lat="45.82245111465454" lon="10.386521816253662">
        <ele>1294.8877627799245</ele>
        <time>2017-11-13T12:56:37.524000Z</time>
      </trkpt>
      <trkpt lat="45.82178592681885" lon="10.38609266281128">
        <ele>1284.0523593736555</ele>
        <time>2017-11-13T12:56:38.693000Z</time>
      </trkpt>
      <trkpt lat="45.82152843475342" lon="10.386028289794922">
        <ele>1272.6137458363837</ele>
        <time>2017-11-13T12:56:39.112000Z</time>
      </trkpt>
      <trkpt lat="45.82041263580322" lon="10.385878086090088">
        <ele>1245.7547748247505</ele>
        <time>2017-11-13T12:56:40.909000Z</time>
      </trkpt>
      <trkpt lat="45.819876194000244" lon="10.38532018661499">
        <ele>1231.0</ele>
        <time>2017-11-13T12:56:41.971000Z</time>
      </trkpt>
      <trkpt lat="45.81974744796753" lon="10.385019779205322">
        <ele>1232.0272385833457</ele>
        <time>2017-11-13T12:56:42.365000Z</time>
      </trkpt>
      <trkpt lat="45.81974744796753" lon="10.384869575500488">
        <ele>1229.798084427873</ele>
        <time>2017-11-13T12:56:42.533000Z</time>
      </trkpt>
      <trkpt lat="45.82051992416382" lon="10.382659435272217">
        <ele>1244.0</ele>
        <time>2017-11-13T12:56:45.295000Z</time>
      </trkpt>
      <trkpt lat="45.82052000798285" lon="10.382487773895264">
        <ele>1247.5772322993143</ele>
        <time>2017-11-13T12:56:45.487000Z</time>
      </trkpt>
      <trkpt lat="45.8200478553772" lon="10.38233757019043">
        <ele>1249.5129140886104</ele>
        <time>2017-11-13T12:56:46.262000Z</time>
      </trkpt>
      <trkpt lat="45.81989765167236" lon="10.382187366485596">
        <ele>1233.5790332865724</ele>
        <time>2017-11-13T12:56:46.556000Z</time>
      </trkpt>
      <trkpt lat="45.81989765167236" lon="10.382037162780762">
        <ele>1233.9980131760828</ele>
        <time>2017-11-13T12:56:46.724000Z</time>
      </trkpt>
      <trkpt lat="45.8200478553772" lon="10.381479263305664">
        <ele>1254.6663108273178</ele>
        <time>2017-11-13T12:56:47.392000Z</time>
      </trkpt>
      <trkpt lat="45.82002639770508" lon="10.381028652191162">
        <ele>1252.9770680921529</ele>
        <time>2017-11-13T12:56:47.897000Z</time>
      </trkpt>
      <trkpt lat="45.82015514373779" lon="10.38057804107666">
        <ele>1251.155627892337</ele>
        <time>2017-11-13T12:56:48.441000Z</time>
      </trkpt>
      <trkpt lat="45.82017660140991" lon="10.380191802978516">
        <ele>1246.856408844152</ele>
        <time>2017-11-13T12:56:48.874000Z</time>
      </trkpt>
      <trkpt lat="45.81970453262329" lon="10.379548072814941">
        <ele>1224.821100225824</ele>
        <time>2017-11-13T12:56:49.918000Z</time>
      </trkpt>
      <trkpt lat="45.81921100616455" lon="10.37931203842163">
        <ele>1217.1104856383838</ele>
        <time>2017-11-13T12:56:50.752000Z</time>
      </trkpt>
      <trkpt lat="45.818932140246034" lon="10.37883996963501">
        <ele>1204.7180634913486</ele>
        <time>2017-11-13T12:56:51.443000Z</time>
      </trkpt>
      <trkpt lat="45.81878185272217" lon="10.378646850585938">
        <ele>1202.8407568515188</ele>
        <time>2017-11-13T12:56:51.766000Z</time>
      </trkpt>
      <trkpt lat="45.818352699279785" lon="10.378303527832031">
        <ele>1211.2735659301427</ele>
        <time>2017-11-13T12:56:52.554000Z</time>
      </trkpt>
      <trkpt lat="45.81794500350952" lon="10.377724170684814">
        <ele>1199.8885898594451</ele>
        <time>2017-11-13T12:56:53.474000Z</time>
      </trkpt>
      <trkpt lat="45.81710823811591" lon="10.376887321472168">
        <ele>1193.683814979129</ele>
        <time>2017-11-13T12:56:55.109000Z</time>
      </trkpt>
      <trkpt lat="45.816893577575684" lon="10.376286506652832">
        <ele>1195.0</ele>
        <time>2017-11-13T12:56:55.863000Z</time>
      </trkpt>
      <trkpt lat="45.81674337387085" lon="10.376007556915283">
        <ele>1189.8248399596876</ele>
        <time>2017-11-13T12:56:56.257000Z</time>
      </trkpt>
      <trkpt lat="45.815885150805116" lon="10.37510633468628">
        <ele>1155.755457766302</ele>
        <time>2017-11-13T12:56:57.962000Z</time>
      </trkpt>
      <trkpt lat="45.815370082855225" lon="10.374441146850586">
        <ele>1124.6464807931768</ele>
        <time>2017-11-13T12:56:59.073000Z</time>
      </trkpt>
      <trkpt lat="45.81522537279456" lon="10.374280357712601">
        <ele>1121.445430410482</ele>
        <time>2017-11-13T12:56:59.366000Z</time>
      </trkpt>
      <trkpt lat="45.81517696380615" lon="10.374226570129395">
        <ele>1121.1215368152625</ele>
        <time>2017-11-13T12:56:59.464000Z</time>
      </trkpt>
      <trkpt lat="45.815175694620365" lon="10.374217685818044">
        <ele>1121.0880994489946</ele>
        <time>2017-11-13T12:56:59.474000Z</time>
      </trkpt>
      <trkpt lat="45.81517042592168" lon="10.374180804938078">
        <ele>1120.9492930035344</ele>
        <time>2017-11-13T12:56:59.516000Z</time>
      </trkpt>
      <trkpt lat="45.81517034210265" lon="10.374180134385824">
        <ele>1120.9467812368518</ele>
        <time>2017-11-13T12:56:59.516000Z</time>
      </trkpt>
      <trkpt lat="45.81515550613403" lon="10.37407636642456">
        <ele>1112.5562229132563</ele>
        <time>2017-11-13T12:56:59.634000Z</time>
      </trkpt>
      <trkpt lat="45.81519842147827" lon="10.374033451080322">
        <ele>1112.2795009081467</ele>
        <time>2017-11-13T12:56:59.718000Z</time>
      </trkpt>
      <trkpt lat="45.81577777862549" lon="10.374312400817871">
        <ele>1117.0467447974959</ele>
        <time>2017-11-13T12:57:00.698000Z</time>
      </trkpt>
      <trkpt lat="45.81594944000244" lon="10.374290943145752">
        <ele>1121.801885100511</ele>
        <time>2017-11-13T12:57:00.974000Z</time>
      </trkpt>
      <trkpt lat="45.81627130508423" lon="10.373797416687012">
        <ele>1110.309899994388</ele>
        <time>2017-11-13T12:57:01.729000Z</time>
      </trkpt>
      <trkpt lat="45.81680774688721" lon="10.372810363769531">
        <ele>1100.249680301312</ele>
        <time>2017-11-13T12:57:03.128000Z</time>
      </trkpt>
      <trkpt lat="45.8169150352478" lon="10.372703075408936">
        <ele>1099.5547461078802</ele>
        <time>2017-11-13T12:57:03.338000Z</time>
      </trkpt>
      <trkpt lat="45.817129611968994" lon="10.372617244720459">
        <ele>1098.3710113141167</ele>
        <time>2017-11-13T12:57:03.695000Z</time>
      </trkpt>
      <trkpt lat="45.81766605377197" lon="10.372638702392578">
        <ele>1094.2606619036344</ele>
        <time>2017-11-13T12:57:04.555000Z</time>
      </trkpt>
      <trkpt lat="45.8179235458374" lon="10.372424125671387">
        <ele>1082.9433884799546</ele>
        <time>2017-11-13T12:57:05.032000Z</time>
      </trkpt>
      <trkpt lat="45.81820249557495" lon="10.372316837310791">
        <ele>1080.3726438182532</ele>
        <time>2017-11-13T12:57:05.495000Z</time>
      </trkpt>
      <trkpt lat="45.81878185272217" lon="10.372424125671387">
        <ele>1087.3297170982478</ele>
        <time>2017-11-13T12:57:06.431000Z</time>
      </trkpt>
      <trkpt lat="45.81897497177124" lon="10.372209548950195">
        <ele>1089.6285827503182</ele>
        <time>2017-11-13T12:57:06.823000Z</time>
      </trkpt>
      <trkpt lat="45.81921108998358" lon="10.371243953704834">
        <ele>1101.6742074948231</ele>
        <time>2017-11-13T12:57:07.966000Z</time>
      </trkpt>
      <trkpt lat="45.81929683685303" lon="10.370879173278809">
        <ele>1101.5912412671817</ele>
        <time>2017-11-13T12:57:08.396000Z</time>
      </trkpt>
      <trkpt lat="45.81946849822998" lon="10.370664596557617">
        <ele>1101.520839755478</ele>
        <time>2017-11-13T12:57:08.761000Z</time>
      </trkpt>
      <trkpt lat="45.8194899559021" lon="10.370492935180664">
        <ele>1101.4832542804</ele>
        <time>2017-11-13T12:57:08.956000Z</time>
      </trkpt>
      <trkpt lat="45.81942558288574" lon="10.37034273147583">
        <ele>1101.4452522482718</ele>
        <time>2017-11-13T12:57:09.153000Z</time>
      </trkpt>
      <trkpt lat="45.81936129368842" lon="10.37034273147583">
        <ele>1100.853215228252</ele>
        <time>2017-11-13T12:57:09.256000Z</time>
      </trkpt>
      <trkpt lat="45.81878185272217" lon="10.371394157409668">
        <ele>1086.2503453945308</ele>
        <time>2017-11-13T12:57:10.754000Z</time>
      </trkpt>
      <trkpt lat="45.81841707229614" lon="10.371737480163574">
        <ele>1081.573734068256</ele>
        <time>2017-11-13T12:57:11.453000Z</time>
      </trkpt>
      <trkpt lat="45.81828832626343" lon="10.371737480163574">
        <ele>1075.6635037622843</ele>
        <time>2017-11-13T12:57:11.659000Z</time>
      </trkpt>
      <trkpt lat="45.81805229187012" lon="10.371501445770264">
        <ele>1069.296802127491</ele>
        <time>2017-11-13T12:57:12.120000Z</time>
      </trkpt>
      <trkpt lat="45.81770896911621" lon="10.371415615081787">
        <ele>1065.2187113593836</ele>
        <time>2017-11-13T12:57:12.679000Z</time>
      </trkpt>
      <trkpt lat="45.817172611132264" lon="10.371522903442383">
        <ele>1060.0594426207929</ele>
        <time>2017-11-13T12:57:13.547000Z</time>
      </trkpt>
      <trkpt lat="45.81715106964111" lon="10.371394157409668">
        <ele>1060.7356892151672</ele>
        <time>2017-11-13T12:57:13.695000Z</time>
      </trkpt>
      <trkpt lat="45.81723690032959" lon="10.37132978439331">
        <ele>1061.4454258976573</ele>
        <time>2017-11-13T12:57:13.850000Z</time>
      </trkpt>
      <trkpt lat="45.817859172821045" lon="10.371179580688477">
        <ele>1070.0696853676864</ele>
        <time>2017-11-13T12:57:14.862000Z</time>
      </trkpt>
      <trkpt lat="45.81798791885376" lon="10.370986461639404">
        <ele>1071.434607316983</ele>
        <time>2017-11-13T12:57:15.161000Z</time>
      </trkpt>
      <trkpt lat="45.81800946034491" lon="10.37083625793457">
        <ele>1072.217826194921</ele>
        <time>2017-11-13T12:57:15.332000Z</time>
      </trkpt>
      <trkpt lat="45.81798800267279" lon="10.370535850524902">
        <ele>1074.4268201558623</ele>
        <time>2017-11-13T12:57:15.669000Z</time>
      </trkpt>
      <trkpt lat="45.81796654500067" lon="10.370299816131592">
        <ele>1075.276892202768</ele>
        <time>2017-11-13T12:57:15.935000Z</time>
      </trkpt>
      <trkpt lat="45.817902171984315" lon="10.369956493377686">
        <ele>1084.5465703846558</ele>
        <time>2017-11-13T12:57:16.332000Z</time>
      </trkpt>
      <trkpt lat="45.81764459609985" lon="10.36984920501709">
        <ele>1082.714090001464</ele>
        <time>2017-11-13T12:57:16.762000Z</time>
      </trkpt>
      <trkpt lat="45.81706523895264" lon="10.36982774734497">
        <ele>1072.4211164663654</ele>
        <time>2017-11-13T12:57:17.691000Z</time>
      </trkpt>
      <trkpt lat="45.81678628921509" lon="10.370213985443115">
        <ele>1058.2727473987231</ele>
        <time>2017-11-13T12:57:18.312000Z</time>
      </trkpt>
      <trkpt lat="45.816378593444824" lon="10.370514392852783">
        <ele>1046.2762626320648</ele>
        <time>2017-11-13T12:57:19.047000Z</time>
      </trkpt>
      <trkpt lat="45.81620693206787" lon="10.370450019836426">
        <ele>1043.3096240071857</ele>
        <time>2017-11-13T12:57:19.331000Z</time>
      </trkpt>
      <trkpt lat="45.815928066149354" lon="10.3700852394104">
        <ele>1037.0</ele>
        <time>2017-11-13T12:57:19.936000Z</time>
      </trkpt>
      <trkpt lat="45.815842151641846" lon="10.369977951049805">
        <ele>1044.8887480020283</ele>
        <time>2017-11-13T12:57:20.119000Z</time>
      </trkpt>
      <trkpt lat="45.815816753209845" lon="10.369950933631086">
        <ele>1033.9136053900731</ele>
        <time>2017-11-13T12:57:20.170000Z</time>
      </trkpt>
      <trkpt lat="45.81576238874407" lon="10.369893103885847">
        <ele>1033.2533234911668</ele>
        <time>2017-11-13T12:57:20.278000Z</time>
      </trkpt>
      <trkpt lat="45.81574089825153" lon="10.36987024359405">
        <ele>1032.9923115190516</ele>
        <time>2017-11-13T12:57:20.321000Z</time>
      </trkpt>
      <trkpt lat="45.81574073061347" lon="10.369870159775019">
        <ele>1032.990579485572</ele>
        <time>2017-11-13T12:57:20.321000Z</time>
      </trkpt>
      <trkpt lat="45.81549882888794" lon="10.36961317062378">
        <ele>1030.0539079231676</ele>
        <time>2017-11-13T12:57:20.804000Z</time>
      </trkpt>
      <trkpt lat="45.81406116485596" lon="10.369484424591064">
        <ele>1008.0</ele>
        <time>2017-11-13T12:57:23.113000Z</time>
      </trkpt>
      <trkpt lat="45.813846588134766" lon="10.369312763214111">
        <ele>1009.1789938360025</ele>
        <time>2017-11-13T12:57:23.507000Z</time>
      </trkpt>
      <trkpt lat="45.813653552904725" lon="10.36884069442749">
        <ele>1015.6763144085166</ele>
        <time>2017-11-13T12:57:24.119000Z</time>
      </trkpt>
      <trkpt lat="45.813589096069336" lon="10.368540287017822">
        <ele>1014.1160003208612</ele>
        <time>2017-11-13T12:57:24.470000Z</time>
      </trkpt>
      <trkpt lat="45.81350992275245" lon="10.368461051748808">
        <ele>1013.4284864068568</ele>
        <time>2017-11-13T12:57:24.625000Z</time>
      </trkpt>
      <trkpt lat="45.81348189152777" lon="10.368432998657227">
        <ele>1013.185073021873</ele>
        <time>2017-11-13T12:57:24.680000Z</time>
      </trkpt>
      <trkpt lat="45.813460035902516" lon="10.368469331913367">
        <ele>1012.9468288616631</ele>
        <time>2017-11-13T12:57:24.734000Z</time>
      </trkpt>
      <trkpt lat="45.813442412763834" lon="10.36849862895906">
        <ele>1012.7547223567353</ele>
        <time>2017-11-13T12:57:24.777000Z</time>
      </trkpt>
      <trkpt lat="45.8134423289448" lon="10.368498712778091">
        <ele>1012.7539946869588</ele>
        <time>2017-11-13T12:57:24.777000Z</time>
      </trkpt>
      <trkpt lat="45.81341743469238" lon="10.368540287017822">
        <ele>1012.4819140214922</ele>
        <time>2017-11-13T12:57:24.838000Z</time>
      </trkpt>
      <trkpt lat="45.81369638442993" lon="10.369291305541992">
        <ele>1003.5907882501034</ele>
        <time>2017-11-13T12:57:25.789000Z</time>
      </trkpt>
      <trkpt lat="45.81369638442993" lon="10.369462966918945">
        <ele>1002.6641817911974</ele>
        <time>2017-11-13T12:57:25.981000Z</time>
      </trkpt>
      <trkpt lat="45.813632011413574" lon="10.369656085968018">
        <ele>1001.5086701864825</ele>
        <time>2017-11-13T12:57:26.220000Z</time>
      </trkpt>
      <trkpt lat="45.8135461807251" lon="10.369741916656494">
        <ele>1000.698423873438</ele>
        <time>2017-11-13T12:57:26.388000Z</time>
      </trkpt>
      <trkpt lat="45.81320294179022" lon="10.369870662689209">
        <ele>991.6175305304381</ele>
        <time>2017-11-13T12:57:26.957000Z</time>
      </trkpt>
      <trkpt lat="45.81294536590576" lon="10.369913578033447">
        <ele>989.8460361963201</ele>
        <time>2017-11-13T12:57:27.373000Z</time>
      </trkpt>
      <trkpt lat="45.81294228504251" lon="10.369909806802847">
        <ele>989.8183692371431</ele>
        <time>2017-11-13T12:57:27.379000Z</time>
      </trkpt>
      <trkpt lat="45.81289080123895" lon="10.369846786467784">
        <ele>989.3560312743645</ele>
        <time>2017-11-13T12:57:27.487000Z</time>
      </trkpt>
      <trkpt lat="45.81287018023431" lon="10.369821544736624">
        <ele>989.1708493916057</ele>
        <time>2017-11-13T12:57:27.530000Z</time>
      </trkpt>
      <trkpt lat="45.81286967732012" lon="10.369820958003402">
        <ele>989.1664210942804</ele>
        <time>2017-11-13T12:57:27.530000Z</time>
      </trkpt>
      <trkpt lat="45.81275224685669" lon="10.369677543640137">
        <ele>988.1128838038808</ele>
        <time>2017-11-13T12:57:27.777000Z</time>
      </trkpt>
      <trkpt lat="45.81270933151245" lon="10.369377136230469">
        <ele>987.2683299257584</ele>
        <time>2017-11-13T12:57:28.120000Z</time>
      </trkpt>
      <trkpt lat="45.8127308730036" lon="10.36886215209961">
        <ele>987.8474559478876</ele>
        <time>2017-11-13T12:57:28.696000Z</time>
      </trkpt>
      <trkpt lat="45.812387466430664" lon="10.368411540985107">
        <ele>979.6752635120082</ele>
        <time>2017-11-13T12:57:29.442000Z</time>
      </trkpt>
      <trkpt lat="45.81170082092285" lon="10.367939472198486">
        <ele>977.0</ele>
        <time>2017-11-13T12:57:30.663000Z</time>
      </trkpt>
      <trkpt lat="45.81146478652954" lon="10.367531776428223">
        <ele>968.0756716011116</ele>
        <time>2017-11-13T12:57:31.255000Z</time>
      </trkpt>
      <trkpt lat="45.811383685604525" lon="10.36743441990334">
        <ele>968.714398901408</ele>
        <time>2017-11-13T12:57:31.425000Z</time>
      </trkpt>
      <trkpt lat="45.811331782365635" lon="10.367372113552628">
        <ele>968.0565354784386</ele>
        <time>2017-11-13T12:57:31.534000Z</time>
      </trkpt>
      <trkpt lat="45.81131047569215" lon="10.367346536368132">
        <ele>967.7864777050922</ele>
        <time>2017-11-13T12:57:31.579000Z</time>
      </trkpt>
      <trkpt lat="45.81131039187312" lon="10.367346284911036">
        <ele>967.784589122889</ele>
        <time>2017-11-13T12:57:31.579000Z</time>
      </trkpt>
      <trkpt lat="45.811142921447754" lon="10.367145538330078">
        <ele>965.6631946523252</ele>
        <time>2017-11-13T12:57:31.929000Z</time>
      </trkpt>
      <trkpt lat="45.810928428545594" lon="10.366973876953125">
        <ele>962.7626762355493</ele>
        <time>2017-11-13T12:57:32.323000Z</time>
      </trkpt>
      <trkpt lat="45.81026315689087" lon="10.367124080657959">
        <ele>949.8094730892763</ele>
        <time>2017-11-13T12:57:33.403000Z</time>
      </trkpt>
      <trkpt lat="45.8099627494812" lon="10.367274284362793">
        <ele>943.7047886679502</ele>
        <time>2017-11-13T12:57:33.913000Z</time>
      </trkpt>
      <trkpt lat="45.809876918792725" lon="10.367145538330078">
        <ele>943.367498554869</ele>
        <time>2017-11-13T12:57:34.112000Z</time>
      </trkpt>
      <trkpt lat="45.80974817276001" lon="10.367124080657959">
        <ele>943.0154516272628</ele>
        <time>2017-11-13T12:57:34.320000Z</time>
      </trkpt>
      <trkpt lat="45.80968379974365" lon="10.367188453674316">
        <ele>942.8023190156814</ele>
        <time>2017-11-13T12:57:34.446000Z</time>
      </trkpt>
      <trkpt lat="45.80974817276001" lon="10.367274284362793">
        <ele>942.5636174267337</ele>
        <time>2017-11-13T12:57:34.587000Z</time>
      </trkpt>
      <trkpt lat="45.80976315855496" lon="10.367280278670481">
        <ele>942.5213610612273</ele>
        <time>2017-11-13T12:57:34.612000Z</time>
      </trkpt>
      <trkpt lat="45.8098283479222" lon="10.367306354411499">
        <ele>942.3375425983036</ele>
        <time>2017-11-13T12:57:34.720000Z</time>
      </trkpt>
      <trkpt lat="45.809855461120605" lon="10.367317199707031">
        <ele>942.261089840607</ele>
        <time>2017-11-13T12:57:34.765000Z</time>
      </trkpt>
      <trkpt lat="45.809855377301574" lon="10.367316948249936">
        <ele>942.2605621263946</ele>
        <time>2017-11-13T12:57:34.765000Z</time>
      </trkpt>
      <trkpt lat="45.80974817276001" lon="10.367274284362793">
        <ele>941.9583814119269</ele>
        <time>2017-11-13T12:57:34.943000Z</time>
      </trkpt>
      <trkpt lat="45.80968379974285" lon="10.367188453674917">
        <ele>941.7196796943002</ele>
        <time>2017-11-13T12:57:35.084000Z</time>
      </trkpt>
      <trkpt lat="45.80974825657904" lon="10.367124080657959">
        <ele>941.5063603508397</ele>
        <time>2017-11-13T12:57:35.210000Z</time>
      </trkpt>
      <trkpt lat="45.809876918792725" lon="10.367145538330078">
        <ele>941.1545395781778</ele>
        <time>2017-11-13T12:57:35.418000Z</time>
      </trkpt>
      <trkpt lat="45.80996274948203" lon="10.367274284362239">
        <ele>940.8172497357456</ele>
        <time>2017-11-13T12:57:35.617000Z</time>
      </trkpt>
      <trkpt lat="45.8099627494812" lon="10.36736011505127">
        <ele>940.6547486840354</ele>
        <time>2017-11-13T12:57:35.713000Z</time>
      </trkpt>
      <trkpt lat="45.80979108810425" lon="10.367574691772461">
        <ele>939.0363310561075</ele>
        <time>2017-11-13T12:57:36.078000Z</time>
      </trkpt>
      <trkpt lat="45.80944776535034" lon="10.367724895477295">
        <ele>939.0168407504576</ele>
        <time>2017-11-13T12:57:36.653000Z</time>
      </trkpt>
      <trkpt lat="45.809361934661865" lon="10.367703437805176">
        <ele>939.0121098400851</ele>
        <time>2017-11-13T12:57:36.793000Z</time>
      </trkpt>
      <trkpt lat="45.80929756164551" lon="10.367639064788818">
        <ele>939.0078489982155</ele>
        <time>2017-11-13T12:57:36.919000Z</time>
      </trkpt>
      <trkpt lat="45.80929227833423" lon="10.367490299950036">
        <ele>940.0652121721932</ele>
        <time>2017-11-13T12:57:37.085000Z</time>
      </trkpt>
      <trkpt lat="45.80928883462536" lon="10.367393336657553">
        <ele>940.1026008659297</ele>
        <time>2017-11-13T12:57:37.194000Z</time>
      </trkpt>
      <trkpt lat="45.80928741954267" lon="10.367353493347764">
        <ele>940.1179643026686</ele>
        <time>2017-11-13T12:57:37.239000Z</time>
      </trkpt>
      <trkpt lat="45.80928741954267" lon="10.36735374480486">
        <ele>940.1180611380017</ele>
        <time>2017-11-13T12:57:37.239000Z</time>
      </trkpt>
      <trkpt lat="45.80927618779242" lon="10.367038249969482">
        <ele>940.2397155825538</ele>
        <time>2017-11-13T12:57:37.592000Z</time>
      </trkpt>
      <trkpt lat="45.80931901931763" lon="10.365407466888428">
        <ele>943.8681719647011</ele>
        <time>2017-11-13T12:57:39.416000Z</time>
      </trkpt>
      <trkpt lat="45.80925464630127" lon="10.365128517150879">
        <ele>946.3686850844418</ele>
        <time>2017-11-13T12:57:39.744000Z</time>
      </trkpt>
      <trkpt lat="45.80916881561279" lon="10.36484956741333">
        <ele>954.6301411936402</ele>
        <time>2017-11-13T12:57:40.085000Z</time>
      </trkpt>
      <trkpt lat="45.808846950531006" lon="10.364377498626709">
        <ele>938.1968877515275</ele>
        <time>2017-11-13T12:57:40.823000Z</time>
      </trkpt>
      <trkpt lat="45.808675372973084" lon="10.363883972167969">
        <ele>937.2888674817951</ele>
        <time>2017-11-13T12:57:41.439000Z</time>
      </trkpt>
      <trkpt lat="45.80856800079346" lon="10.363068580627441">
        <ele>932.7420374154157</ele>
        <time>2017-11-13T12:57:42.366000Z</time>
      </trkpt>
      <trkpt lat="45.80826759338379" lon="10.361824035644531">
        <ele>908.0046210519534</ele>
        <time>2017-11-13T12:57:43.838000Z</time>
      </trkpt>
      <trkpt lat="45.80822467803955" lon="10.361437797546387">
        <ele>906.7662380583529</ele>
        <time>2017-11-13T12:57:44.275000Z</time>
      </trkpt>
      <trkpt lat="45.80831050872803" lon="10.36008596420288">
        <ele>908.2567964269643</ele>
        <time>2017-11-13T12:57:45.792000Z</time>
      </trkpt>
      <trkpt lat="45.808632373809814" lon="10.359163284301758">
        <ele>908.8164990603672</ele>
        <time>2017-11-13T12:57:46.945000Z</time>
      </trkpt>
      <trkpt lat="45.808653915300965" lon="10.35912036895752">
        <ele>909.3954169349169</ele>
        <time>2017-11-13T12:57:47.004000Z</time>
      </trkpt>
      <trkpt lat="45.808696830645204" lon="10.359013080596924">
        <ele>910.7495233035767</ele>
        <time>2017-11-13T12:57:47.142000Z</time>
      </trkpt>
      <trkpt lat="45.80916881561279" lon="10.357489585876465">
        <ele>944.0</ele>
        <time>2017-11-13T12:57:49.005000Z</time>
      </trkpt>
      <trkpt lat="45.80923327244818" lon="10.35733938217163">
        <ele>942.2142650285319</ele>
        <time>2017-11-13T12:57:49.202000Z</time>
      </trkpt>
      <trkpt lat="45.809383392333984" lon="10.356674194335938">
        <ele>935.135742601696</ele>
        <time>2017-11-13T12:57:49.983000Z</time>
      </trkpt>
      <trkpt lat="45.809361934661865" lon="10.35635232925415">
        <ele>927.8623136715293</ele>
        <time>2017-11-13T12:57:50.344000Z</time>
      </trkpt>
      <trkpt lat="45.80921173095703" lon="10.355772972106934">
        <ele>911.4011160147562</ele>
        <time>2017-11-13T12:57:51.035000Z</time>
      </trkpt>
      <trkpt lat="45.80921173095703" lon="10.355579853057861">
        <ele>909.7082415465835</ele>
        <time>2017-11-13T12:57:51.251000Z</time>
      </trkpt>
      <trkpt lat="45.809361934661865" lon="10.35485029220581">
        <ele>901.3731482848578</ele>
        <time>2017-11-13T12:57:52.101000Z</time>
      </trkpt>
      <trkpt lat="45.8093620184809" lon="10.354807376861572">
        <ele>901.1406980133996</ele>
        <time>2017-11-13T12:57:52.149000Z</time>
      </trkpt>
      <trkpt lat="45.809383476153016" lon="10.35463571548462">
        <ele>900.1960688222078</ele>
        <time>2017-11-13T12:57:52.344000Z</time>
      </trkpt>
      <trkpt lat="45.8093620184809" lon="10.354249477386475">
        <ele>898.0973904842549</ele>
        <time>2017-11-13T12:57:52.777000Z</time>
      </trkpt>
      <trkpt lat="45.8090615272522" lon="10.353047847747803">
        <ele>885.5159556875004</ele>
        <time>2017-11-13T12:57:54.204000Z</time>
      </trkpt>
      <trkpt lat="45.8090615272522" lon="10.352833271026611">
        <ele>884.9703924768913</ele>
        <time>2017-11-13T12:57:54.444000Z</time>
      </trkpt>
      <trkpt lat="45.80923318862915" lon="10.352232456207275">
        <ele>895.2367860086962</ele>
        <time>2017-11-13T12:57:55.170000Z</time>
      </trkpt>
      <trkpt lat="45.80929756164551" lon="10.351438522338867">
        <ele>885.4107389599417</ele>
        <time>2017-11-13T12:57:56.063000Z</time>
      </trkpt>
      <trkpt lat="45.809426391497254" lon="10.350708961486816">
        <ele>883.280134480965</ele>
        <time>2017-11-13T12:57:56.904000Z</time>
      </trkpt>
      <trkpt lat="45.80942630767822" lon="10.350708961486816">
        <ele>883.2799518998204</ele>
        <time>2017-11-13T12:57:56.904000Z</time>
      </trkpt>
      <trkpt lat="45.809640884399414" lon="10.349464416503906">
        <ele>880.0</ele>
        <time>2017-11-13T12:57:58.337000Z</time>
      </trkpt>
      <trkpt lat="45.809683683689656" lon="10.349285941073221">
        <ele>879.4917510965306</ele>
        <time>2017-11-13T12:57:58.548000Z</time>
      </trkpt>
      <trkpt lat="45.80970569971373" lon="10.349194132465101">
        <ele>879.2303057103778</ele>
        <time>2017-11-13T12:57:58.657000Z</time>
      </trkpt>
      <trkpt lat="45.80971481278539" lon="10.349156130105257">
        <ele>874.4554189397214</ele>
        <time>2017-11-13T12:57:58.702000Z</time>
      </trkpt>
      <trkpt lat="45.80971481278539" lon="10.34915629774332">
        <ele>874.4549675204793</ele>
        <time>2017-11-13T12:57:58.704000Z</time>
      </trkpt>
      <trkpt lat="45.809898376464844" lon="10.34839153289795">
        <ele>872.2769223916953</ele>
        <time>2017-11-13T12:57:59.608000Z</time>
      </trkpt>
      <trkpt lat="45.809919917955995" lon="10.348305702209473">
        <ele>872.697937754171</ele>
        <time>2017-11-13T12:57:59.710000Z</time>
      </trkpt>
      <trkpt lat="45.8099627494812" lon="10.348005294799805">
        <ele>871.8722485300996</ele>
        <time>2017-11-13T12:58:00.053000Z</time>
      </trkpt>
      <trkpt lat="45.80998429097235" lon="10.346567630767822">
        <ele>868.0</ele>
        <time>2017-11-13T12:58:01.660000Z</time>
      </trkpt>
      <trkpt lat="45.81022024154663" lon="10.345473289489746">
        <ele>902.0902349931144</ele>
        <time>2017-11-13T12:58:02.940000Z</time>
      </trkpt>
      <trkpt lat="45.81011303700507" lon="10.343949794769287">
        <ele>892.0</ele>
        <time>2017-11-13T12:58:04.651000Z</time>
      </trkpt>
      <trkpt lat="45.810134494677186" lon="10.343220233917236">
        <ele>880.7987608015741</ele>
        <time>2017-11-13T12:58:05.467000Z</time>
      </trkpt>
      <trkpt lat="45.81022024154663" lon="10.34137487411499">
        <ele>861.7809602733179</ele>
        <time>2017-11-13T12:58:07.534000Z</time>
      </trkpt>
      <trkpt lat="45.810177410021424" lon="10.341160297393799">
        <ele>860.1106036857717</ele>
        <time>2017-11-13T12:58:07.783000Z</time>
      </trkpt>
      <trkpt lat="45.81011303700507" lon="10.34088134765625">
        <ele>857.9116167216683</ele>
        <time>2017-11-13T12:58:08.111000Z</time>
      </trkpt>
      <trkpt lat="45.81007012166083" lon="10.340709686279297">
        <ele>858.8490345178249</ele>
        <time>2017-11-13T12:58:08.315000Z</time>
      </trkpt>
      <trkpt lat="45.8099627494812" lon="10.340280532836914">
        <ele>849.5256743281551</ele>
        <time>2017-11-13T12:58:08.825000Z</time>
      </trkpt>
      <trkpt lat="45.809919917955995" lon="10.338542461395264">
        <ele>844.4169884798251</ele>
        <time>2017-11-13T12:58:10.768000Z</time>
      </trkpt>
      <trkpt lat="45.809898376464844" lon="10.337190628051758">
        <ele>840.208174371306</ele>
        <time>2017-11-13T12:58:12.279000Z</time>
      </trkpt>
      <trkpt lat="45.80983408726752" lon="10.336847305297852">
        <ele>839.8574910708139</ele>
        <time>2017-11-13T12:58:12.676000Z</time>
      </trkpt>
      <trkpt lat="45.809834003448486" lon="10.336847305297852">
        <ele>839.8574177440073</ele>
        <time>2017-11-13T12:58:12.676000Z</time>
      </trkpt>
      <trkpt lat="45.80946930684149" lon="10.335602760314941">
        <ele>838.700834697173</ele>
        <time>2017-11-13T12:58:14.185000Z</time>
      </trkpt>
      <trkpt lat="45.8094299508539" lon="10.33546528283337">
        <ele>838.6102072986235</ele>
        <time>2017-11-13T12:58:14.351000Z</time>
      </trkpt>
      <trkpt lat="45.80942630767822" lon="10.335452556610107">
        <ele>838.6018179604711</ele>
        <time>2017-11-13T12:58:14.366000Z</time>
      </trkpt>
      <trkpt lat="45.80941036345864" lon="10.335372779290845">
        <ele>838.5512101529662</ele>
        <time>2017-11-13T12:58:14.459000Z</time>
      </trkpt>
      <trkpt lat="45.809402503073215" lon="10.33533344976604">
        <ele>838.522209106272</ele>
        <time>2017-11-13T12:58:14.505000Z</time>
      </trkpt>
      <trkpt lat="45.809402503073215" lon="10.335333533585072">
        <ele>838.5221496932278</ele>
        <time>2017-11-13T12:58:14.505000Z</time>
      </trkpt>
      <trkpt lat="45.8093620184809" lon="10.33513069152832">
        <ele>838.3725921743975</ele>
        <time>2017-11-13T12:58:14.741000Z</time>
      </trkpt>
      <trkpt lat="45.80929764546454" lon="10.334980487823486">
        <ele>839.247609699409</ele>
        <time>2017-11-13T12:58:14.938000Z</time>
      </trkpt>
      <trkpt lat="45.80927610397339" lon="10.334916114807129">
        <ele>839.19699463619</ele>
        <time>2017-11-13T12:58:15.018000Z</time>
      </trkpt>
      <trkpt lat="45.80884703435004" lon="10.334293842315674">
        <ele>836.5765668918756</ele>
        <time>2017-11-13T12:58:15.996000Z</time>
      </trkpt>
      <trkpt lat="45.80882557667792" lon="10.333993434906006">
        <ele>837.034728197906</ele>
        <time>2017-11-13T12:58:16.333000Z</time>
      </trkpt>
      <trkpt lat="45.80873974598944" lon="10.333521366119385">
        <ele>837.2363940673167</ele>
        <time>2017-11-13T12:58:16.878000Z</time>
      </trkpt>
      <trkpt lat="45.8083535078913" lon="10.332105159759521">
        <ele>841.0</ele>
        <time>2017-11-13T12:58:18.577000Z</time>
      </trkpt>
      <trkpt lat="45.80833205021918" lon="10.331568717956543">
        <ele>831.3080237889344</ele>
        <time>2017-11-13T12:58:19.177000Z</time>
      </trkpt>
      <trkpt lat="45.80831050872803" lon="10.331053733825684">
        <ele>829.0433781169664</ele>
        <time>2017-11-13T12:58:19.754000Z</time>
      </trkpt>
      <trkpt lat="45.808396423235536" lon="10.33064603805542">
        <ele>831.1737626267877</ele>
        <time>2017-11-13T12:58:20.230000Z</time>
      </trkpt>
      <trkpt lat="45.80850371159613" lon="10.330367088317871">
        <ele>829.7752572044241</ele>
        <time>2017-11-13T12:58:20.586000Z</time>
      </trkpt>
      <trkpt lat="45.80869674682617" lon="10.329830646514893">
        <ele>824.3893666439936</ele>
        <time>2017-11-13T12:58:21.261000Z</time>
      </trkpt>
      <trkpt lat="45.80869674682617" lon="10.329551696777344">
        <ele>822.8248716201174</ele>
        <time>2017-11-13T12:58:21.573000Z</time>
      </trkpt>
      <trkpt lat="45.80852516926825" lon="10.328178405761719">
        <ele>810.0</ele>
        <time>2017-11-13T12:58:23.132000Z</time>
      </trkpt>
      <trkpt lat="45.80852508544922" lon="10.327856540679932">
        <ele>811.9108938951939</ele>
        <time>2017-11-13T12:58:23.492000Z</time>
      </trkpt>
      <trkpt lat="45.80856800079346" lon="10.327084064483643">
        <ele>817.1782448128561</ele>
        <time>2017-11-13T12:58:24.358000Z</time>
      </trkpt>
      <trkpt lat="45.80848217010498" lon="10.326740741729736">
        <ele>819.3436604926939</ele>
        <time>2017-11-13T12:58:24.766000Z</time>
      </trkpt>
      <trkpt lat="45.807838439941406" lon="10.325775146484375">
        <ele>846.730767172672</ele>
        <time>2017-11-13T12:58:26.259000Z</time>
      </trkpt>
      <trkpt lat="45.80728054046631" lon="10.324745178222656">
        <ele>843.2880457826451</ele>
        <time>2017-11-13T12:58:27.717000Z</time>
      </trkpt>
      <trkpt lat="45.80717325210571" lon="10.32463788986206">
        <ele>841.2291694720228</ele>
        <time>2017-11-13T12:58:27.927000Z</time>
      </trkpt>
      <trkpt lat="45.80702304840088" lon="10.32463788986206">
        <ele>838.8645489727727</ele>
        <time>2017-11-13T12:58:28.168000Z</time>
      </trkpt>
      <trkpt lat="45.806937301531434" lon="10.324723720550537">
        <ele>837.2185279650581</ele>
        <time>2017-11-13T12:58:28.336000Z</time>
      </trkpt>
      <trkpt lat="45.80685147084296" lon="10.324788093566895">
        <ele>835.6937947774783</ele>
        <time>2017-11-13T12:58:28.491000Z</time>
      </trkpt>
      <trkpt lat="45.806615352630615" lon="10.324873924255371">
        <ele>824.1924966201092</ele>
        <time>2017-11-13T12:58:28.881000Z</time>
      </trkpt>
      <trkpt lat="45.8060359954834" lon="10.324573516845703">
        <ele>817.366242265935</ele>
        <time>2017-11-13T12:58:29.869000Z</time>
      </trkpt>
      <trkpt lat="45.8059287071228" lon="10.324358940124512">
        <ele>816.3882566212934</ele>
        <time>2017-11-13T12:58:30.164000Z</time>
      </trkpt>
      <trkpt lat="45.80577850341797" lon="10.323092937469482">
        <ele>801.6321158460687</ele>
        <time>2017-11-13T12:58:31.599000Z</time>
      </trkpt>
      <trkpt lat="45.805842876434326" lon="10.322771072387695">
        <ele>817.4971562383613</ele>
        <time>2017-11-13T12:58:31.973000Z</time>
      </trkpt>
      <trkpt lat="45.806100368499756" lon="10.322341918945312">
        <ele>821.2388914112838</ele>
        <time>2017-11-13T12:58:32.606000Z</time>
      </trkpt>
      <trkpt lat="45.806121826171875" lon="10.322041511535645">
        <ele>823.6690405381572</ele>
        <time>2017-11-13T12:58:32.943000Z</time>
      </trkpt>
      <trkpt lat="45.80607891082764" lon="10.321526527404785">
        <ele>829.4695360011248</ele>
        <time>2017-11-13T12:58:33.523000Z</time>
      </trkpt>
      <trkpt lat="45.80569267272949" lon="10.321097373962402">
        <ele>813.8486833102694</ele>
        <time>2017-11-13T12:58:34.306000Z</time>
      </trkpt>
      <trkpt lat="45.80554246902466" lon="10.321011543273926">
        <ele>813.3122694356935</ele>
        <time>2017-11-13T12:58:34.565000Z</time>
      </trkpt>
      <trkpt lat="45.80466270446777" lon="10.320754051208496">
        <ele>814.0</ele>
        <time>2017-11-13T12:58:36.004000Z</time>
      </trkpt>
      <trkpt lat="45.80423355102539" lon="10.32041072845459">
        <ele>812.8654134152239</ele>
        <time>2017-11-13T12:58:36.792000Z</time>
      </trkpt>
      <trkpt lat="45.804104804992676" lon="10.320217609405518">
        <ele>799.5556266887994</ele>
        <time>2017-11-13T12:58:37.091000Z</time>
      </trkpt>
      <trkpt lat="45.80406188964844" lon="10.320024490356445">
        <ele>798.8149423079518</ele>
        <time>2017-11-13T12:58:37.318000Z</time>
      </trkpt>
      <trkpt lat="45.804147804155946" lon="10.31916618347168">
        <ele>797.3130177725753</ele>
        <time>2017-11-13T12:58:38.287000Z</time>
      </trkpt>
      <trkpt lat="45.804147720336914" lon="10.31916618347168">
        <ele>797.3125784015738</ele>
        <time>2017-11-13T12:58:38.287000Z</time>
      </trkpt>
      <trkpt lat="45.80451250076294" lon="10.318007469177246">
        <ele>798.0</ele>
        <time>2017-11-13T12:58:39.708000Z</time>
      </trkpt>
      <trkpt lat="45.80444812774658" lon="10.316956043243408">
        <ele>787.6477108299565</ele>
        <time>2017-11-13T12:58:40.888000Z</time>
      </trkpt>
      <trkpt lat="45.804598331451416" lon="10.315840244293213">
        <ele>784.2965617942872</ele>
        <time>2017-11-13T12:58:42.158000Z</time>
      </trkpt>
      <trkpt lat="45.8045768737793" lon="10.315110683441162">
        <ele>784.0</ele>
        <time>2017-11-13T12:58:42.974000Z</time>
      </trkpt>
      <trkpt lat="45.80444812774658" lon="10.314874649047852">
        <ele>789.1472210384926</ele>
        <time>2017-11-13T12:58:43.309000Z</time>
      </trkpt>
      <trkpt lat="45.80408334732056" lon="10.314466953277588">
        <ele>781.9486594863811</ele>
        <time>2017-11-13T12:58:44.050000Z</time>
      </trkpt>
      <trkpt lat="45.803868770599365" lon="10.31393051147461">
        <ele>796.2949188384996</ele>
        <time>2017-11-13T12:58:44.741000Z</time>
      </trkpt>
      <trkpt lat="45.80369710922241" lon="10.313801765441895">
        <ele>797.0495287198502</ele>
        <time>2017-11-13T12:58:45.052000Z</time>
      </trkpt>
      <trkpt lat="45.803139209747314" lon="10.313630104064941">
        <ele>777.2914259506059</ele>
        <time>2017-11-13T12:58:45.967000Z</time>
      </trkpt>
      <trkpt lat="45.8030104637146" lon="10.313501358032227">
        <ele>775.4325853204831</ele>
        <time>2017-11-13T12:58:46.219000Z</time>
      </trkpt>
      <trkpt lat="45.80281734466553" lon="10.313136577606201">
        <ele>771.3172460503242</ele>
        <time>2017-11-13T12:58:46.731000Z</time>
      </trkpt>
      <trkpt lat="45.80277451314032" lon="10.312643051147461">
        <ele>767.2226693583058</ele>
        <time>2017-11-13T12:58:47.287000Z</time>
      </trkpt>
      <trkpt lat="45.80277442932129" lon="10.312643051147461">
        <ele>767.2222524286462</ele>
        <time>2017-11-13T12:58:47.287000Z</time>
      </trkpt>
      <trkpt lat="45.802860260009766" lon="10.312364101409912">
        <ele>763.4982607699404</ele>
        <time>2017-11-13T12:58:47.628000Z</time>
      </trkpt>
      <trkpt lat="45.803139209747314" lon="10.311784744262695">
        <ele>761.056680996532</ele>
        <time>2017-11-13T12:58:48.415000Z</time>
      </trkpt>
      <trkpt lat="45.803139209747314" lon="10.310518741607666">
        <ele>755.0</ele>
        <time>2017-11-13T12:58:49.830000Z</time>
      </trkpt>
      <trkpt lat="45.803117752075195" lon="10.310025215148926">
        <ele>756.2491777622458</ele>
        <time>2017-11-13T12:58:50.383000Z</time>
      </trkpt>
      <trkpt lat="45.80281734466553" lon="10.309231281280518">
        <ele>760.1978860501576</ele>
        <time>2017-11-13T12:58:51.393000Z</time>
      </trkpt>
      <trkpt lat="45.80277442932129" lon="10.30867338180542">
        <ele>751.8704847571413</ele>
        <time>2017-11-13T12:58:52.020000Z</time>
      </trkpt>
      <trkpt lat="45.802860260009766" lon="10.308308601379395">
        <ele>751.9599930199389</ele>
        <time>2017-11-13T12:58:52.450000Z</time>
      </trkpt>
      <trkpt lat="45.80328941345215" lon="10.308029651641846">
        <ele>750.3616486393215</ele>
        <time>2017-11-13T12:58:53.205000Z</time>
      </trkpt>
      <trkpt lat="45.80378293991089" lon="10.307857990264893">
        <ele>763.6255425577178</ele>
        <time>2017-11-13T12:58:54.019000Z</time>
      </trkpt>
      <trkpt lat="45.803847312927246" lon="10.307793617248535">
        <ele>763.471055071735</ele>
        <time>2017-11-13T12:58:54.145000Z</time>
      </trkpt>
      <trkpt lat="45.8039116859436" lon="10.307557582855225">
        <ele>763.1232070567434</ele>
        <time>2017-11-13T12:58:54.428000Z</time>
      </trkpt>
      <trkpt lat="45.8039116859436" lon="10.307364463806152">
        <ele>760.5248319144448</ele>
        <time>2017-11-13T12:58:54.644000Z</time>
      </trkpt>
      <trkpt lat="45.80380439758301" lon="10.306956768035889">
        <ele>759.9267551111985</ele>
        <time>2017-11-13T12:58:55.131000Z</time>
      </trkpt>
      <trkpt lat="45.803654193878174" lon="10.30667781829834">
        <ele>757.3967361606774</ele>
        <time>2017-11-13T12:58:55.525000Z</time>
      </trkpt>
      <trkpt lat="45.80322504043579" lon="10.306313037872314">
        <ele>744.9271028472799</ele>
        <time>2017-11-13T12:58:56.325000Z</time>
      </trkpt>
      <trkpt lat="45.803117752075195" lon="10.306119918823242">
        <ele>743.1545585407339</ele>
        <time>2017-11-13T12:58:56.601000Z</time>
      </trkpt>
      <trkpt lat="45.803160667419434" lon="10.305798053741455">
        <ele>736.1356762913448</ele>
        <time>2017-11-13T12:58:56.967000Z</time>
      </trkpt>
      <trkpt lat="45.80341815948486" lon="10.305261611938477">
        <ele>743.1984441969154</ele>
        <time>2017-11-13T12:58:57.695000Z</time>
      </trkpt>
      <trkpt lat="45.803439700976014" lon="10.305068492889404">
        <ele>743.0354455616413</ele>
        <time>2017-11-13T12:58:57.914000Z</time>
      </trkpt>
      <trkpt lat="45.80343961715698" lon="10.305068492889404">
        <ele>743.035345353475</ele>
        <time>2017-11-13T12:58:57.914000Z</time>
      </trkpt>
      <trkpt lat="45.80341815948486" lon="10.30468225479126">
        <ele>746.0457554434992</ele>
        <time>2017-11-13T12:58:58.347000Z</time>
      </trkpt>
      <trkpt lat="45.80326803959906" lon="10.304317474365234">
        <ele>737.692713433435</ele>
        <time>2017-11-13T12:58:58.820000Z</time>
      </trkpt>
      <trkpt lat="45.80283880233765" lon="10.303888320922852">
        <ele>739.7338667911617</ele>
        <time>2017-11-13T12:58:59.659000Z</time>
      </trkpt>
      <trkpt lat="45.80271005630493" lon="10.303480625152588">
        <ele>737.6907759778243</ele>
        <time>2017-11-13T12:59:00.159000Z</time>
      </trkpt>
      <trkpt lat="45.80279588699341" lon="10.303072929382324">
        <ele>730.7467139628317</ele>
        <time>2017-11-13T12:59:00.635000Z</time>
      </trkpt>
      <trkpt lat="45.80322504043579" lon="10.30240774154663">
        <ele>724.9688742072418</ele>
        <time>2017-11-13T12:59:01.648000Z</time>
      </trkpt>
      <trkpt lat="45.80333232879639" lon="10.302042961120605">
        <ele>726.9458322703114</ele>
        <time>2017-11-13T12:59:02.090000Z</time>
      </trkpt>
      <trkpt lat="45.80333232879639" lon="10.301635265350342">
        <ele>732.9816049274592</ele>
        <time>2017-11-13T12:59:02.546000Z</time>
      </trkpt>
      <trkpt lat="45.80328941345215" lon="10.30118465423584">
        <ele>735.252571564503</ele>
        <time>2017-11-13T12:59:03.054000Z</time>
      </trkpt>
      <trkpt lat="45.803117752075195" lon="10.300905704498291">
        <ele>737.1105362608033</ele>
        <time>2017-11-13T12:59:03.470000Z</time>
      </trkpt>
      <trkpt lat="45.80281734466553" lon="10.3006911277771">
        <ele>744.4960803955009</ele>
        <time>2017-11-13T12:59:04.008000Z</time>
      </trkpt>
      <trkpt lat="45.80271005630493" lon="10.300519466400146">
        <ele>743.6279952920416</ele>
        <time>2017-11-13T12:59:04.266000Z</time>
      </trkpt>
      <trkpt lat="45.80247402191162" lon="10.299360752105713">
        <ele>727.0826416473807</ele>
        <time>2017-11-13T12:59:05.615000Z</time>
      </trkpt>
      <trkpt lat="45.80232381820679" lon="10.29895305633545">
        <ele>732.4965996433117</ele>
        <time>2017-11-13T12:59:06.130000Z</time>
      </trkpt>
      <trkpt lat="45.80170154571533" lon="10.298309326171875">
        <ele>741.0</ele>
        <time>2017-11-13T12:59:07.360000Z</time>
      </trkpt>
      <trkpt lat="45.801594257354736" lon="10.298116207122803">
        <ele>728.2755546576958</ele>
        <time>2017-11-13T12:59:07.636000Z</time>
      </trkpt>
      <trkpt lat="45.80157288350165" lon="10.297794342041016">
        <ele>726.4541486865387</ele>
        <time>2017-11-13T12:59:07.997000Z</time>
      </trkpt>
      <trkpt lat="45.801658630371094" lon="10.29719352722168">
        <ele>722.6659874220412</ele>
        <time>2017-11-13T12:59:08.682000Z</time>
      </trkpt>
      <trkpt lat="45.80178737640381" lon="10.296614170074463">
        <ele>722.9071015216172</ele>
        <time>2017-11-13T12:59:09.362000Z</time>
      </trkpt>
      <trkpt lat="45.80202341079712" lon="10.296313762664795">
        <ele>723.2436951422654</ele>
        <time>2017-11-13T12:59:09.868000Z</time>
      </trkpt>
      <trkpt lat="45.80223798751831" lon="10.295841693878174">
        <ele>723.6627671269149</ele>
        <time>2017-11-13T12:59:10.498000Z</time>
      </trkpt>
      <trkpt lat="45.80221652984619" lon="10.29494047164917">
        <ele>728.0</ele>
        <time>2017-11-13T12:59:11.506000Z</time>
      </trkpt>
      <trkpt lat="45.802109241485596" lon="10.294575691223145">
        <ele>725.2646762558207</ele>
        <time>2017-11-13T12:59:11.948000Z</time>
      </trkpt>
      <trkpt lat="45.80142259597778" lon="10.292816162109375">
        <ele>703.0</ele>
        <time>2017-11-13T12:59:14.202000Z</time>
      </trkpt>
      <trkpt lat="45.801379680633545" lon="10.292537212371826">
        <ele>702.2931775679918</ele>
        <time>2017-11-13T12:59:14.521000Z</time>
      </trkpt>
      <trkpt lat="45.80152996815741" lon="10.291786193847656">
        <ele>696.6931960505148</ele>
        <time>2017-11-13T12:59:15.394000Z</time>
      </trkpt>
      <trkpt lat="45.80157279968262" lon="10.291528701782227">
        <ele>695.4748773835728</ele>
        <time>2017-11-13T12:59:15.690000Z</time>
      </trkpt>
      <trkpt lat="45.80161579884589" lon="10.291292667388916">
        <ele>696.5024482092522</ele>
        <time>2017-11-13T12:59:15.963000Z</time>
      </trkpt>
      <trkpt lat="45.801615715026855" lon="10.29118537902832">
        <ele>696.9543518663316</ele>
        <time>2017-11-13T12:59:16.083000Z</time>
      </trkpt>
      <trkpt lat="45.80146551132202" lon="10.290842056274414">
        <ele>698.6616189960047</ele>
        <time>2017-11-13T12:59:16.536000Z</time>
      </trkpt>
      <trkpt lat="45.801100730895996" lon="10.290670394897461">
        <ele>713.6478100916555</ele>
        <time>2017-11-13T12:59:17.151000Z</time>
      </trkpt>
      <trkpt lat="45.80077886581421" lon="10.290799140930176">
        <ele>712.0</ele>
        <time>2017-11-13T12:59:17.687000Z</time>
      </trkpt>
      <trkpt lat="45.800349712371826" lon="10.29118537902832">
        <ele>701.2944924490303</ele>
        <time>2017-11-13T12:59:18.499000Z</time>
      </trkpt>
      <trkpt lat="45.800178134813905" lon="10.29118537902832">
        <ele>700.6040163929077</ele>
        <time>2017-11-13T12:59:18.774000Z</time>
      </trkpt>
      <trkpt lat="45.80004938878119" lon="10.291099548339844">
        <ele>700.0326800839936</ele>
        <time>2017-11-13T12:59:19.002000Z</time>
      </trkpt>
      <trkpt lat="45.79979181289673" lon="10.29069185256958">
        <ele>700.4890537209182</ele>
        <time>2017-11-13T12:59:19.617000Z</time>
      </trkpt>
      <trkpt lat="45.79916954040527" lon="10.287816524505615">
        <ele>727.0</ele>
        <time>2017-11-13T12:59:22.982000Z</time>
      </trkpt>
      <trkpt lat="45.79882621765137" lon="10.287086963653564">
        <ele>694.3186067923858</ele>
        <time>2017-11-13T12:59:23.966000Z</time>
      </trkpt>
      <trkpt lat="45.798869132995605" lon="10.286378860473633">
        <ele>695.7996149251206</ele>
        <time>2017-11-13T12:59:24.760000Z</time>
      </trkpt>
      <trkpt lat="45.79874047078192" lon="10.285778045654297">
        <ele>697.0621118124192</ele>
        <time>2017-11-13T12:59:25.462000Z</time>
      </trkpt>
      <trkpt lat="45.79874038696289" lon="10.285778045654297">
        <ele>697.0622895466631</ele>
        <time>2017-11-13T12:59:25.462000Z</time>
      </trkpt>
      <trkpt lat="45.79856872558594" lon="10.285499095916748">
        <ele>697.6123387419926</ele>
        <time>2017-11-13T12:59:25.878000Z</time>
      </trkpt>
      <trkpt lat="45.79831123352051" lon="10.285284519195557">
        <ele>683.8234042610458</ele>
        <time>2017-11-13T12:59:26.355000Z</time>
      </trkpt>
      <trkpt lat="45.79781770706177" lon="10.285134315490723">
        <ele>679.0984954125452</ele>
        <time>2017-11-13T12:59:27.164000Z</time>
      </trkpt>
      <trkpt lat="45.79768896102905" lon="10.284812450408936">
        <ele>679.3422590227029</ele>
        <time>2017-11-13T12:59:27.579000Z</time>
      </trkpt>
      <trkpt lat="45.79775466976418" lon="10.283859498503844">
        <ele>681.2702740453092</ele>
        <time>2017-11-13T12:59:28.649000Z</time>
      </trkpt>
      <trkpt lat="45.79776133000446" lon="10.283762900718163">
        <ele>680.9972898486955</ele>
        <time>2017-11-13T12:59:28.758000Z</time>
      </trkpt>
      <trkpt lat="45.79776397906244" lon="10.28372447937727">
        <ele>680.888711609305</ele>
        <time>2017-11-13T12:59:28.801000Z</time>
      </trkpt>
      <trkpt lat="45.79776397906244" lon="10.283724730834365">
        <ele>680.8880044441972</ele>
        <time>2017-11-13T12:59:28.801000Z</time>
      </trkpt>
      <trkpt lat="45.79777479171753" lon="10.283567905426025">
        <ele>680.4448178735701</ele>
        <time>2017-11-13T12:59:28.977000Z</time>
      </trkpt>
      <trkpt lat="45.797624588012695" lon="10.28318166732788">
        <ele>683.5343925779162</ele>
        <time>2017-11-13T12:59:29.471000Z</time>
      </trkpt>
      <trkpt lat="45.79743146896362" lon="10.28294563293457">
        <ele>670.8442801584441</ele>
        <time>2017-11-13T12:59:29.878000Z</time>
      </trkpt>
      <trkpt lat="45.79717397689819" lon="10.282773971557617">
        <ele>671.0248968267972</ele>
        <time>2017-11-13T12:59:30.333000Z</time>
      </trkpt>
      <trkpt lat="45.79702377319336" lon="10.282559394836426">
        <ele>671.1597458945903</ele>
        <time>2017-11-13T12:59:30.673000Z</time>
      </trkpt>
      <trkpt lat="45.79698085784912" lon="10.28221607208252">
        <ele>671.9810989493266</ele>
        <time>2017-11-13T12:59:31.063000Z</time>
      </trkpt>
      <trkpt lat="45.797109603881836" lon="10.28144359588623">
        <ele>675.0</ele>
        <time>2017-11-13T12:59:31.951000Z</time>
      </trkpt>
      <trkpt lat="45.79702385701239" lon="10.280821323394775">
        <ele>689.9223980173798</ele>
        <time>2017-11-13T12:59:32.660000Z</time>
      </trkpt>
      <trkpt lat="45.79670190811157" lon="10.279684066772461">
        <ele>708.7159621589917</ele>
        <time>2017-11-13T12:59:34.032000Z</time>
      </trkpt>
      <trkpt lat="45.79622983932495" lon="10.278139114379883">
        <ele>681.0</ele>
        <time>2017-11-13T12:59:35.917000Z</time>
      </trkpt>
      <trkpt lat="45.7959508895874" lon="10.2777099609375">
        <ele>675.8764277305036</ele>
        <time>2017-11-13T12:59:36.573000Z</time>
      </trkpt>
      <trkpt lat="45.79556465148926" lon="10.277366638183594">
        <ele>659.5184914952215</ele>
        <time>2017-11-13T12:59:37.301000Z</time>
      </trkpt>
      <trkpt lat="45.79410561360419" lon="10.277023315429688">
        <ele>637.0</ele>
        <time>2017-11-13T12:59:39.671000Z</time>
      </trkpt>
      <trkpt lat="45.79356917180121" lon="10.277066230773926">
        <ele>640.1518403884221</ele>
        <time>2017-11-13T12:59:40.532000Z</time>
      </trkpt>
      <trkpt lat="45.79352625645697" lon="10.277066230773926">
        <ele>640.8190213439258</ele>
        <time>2017-11-13T12:59:40.601000Z</time>
      </trkpt>
      <trkpt lat="45.79322576522827" lon="10.277001857757568">
        <ele>646.2090842366124</ele>
        <time>2017-11-13T12:59:41.088000Z</time>
      </trkpt>
      <trkpt lat="45.7930326461792" lon="10.276787281036377">
        <ele>650.0069803080561</ele>
        <time>2017-11-13T12:59:41.480000Z</time>
      </trkpt>
      <trkpt lat="45.79296827316284" lon="10.276615619659424">
        <ele>659.4531388698241</ele>
        <time>2017-11-13T12:59:41.698000Z</time>
      </trkpt>
      <trkpt lat="45.7929253578186" lon="10.276486873626709">
        <ele>661.0</ele>
        <time>2017-11-13T12:59:41.858000Z</time>
      </trkpt>
      <trkpt lat="45.79253920353949" lon="10.27522087097168">
        <ele>659.3187875782883</ele>
        <time>2017-11-13T12:59:43.403000Z</time>
      </trkpt>
      <trkpt lat="45.79223879612982" lon="10.2742338180542">
        <ele>644.8173870954125</ele>
        <time>2017-11-13T12:59:44.607000Z</time>
      </trkpt>
      <trkpt lat="45.79202421940863" lon="10.273289680480957">
        <ele>648.7305556318936</ele>
        <time>2017-11-13T12:59:45.717000Z</time>
      </trkpt>
      <trkpt lat="45.79200276173651" lon="10.273182392120361">
        <ele>648.8698378150665</ele>
        <time>2017-11-13T12:59:45.842000Z</time>
      </trkpt>
      <trkpt lat="45.79198130406439" lon="10.273160934448242">
        <ele>648.749663085346</ele>
        <time>2017-11-13T12:59:45.884000Z</time>
      </trkpt>
      <trkpt lat="45.79174518585205" lon="10.272860527038574">
        <ele>647.2996096964463</ele>
        <time>2017-11-13T12:59:46.390000Z</time>
      </trkpt>
      <trkpt lat="45.79157360829413" lon="10.272216796875">
        <ele>638.7587024460872</ele>
        <time>2017-11-13T12:59:47.160000Z</time>
      </trkpt>
      <trkpt lat="45.7915735244751" lon="10.272216796875">
        <ele>638.7583173779209</ele>
        <time>2017-11-13T12:59:47.160000Z</time>
      </trkpt>
      <trkpt lat="45.791380405426025" lon="10.27097225189209">
        <ele>636.0074803599838</ele>
        <time>2017-11-13T12:59:48.585000Z</time>
      </trkpt>
      <trkpt lat="45.79123020172119" lon="10.270435810089111">
        <ele>636.0186111309321</ele>
        <time>2017-11-13T12:59:49.231000Z</time>
      </trkpt>
      <trkpt lat="45.791015625" lon="10.26998519897461">
        <ele>636.8304886614261</ele>
        <time>2017-11-13T12:59:49.841000Z</time>
      </trkpt>
      <trkpt lat="45.79035043716431" lon="10.269169807434082">
        <ele>626.997980220952</ele>
        <time>2017-11-13T12:59:51.244000Z</time>
      </trkpt>
      <trkpt lat="45.79013594426215" lon="10.268654823303223">
        <ele>633.9978782624266</ele>
        <time>2017-11-13T12:59:51.915000Z</time>
      </trkpt>
      <trkpt lat="45.789899826049805" lon="10.268161296844482">
        <ele>627.1008562073603</ele>
        <time>2017-11-13T12:59:52.584000Z</time>
      </trkpt>
      <trkpt lat="45.7895565032959" lon="10.266852378845215">
        <ele>625.5701000539535</ele>
        <time>2017-11-13T12:59:54.147000Z</time>
      </trkpt>
      <trkpt lat="45.78934201039374" lon="10.26648759841919">
        <ele>625.8365998414464</ele>
        <time>2017-11-13T12:59:54.680000Z</time>
      </trkpt>
      <trkpt lat="45.78927763737738" lon="10.266401767730713">
        <ele>625.6428295977944</ele>
        <time>2017-11-13T12:59:54.821000Z</time>
      </trkpt>
      <trkpt lat="45.789213264361024" lon="10.266315937042236">
        <ele>625.449059250387</ele>
        <time>2017-11-13T12:59:54.962000Z</time>
      </trkpt>
      <trkpt lat="45.788719737902284" lon="10.265929698944092">
        <ele>618.2096106946416</ele>
        <time>2017-11-13T12:59:55.863000Z</time>
      </trkpt>
      <trkpt lat="45.78871965408325" lon="10.265929698944092">
        <ele>618.2093999445646</ele>
        <time>2017-11-13T12:59:55.863000Z</time>
      </trkpt>
      <trkpt lat="45.788462245836854" lon="10.265758037567139">
        <ele>621.4956296671395</ele>
        <time>2017-11-13T12:59:56.318000Z</time>
      </trkpt>
      <trkpt lat="45.787925804033875" lon="10.265393257141113">
        <ele>612.8020721155656</ele>
        <time>2017-11-13T12:59:57.270000Z</time>
      </trkpt>
      <trkpt lat="45.78760385513306" lon="10.26522159576416">
        <ele>609.7009111094055</ele>
        <time>2017-11-13T12:59:57.821000Z</time>
      </trkpt>
      <trkpt lat="45.78747519291937" lon="10.265071392059326">
        <ele>603.5363551515436</ele>
        <time>2017-11-13T12:59:58.087000Z</time>
      </trkpt>
      <trkpt lat="45.78700304031372" lon="10.264534950256348">
        <ele>606.3026316842684</ele>
        <time>2017-11-13T12:59:59.053000Z</time>
      </trkpt>
      <trkpt lat="45.7862735632807" lon="10.263526439666748">
        <ele>598.0</ele>
        <time>2017-11-13T13:00:00.677000Z</time>
      </trkpt>
      <trkpt lat="45.78627347946167" lon="10.263526439666748">
        <ele>598.0008353973648</ele>
        <time>2017-11-13T13:00:00.677000Z</time>
      </trkpt>
      <trkpt lat="45.786166274920106" lon="10.263397693634033">
        <ele>599.3945027378066</ele>
        <time>2017-11-13T13:00:00.901000Z</time>
      </trkpt>
      <trkpt lat="45.785930240526795" lon="10.26322603225708">
        <ele>604.0322269763307</ele>
        <time>2017-11-13T13:00:01.325000Z</time>
      </trkpt>
      <trkpt lat="45.78543663024902" lon="10.263183116912842">
        <ele>617.9609154674798</ele>
        <time>2017-11-13T13:00:02.118000Z</time>
      </trkpt>
      <trkpt lat="45.785136222839355" lon="10.263268947601318">
        <ele>615.7597793600567</ele>
        <time>2017-11-13T13:00:02.609000Z</time>
      </trkpt>
      <trkpt lat="45.784878730773926" lon="10.263354778289795">
        <ele>599.5267953485829</ele>
        <time>2017-11-13T13:00:03.033000Z</time>
      </trkpt>
      <trkpt lat="45.784621238708496" lon="10.263311862945557">
        <ele>618.9398167112073</ele>
        <time>2017-11-13T13:00:03.449000Z</time>
      </trkpt>
      <trkpt lat="45.783226573839784" lon="10.262625217437744">
        <ele>596.3713912344577</ele>
        <time>2017-11-13T13:00:05.813000Z</time>
      </trkpt>
      <trkpt lat="45.78309774398804" lon="10.262560844421387">
        <ele>596.557988165679</ele>
        <time>2017-11-13T13:00:06.032000Z</time>
      </trkpt>
      <trkpt lat="45.78277596272528" lon="10.262603759765625">
        <ele>597.0</ele>
        <time>2017-11-13T13:00:06.550000Z</time>
      </trkpt>
      <trkpt lat="45.782733610083554" lon="10.262610647843227">
        <ele>596.6462137375248</ele>
        <time>2017-11-13T13:00:06.618000Z</time>
      </trkpt>
      <trkpt lat="45.782666365340944" lon="10.262621584258868">
        <ele>596.0844951537964</ele>
        <time>2017-11-13T13:00:06.727000Z</time>
      </trkpt>
      <trkpt lat="45.782637326046824" lon="10.262626307085156">
        <ele>595.8419198939339</ele>
        <time>2017-11-13T13:00:06.774000Z</time>
      </trkpt>
      <trkpt lat="45.782637409865856" lon="10.262626307085156">
        <ele>595.8412241850702</ele>
        <time>2017-11-13T13:00:06.774000Z</time>
      </trkpt>
      <trkpt lat="45.78159579075873" lon="10.262796878814697">
        <ele>580.4727884209223</ele>
        <time>2017-11-13T13:00:08.455000Z</time>
      </trkpt>
      <trkpt lat="45.781445587053895" lon="10.262818336486816">
        <ele>580.0669738391765</ele>
        <time>2017-11-13T13:00:08.697000Z</time>
      </trkpt>
      <trkpt lat="45.78030833043158" lon="10.262947082519531">
        <ele>577.0</ele>
        <time>2017-11-13T13:00:10.526000Z</time>
      </trkpt>
      <trkpt lat="45.78030824661255" lon="10.262947082519531">
        <ele>576.9996952386541</ele>
        <time>2017-11-13T13:00:10.526000Z</time>
      </trkpt>
      <trkpt lat="45.77919244766235" lon="10.263032913208008">
        <ele>570.2702116410986</ele>
        <time>2017-11-13T13:00:12.317000Z</time>
      </trkpt>
      <trkpt lat="45.77904224395752" lon="10.26298999786377">
        <ele>567.7229385111647</ele>
        <time>2017-11-13T13:00:12.563000Z</time>
      </trkpt>
      <trkpt lat="45.77833414077759" lon="10.262281894683838">
        <ele>566.6380862540157</ele>
        <time>2017-11-13T13:00:13.947000Z</time>
      </trkpt>
      <trkpt lat="45.77826985158026" lon="10.262389183044434">
        <ele>562.8114912827909</ele>
        <time>2017-11-13T13:00:14.105000Z</time>
      </trkpt>
      <trkpt lat="45.77807673253119" lon="10.262753963470459">
        <ele>561.2144502101654</ele>
        <time>2017-11-13T13:00:14.617000Z</time>
      </trkpt>
      <trkpt lat="45.77807664871216" lon="10.262753963470459">
        <ele>561.214129543861</ele>
        <time>2017-11-13T13:00:14.617000Z</time>
      </trkpt>
      <trkpt lat="45.77796936035156" lon="10.262839794158936">
        <ele>560.7441097370055</ele>
        <time>2017-11-13T13:00:14.814000Z</time>
      </trkpt>
      <trkpt lat="45.777390003204346" lon="10.262753963470459">
        <ele>559.1825307282512</ele>
        <time>2017-11-13T13:00:15.748000Z</time>
      </trkpt>
      <trkpt lat="45.776660442352295" lon="10.26296854019165">
        <ele>554.0</ele>
        <time>2017-11-13T13:00:16.942000Z</time>
      </trkpt>
      <trkpt lat="45.77597379684448" lon="10.263397693634033">
        <ele>558.5809781857936</ele>
        <time>2017-11-13T13:00:18.143000Z</time>
      </trkpt>
      <trkpt lat="45.77526569366455" lon="10.263612270355225">
        <ele>555.8089975917522</ele>
        <time>2017-11-13T13:00:19.303000Z</time>
      </trkpt>
      <trkpt lat="45.774943828582764" lon="10.263569355010986">
        <ele>556.6170168004653</ele>
        <time>2017-11-13T13:00:19.821000Z</time>
      </trkpt>
      <trkpt lat="45.774686336517334" lon="10.26346206665039">
        <ele>557.2872843580508</ele>
        <time>2017-11-13T13:00:20.251000Z</time>
      </trkpt>
      <trkpt lat="45.77427864074707" lon="10.263097286224365">
        <ele>560.2462640731333</ele>
        <time>2017-11-13T13:00:21.021000Z</time>
      </trkpt>
      <trkpt lat="45.773935317993164" lon="10.263075828552246">
        <ele>557.2376242811569</ele>
        <time>2017-11-13T13:00:21.572000Z</time>
      </trkpt>
      <trkpt lat="45.77359199523926" lon="10.262861251831055">
        <ele>555.4117847851348</ele>
        <time>2017-11-13T13:00:22.172000Z</time>
      </trkpt>
      <trkpt lat="45.77322721481323" lon="10.262839794158936">
        <ele>550.6319644236951</ele>
        <time>2017-11-13T13:00:22.757000Z</time>
      </trkpt>
      <trkpt lat="45.77254056930542" lon="10.263161659240723">
        <ele>550.3304398647477</ele>
        <time>2017-11-13T13:00:23.915000Z</time>
      </trkpt>
      <trkpt lat="45.77181100845337" lon="10.263290405273438">
        <ele>550.5723422473759</ele>
        <time>2017-11-13T13:00:25.093000Z</time>
      </trkpt>
      <trkpt lat="45.77121019363403" lon="10.263118743896484">
        <ele>547.9063997994093</ele>
        <time>2017-11-13T13:00:26.075000Z</time>
      </trkpt>
      <trkpt lat="45.770630836486816" lon="10.26322603225708">
        <ele>544.0</ele>
        <time>2017-11-13T13:00:27.012000Z</time>
      </trkpt>
      <trkpt lat="45.769429206848145" lon="10.263011455535889">
        <ele>540.8836131629206</ele>
        <time>2017-11-13T13:00:28.953000Z</time>
      </trkpt>
      <trkpt lat="45.76908588409424" lon="10.26271104812622">
        <ele>541.8247203867285</ele>
        <time>2017-11-13T13:00:29.598000Z</time>
      </trkpt>
      <trkpt lat="45.76801308430731" lon="10.262539386749268">
        <ele>541.0</ele>
        <time>2017-11-13T13:00:31.329000Z</time>
      </trkpt>
      <trkpt lat="45.76801308430731" lon="10.26247501373291">
        <ele>550.1777094817153</ele>
        <time>2017-11-13T13:00:31.401000Z</time>
      </trkpt>
      <trkpt lat="45.7678843382746" lon="10.262196063995361">
        <ele>551.1010845130623</ele>
        <time>2017-11-13T13:00:31.775000Z</time>
      </trkpt>
      <trkpt lat="45.76781996525824" lon="10.262067317962646">
        <ele>551.5383767936288</ele>
        <time>2017-11-13T13:00:31.952000Z</time>
      </trkpt>
      <trkpt lat="45.76732635498047" lon="10.262024402618408">
        <ele>545.828766581236</ele>
        <time>2017-11-13T13:00:32.745000Z</time>
      </trkpt>
      <trkpt lat="45.76696157455444" lon="10.26172399520874">
        <ele>547.8366232147724</ele>
        <time>2017-11-13T13:00:33.419000Z</time>
      </trkpt>
      <trkpt lat="45.76687574386597" lon="10.261445045471191">
        <ele>552.1850232728066</ele>
        <time>2017-11-13T13:00:33.760000Z</time>
      </trkpt>
      <trkpt lat="45.76689728535712" lon="10.260887145996094">
        <ele>554.045333653799</ele>
        <time>2017-11-13T13:00:34.385000Z</time>
      </trkpt>
      <trkpt lat="45.7670259475708" lon="10.260114669799805">
        <ele>556.4002415287537</ele>
        <time>2017-11-13T13:00:35.273000Z</time>
      </trkpt>
      <trkpt lat="45.76704740524292" lon="10.259556770324707">
        <ele>559.7192664293793</ele>
        <time>2017-11-13T13:00:35.898000Z</time>
      </trkpt>
      <trkpt lat="45.76678991317749" lon="10.258526802062988">
        <ele>568.5936209845262</ele>
        <time>2017-11-13T13:00:37.122000Z</time>
      </trkpt>
      <trkpt lat="45.76661833561957" lon="10.258162021636963">
        <ele>564.954673054776</ele>
        <time>2017-11-13T13:00:37.614000Z</time>
      </trkpt>
      <trkpt lat="45.76558828353882" lon="10.256896018981934">
        <ele>560.8146974963347</ele>
        <time>2017-11-13T13:00:39.789000Z</time>
      </trkpt>
      <trkpt lat="45.7651162147522" lon="10.25597333908081">
        <ele>578.0</ele>
        <time>2017-11-13T13:00:41.069000Z</time>
      </trkpt>
      <trkpt lat="45.76483726501465" lon="10.25475025177002">
        <ele>561.1042302549567</ele>
        <time>2017-11-13T13:00:42.508000Z</time>
      </trkpt>
      <trkpt lat="45.76453685760498" lon="10.25374174118042">
        <ele>557.4624717161616</ele>
        <time>2017-11-13T13:00:43.734000Z</time>
      </trkpt>
      <trkpt lat="45.764172077178955" lon="10.252819061279297">
        <ele>567.0</ele>
        <time>2017-11-13T13:00:44.920000Z</time>
      </trkpt>
      <trkpt lat="45.76367863453925" lon="10.251767635345459">
        <ele>536.5532108931626</ele>
        <time>2017-11-13T13:00:46.337000Z</time>
      </trkpt>
      <trkpt lat="45.763464057818055" lon="10.251402854919434">
        <ele>529.3994557857957</ele>
        <time>2017-11-13T13:00:46.871000Z</time>
      </trkpt>
      <trkpt lat="45.762970531359315" lon="10.250909328460693">
        <ele>515.5559096281141</ele>
        <time>2017-11-13T13:00:47.836000Z</time>
      </trkpt>
      <trkpt lat="45.76251983642578" lon="10.250458717346191">
        <ele>514.4578081780238</ele>
        <time>2017-11-13T13:00:48.717000Z</time>
      </trkpt>
      <trkpt lat="45.76206930913031" lon="10.249600410461426">
        <ele>509.59665394028826</ele>
        <time>2017-11-13T13:00:49.918000Z</time>
      </trkpt>
      <trkpt lat="45.76185473240912" lon="10.249192714691162">
        <ele>513.7556577988689</ele>
        <time>2017-11-13T13:00:50.489000Z</time>
      </trkpt>
      <trkpt lat="45.76179035939276" lon="10.249106884002686">
        <ele>521.7819262202689</ele>
        <time>2017-11-13T13:00:50.630000Z</time>
      </trkpt>
      <trkpt lat="45.76168307103217" lon="10.24897813796997">
        <ele>523.4152581269824</ele>
        <time>2017-11-13T13:00:50.854000Z</time>
      </trkpt>
      <trkpt lat="45.76148986816406" lon="10.248720645904541">
        <ele>515.3765856453692</ele>
        <time>2017-11-13T13:00:51.277000Z</time>
      </trkpt>
      <trkpt lat="45.76136120595038" lon="10.248548984527588">
        <ele>514.7757630345561</ele>
        <time>2017-11-13T13:00:51.559000Z</time>
      </trkpt>
      <trkpt lat="45.76065310277045" lon="10.248055458068848">
        <ele>512.7510555537604</ele>
        <time>2017-11-13T13:00:52.821000Z</time>
      </trkpt>
      <trkpt lat="45.76039561070502" lon="10.247862339019775">
        <ele>513.7054810285576</ele>
        <time>2017-11-13T13:00:53.287000Z</time>
      </trkpt>
      <trkpt lat="45.760395526885986" lon="10.247862339019775">
        <ele>513.705756307268</ele>
        <time>2017-11-13T13:00:53.288000Z</time>
      </trkpt>
      <trkpt lat="45.76024532318115" lon="10.24773359298706">
        <ele>514.2805294665204</ele>
        <time>2017-11-13T13:00:53.569000Z</time>
      </trkpt>
      <trkpt lat="45.76003074645996" lon="10.247433185577393">
        <ele>518.2656180075705</ele>
        <time>2017-11-13T13:00:54.050000Z</time>
      </trkpt>
      <trkpt lat="45.7599663734436" lon="10.247197151184082">
        <ele>511.8462919004526</ele>
        <time>2017-11-13T13:00:54.333000Z</time>
      </trkpt>
      <trkpt lat="45.75973033905029" lon="10.245416164398193">
        <ele>524.0</ele>
        <time>2017-11-13T13:00:56.361000Z</time>
      </trkpt>
      <trkpt lat="45.759429931640625" lon="10.244836807250977">
        <ele>551.2527874568201</ele>
        <time>2017-11-13T13:00:57.168000Z</time>
      </trkpt>
      <trkpt lat="45.7590651512146" lon="10.244557857513428">
        <ele>535.7055262496242</ele>
        <time>2017-11-13T13:00:57.831000Z</time>
      </trkpt>
      <trkpt lat="45.75855016708374" lon="10.244557857513428">
        <ele>530.8719379272305</ele>
        <time>2017-11-13T13:00:58.657000Z</time>
      </trkpt>
      <trkpt lat="45.75837850570679" lon="10.24449348449707">
        <ele>529.2152889311091</ele>
        <time>2017-11-13T13:00:58.941000Z</time>
      </trkpt>
      <trkpt lat="45.75777777470648" lon="10.243914127349854">
        <ele>532.7282761358662</ele>
        <time>2017-11-13T13:01:00.102000Z</time>
      </trkpt>
      <trkpt lat="45.75777769088745" lon="10.243914127349854">
        <ele>532.7284898699367</ele>
        <time>2017-11-13T13:01:00.102000Z</time>
      </trkpt>
      <trkpt lat="45.756919384002686" lon="10.243120193481445">
        <ele>536.0</ele>
        <time>2017-11-13T13:01:01.740000Z</time>
      </trkpt>
      <trkpt lat="45.75676918029785" lon="10.243055820465088">
        <ele>534.108970892153</ele>
        <time>2017-11-13T13:01:01.991000Z</time>
      </trkpt>
      <trkpt lat="45.75597524642944" lon="10.242884159088135">
        <ele>517.7574660097839</ele>
        <time>2017-11-13T13:01:03.278000Z</time>
      </trkpt>
      <trkpt lat="45.75561054982245" lon="10.242648124694824">
        <ele>509.3028589453367</ele>
        <time>2017-11-13T13:01:03.920000Z</time>
      </trkpt>
      <trkpt lat="45.75539588928223" lon="10.24251937866211">
        <ele>507.10010345408347</ele>
        <time>2017-11-13T13:01:04.293000Z</time>
      </trkpt>
      <trkpt lat="45.75500965118408" lon="10.242433547973633">
        <ele>515.7335608596</ele>
        <time>2017-11-13T13:01:04.920000Z</time>
      </trkpt>
      <trkpt lat="45.753743732348084" lon="10.242648124694824">
        <ele>486.0</ele>
        <time>2017-11-13T13:01:06.964000Z</time>
      </trkpt>
      <trkpt lat="45.75374364852905" lon="10.242648124694824">
        <ele>486.0</ele>
        <time>2017-11-13T13:01:06.964000Z</time>
      </trkpt>
      <trkpt lat="45.75337886810303" lon="10.242691040039062">
        <ele>486.0</ele>
        <time>2017-11-13T13:01:07.551000Z</time>
      </trkpt>
      <trkpt lat="45.75325154125789" lon="10.242659208302138">
        <ele>485.3333333333333</ele>
        <time>2017-11-13T13:01:07.758000Z</time>
      </trkpt>
      <trkpt lat="45.753207206726074" lon="10.242648124694824">
        <ele>485.3333333333333</ele>
        <time>2017-11-13T13:01:07.830000Z</time>
      </trkpt>
      <trkpt lat="45.7531858117058" lon="10.242636914284503">
        <ele>485.3333333333333</ele>
        <time>2017-11-13T13:01:07.867000Z</time>
      </trkpt>
      <trkpt lat="45.75315825641155" lon="10.24262247607112">
        <ele>485.3333333333333</ele>
        <time>2017-11-13T13:01:07.914000Z</time>
      </trkpt>
      <trkpt lat="45.753158424049616" lon="10.24262247607112">
        <ele>485.3333333333333</ele>
        <time>2017-11-13T13:01:07.914000Z</time>
      </trkpt>
      <trkpt lat="45.75198411941528" lon="10.24200439453125">
        <ele>486.0</ele>
        <time>2017-11-13T13:01:09.920000Z</time>
      </trkpt>
      <trkpt lat="45.75151205062866" lon="10.24176836013794">
        <ele>484.4647944054348</ele>
        <time>2017-11-13T13:01:10.722000Z</time>
      </trkpt>
      <trkpt lat="45.75084686279297" lon="10.241231918334961">
        <ele>488.9988153505487</ele>
        <time>2017-11-13T13:01:11.946000Z</time>
      </trkpt>
      <trkpt lat="45.749945640563965" lon="10.241231918334961">
        <ele>474.0</ele>
        <time>2017-11-13T13:01:13.391000Z</time>
      </trkpt>
      <trkpt lat="45.749495113268495" lon="10.241146087646484">
        <ele>474.21810034223364</ele>
        <time>2017-11-13T13:01:14.120000Z</time>
      </trkpt>
      <trkpt lat="45.74857243336737" lon="10.240931510925293">
        <ele>475.0</ele>
        <time>2017-11-13T13:01:15.619000Z</time>
      </trkpt>
      <trkpt lat="45.74829339981079" lon="10.240781307220459">
        <ele>476.8991330892063</ele>
        <time>2017-11-13T13:01:16.097000Z</time>
      </trkpt>
      <trkpt lat="45.747177600860596" lon="10.240030288696289">
        <ele>477.19389051093503</ele>
        <time>2017-11-13T13:01:18.073000Z</time>
      </trkpt>
      <trkpt lat="45.746684074401855" lon="10.240030288696289">
        <ele>476.9575477070718</ele>
        <time>2017-11-13T13:01:18.864000Z</time>
      </trkpt>
      <trkpt lat="45.74608334340155" lon="10.240159034729004">
        <ele>476.0</ele>
        <time>2017-11-13T13:01:19.838000Z</time>
      </trkpt>
      <trkpt lat="45.74558973312378" lon="10.24050235748291">
        <ele>478.11299924584506</ele>
        <time>2017-11-13T13:01:20.718000Z</time>
      </trkpt>
      <trkpt lat="45.74533224105835" lon="10.24052381515503">
        <ele>479.26298173111263</ele>
        <time>2017-11-13T13:01:21.131000Z</time>
      </trkpt>
      <trkpt lat="45.745224952697754" lon="10.240459442138672">
        <ele>479.78157226351095</ele>
        <time>2017-11-13T13:01:21.317000Z</time>
      </trkpt>
      <trkpt lat="45.74503183364868" lon="10.24024486541748">
        <ele>482.771035275284</ele>
        <time>2017-11-13T13:01:21.709000Z</time>
      </trkpt>
      <trkpt lat="45.744194984436035" lon="10.238292217254639">
        <ele>516.0</ele>
        <time>2017-11-13T13:01:24.273000Z</time>
      </trkpt>
      <trkpt lat="45.743958950042725" lon="10.23801326751709">
        <ele>503.9513687888628</ele>
        <time>2017-11-13T13:01:24.763000Z</time>
      </trkpt>
      <trkpt lat="45.74365854263306" lon="10.237798690795898">
        <ele>498.77824183762647</ele>
        <time>2017-11-13T13:01:25.301000Z</time>
      </trkpt>
      <trkpt lat="45.74337959289551" lon="10.237734317779541">
        <ele>494.42374762590936</ele>
        <time>2017-11-13T13:01:25.754000Z</time>
      </trkpt>
      <trkpt lat="45.742778861895204" lon="10.238034725189209">
        <ele>480.73567090968504</ele>
        <time>2017-11-13T13:01:26.774000Z</time>
      </trkpt>
      <trkpt lat="45.74207067489624" lon="10.238378047943115">
        <ele>467.44754575640474</ele>
        <time>2017-11-13T13:01:27.973000Z</time>
      </trkpt>
      <trkpt lat="45.74177026748657" lon="10.238420963287354">
        <ele>466.34996078100403</ele>
        <time>2017-11-13T13:01:28.457000Z</time>
      </trkpt>
      <trkpt lat="45.741448402404785" lon="10.238356590270996">
        <ele>463.5017675669107</ele>
        <time>2017-11-13T13:01:28.978000Z</time>
      </trkpt>
      <trkpt lat="45.74065446853638" lon="10.237841606140137">
        <ele>461.0</ele>
        <time>2017-11-13T13:01:30.375000Z</time>
      </trkpt>
      <trkpt lat="45.73952148243353" lon="10.237086280747107">
        <ele>461.1244025417641</ele>
        <time>2017-11-13T13:01:32.378000Z</time>
      </trkpt>
      <trkpt lat="45.7394601229194" lon="10.237045375302367">
        <ele>461.0331621410955</ele>
        <time>2017-11-13T13:01:32.486000Z</time>
      </trkpt>
      <trkpt lat="45.73943314142525" lon="10.237027388066053">
        <ele>460.99304119467</ele>
        <time>2017-11-13T13:01:32.534000Z</time>
      </trkpt>
      <trkpt lat="45.739433309063315" lon="10.237027471885085">
        <ele>460.9928018197902</ele>
        <time>2017-11-13T13:01:32.534000Z</time>
      </trkpt>
      <trkpt lat="45.73930263519287" lon="10.236940383911133">
        <ele>460.79850255555533</ele>
        <time>2017-11-13T13:01:32.765000Z</time>
      </trkpt>
      <trkpt lat="45.73780059814453" lon="10.236232280731201">
        <ele>457.0</ele>
        <time>2017-11-13T13:01:35.300000Z</time>
      </trkpt>
      <trkpt lat="45.73752164840698" lon="10.236039161682129">
        <ele>456.72893839151055</ele>
        <time>2017-11-13T13:01:35.797000Z</time>
      </trkpt>
      <trkpt lat="45.73726415634155" lon="10.2357816696167">
        <ele>456.23076034541265</ele>
        <time>2017-11-13T13:01:36.300000Z</time>
      </trkpt>
      <trkpt lat="45.73692083358765" lon="10.235223770141602">
        <ele>457.0603930753589</ele>
        <time>2017-11-13T13:01:37.132000Z</time>
      </trkpt>
      <trkpt lat="45.73651313781738" lon="10.234043598175049">
        <ele>469.8375569431696</ele>
        <time>2017-11-13T13:01:38.605000Z</time>
      </trkpt>
      <trkpt lat="45.73632001876831" lon="10.233657360076904">
        <ele>473.5223093517493</ele>
        <time>2017-11-13T13:01:39.137000Z</time>
      </trkpt>
      <trkpt lat="45.73561191558838" lon="10.233056545257568">
        <ele>489.0</ele>
        <time>2017-11-13T13:01:40.456000Z</time>
      </trkpt>
      <trkpt lat="45.735225761309266" lon="10.232927799224854">
        <ele>485.982616854313</ele>
        <time>2017-11-13T13:01:41.092000Z</time>
      </trkpt>
      <trkpt lat="45.735225677490234" lon="10.232927799224854">
        <ele>485.98197894295305</ele>
        <time>2017-11-13T13:01:41.092000Z</time>
      </trkpt>
      <trkpt lat="45.73486089706421" lon="10.232927799224854">
        <ele>482.8724553712862</ele>
        <time>2017-11-13T13:01:41.677000Z</time>
      </trkpt>
      <trkpt lat="45.734496116638184" lon="10.23301362991333">
        <ele>476.144121971703</ele>
        <time>2017-11-13T13:01:42.270000Z</time>
      </trkpt>
      <trkpt lat="45.7341742515564" lon="10.23327112197876">
        <ele>469.43440247140944</ele>
        <time>2017-11-13T13:01:42.861000Z</time>
      </trkpt>
      <trkpt lat="45.73404550552368" lon="10.233421325683594">
        <ele>451.74575107800734</ele>
        <time>2017-11-13T13:01:43.127000Z</time>
      </trkpt>
      <trkpt lat="45.73387384414673" lon="10.233979225158691">
        <ele>444.0</ele>
        <time>2017-11-13T13:01:43.809000Z</time>
      </trkpt>
      <trkpt lat="45.73363780975342" lon="10.234408378601074">
        <ele>441.57688920650213</ele>
        <time>2017-11-13T13:01:44.420000Z</time>
      </trkpt>
      <trkpt lat="45.732929706573486" lon="10.235309600830078">
        <ele>444.84845308720605</ele>
        <time>2017-11-13T13:01:45.938000Z</time>
      </trkpt>
      <trkpt lat="45.73252201080322" lon="10.235610008239746">
        <ele>445.6856319508732</ele>
        <time>2017-11-13T13:01:46.673000Z</time>
      </trkpt>
      <trkpt lat="45.732221603393555" lon="10.235631465911865">
        <ele>447.5682122524193</ele>
        <time>2017-11-13T13:01:47.155000Z</time>
      </trkpt>
      <trkpt lat="45.73187828063965" lon="10.235459804534912">
        <ele>447.45700552416474</ele>
        <time>2017-11-13T13:01:47.738000Z</time>
      </trkpt>
      <trkpt lat="45.731492042541504" lon="10.234880447387695">
        <ele>458.1691525292479</ele>
        <time>2017-11-13T13:01:48.635000Z</time>
      </trkpt>
      <trkpt lat="45.731234550476074" lon="10.234687328338623">
        <ele>460.09848240831246</ele>
        <time>2017-11-13T13:01:49.101000Z</time>
      </trkpt>
      <trkpt lat="45.730698108673096" lon="10.234816074371338">
        <ele>468.0424087551869</ele>
        <time>2017-11-13T13:01:49.973000Z</time>
      </trkpt>
      <trkpt lat="45.730247497558594" lon="10.23503065109253">
        <ele>447.13751174139844</ele>
        <time>2017-11-13T13:01:50.734000Z</time>
      </trkpt>
      <trkpt lat="45.73007592000067" lon="10.235180854797363">
        <ele>445.18546396158644</ele>
        <time>2017-11-13T13:01:51.056000Z</time>
      </trkpt>
      <trkpt lat="45.73007583618164" lon="10.235180854797363">
        <ele>445.18465024991974</ele>
        <time>2017-11-13T13:01:51.056000Z</time>
      </trkpt>
      <trkpt lat="45.73005446232855" lon="10.235223770141602">
        <ele>444.8273973166652</ele>
        <time>2017-11-13T13:01:51.115000Z</time>
      </trkpt>
      <trkpt lat="45.73005437850952" lon="10.235223770141602">
        <ele>444.8265836049986</ele>
        <time>2017-11-13T13:01:51.115000Z</time>
      </trkpt>
      <trkpt lat="45.729475021362305" lon="10.23576021194458">
        <ele>436.4630248546868</ele>
        <time>2017-11-13T13:01:52.221000Z</time>
      </trkpt>
      <trkpt lat="45.72932481765747" lon="10.235846042633057">
        <ele>435.8002199773723</ele>
        <time>2017-11-13T13:01:52.480000Z</time>
      </trkpt>
      <trkpt lat="45.72904586791992" lon="10.235846042633057">
        <ele>436.53185770502984</ele>
        <time>2017-11-13T13:01:52.927000Z</time>
      </trkpt>
      <trkpt lat="45.72865962982178" lon="10.235545635223389">
        <ele>441.5934376384948</ele>
        <time>2017-11-13T13:01:53.632000Z</time>
      </trkpt>
      <trkpt lat="45.72833776473999" lon="10.234816074371338">
        <ele>452.0</ele>
        <time>2017-11-13T13:01:54.598000Z</time>
      </trkpt>
      <trkpt lat="45.727972984313965" lon="10.233850479125977">
        <ele>449.43695280540254</ele>
        <time>2017-11-13T13:01:55.827000Z</time>
      </trkpt>
      <trkpt lat="45.72735071182251" lon="10.232927799224854">
        <ele>444.670641078852</ele>
        <time>2017-11-13T13:01:57.263000Z</time>
      </trkpt>
      <trkpt lat="45.726943016052246" lon="10.232648849487305">
        <ele>442.6551566710964</ele>
        <time>2017-11-13T13:01:57.987000Z</time>
      </trkpt>
      <trkpt lat="45.726749897003174" lon="10.232627391815186">
        <ele>441.0692501378515</ele>
        <time>2017-11-13T13:01:58.298000Z</time>
      </trkpt>
      <trkpt lat="45.72580575942993" lon="10.232734680175781">
        <ele>425.6481961240934</ele>
        <time>2017-11-13T13:01:59.816000Z</time>
      </trkpt>
      <trkpt lat="45.725483894348145" lon="10.232627391815186">
        <ele>422.94252680751623</ele>
        <time>2017-11-13T13:02:00.346000Z</time>
      </trkpt>
      <trkpt lat="45.72406777180731" lon="10.230846405029297">
        <ele>410.0</ele>
        <time>2017-11-13T13:02:03.367000Z</time>
      </trkpt>
      <trkpt lat="45.723724365234375" lon="10.230331420898438">
        <ele>420.0</ele>
        <time>2017-11-13T13:02:04.164000Z</time>
      </trkpt>
      <trkpt lat="45.7236385345459" lon="10.230138301849365">
        <ele>421.8062847966277</ele>
        <time>2017-11-13T13:02:04.420000Z</time>
      </trkpt>
      <trkpt lat="45.723230838775635" lon="10.229065418243408">
        <ele>446.11083886190437</ele>
        <time>2017-11-13T13:02:05.787000Z</time>
      </trkpt>
      <trkpt lat="45.72310209274292" lon="10.228936672210693">
        <ele>447.88540165139176</ele>
        <time>2017-11-13T13:02:06.039000Z</time>
      </trkpt>
      <trkpt lat="45.72280168533325" lon="10.228893756866455">
        <ele>443.77953071593464</ele>
        <time>2017-11-13T13:02:06.523000Z</time>
      </trkpt>
      <trkpt lat="45.72254419326782" lon="10.22902250289917">
        <ele>440.07036509393964</ele>
        <time>2017-11-13T13:02:06.960000Z</time>
      </trkpt>
      <trkpt lat="45.72238634238423" lon="10.229265332695633">
        <ele>419.5866922363746</ele>
        <time>2017-11-13T13:02:07.331000Z</time>
      </trkpt>
      <trkpt lat="45.722340224484434" lon="10.229336277726183">
        <ele>418.6662877666543</ele>
        <time>2017-11-13T13:02:07.440000Z</time>
      </trkpt>
      <trkpt lat="45.72232014499605" lon="10.229367166757584">
        <ele>418.26554887783146</ele>
        <time>2017-11-13T13:02:07.487000Z</time>
      </trkpt>
      <trkpt lat="45.72232031263411" lon="10.229366915300488">
        <ele>418.2622476176707</ele>
        <time>2017-11-13T13:02:07.487000Z</time>
      </trkpt>
      <trkpt lat="45.72226524353027" lon="10.229451656341553">
        <ele>417.1630167350781</ele>
        <time>2017-11-13T13:02:07.617000Z</time>
      </trkpt>
      <trkpt lat="45.72202920913696" lon="10.229945182800293">
        <ele>411.4966716300822</ele>
        <time>2017-11-13T13:02:08.287000Z</time>
      </trkpt>
      <trkpt lat="45.72183609008789" lon="10.230202674865723">
        <ele>407.6551506606552</ele>
        <time>2017-11-13T13:02:08.710000Z</time>
      </trkpt>
      <trkpt lat="45.721299732103944" lon="10.230460166931152">
        <ele>406.517557622449</ele>
        <time>2017-11-13T13:02:09.617000Z</time>
      </trkpt>
      <trkpt lat="45.720956325531006" lon="10.23052453994751">
        <ele>405.41291249772104</ele>
        <time>2017-11-13T13:02:10.172000Z</time>
      </trkpt>
      <trkpt lat="45.72035551071167" lon="10.230309963226318">
        <ele>404.7979050350047</ele>
        <time>2017-11-13T13:02:11.165000Z</time>
      </trkpt>
      <trkpt lat="45.72018384933472" lon="10.230095386505127">
        <ele>405.13079546039825</ele>
        <time>2017-11-13T13:02:11.530000Z</time>
      </trkpt>
      <trkpt lat="45.719261253252625" lon="10.228636264801025">
        <ele>409.1388936817819</ele>
        <time>2017-11-13T13:02:13.733000Z</time>
      </trkpt>
      <trkpt lat="45.717780673876405" lon="10.226404666900635">
        <ele>412.0</ele>
        <time>2017-11-13T13:02:17.179000Z</time>
      </trkpt>
      <trkpt lat="45.71763038635254" lon="10.226190090179443">
        <ele>411.4698115258632</ele>
        <time>2017-11-13T13:02:17.519000Z</time>
      </trkpt>
      <trkpt lat="45.71640729904175" lon="10.224065780639648">
        <ele>396.0</ele>
        <time>2017-11-13T13:02:20.601000Z</time>
      </trkpt>
      <trkpt lat="45.71589231491089" lon="10.222649574279785">
        <ele>412.0</ele>
        <time>2017-11-13T13:02:22.388000Z</time>
      </trkpt>
      <trkpt lat="45.71537138443381" lon="10.222108553859822">
        <ele>410.1366716808707</ele>
        <time>2017-11-13T13:02:23.420000Z</time>
      </trkpt>
      <trkpt lat="45.715316597156594" lon="10.222051654424284">
        <ele>410.01081695596264</ele>
        <time>2017-11-13T13:02:23.528000Z</time>
      </trkpt>
      <trkpt lat="45.7152924221009" lon="10.222026547417045">
        <ele>409.95528319486056</ele>
        <time>2017-11-13T13:02:23.576000Z</time>
      </trkpt>
      <trkpt lat="45.71529250591993" lon="10.222026715055108">
        <ele>409.9550154659261</ele>
        <time>2017-11-13T13:02:23.576000Z</time>
      </trkpt>
      <trkpt lat="45.71477651596069" lon="10.221490859985352">
        <ele>408.7697247791609</ele>
        <time>2017-11-13T13:02:24.598000Z</time>
      </trkpt>
      <trkpt lat="45.71383246220648" lon="10.221319198608398">
        <ele>398.0353383643753</ele>
        <time>2017-11-13T13:02:26.124000Z</time>
      </trkpt>
      <trkpt lat="45.71383237838745" lon="10.221319198608398">
        <ele>398.0348360936841</ele>
        <time>2017-11-13T13:02:26.124000Z</time>
      </trkpt>
      <trkpt lat="45.71327447891235" lon="10.221083164215088">
        <ele>390.5489006091547</ele>
        <time>2017-11-13T13:02:27.057000Z</time>
      </trkpt>
      <trkpt lat="45.713017070665956" lon="10.220847129821777">
        <ele>390.6179179494313</ele>
        <time>2017-11-13T13:02:27.547000Z</time>
      </trkpt>
      <trkpt lat="45.713016986846924" lon="10.220847129821777">
        <ele>390.6179368762032</ele>
        <time>2017-11-13T13:02:27.547000Z</time>
      </trkpt>
      <trkpt lat="45.711515033617616" lon="10.219731330871582">
        <ele>393.0</ele>
        <time>2017-11-13T13:02:30.260000Z</time>
      </trkpt>
      <trkpt lat="45.7104850653559" lon="10.219430923461914">
        <ele>384.0</ele>
        <time>2017-11-13T13:02:31.945000Z</time>
      </trkpt>
      <trkpt lat="45.71020611561835" lon="10.219109058380127">
        <ele>386.8152623747986</ele>
        <time>2017-11-13T13:02:32.519000Z</time>
      </trkpt>
      <trkpt lat="45.70991627177182" lon="10.218657665855211">
        <ele>383.9063168642048</ele>
        <time>2017-11-13T13:02:33.205000Z</time>
      </trkpt>
      <trkpt lat="45.7098704636092" lon="10.218586326529415">
        <ele>383.92070743748656</ele>
        <time>2017-11-13T13:02:33.314000Z</time>
      </trkpt>
      <trkpt lat="45.709850303828716" lon="10.218554930761456">
        <ele>383.9270406004644</ele>
        <time>2017-11-13T13:02:33.362000Z</time>
      </trkpt>
      <trkpt lat="45.709850303828716" lon="10.218555014580488">
        <ele>383.927053046347</ele>
        <time>2017-11-13T13:02:33.363000Z</time>
      </trkpt>
      <trkpt lat="45.70909023284912" lon="10.217370986938477">
        <ele>386.83253470010146</ele>
        <time>2017-11-13T13:02:35.163000Z</time>
      </trkpt>
      <trkpt lat="45.70878982543945" lon="10.216984748840332">
        <ele>387.0</ele>
        <time>2017-11-13T13:02:35.810000Z</time>
      </trkpt>
      <trkpt lat="45.70842512883246" lon="10.21679162979126">
        <ele>387.15252454156416</ele>
        <time>2017-11-13T13:02:36.433000Z</time>
      </trkpt>
      <trkpt lat="45.708274925127625" lon="10.216727256774902">
        <ele>383.61992960744016</ele>
        <time>2017-11-13T13:02:36.684000Z</time>
      </trkpt>
      <trkpt lat="45.70758819580078" lon="10.215697288513184">
        <ele>391.136968661406</ele>
        <time>2017-11-13T13:02:38.278000Z</time>
      </trkpt>
      <trkpt lat="45.70683726109564" lon="10.214731693267822">
        <ele>390.0</ele>
        <time>2017-11-13T13:02:39.896000Z</time>
      </trkpt>
      <trkpt lat="45.7063437346369" lon="10.214152336120605">
        <ele>380.92727426815594</ele>
        <time>2017-11-13T13:02:40.919000Z</time>
      </trkpt>
      <trkpt lat="45.705549800768495" lon="10.213186740875244">
        <ele>371.0</ele>
        <time>2017-11-13T13:02:42.589000Z</time>
      </trkpt>
      <trkpt lat="45.70419796742499" lon="10.211598873138428">
        <ele>369.3762380126511</ele>
        <time>2017-11-13T13:02:45.392000Z</time>
      </trkpt>
      <trkpt lat="45.70271738804877" lon="10.21003246307373">
        <ele>361.0</ele>
        <time>2017-11-13T13:02:48.343000Z</time>
      </trkpt>
      <trkpt lat="45.702717304229736" lon="10.21003246307373">
        <ele>361.0002364287146</ele>
        <time>2017-11-13T13:02:48.343000Z</time>
      </trkpt>
      <trkpt lat="45.70181608200073" lon="10.208938121795654">
        <ele>366.0</ele>
        <time>2017-11-13T13:02:50.237000Z</time>
      </trkpt>
      <trkpt lat="45.701301181688905" lon="10.207908153533936">
        <ele>362.053093865109</ele>
        <time>2017-11-13T13:02:51.655000Z</time>
      </trkpt>
      <trkpt lat="45.70130109786987" lon="10.207908153533936">
        <ele>362.05285362463246</ele>
        <time>2017-11-13T13:02:51.655000Z</time>
      </trkpt>
      <trkpt lat="45.70045695877391" lon="10.205504143390153">
        <ele>354.0</ele>
        <time>2017-11-13T13:02:54.668000Z</time>
      </trkpt>
      <trkpt lat="45.70042655843075" lon="10.205417570774909">
        <ele>353.945558734931</ele>
        <time>2017-11-13T13:02:54.777000Z</time>
      </trkpt>
      <trkpt lat="45.70041454397142" lon="10.205383356660604">
        <ele>353.9018010227449</ele>
        <time>2017-11-13T13:02:54.820000Z</time>
      </trkpt>
      <trkpt lat="45.70041471160948" lon="10.205383859574795">
        <ele>353.90116427918724</ele>
        <time>2017-11-13T13:02:54.820000Z</time>
      </trkpt>
      <trkpt lat="45.70031404495239" lon="10.205097198486328">
        <ele>353.53453908948404</ele>
        <time>2017-11-13T13:02:55.179000Z</time>
      </trkpt>
      <trkpt lat="45.69960594177246" lon="10.20280122756958">
        <ele>349.0</ele>
        <time>2017-11-13T13:02:57.989000Z</time>
      </trkpt>
      <trkpt lat="45.69945573806763" lon="10.202093124389648">
        <ele>348.1885088054266</ele>
        <time>2017-11-13T13:02:58.818000Z</time>
      </trkpt>
      <trkpt lat="45.69945573806763" lon="10.20153522491455">
        <ele>349.0095891580861</ele>
        <time>2017-11-13T13:02:59.443000Z</time>
      </trkpt>
      <trkpt lat="45.69969185627997" lon="10.199453830718994">
        <ele>347.0</ele>
        <time>2017-11-13T13:03:01.804000Z</time>
      </trkpt>
      <trkpt lat="45.69973477162421" lon="10.19904613494873">
        <ele>346.4393357309447</ele>
        <time>2017-11-13T13:03:02.266000Z</time>
      </trkpt>
      <trkpt lat="45.69975622929633" lon="10.198509693145752">
        <ele>346.1430719361609</ele>
        <time>2017-11-13T13:03:02.868000Z</time>
      </trkpt>
      <trkpt lat="45.69969177246094" lon="10.19780158996582">
        <ele>345.84173803588834</ele>
        <time>2017-11-13T13:03:03.668000Z</time>
      </trkpt>
      <trkpt lat="45.699262619018555" lon="10.195591449737549">
        <ele>344.1310510328208</ele>
        <time>2017-11-13T13:03:06.236000Z</time>
      </trkpt>
      <trkpt lat="45.699219703674316" lon="10.195033550262451">
        <ele>344.0</ele>
        <time>2017-11-13T13:03:06.864000Z</time>
      </trkpt>
      <trkpt lat="45.699219703674316" lon="10.193874835968018">
        <ele>346.0279407850412</ele>
        <time>2017-11-13T13:03:08.161000Z</time>
      </trkpt>
      <trkpt lat="45.69921970407166" lon="10.193220016132116">
        <ele>345.7538150059143</ele>
        <time>2017-11-13T13:03:08.894000Z</time>
      </trkpt>
      <trkpt lat="45.69921970381273" lon="10.19312311929511">
        <ele>345.7762812740759</ele>
        <time>2017-11-13T13:03:09.003000Z</time>
      </trkpt>
      <trkpt lat="45.699219703674316" lon="10.19308090209961">
        <ele>345.786069651741</ele>
        <time>2017-11-13T13:03:09.050000Z</time>
      </trkpt>
      <trkpt lat="45.699219703674316" lon="10.192158222198486">
        <ele>346.0</ele>
        <time>2017-11-13T13:03:10.083000Z</time>
      </trkpt>
      <trkpt lat="45.699262702837586" lon="10.192029476165771">
        <ele>345.88626296454396</ele>
        <time>2017-11-13T13:03:10.243000Z</time>
      </trkpt>
      <trkpt lat="45.69934844970703" lon="10.191965103149414">
        <ele>345.77578120749325</ele>
        <time>2017-11-13T13:03:10.398000Z</time>
      </trkpt>
      <trkpt lat="45.69939136505127" lon="10.191857814788818">
        <ele>345.67724364438874</ele>
        <time>2017-11-13T13:03:10.536000Z</time>
      </trkpt>
      <trkpt lat="45.69936990737915" lon="10.191707611083984">
        <ele>345.5550552786188</ele>
        <time>2017-11-13T13:03:10.708000Z</time>
      </trkpt>
      <trkpt lat="45.699262619018555" lon="10.191621780395508">
        <ele>345.4148121696631</ele>
        <time>2017-11-13T13:03:10.905000Z</time>
      </trkpt>
      <trkpt lat="45.699219703674316" lon="10.191493034362793">
        <ele>345.2323419664737</ele>
        <time>2017-11-13T13:03:11.065000Z</time>
      </trkpt>
      <trkpt lat="45.69921978749335" lon="10.19132137298584">
        <ele>345.0127733293209</ele>
        <time>2017-11-13T13:03:11.257000Z</time>
      </trkpt>
      <trkpt lat="45.699219703674316" lon="10.19108533859253">
        <ele>344.71086648753936</ele>
        <time>2017-11-13T13:03:11.521000Z</time>
      </trkpt>
      <trkpt lat="45.69921978749335" lon="10.190656185150146">
        <ele>343.8286116740073</ele>
        <time>2017-11-13T13:03:12.002000Z</time>
      </trkpt>
      <trkpt lat="45.69920728178098" lon="10.190022978074266">
        <ele>343.01836542082793</ele>
        <time>2017-11-13T13:03:12.711000Z</time>
      </trkpt>
      <trkpt lat="45.699205368544355" lon="10.189926119990258">
        <ele>342.2277599741662</ele>
        <time>2017-11-13T13:03:12.819000Z</time>
      </trkpt>
      <trkpt lat="45.699204532429576" lon="10.18988379277289">
        <ele>342.1735984249015</ele>
        <time>2017-11-13T13:03:12.866000Z</time>
      </trkpt>
      <trkpt lat="45.699204532429576" lon="10.189883457496762">
        <ele>342.17316957989505</ele>
        <time>2017-11-13T13:03:12.866000Z</time>
      </trkpt>
      <trkpt lat="45.6991982460022" lon="10.18956184387207">
        <ele>341.761638907878</ele>
        <time>2017-11-13T13:03:13.226000Z</time>
      </trkpt>
      <trkpt lat="45.6990909576416" lon="10.189046859741211">
        <ele>339.296515568656</ele>
        <time>2017-11-13T13:03:13.828000Z</time>
      </trkpt>
      <trkpt lat="45.69891929626465" lon="10.188596248626709">
        <ele>339.65249190184517</ele>
        <time>2017-11-13T13:03:14.403000Z</time>
      </trkpt>
      <trkpt lat="45.69891938008368" lon="10.188596248626709">
        <ele>339.65257513280204</ele>
        <time>2017-11-13T13:03:14.403000Z</time>
      </trkpt>
      <trkpt lat="45.69851168431342" lon="10.187931060791016">
        <ele>340.5996838925862</ele>
        <time>2017-11-13T13:03:15.394000Z</time>
      </trkpt>
      <trkpt lat="45.69799670018256" lon="10.187287330627441">
        <ele>345.3447729605134</ele>
        <time>2017-11-13T13:03:16.490000Z</time>
      </trkpt>
      <trkpt lat="45.697331512346864" lon="10.186493396759033">
        <ele>353.0</ele>
        <time>2017-11-13T13:03:17.878000Z</time>
      </trkpt>
      <trkpt lat="45.697031021118164" lon="10.186128616333008">
        <ele>354.54497520847553</ele>
        <time>2017-11-13T13:03:18.510000Z</time>
      </trkpt>
      <trkpt lat="45.6968959192295" lon="10.186036648005526">
        <ele>355.13162816510885</ele>
        <time>2017-11-13T13:03:18.750000Z</time>
      </trkpt>
      <trkpt lat="45.696834800653185" lon="10.185995042730058">
        <ele>355.39702323297433</ele>
        <time>2017-11-13T13:03:18.858000Z</time>
      </trkpt>
      <trkpt lat="45.69680655375123" lon="10.18597581423819">
        <ele>355.5196796682928</ele>
        <time>2017-11-13T13:03:18.908000Z</time>
      </trkpt>
      <trkpt lat="45.69680638611317" lon="10.185975730419159">
        <ele>355.52037601377145</ele>
        <time>2017-11-13T13:03:18.908000Z</time>
      </trkpt>
      <trkpt lat="45.69649466313422" lon="10.185763835906982">
        <ele>362.5402779250269</ele>
        <time>2017-11-13T13:03:19.461000Z</time>
      </trkpt>
      <trkpt lat="45.69494962692261" lon="10.185270309448242">
        <ele>339.0</ele>
        <time>2017-11-13T13:03:21.999000Z</time>
      </trkpt>
      <trkpt lat="45.69486379623413" lon="10.185227394104004">
        <ele>339.1743499297256</ele>
        <time>2017-11-13T13:03:22.145000Z</time>
      </trkpt>
      <trkpt lat="45.69256782531738" lon="10.18456220626831">
        <ele>346.0</ele>
        <time>2017-11-13T13:03:25.900000Z</time>
      </trkpt>
      <trkpt lat="45.69222450256348" lon="10.184648036956787">
        <ele>337.2978940579072</ele>
        <time>2017-11-13T13:03:26.459000Z</time>
      </trkpt>
      <trkpt lat="45.69215806217724" lon="10.184693068061412">
        <ele>336.5689044715519</ele>
        <time>2017-11-13T13:03:26.577000Z</time>
      </trkpt>
      <trkpt lat="45.69209689552969" lon="10.184734524694548">
        <ele>335.89777897329947</ele>
        <time>2017-11-13T13:03:26.685000Z</time>
      </trkpt>
      <trkpt lat="45.69206843152642" lon="10.184753816574812">
        <ele>335.5854696561808</ele>
        <time>2017-11-13T13:03:26.735000Z</time>
      </trkpt>
      <trkpt lat="45.69206834770739" lon="10.184753816574812">
        <ele>335.5846384340225</ele>
        <time>2017-11-13T13:03:26.735000Z</time>
      </trkpt>
      <trkpt lat="45.69155931472778" lon="10.185098648071289">
        <ele>327.0</ele>
        <time>2017-11-13T13:03:27.638000Z</time>
      </trkpt>
      <trkpt lat="45.691559398546815" lon="10.185098648071289">
        <ele>327.0</ele>
        <time>2017-11-13T13:03:27.638000Z</time>
      </trkpt>
      <trkpt lat="45.690979957580566" lon="10.185463428497314">
        <ele>327.0</ele>
        <time>2017-11-13T13:03:28.653000Z</time>
      </trkpt>
      <trkpt lat="45.69072254933417" lon="10.185549259185791">
        <ele>327.0</ele>
        <time>2017-11-13T13:03:29.077000Z</time>
      </trkpt>
      <trkpt lat="45.69046497344971" lon="10.18557071685791">
        <ele>327.0</ele>
        <time>2017-11-13T13:03:29.491000Z</time>
      </trkpt>
      <trkpt lat="45.69037922658026" lon="10.18557071685791">
        <ele>327.0</ele>
        <time>2017-11-13T13:03:29.628000Z</time>
      </trkpt>
      <trkpt lat="45.689778411760926" lon="10.185613632202148">
        <ele>327.0</ele>
        <time>2017-11-13T13:03:30.592000Z</time>
      </trkpt>
      <trkpt lat="45.689778327941895" lon="10.185613632202148">
        <ele>327.0</ele>
        <time>2017-11-13T13:03:30.592000Z</time>
      </trkpt>
      <trkpt lat="45.68934917449951" lon="10.185635089874268">
        <ele>327.0</ele>
        <time>2017-11-13T13:03:31.280000Z</time>
      </trkpt>
      <trkpt lat="45.689070308580995" lon="10.185656547546387">
        <ele>327.12435016348235</ele>
        <time>2017-11-13T13:03:31.728000Z</time>
      </trkpt>
      <trkpt lat="45.68907022476196" lon="10.185656547546387">
        <ele>327.1243874856699</ele>
        <time>2017-11-13T13:03:31.728000Z</time>
      </trkpt>
      <trkpt lat="45.688576782122254" lon="10.185699462890625">
        <ele>327.34450832761496</ele>
        <time>2017-11-13T13:03:32.521000Z</time>
      </trkpt>
      <trkpt lat="45.68844803608954" lon="10.185699462890625">
        <ele>327.4018352077228</ele>
        <time>2017-11-13T13:03:32.727000Z</time>
      </trkpt>
      <trkpt lat="45.68844795227051" lon="10.185699462890625">
        <ele>327.40187252991035</ele>
        <time>2017-11-13T13:03:32.727000Z</time>
      </trkpt>
      <trkpt lat="45.68842657841742" lon="10.185720920562744">
        <ele>327.4134967971224</ele>
        <time>2017-11-13T13:03:32.769000Z</time>
      </trkpt>
      <trkpt lat="45.68812617100775" lon="10.185742378234863">
        <ele>328.88075926073435</ele>
        <time>2017-11-13T13:03:33.251000Z</time>
      </trkpt>
      <trkpt lat="45.68803891873429" lon="10.18574896628336">
        <ele>328.6346601807333</ele>
        <time>2017-11-13T13:03:33.391000Z</time>
      </trkpt>
      <trkpt lat="45.687971337540674" lon="10.185754069038069">
        <ele>328.4440442936778</ele>
        <time>2017-11-13T13:03:33.500000Z</time>
      </trkpt>
      <trkpt lat="45.687939673662186" lon="10.185756459832191">
        <ele>328.3547348579843</ele>
        <time>2017-11-13T13:03:33.551000Z</time>
      </trkpt>
      <trkpt lat="45.68793984130025" lon="10.185756459832191">
        <ele>328.3542626834222</ele>
        <time>2017-11-13T13:03:33.551000Z</time>
      </trkpt>
      <trkpt lat="45.687847221270204" lon="10.185763835906982">
        <ele>328.09298284684417</ele>
        <time>2017-11-13T13:03:33.700000Z</time>
      </trkpt>
      <trkpt lat="45.686752796173096" lon="10.185892581939697">
        <ele>322.0</ele>
        <time>2017-11-13T13:03:35.460000Z</time>
      </trkpt>
      <trkpt lat="45.68643101491034" lon="10.18606424331665">
        <ele>320.6928024162485</ele>
        <time>2017-11-13T13:03:36.011000Z</time>
      </trkpt>
      <trkpt lat="45.68643093109131" lon="10.18606424331665">
        <ele>320.69272743384676</ele>
        <time>2017-11-13T13:03:36.011000Z</time>
      </trkpt>
      <trkpt lat="45.68610906600952" lon="10.186235904693604">
        <ele>320.38545937166026</ele>
        <time>2017-11-13T13:03:36.562000Z</time>
      </trkpt>
      <trkpt lat="45.68572282791138" lon="10.186429023742676">
        <ele>320.35280217845866</ele>
        <time>2017-11-13T13:03:37.218000Z</time>
      </trkpt>
      <trkpt lat="45.68535804748535" lon="10.186643600463867">
        <ele>320.0</ele>
        <time>2017-11-13T13:03:37.850000Z</time>
      </trkpt>
      <trkpt lat="45.68531513214111" lon="10.186729431152344">
        <ele>318.4902005698046</ele>
        <time>2017-11-13T13:03:37.968000Z</time>
      </trkpt>
      <trkpt lat="45.684928977862" lon="10.187008380889893">
        <ele>316.78837810498794</ele>
        <time>2017-11-13T13:03:38.661000Z</time>
      </trkpt>
      <trkpt lat="45.68426379002631" lon="10.187480449676514">
        <ele>315.011540841394</ele>
        <time>2017-11-13T13:03:39.851000Z</time>
      </trkpt>
      <trkpt lat="45.68411358632147" lon="10.187544822692871">
        <ele>314.22076250193066</ele>
        <time>2017-11-13T13:03:40.102000Z</time>
      </trkpt>
      <trkpt lat="45.68385609425604" lon="10.18758773803711">
        <ele>314.01556233314517</ele>
        <time>2017-11-13T13:03:40.518000Z</time>
      </trkpt>
      <trkpt lat="45.683541653734316" lon="10.187559216149142">
        <ele>313.7661611806336</ele>
        <time>2017-11-13T13:03:41.023000Z</time>
      </trkpt>
      <trkpt lat="45.68347411406923" lon="10.187553089885322">
        <ele>313.71259152669177</ele>
        <time>2017-11-13T13:03:41.132000Z</time>
      </trkpt>
      <trkpt lat="45.6834421120584" lon="10.1875501871109">
        <ele>313.6872088625216</ele>
        <time>2017-11-13T13:03:41.183000Z</time>
      </trkpt>
      <trkpt lat="45.68338402546942" lon="10.187544822692871">
        <ele>313.64113362125295</ele>
        <time>2017-11-13T13:03:41.276000Z</time>
      </trkpt>
      <trkpt lat="45.68299778737128" lon="10.187480449676514">
        <ele>314.0</ele>
        <time>2017-11-13T13:03:41.899000Z</time>
      </trkpt>
      <trkpt lat="45.68226822651923" lon="10.187394618988037">
        <ele>312.1296735595111</ele>
        <time>2017-11-13T13:03:43.073000Z</time>
      </trkpt>
      <trkpt lat="45.68198927678168" lon="10.187373161315918">
        <ele>311.6703355333909</ele>
        <time>2017-11-13T13:03:43.521000Z</time>
      </trkpt>
      <trkpt lat="45.68177470006049" lon="10.187351703643799">
        <ele>311.1942860724376</ele>
        <time>2017-11-13T13:03:43.866000Z</time>
      </trkpt>
      <trkpt lat="45.68063744343817" lon="10.187201499938965">
        <ele>307.0</ele>
        <time>2017-11-13T13:03:45.697000Z</time>
      </trkpt>
      <trkpt lat="45.68063735961914" lon="10.187201499938965">
        <ele>306.9999351197544</ele>
        <time>2017-11-13T13:03:45.697000Z</time>
      </trkpt>
      <trkpt lat="45.68046578206122" lon="10.187180042266846">
        <ele>306.86661925901336</ele>
        <time>2017-11-13T13:03:45.973000Z</time>
      </trkpt>
      <trkpt lat="45.67990788258612" lon="10.187115669250488">
        <ele>306.10004204647294</ele>
        <time>2017-11-13T13:03:46.870000Z</time>
      </trkpt>
      <trkpt lat="45.67967184819281" lon="10.18709421157837">
        <ele>305.91697111585273</ele>
        <time>2017-11-13T13:03:47.249000Z</time>
      </trkpt>
      <trkpt lat="45.67720421589911" lon="10.186793804168701">
        <ele>303.0</ele>
        <time>2017-11-13T13:03:51.219000Z</time>
      </trkpt>
      <trkpt lat="45.67720413208008" lon="10.186793804168701">
        <ele>303.0</ele>
        <time>2017-11-13T13:03:51.219000Z</time>
      </trkpt>
      <trkpt lat="45.677096927538514" lon="10.186793804168701">
        <ele>303.0</ele>
        <time>2017-11-13T13:03:51.391000Z</time>
      </trkpt>
      <trkpt lat="45.67643165588379" lon="10.186707973480225">
        <ele>303.0</ele>
        <time>2017-11-13T13:03:52.462000Z</time>
      </trkpt>
      <trkpt lat="45.676324451342225" lon="10.186686515808105">
        <ele>302.87845722311573</ele>
        <time>2017-11-13T13:03:52.636000Z</time>
      </trkpt>
      <trkpt lat="45.67602404393256" lon="10.186643600463867">
        <ele>302.8728111225212</ele>
        <time>2017-11-13T13:03:53.120000Z</time>
      </trkpt>
      <trkpt lat="45.67525156773627" lon="10.186514854431152">
        <ele>300.99959843064863</ele>
        <time>2017-11-13T13:03:54.367000Z</time>
      </trkpt>
      <trkpt lat="45.67486532963812" lon="10.186471939086914">
        <ele>300.2310223866314</ele>
        <time>2017-11-13T13:03:54.988000Z</time>
      </trkpt>
      <trkpt lat="45.674071395769715" lon="10.1863431930542">
        <ele>299.0</ele>
        <time>2017-11-13T13:03:56.269000Z</time>
      </trkpt>
      <trkpt lat="45.67362078465521" lon="10.18632173538208">
        <ele>298.56975593506843</ele>
        <time>2017-11-13T13:03:56.992000Z</time>
      </trkpt>
      <trkpt lat="45.67312717437744" lon="10.1863431930542">
        <ele>297.7651663067145</ele>
        <time>2017-11-13T13:03:57.784000Z</time>
      </trkpt>
      <trkpt lat="45.67244052886963" lon="10.186643600463867">
        <ele>295.9070868054973</ele>
        <time>2017-11-13T13:03:58.935000Z</time>
      </trkpt>
      <trkpt lat="45.67194700241089" lon="10.186965465545654">
        <ele>294.24323721601917</ele>
        <time>2017-11-13T13:03:59.804000Z</time>
      </trkpt>
      <trkpt lat="45.6716251373291" lon="10.187265872955322">
        <ele>293.9432318682761</ele>
        <time>2017-11-13T13:04:00.420000Z</time>
      </trkpt>
      <trkpt lat="45.67149647511542" lon="10.187394618988037">
        <ele>293.820662639762</ele>
        <time>2017-11-13T13:04:00.672000Z</time>
      </trkpt>
      <trkpt lat="45.67145355977118" lon="10.187437534332275">
        <ele>293.77978834161917</ele>
        <time>2017-11-13T13:04:00.756000Z</time>
      </trkpt>
      <trkpt lat="45.67134618759155" lon="10.18756628036499">
        <ele>293.67042528255473</ele>
        <time>2017-11-13T13:04:00.981000Z</time>
      </trkpt>
      <trkpt lat="45.671303272247314" lon="10.18758773803711">
        <ele>293.634934310589</ele>
        <time>2017-11-13T13:04:01.054000Z</time>
      </trkpt>
      <trkpt lat="45.67121744155884" lon="10.187716484069824">
        <ele>293.5378593881026</ele>
        <time>2017-11-13T13:04:01.253000Z</time>
      </trkpt>
      <trkpt lat="45.67087420262396" lon="10.188167095184326">
        <ele>293.1742075450623</ele>
        <time>2017-11-13T13:04:02Z</time>
      </trkpt>
      <trkpt lat="45.6707239151001" lon="10.188403129577637">
        <ele>291.73043241730664</ele>
        <time>2017-11-13T13:04:02.358000Z</time>
      </trkpt>
      <trkpt lat="45.67068108357489" lon="10.188467502593994">
        <ele>291.64361496476835</ele>
        <time>2017-11-13T13:04:02.458000Z</time>
      </trkpt>
      <trkpt lat="45.670486872080495" lon="10.188754490822218">
        <ele>291.25340828316536</ele>
        <time>2017-11-13T13:04:02.906000Z</time>
      </trkpt>
      <trkpt lat="45.670439791931955" lon="10.188824061159226">
        <ele>291.1588158703509</ele>
        <time>2017-11-13T13:04:03.014000Z</time>
      </trkpt>
      <trkpt lat="45.670417891815305" lon="10.188856422901154">
        <ele>291.11481466522633</ele>
        <time>2017-11-13T13:04:03.064000Z</time>
      </trkpt>
      <trkpt lat="45.67041797563434" lon="10.18885625526309">
        <ele>291.11461333167995</ele>
        <time>2017-11-13T13:04:03.064000Z</time>
      </trkpt>
      <trkpt lat="45.67018747329712" lon="10.189197063446045">
        <ele>291.6513552124084</ele>
        <time>2017-11-13T13:04:03.595000Z</time>
      </trkpt>
      <trkpt lat="45.66988706588745" lon="10.189540386199951">
        <ele>289.4473274094619</ele>
        <time>2017-11-13T13:04:04.211000Z</time>
      </trkpt>
      <trkpt lat="45.669865692034364" lon="10.18958330154419">
        <ele>289.4403428047967</ele>
        <time>2017-11-13T13:04:04.270000Z</time>
      </trkpt>
      <trkpt lat="45.66941508091986" lon="10.190119743347168">
        <ele>290.9958378850118</ele>
        <time>2017-11-13T13:04:05.210000Z</time>
      </trkpt>
      <trkpt lat="45.66810607910156" lon="10.191750526428223">
        <ele>289.0</ele>
        <time>2017-11-13T13:04:07.992000Z</time>
      </trkpt>
      <trkpt lat="45.66789150238037" lon="10.191857814788818">
        <ele>289.0</ele>
        <time>2017-11-13T13:04:08.356000Z</time>
      </trkpt>
      <trkpt lat="45.667827213183045" lon="10.1918363571167">
        <ele>288.9675857492144</ele>
        <time>2017-11-13T13:04:08.462000Z</time>
      </trkpt>
      <trkpt lat="45.66778429783881" lon="10.19181489944458">
        <ele>288.94526439136934</ele>
        <time>2017-11-13T13:04:08.535000Z</time>
      </trkpt>
      <trkpt lat="45.66769846715033" lon="10.191900730133057">
        <ele>288.89384941864506</ele>
        <time>2017-11-13T13:04:08.703000Z</time>
      </trkpt>
      <trkpt lat="45.66767692565918" lon="10.191986560821533">
        <ele>288.86255650107165</ele>
        <time>2017-11-13T13:04:08.805000Z</time>
      </trkpt>
      <trkpt lat="45.66761255264282" lon="10.192394256591797">
        <ele>288.71913702969715</ele>
        <time>2017-11-13T13:04:09.273000Z</time>
      </trkpt>
      <trkpt lat="45.6669903639704" lon="10.19308090209961">
        <ele>287.28650862242944</ele>
        <time>2017-11-13T13:04:10.533000Z</time>
      </trkpt>
      <trkpt lat="45.66613205708563" lon="10.194132328033447">
        <ele>286.7398501097253</ele>
        <time>2017-11-13T13:04:12.344000Z</time>
      </trkpt>
      <trkpt lat="45.6661319732666" lon="10.194132328033447">
        <ele>286.7397362206845</ele>
        <time>2017-11-13T13:04:12.344000Z</time>
      </trkpt>
      <trkpt lat="45.66548824310303" lon="10.194904804229736">
        <ele>284.9315458626205</ele>
        <time>2017-11-13T13:04:13.691000Z</time>
      </trkpt>
      <trkpt lat="45.664608562365174" lon="10.195763111114502">
        <ele>283.29361943916086</ele>
        <time>2017-11-13T13:04:15.398000Z</time>
      </trkpt>
      <trkpt lat="45.6645227316767" lon="10.195848941802979">
        <ele>285.1181764996377</ele>
        <time>2017-11-13T13:04:15.566000Z</time>
      </trkpt>
      <trkpt lat="45.66349276341498" lon="10.196857452392578">
        <ele>287.0</ele>
        <time>2017-11-13T13:04:17.567000Z</time>
      </trkpt>
      <trkpt lat="45.663042068481445" lon="10.197222232818604">
        <ele>282.2735552640359</ele>
        <time>2017-11-13T13:04:18.397000Z</time>
      </trkpt>
      <trkpt lat="45.662827491760254" lon="10.19730806350708">
        <ele>281.8011014324283</ele>
        <time>2017-11-13T13:04:18.754000Z</time>
      </trkpt>
      <trkpt lat="45.662567345496676" lon="10.197335332556099">
        <ele>281.2479841928043</ele>
        <time>2017-11-13T13:04:19.172000Z</time>
      </trkpt>
      <trkpt lat="45.66249985129623" lon="10.197342407390991">
        <ele>280.7711461848403</ele>
        <time>2017-11-13T13:04:19.281000Z</time>
      </trkpt>
      <trkpt lat="45.6624676566571" lon="10.197345782071352">
        <ele>280.70269465635846</ele>
        <time>2017-11-13T13:04:19.333000Z</time>
      </trkpt>
      <trkpt lat="45.66246774047613" lon="10.197345782071352">
        <ele>280.70251691848597</ele>
        <time>2017-11-13T13:04:19.334000Z</time>
      </trkpt>
      <trkpt lat="45.6611967086792" lon="10.197479724884033">
        <ele>277.0</ele>
        <time>2017-11-13T13:04:21.377000Z</time>
      </trkpt>
      <trkpt lat="45.66014528274536" lon="10.197608470916748">
        <ele>276.0</ele>
        <time>2017-11-13T13:04:23.069000Z</time>
      </trkpt>
      <trkpt lat="45.65975904464722" lon="10.197522640228271">
        <ele>274.09128583485494</ele>
        <time>2017-11-13T13:04:23.696000Z</time>
      </trkpt>
      <trkpt lat="45.65969475544989" lon="10.197522640228271">
        <ele>273.94182266769735</ele>
        <time>2017-11-13T13:04:23.799000Z</time>
      </trkpt>
      <trkpt lat="45.65965175628662" lon="10.19754409790039">
        <ele>273.83594992768116</ele>
        <time>2017-11-13T13:04:23.872000Z</time>
      </trkpt>
      <trkpt lat="45.659608924761415" lon="10.197587013244629">
        <ele>273.7143841052735</ele>
        <time>2017-11-13T13:04:23.956000Z</time>
      </trkpt>
      <trkpt lat="45.659587383270264" lon="10.197629928588867">
        <ele>273.6285311224142</ele>
        <time>2017-11-13T13:04:24.015000Z</time>
      </trkpt>
      <trkpt lat="45.659329891204834" lon="10.197844505310059">
        <ele>273.3758652614219</ele>
        <time>2017-11-13T13:04:24.493000Z</time>
      </trkpt>
      <trkpt lat="45.658578956499696" lon="10.198166370391846">
        <ele>272.37784118046335</ele>
        <time>2017-11-13T13:04:25.750000Z</time>
      </trkpt>
      <trkpt lat="45.65814980305731" lon="10.198338031768799">
        <ele>272.0</ele>
        <time>2017-11-13T13:04:26.464000Z</time>
      </trkpt>
      <trkpt lat="45.6580461938738" lon="10.198382647409428">
        <ele>271.95671030112857</ele>
        <time>2017-11-13T13:04:26.637000Z</time>
      </trkpt>
      <trkpt lat="45.65798139028791" lon="10.198410552700356">
        <ele>271.92963425283807</ele>
        <time>2017-11-13T13:04:26.745000Z</time>
      </trkpt>
      <trkpt lat="45.657950481399894" lon="10.198423862457275">
        <ele>271.91671999126623</ele>
        <time>2017-11-13T13:04:26.797000Z</time>
      </trkpt>
      <trkpt lat="45.657950565218925" lon="10.198423862457275">
        <ele>271.91668645619876</ele>
        <time>2017-11-13T13:04:26.798000Z</time>
      </trkpt>
      <trkpt lat="45.657055377960205" lon="10.19881010055542">
        <ele>271.209267215285</ele>
        <time>2017-11-13T13:04:28.297000Z</time>
      </trkpt>
      <trkpt lat="45.6566070075522" lon="10.198950087578275">
        <ele>270.4927978484661</ele>
        <time>2017-11-13T13:04:29.033000Z</time>
      </trkpt>
      <trkpt lat="45.656540888495556" lon="10.198970730606106">
        <ele>270.48545368332447</ele>
        <time>2017-11-13T13:04:29.141000Z</time>
      </trkpt>
      <trkpt lat="45.656509045511484" lon="10.19898067228496">
        <ele>270.4819167284364</ele>
        <time>2017-11-13T13:04:29.193000Z</time>
      </trkpt>
      <trkpt lat="45.656509129330516" lon="10.19898067228496">
        <ele>270.48190763231196</ele>
        <time>2017-11-13T13:04:29.193000Z</time>
      </trkpt>
      <trkpt lat="45.656368816271424" lon="10.199024677276611">
        <ele>270.46631916971216</ele>
        <time>2017-11-13T13:04:29.423000Z</time>
      </trkpt>
      <trkpt lat="45.65516710281372" lon="10.199368000030518">
        <ele>271.0</ele>
        <time>2017-11-13T13:04:31.388000Z</time>
      </trkpt>
      <trkpt lat="45.654566287994385" lon="10.19956111907959">
        <ele>267.517491449958</ele>
        <time>2017-11-13T13:04:32.375000Z</time>
      </trkpt>
      <trkpt lat="45.654239384221555" lon="10.199731044290884">
        <ele>267.05668627446704</ele>
        <time>2017-11-13T13:04:32.933000Z</time>
      </trkpt>
      <trkpt lat="45.65417569293776" lon="10.199764150896872">
        <ele>266.96690679165226</ele>
        <time>2017-11-13T13:04:33.042000Z</time>
      </trkpt>
      <trkpt lat="45.654145097360015" lon="10.19978005439043">
        <ele>266.5904458184945</ele>
        <time>2017-11-13T13:04:33.094000Z</time>
      </trkpt>
      <trkpt lat="45.65414526499808" lon="10.199779886752367">
        <ele>266.59017484226183</ele>
        <time>2017-11-13T13:04:33.094000Z</time>
      </trkpt>
      <trkpt lat="45.65402993001044" lon="10.199840068817139">
        <ele>266.42752491522594</ele>
        <time>2017-11-13T13:04:33.291000Z</time>
      </trkpt>
      <trkpt lat="45.65396547317505" lon="10.199882984161377">
        <ele>266.3333333333333</ele>
        <time>2017-11-13T13:04:33.405000Z</time>
      </trkpt>
      <trkpt lat="45.65366514958441" lon="10.199925899505615">
        <ele>266.3333333333333</ele>
        <time>2017-11-13T13:04:33.889000Z</time>
      </trkpt>
      <trkpt lat="45.653600776568055" lon="10.199947357177734">
        <ele>266.3333333333333</ele>
        <time>2017-11-13T13:04:33.995000Z</time>
      </trkpt>
      <trkpt lat="45.6531286239624" lon="10.20007610321045">
        <ele>266.6666666666667</ele>
        <time>2017-11-13T13:04:34.766000Z</time>
      </trkpt>
      <trkpt lat="45.65248497761786" lon="10.200355052947998">
        <ele>266.1794293883425</ele>
        <time>2017-11-13T13:04:35.844000Z</time>
      </trkpt>
      <trkpt lat="45.65173387527466" lon="10.200676918029785">
        <ele>266.0</ele>
        <time>2017-11-13T13:04:37.101000Z</time>
      </trkpt>
      <trkpt lat="45.65143346786499" lon="10.200719833374023">
        <ele>265.2577915701354</ele>
        <time>2017-11-13T13:04:37.585000Z</time>
      </trkpt>
      <trkpt lat="45.648794174194336" lon="10.201084613800049">
        <ele>260.0</ele>
        <time>2017-11-13T13:04:41.836000Z</time>
      </trkpt>
      <trkpt lat="45.647828662768006" lon="10.201191902160645">
        <ele>260.0</ele>
        <time>2017-11-13T13:04:43.389000Z</time>
      </trkpt>
      <trkpt lat="45.64754971303046" lon="10.201191902160645">
        <ele>260.0</ele>
        <time>2017-11-13T13:04:43.836000Z</time>
      </trkpt>
      <trkpt lat="45.64744234085083" lon="10.201191902160645">
        <ele>259.5083464391914</ele>
        <time>2017-11-13T13:04:44.008000Z</time>
      </trkpt>
      <trkpt lat="45.64723526846883" lon="10.201073574872405">
        <ele>259.17955797725693</ele>
        <time>2017-11-13T13:04:44.365000Z</time>
      </trkpt>
      <trkpt lat="45.64717233880753" lon="10.201037615188362">
        <ele>259.12173520402825</ele>
        <time>2017-11-13T13:04:44.474000Z</time>
      </trkpt>
      <trkpt lat="45.64714193344116" lon="10.201020240783691">
        <ele>259.0937973085414</ele>
        <time>2017-11-13T13:04:44.527000Z</time>
      </trkpt>
      <trkpt lat="45.647142017260194" lon="10.201020240783691">
        <ele>259.09372578706</ele>
        <time>2017-11-13T13:04:44.528000Z</time>
      </trkpt>
      <trkpt lat="45.64714193344116" lon="10.201020240784691">
        <ele>259.09365426557855</ele>
        <time>2017-11-13T13:04:44.529000Z</time>
      </trkpt>
      <trkpt lat="45.64686298370361" lon="10.2008056640625">
        <ele>258.490064345619</ele>
        <time>2017-11-13T13:04:45.037000Z</time>
      </trkpt>
      <trkpt lat="45.64649820327759" lon="10.20029067993164">
        <ele>257.38607221638915</ele>
        <time>2017-11-13T13:04:45.859000Z</time>
      </trkpt>
      <trkpt lat="45.64613737540948" lon="10.199286706076984">
        <ele>257.0460080595379</ele>
        <time>2017-11-13T13:04:47.124000Z</time>
      </trkpt>
      <trkpt lat="45.64610639171662" lon="10.199200498244597">
        <ele>257.07074284671916</ele>
        <time>2017-11-13T13:04:47.233000Z</time>
      </trkpt>
      <trkpt lat="45.64609218388796" lon="10.19916096702218">
        <ele>257.0820851722333</ele>
        <time>2017-11-13T13:04:47.283000Z</time>
      </trkpt>
      <trkpt lat="45.64609226770699" lon="10.199161134660244">
        <ele>257.08222414926644</ele>
        <time>2017-11-13T13:04:47.283000Z</time>
      </trkpt>
      <trkpt lat="45.64600476063788" lon="10.198917388916016">
        <ele>257.2669912896828</ele>
        <time>2017-11-13T13:04:47.590000Z</time>
      </trkpt>
      <trkpt lat="45.64596184529364" lon="10.1987886428833">
        <ele>257.36317022222306</ele>
        <time>2017-11-13T13:04:47.750000Z</time>
      </trkpt>
      <trkpt lat="45.64594038762152" lon="10.198724269866943">
        <ele>257.4112597035016</ele>
        <time>2017-11-13T13:04:47.830000Z</time>
      </trkpt>
      <trkpt lat="45.645790100097656" lon="10.198252201080322">
        <ele>258.4277023324667</ele>
        <time>2017-11-13T13:04:48.411000Z</time>
      </trkpt>
      <trkpt lat="45.64576872624457" lon="10.198209285736084">
        <ele>258.4695129392522</ele>
        <time>2017-11-13T13:04:48.470000Z</time>
      </trkpt>
      <trkpt lat="45.64568289555609" lon="10.197930335998535">
        <ele>258.7113462870188</ele>
        <time>2017-11-13T13:04:48.812000Z</time>
      </trkpt>
      <trkpt lat="45.6455756071955" lon="10.197587013244629">
        <ele>259.0097474347558</ele>
        <time>2017-11-13T13:04:49.233000Z</time>
      </trkpt>
      <trkpt lat="45.64540394581854" lon="10.19705057144165">
        <ele>259.1445492134688</ele>
        <time>2017-11-13T13:04:49.894000Z</time>
      </trkpt>
      <trkpt lat="45.645339572802186" lon="10.196878910064697">
        <ele>259.2991201291159</ele>
        <time>2017-11-13T13:04:50.112000Z</time>
      </trkpt>
      <trkpt lat="45.645339488983154" lon="10.196878910064697">
        <ele>259.299215265654</ele>
        <time>2017-11-13T13:04:50.112000Z</time>
      </trkpt>
      <trkpt lat="45.64518928527832" lon="10.19655704498291">
        <ele>261.2729534172484</ele>
        <time>2017-11-13T13:04:50.546000Z</time>
      </trkpt>
      <trkpt lat="45.64486742019653" lon="10.196106433868408">
        <ele>259.22642197233404</ele>
        <time>2017-11-13T13:04:51.268000Z</time>
      </trkpt>
      <trkpt lat="45.644588470458984" lon="10.195848941802979">
        <ele>258.90189784053524</ele>
        <time>2017-11-13T13:04:51.800000Z</time>
      </trkpt>
      <trkpt lat="45.64405211247504" lon="10.195527076721191">
        <ele>258.6666666666667</ele>
        <time>2017-11-13T13:04:52.732000Z</time>
      </trkpt>
      <trkpt lat="45.644052028656006" lon="10.195527076721191">
        <ele>258.66664116337944</ele>
        <time>2017-11-13T13:04:52.732000Z</time>
      </trkpt>
      <trkpt lat="45.64392328262329" lon="10.195462703704834">
        <ele>258.62514378233385</ele>
        <time>2017-11-13T13:04:52.951000Z</time>
      </trkpt>
      <trkpt lat="45.64370878972113" lon="10.19529104232788">
        <ele>258.55035992211833</ele>
        <time>2017-11-13T13:04:53.345000Z</time>
      </trkpt>
      <trkpt lat="45.643558502197266" lon="10.195226669311523">
        <ele>258.5026262667643</ele>
        <time>2017-11-13T13:04:53.597000Z</time>
      </trkpt>
      <trkpt lat="45.64342975616455" lon="10.195162296295166">
        <ele>258.46112884591327</ele>
        <time>2017-11-13T13:04:53.816000Z</time>
      </trkpt>
      <trkpt lat="45.643043518066406" lon="10.194926261901855">
        <ele>258.0</ele>
        <time>2017-11-13T13:04:54.489000Z</time>
      </trkpt>
      <trkpt lat="45.64281748428433" lon="10.194803013536452">
        <ele>257.720402762163</ele>
        <time>2017-11-13T13:04:54.877000Z</time>
      </trkpt>
      <trkpt lat="45.64275408036062" lon="10.194768441772075">
        <ele>257.64197398989637</ele>
        <time>2017-11-13T13:04:54.986000Z</time>
      </trkpt>
      <trkpt lat="45.64272316172719" lon="10.19475158303976">
        <ele>257.6037285638788</ele>
        <time>2017-11-13T13:04:55.039000Z</time>
      </trkpt>
      <trkpt lat="45.64272324554622" lon="10.19475158303976">
        <ele>257.6036316829228</ele>
        <time>2017-11-13T13:04:55.039000Z</time>
      </trkpt>
      <trkpt lat="45.642571449279785" lon="10.194668769836426">
        <ele>257.4158513349409</ele>
        <time>2017-11-13T13:04:55.299000Z</time>
      </trkpt>
      <trkpt lat="45.642077922821045" lon="10.194475650787354">
        <ele>256.4911213098562</ele>
        <time>2017-11-13T13:04:56.119000Z</time>
      </trkpt>
      <trkpt lat="45.64190634526312" lon="10.194389820098877">
        <ele>256.2810269567721</ele>
        <time>2017-11-13T13:04:56.410000Z</time>
      </trkpt>
      <trkpt lat="45.64115524291992" lon="10.194261074066162">
        <ele>254.73999822260964</ele>
        <time>2017-11-13T13:04:57.623000Z</time>
      </trkpt>
      <trkpt lat="45.64053297042847" lon="10.194110870361328">
        <ele>253.0</ele>
        <time>2017-11-13T13:04:58.635000Z</time>
      </trkpt>
      <trkpt lat="45.64046868123114" lon="10.194110870361328">
        <ele>252.94400334184544</ele>
        <time>2017-11-13T13:04:58.738000Z</time>
      </trkpt>
      <trkpt lat="45.64029701985419" lon="10.19406795501709">
        <ele>252.7922173932299</ele>
        <time>2017-11-13T13:04:59.017000Z</time>
      </trkpt>
      <trkpt lat="45.63971757888794" lon="10.193939208984375">
        <ele>251.6147970590176</ele>
        <time>2017-11-13T13:04:59.957000Z</time>
      </trkpt>
      <trkpt lat="45.639095306396484" lon="10.193939208984375">
        <ele>251.0727902922126</ele>
        <time>2017-11-13T13:05:00.955000Z</time>
      </trkpt>
      <trkpt lat="45.63892372883856" lon="10.193874835968018">
        <ele>250.84674782355862</ele>
        <time>2017-11-13T13:05:01.239000Z</time>
      </trkpt>
      <trkpt lat="45.63888072967529" lon="10.19381046295166">
        <ele>250.77436758303625</ele>
        <time>2017-11-13T13:05:01.339000Z</time>
      </trkpt>
      <trkpt lat="45.63877352513373" lon="10.193724632263184">
        <ele>250.63150877898818</ele>
        <time>2017-11-13T13:05:01.536000Z</time>
      </trkpt>
      <trkpt lat="45.638580322265625" lon="10.193789005279541">
        <ele>250.40083814275349</ele>
        <time>2017-11-13T13:05:01.854000Z</time>
      </trkpt>
      <trkpt lat="45.6382155418396" lon="10.19381046295166">
        <ele>248.97631504991122</ele>
        <time>2017-11-13T13:05:02.439000Z</time>
      </trkpt>
      <trkpt lat="45.63799295929143" lon="10.193719435446841">
        <ele>248.70712456413875</ele>
        <time>2017-11-13T13:05:02.810000Z</time>
      </trkpt>
      <trkpt lat="45.63792763288273" lon="10.193692719658735">
        <ele>248.70492694129416</ele>
        <time>2017-11-13T13:05:02.919000Z</time>
      </trkpt>
      <trkpt lat="45.63789560459554" lon="10.193679621443152">
        <ele>248.70384948899888</ele>
        <time>2017-11-13T13:05:02.972000Z</time>
      </trkpt>
      <trkpt lat="45.637895688414574" lon="10.193679705262184">
        <ele>248.7038461809701</ele>
        <time>2017-11-13T13:05:02.972000Z</time>
      </trkpt>
      <trkpt lat="45.63774355687201" lon="10.193617343902588">
        <ele>248.69872746778643</ele>
        <time>2017-11-13T13:05:03.226000Z</time>
      </trkpt>
      <trkpt lat="45.63774347305298" lon="10.193617343902588">
        <ele>248.69872475671323</ele>
        <time>2017-11-13T13:05:03.226000Z</time>
      </trkpt>
      <trkpt lat="45.6367564201355" lon="10.193488597869873">
        <ele>249.0</ele>
        <time>2017-11-13T13:05:04.815000Z</time>
      </trkpt>
      <trkpt lat="45.63643455505371" lon="10.193488597869873">
        <ele>249.580222895357</ele>
        <time>2017-11-13T13:05:05.331000Z</time>
      </trkpt>
      <trkpt lat="45.63600540161133" lon="10.193595886230469">
        <ele>249.46321685028582</ele>
        <time>2017-11-13T13:05:06.029000Z</time>
      </trkpt>
      <trkpt lat="45.635640705004334" lon="10.19381046295166">
        <ele>248.6906381763258</ele>
        <time>2017-11-13T13:05:06.661000Z</time>
      </trkpt>
      <trkpt lat="45.6356406211853" lon="10.19381046295166">
        <ele>248.69057366269985</ele>
        <time>2017-11-13T13:05:06.661000Z</time>
      </trkpt>
      <trkpt lat="45.634846771135926" lon="10.19432544708252">
        <ele>247.3529777517763</ele>
        <time>2017-11-13T13:05:08.058000Z</time>
      </trkpt>
      <trkpt lat="45.634429904403866" lon="10.194598827573449">
        <ele>247.0</ele>
        <time>2017-11-13T13:05:08.793000Z</time>
      </trkpt>
      <trkpt lat="45.634368143550425" lon="10.194639329853418">
        <ele>246.9212361022388</ele>
        <time>2017-11-13T13:05:08.902000Z</time>
      </trkpt>
      <trkpt lat="45.63433782197535" lon="10.19465921446681">
        <ele>246.88256686796873</ele>
        <time>2017-11-13T13:05:08.955000Z</time>
      </trkpt>
      <trkpt lat="45.63433790579438" lon="10.19465921446681">
        <ele>246.8824697017425</ele>
        <time>2017-11-13T13:05:08.955000Z</time>
      </trkpt>
      <trkpt lat="45.63416004180908" lon="10.194776058197021">
        <ele>246.98890386250915</ele>
        <time>2017-11-13T13:05:09.269000Z</time>
      </trkpt>
      <trkpt lat="45.6339240912348" lon="10.194861888885498">
        <ele>246.70667130798964</ele>
        <time>2017-11-13T13:05:09.659000Z</time>
      </trkpt>
      <trkpt lat="45.633409107103944" lon="10.195441246032715">
        <ele>244.94710557059958</ele>
        <time>2017-11-13T13:05:10.709000Z</time>
      </trkpt>
      <trkpt lat="45.63313007354736" lon="10.195977687835693">
        <ele>243.36876086150463</ele>
        <time>2017-11-13T13:05:11.458000Z</time>
      </trkpt>
      <trkpt lat="45.63263654708862" lon="10.197393894195557">
        <ele>242.0</ele>
        <time>2017-11-13T13:05:13.232000Z</time>
      </trkpt>
      <trkpt lat="45.63246488571167" lon="10.197651386260986">
        <ele>241.4315517623029</ele>
        <time>2017-11-13T13:05:13.631000Z</time>
      </trkpt>
      <trkpt lat="45.632314682006836" lon="10.197715759277344">
        <ele>241.28335563384928</ele>
        <time>2017-11-13T13:05:13.882000Z</time>
      </trkpt>
      <trkpt lat="45.632100189104676" lon="10.197930335998535">
        <ele>241.0359598562769</ele>
        <time>2017-11-13T13:05:14.302000Z</time>
      </trkpt>
      <trkpt lat="45.6320143584162" lon="10.197973251342773">
        <ele>240.95002550516725</ele>
        <time>2017-11-13T13:05:14.448000Z</time>
      </trkpt>
      <trkpt lat="45.631907070055604" lon="10.198209285736084">
        <ele>240.76397511506175</ele>
        <time>2017-11-13T13:05:14.764000Z</time>
      </trkpt>
      <trkpt lat="45.63197135925293" lon="10.198423862457275">
        <ele>240.20798270651167</ele>
        <time>2017-11-13T13:05:15.026000Z</time>
      </trkpt>
      <trkpt lat="45.63199281692505" lon="10.198681354522705">
        <ele>239.99652252346831</ele>
        <time>2017-11-13T13:05:15.317000Z</time>
      </trkpt>
      <trkpt lat="45.63190698623657" lon="10.198895931243896">
        <ele>239.79493820965033</ele>
        <time>2017-11-13T13:05:15.594000Z</time>
      </trkpt>
      <trkpt lat="45.6314564589411" lon="10.199282169342041">
        <ele>238.5157048789988</ele>
        <time>2017-11-13T13:05:16.436000Z</time>
      </trkpt>
      <trkpt lat="45.631413543596864" lon="10.19932508468628">
        <ele>238.45463623668812</ele>
        <time>2017-11-13T13:05:16.520000Z</time>
      </trkpt>
      <trkpt lat="45.63122042454779" lon="10.199432373046875">
        <ele>238.21302958947015</ele>
        <time>2017-11-13T13:05:16.852000Z</time>
      </trkpt>
      <trkpt lat="45.630834102630615" lon="10.199496746063232">
        <ele>237.96362341568496</ele>
        <time>2017-11-13T13:05:17.476000Z</time>
      </trkpt>
      <trkpt lat="45.6304479483515" lon="10.199368000030518">
        <ele>238.37602655892786</ele>
        <time>2017-11-13T13:05:18.112000Z</time>
      </trkpt>
      <trkpt lat="45.629868507385254" lon="10.199239253997803">
        <ele>237.0</ele>
        <time>2017-11-13T13:05:19.052000Z</time>
      </trkpt>
      <trkpt lat="45.629332065582275" lon="10.199282169342041">
        <ele>236.35365143264926</ele>
        <time>2017-11-13T13:05:19.913000Z</time>
      </trkpt>
      <trkpt lat="45.62828247264984" lon="10.199777956317869">
        <ele>233.6905543698888</ele>
        <time>2017-11-13T13:05:21.685000Z</time>
      </trkpt>
      <trkpt lat="45.62821795678308" lon="10.199808430471263">
        <ele>233.6639673606727</ele>
        <time>2017-11-13T13:05:21.794000Z</time>
      </trkpt>
      <trkpt lat="45.628185756504536" lon="10.199823640286922">
        <ele>233.65069761726772</ele>
        <time>2017-11-13T13:05:21.848000Z</time>
      </trkpt>
      <trkpt lat="45.62818584032357" lon="10.19982355646789">
        <ele>233.65065759417166</ele>
        <time>2017-11-13T13:05:21.848000Z</time>
      </trkpt>
      <trkpt lat="45.626607025042176" lon="10.20056962966919">
        <ele>233.0</ele>
        <time>2017-11-13T13:05:24.514000Z</time>
      </trkpt>
      <trkpt lat="45.62598466873169" lon="10.200848579406738">
        <ele>235.0</ele>
        <time>2017-11-13T13:05:25.560000Z</time>
      </trkpt>
      <trkpt lat="45.624954784289" lon="10.20132064819336">
        <ele>234.47576134714816</ele>
        <time>2017-11-13T13:05:27.294000Z</time>
      </trkpt>
      <trkpt lat="45.624632919207215" lon="10.201406478881836">
        <ele>234.6694556606179</ele>
        <time>2017-11-13T13:05:27.819000Z</time>
      </trkpt>
      <trkpt lat="45.62433251179755" lon="10.201492309570312">
        <ele>234.85068602232084</ele>
        <time>2017-11-13T13:05:28.310000Z</time>
      </trkpt>
      <trkpt lat="45.62424668110907" lon="10.201513767242432">
        <ele>234.90223262792753</ele>
        <time>2017-11-13T13:05:28.450000Z</time>
      </trkpt>
      <trkpt lat="45.62409647740424" lon="10.20155668258667">
        <ele>234.3261811567605</ele>
        <time>2017-11-13T13:05:28.696000Z</time>
      </trkpt>
      <trkpt lat="45.623531034814135" lon="10.201710201846417">
        <ele>236.0</ele>
        <time>2017-11-13T13:05:29.619000Z</time>
      </trkpt>
      <trkpt lat="45.62346428307517" lon="10.201728324923929">
        <ele>235.91295531501433</ele>
        <time>2017-11-13T13:05:29.728000Z</time>
      </trkpt>
      <trkpt lat="45.623430870473385" lon="10.201737396419048">
        <ele>235.86938507520992</ele>
        <time>2017-11-13T13:05:29.783000Z</time>
      </trkpt>
      <trkpt lat="45.62343095429242" lon="10.201737396419048">
        <ele>235.86927769330217</ele>
        <time>2017-11-13T13:05:29.783000Z</time>
      </trkpt>
      <trkpt lat="45.622122371569276" lon="10.202093124389648">
        <ele>232.8294689414835</ele>
        <time>2017-11-13T13:05:31.918000Z</time>
      </trkpt>
      <trkpt lat="45.6220365408808" lon="10.202114582061768">
        <ele>232.79885440630161</ele>
        <time>2017-11-13T13:05:32.058000Z</time>
      </trkpt>
      <trkpt lat="45.61980494298041" lon="10.202736854553223">
        <ele>232.0</ele>
        <time>2017-11-13T13:05:35.703000Z</time>
      </trkpt>
      <trkpt lat="45.6197190284729" lon="10.202758312225342">
        <ele>232.0</ele>
        <time>2017-11-13T13:05:35.843000Z</time>
      </trkpt>
      <trkpt lat="45.61903246678412" lon="10.202972888946533">
        <ele>231.30481905841808</ele>
        <time>2017-11-13T13:05:36.970000Z</time>
      </trkpt>
      <trkpt lat="45.61886080540717" lon="10.203015804290771">
        <ele>231.21509220081725</ele>
        <time>2017-11-13T13:05:37.249000Z</time>
      </trkpt>
      <trkpt lat="45.61875351704657" lon="10.20303726196289">
        <ele>231.20048691646085</ele>
        <time>2017-11-13T13:05:37.423000Z</time>
      </trkpt>
      <trkpt lat="45.618431651964784" lon="10.203123092651367">
        <ele>231.15634523567746</ele>
        <time>2017-11-13T13:05:37.948000Z</time>
      </trkpt>
      <trkpt lat="45.61727285385132" lon="10.203187465667725">
        <ele>231.0</ele>
        <time>2017-11-13T13:05:39.807000Z</time>
      </trkpt>
      <trkpt lat="45.6169939879328" lon="10.203144550323486">
        <ele>230.63587395640045</ele>
        <time>2017-11-13T13:05:40.257000Z</time>
      </trkpt>
      <trkpt lat="45.61677941121161" lon="10.203101634979248">
        <ele>230.35458944715492</ele>
        <time>2017-11-13T13:05:40.604000Z</time>
      </trkpt>
      <trkpt lat="45.616629207506776" lon="10.20305871963501">
        <ele>229.4890665774805</ele>
        <time>2017-11-13T13:05:40.850000Z</time>
      </trkpt>
      <trkpt lat="45.61643600463867" lon="10.203015804290771">
        <ele>229.23523372179451</ele>
        <time>2017-11-13T13:05:41.163000Z</time>
      </trkpt>
      <trkpt lat="45.61639155222862" lon="10.20302211812933">
        <ele>229.20113324860847</ele>
        <time>2017-11-13T13:05:41.235000Z</time>
      </trkpt>
      <trkpt lat="45.61632394066744" lon="10.2030317213797">
        <ele>229.14926685467853</ele>
        <time>2017-11-13T13:05:41.344000Z</time>
      </trkpt>
      <trkpt lat="45.61629024334252" lon="10.203036507591605">
        <ele>229.12341685687383</ele>
        <time>2017-11-13T13:05:41.398000Z</time>
      </trkpt>
      <trkpt lat="45.61629032716155" lon="10.203036507591605">
        <ele>229.1233528723444</ele>
        <time>2017-11-13T13:05:41.398000Z</time>
      </trkpt>
      <trkpt lat="45.61583527363837" lon="10.203101634979248">
        <ele>228.77424459646238</ele>
        <time>2017-11-13T13:05:42.131000Z</time>
      </trkpt>
      <trkpt lat="45.61536320485175" lon="10.203380584716797">
        <ele>228.05098232174882</ele>
        <time>2017-11-13T13:05:42.950000Z</time>
      </trkpt>
      <trkpt lat="45.615363121032715" lon="10.203380584716797">
        <ele>228.05090065542365</ele>
        <time>2017-11-13T13:05:42.950000Z</time>
      </trkpt>
      <trkpt lat="45.61519154347479" lon="10.20353078842163">
        <ele>227.85487831323204</ele>
        <time>2017-11-13T13:05:43.273000Z</time>
      </trkpt>
      <trkpt lat="45.61519145965576" lon="10.20353078842163">
        <ele>227.8547364104726</ele>
        <time>2017-11-13T13:05:43.274000Z</time>
      </trkpt>
      <trkpt lat="45.61482676304877" lon="10.203981399536133">
        <ele>225.37201438434644</ele>
        <time>2017-11-13T13:05:44.047000Z</time>
      </trkpt>
      <trkpt lat="45.61405428685248" lon="10.205354690551758">
        <ele>223.28515768709136</ele>
        <time>2017-11-13T13:05:46.023000Z</time>
      </trkpt>
      <trkpt lat="45.61379679478705" lon="10.20578384399414">
        <ele>222.90187834037678</ele>
        <time>2017-11-13T13:05:46.657000Z</time>
      </trkpt>
      <trkpt lat="45.61308869160712" lon="10.206685066223145">
        <ele>222.72997965739262</ele>
        <time>2017-11-13T13:05:48.177000Z</time>
      </trkpt>
      <trkpt lat="45.61246633529663" lon="10.207350254058838">
        <ele>221.05508654322674</ele>
        <time>2017-11-13T13:05:49.423000Z</time>
      </trkpt>
      <trkpt lat="45.611865520477295" lon="10.207757949829102">
        <ele>222.82373334654153</ele>
        <time>2017-11-13T13:05:50.489000Z</time>
      </trkpt>
      <trkpt lat="45.61122187413275" lon="10.207886695861816">
        <ele>216.51336091198525</ele>
        <time>2017-11-13T13:05:51.531000Z</time>
      </trkpt>
      <trkpt lat="45.61122179031372" lon="10.207886695861816">
        <ele>216.51314673114098</ele>
        <time>2017-11-13T13:05:51.531000Z</time>
      </trkpt>
      <trkpt lat="45.61055668629706" lon="10.20803689956665">
        <ele>214.12587801643295</ele>
        <time>2017-11-13T13:05:52.610000Z</time>
      </trkpt>
      <trkpt lat="45.61021327972412" lon="10.20805835723877">
        <ele>213.24754122617767</ele>
        <time>2017-11-13T13:05:53.161000Z</time>
      </trkpt>
      <trkpt lat="45.60999870300293" lon="10.207951068878174">
        <ele>213.0</ele>
        <time>2017-11-13T13:05:53.525000Z</time>
      </trkpt>
      <trkpt lat="45.60991287231445" lon="10.207843780517578">
        <ele>212.94845968256047</ele>
        <time>2017-11-13T13:05:53.708000Z</time>
      </trkpt>
      <trkpt lat="45.60982712544501" lon="10.20780086517334">
        <ele>212.90739147573663</ele>
        <time>2017-11-13T13:05:53.854000Z</time>
      </trkpt>
      <trkpt lat="45.60971975326538" lon="10.207865238189697">
        <ele>212.85475885356087</ele>
        <time>2017-11-13T13:05:54.041000Z</time>
      </trkpt>
      <trkpt lat="45.609655464068055" lon="10.207993984222412">
        <ele>212.8047381453115</ele>
        <time>2017-11-13T13:05:54.218000Z</time>
      </trkpt>
      <trkpt lat="45.60965538024902" lon="10.208144187927246">
        <ele>212.75724026404393</ele>
        <time>2017-11-13T13:05:54.386000Z</time>
      </trkpt>
      <trkpt lat="45.609612464904785" lon="10.208358764648438">
        <ele>212.68666740966194</ele>
        <time>2017-11-13T13:05:54.636000Z</time>
      </trkpt>
      <trkpt lat="45.60952663421631" lon="10.208508968353271">
        <ele>212.62533692783612</ele>
        <time>2017-11-13T13:05:54.853000Z</time>
      </trkpt>
      <trkpt lat="45.609419429674745" lon="10.208594799041748">
        <ele>212.56979287239506</ele>
        <time>2017-11-13T13:05:55.050000Z</time>
      </trkpt>
      <trkpt lat="45.60894727706909" lon="10.208916664123535">
        <ele>211.66666666666666</ele>
        <time>2017-11-13T13:05:55.889000Z</time>
      </trkpt>
      <trkpt lat="45.60836800374091" lon="10.209431648254395">
        <ele>212.2038289809434</ele>
        <time>2017-11-13T13:05:56.983000Z</time>
      </trkpt>
      <trkpt lat="45.60748823918402" lon="10.21031141281128">
        <ele>210.83626165214676</ele>
        <time>2017-11-13T13:05:58.704000Z</time>
      </trkpt>
      <trkpt lat="45.60723074711859" lon="10.210611820220947">
        <ele>210.9848220395735</ele>
        <time>2017-11-13T13:05:59.237000Z</time>
      </trkpt>
      <trkpt lat="45.60671576298773" lon="10.211448669433594">
        <ele>212.0</ele>
        <time>2017-11-13T13:06:00.487000Z</time>
      </trkpt>
      <trkpt lat="45.60607194900513" lon="10.21252155303955">
        <ele>211.07941645929745</ele>
        <time>2017-11-13T13:06:02.072000Z</time>
      </trkpt>
      <trkpt lat="45.6059271561601" lon="10.212717367969471">
        <ele>210.98689990481736</ele>
        <time>2017-11-13T13:06:02.392000Z</time>
      </trkpt>
      <trkpt lat="45.60587780064665" lon="10.212784115038211">
        <ele>210.9553638635273</ele>
        <time>2017-11-13T13:06:02.501000Z</time>
      </trkpt>
      <trkpt lat="45.60585334897041" lon="10.212817182764411">
        <ele>210.9397403093902</ele>
        <time>2017-11-13T13:06:02.555000Z</time>
      </trkpt>
      <trkpt lat="45.605853432789445" lon="10.21281709894538">
        <ele>210.9396928299517</ele>
        <time>2017-11-13T13:06:02.555000Z</time>
      </trkpt>
      <trkpt lat="45.6057071685791" lon="10.213015079498291">
        <ele>210.17953005860764</ele>
        <time>2017-11-13T13:06:02.878000Z</time>
      </trkpt>
      <trkpt lat="45.605685794726014" lon="10.21303653717041">
        <ele>210.16740716753543</ele>
        <time>2017-11-13T13:06:02.920000Z</time>
      </trkpt>
      <trkpt lat="45.60566425323486" lon="10.21305799484253">
        <ele>210.15522051978056</ele>
        <time>2017-11-13T13:06:02.962000Z</time>
      </trkpt>
      <trkpt lat="45.605449760332704" lon="10.213208198547363">
        <ele>210.04435949461683</ele>
        <time>2017-11-13T13:06:03.345000Z</time>
      </trkpt>
      <trkpt lat="45.605385303497314" lon="10.213251113891602">
        <ele>210.01135593963838</ele>
        <time>2017-11-13T13:06:03.459000Z</time>
      </trkpt>
      <trkpt lat="45.60476303100586" lon="10.213830471038818">
        <ele>210.0</ele>
        <time>2017-11-13T13:06:04.650000Z</time>
      </trkpt>
      <trkpt lat="45.603625774383545" lon="10.21479606628418">
        <ele>207.45510459905344</ele>
        <time>2017-11-13T13:06:06.771000Z</time>
      </trkpt>
      <trkpt lat="45.6023383140564" lon="10.216126441955566">
        <ele>202.0</ele>
        <time>2017-11-13T13:06:09.318000Z</time>
      </trkpt>
      <trkpt lat="45.60216665267944" lon="10.216169357299805">
        <ele>202.0</ele>
        <time>2017-11-13T13:06:09.597000Z</time>
      </trkpt>
      <trkpt lat="45.60208082199097" lon="10.216083526611328">
        <ele>202.0</ele>
        <time>2017-11-13T13:06:09.765000Z</time>
      </trkpt>
      <trkpt lat="45.60201653279364" lon="10.216126441955566">
        <ele>202.0</ele>
        <time>2017-11-13T13:06:09.879000Z</time>
      </trkpt>
      <trkpt lat="45.60197353363037" lon="10.216233730316162">
        <ele>202.0</ele>
        <time>2017-11-13T13:06:10.018000Z</time>
      </trkpt>
      <trkpt lat="45.60201644897461" lon="10.216341018676758">
        <ele>202.0</ele>
        <time>2017-11-13T13:06:10.157000Z</time>
      </trkpt>
      <trkpt lat="45.601887702941895" lon="10.216577053070068">
        <ele>202.0</ele>
        <time>2017-11-13T13:06:10.493000Z</time>
      </trkpt>
      <trkpt lat="45.60124171364417" lon="10.217294704295222">
        <ele>202.0</ele>
        <time>2017-11-13T13:06:11.805000Z</time>
      </trkpt>
      <trkpt lat="45.601188067902896" lon="10.217354300184766">
        <ele>202.0982102967415</ele>
        <time>2017-11-13T13:06:11.914000Z</time>
      </trkpt>
      <trkpt lat="45.601161578670144" lon="10.217383727431297">
        <ele>202.14670462244257</ele>
        <time>2017-11-13T13:06:11.968000Z</time>
      </trkpt>
      <trkpt lat="45.60116174630821" lon="10.217383643612266">
        <ele>202.1469613341183</ele>
        <time>2017-11-13T13:06:11.968000Z</time>
      </trkpt>
      <trkpt lat="45.600149631500244" lon="10.218508243560791">
        <ele>205.0</ele>
        <time>2017-11-13T13:06:14.023000Z</time>
      </trkpt>
      <trkpt lat="45.59901245869696" lon="10.21979570388794">
        <ele>199.48576815058314</ele>
        <time>2017-11-13T13:06:16.349000Z</time>
      </trkpt>
      <trkpt lat="45.59901237487793" lon="10.21979570388794">
        <ele>199.48570656691797</ele>
        <time>2017-11-13T13:06:16.349000Z</time>
      </trkpt>
      <trkpt lat="45.59896945953369" lon="10.219838619232178">
        <ele>199.44722413000582</ele>
        <time>2017-11-13T13:06:16.433000Z</time>
      </trkpt>
      <trkpt lat="45.59881933964789" lon="10.22003173828125">
        <ele>200.2988290549657</ele>
        <time>2017-11-13T13:06:16.757000Z</time>
      </trkpt>
      <trkpt lat="45.598368644714355" lon="10.22054672241211">
        <ele>199.8748754538216</ele>
        <time>2017-11-13T13:06:17.682000Z</time>
      </trkpt>
      <trkpt lat="45.597403049468994" lon="10.221962928771973">
        <ele>198.05760722554092</ele>
        <time>2017-11-13T13:06:19.900000Z</time>
      </trkpt>
      <trkpt lat="45.59703826904297" lon="10.222477912902832">
        <ele>197.9554251407692</ele>
        <time>2017-11-13T13:06:20.722000Z</time>
      </trkpt>
      <trkpt lat="45.59585818089545" lon="10.223679542541504">
        <ele>199.0</ele>
        <time>2017-11-13T13:06:23.045000Z</time>
      </trkpt>
      <trkpt lat="45.595149993896484" lon="10.22428035736084">
        <ele>197.64111049487164</ele>
        <time>2017-11-13T13:06:24.365000Z</time>
      </trkpt>
      <trkpt lat="45.59401273727417" lon="10.224602222442627">
        <ele>194.0</ele>
        <time>2017-11-13T13:06:26.224000Z</time>
      </trkpt>
      <trkpt lat="45.59351921081543" lon="10.224881172180176">
        <ele>194.0</ele>
        <time>2017-11-13T13:06:27.075000Z</time>
      </trkpt>
      <trkpt lat="45.59326171875" lon="10.225117206573486">
        <ele>194.0</ele>
        <time>2017-11-13T13:06:27.565000Z</time>
      </trkpt>
      <trkpt lat="45.593132972717285" lon="10.225138664245605">
        <ele>194.0</ele>
        <time>2017-11-13T13:06:27.773000Z</time>
      </trkpt>
      <trkpt lat="45.59302568435669" lon="10.22526741027832">
        <ele>194.0</ele>
        <time>2017-11-13T13:06:27.998000Z</time>
      </trkpt>
      <trkpt lat="45.592744462700146" lon="10.225390444895547">
        <ele>193.94913750869998</ele>
        <time>2017-11-13T13:06:28.469000Z</time>
      </trkpt>
      <trkpt lat="45.59268236160278" lon="10.225417613983154">
        <ele>193.93790574536533</ele>
        <time>2017-11-13T13:06:28.573000Z</time>
      </trkpt>
      <trkpt lat="45.59267919729215" lon="10.225417613983126">
        <ele>193.93735850989287</ele>
        <time>2017-11-13T13:06:28.578000Z</time>
      </trkpt>
      <trkpt lat="45.592644894495606" lon="10.225417613983154">
        <ele>193.93142618868828</ele>
        <time>2017-11-13T13:06:28.633000Z</time>
      </trkpt>
      <trkpt lat="45.59182413853705" lon="10.225417613983154">
        <ele>193.45615142586578</ele>
        <time>2017-11-13T13:06:29.949000Z</time>
      </trkpt>
      <trkpt lat="45.59156478309076" lon="10.225403191967178">
        <ele>193.89860466327613</ele>
        <time>2017-11-13T13:06:30.365000Z</time>
      </trkpt>
      <trkpt lat="45.59149689027377" lon="10.225399416663528">
        <ele>193.92716954491576</ele>
        <time>2017-11-13T13:06:30.474000Z</time>
      </trkpt>
      <trkpt lat="45.591462375596166" lon="10.225397497415543">
        <ele>193.94169107638834</ele>
        <time>2017-11-13T13:06:30.529000Z</time>
      </trkpt>
      <trkpt lat="45.59143781661987" lon="10.225396156311035">
        <ele>193.95202361809274</ele>
        <time>2017-11-13T13:06:30.568000Z</time>
      </trkpt>
      <trkpt lat="45.591437900438905" lon="10.225396156311035">
        <ele>193.95205885702146</ele>
        <time>2017-11-13T13:06:30.568000Z</time>
      </trkpt>
      <trkpt lat="45.59133061207831" lon="10.225374698638916">
        <ele>193.99760429205264</ele>
        <time>2017-11-13T13:06:30.742000Z</time>
      </trkpt>
      <trkpt lat="45.58974266052246" lon="10.225224494934082">
        <ele>195.0</ele>
        <time>2017-11-13T13:06:33.293000Z</time>
      </trkpt>
      <trkpt lat="45.58972128666937" lon="10.225181579589844">
        <ele>194.93106056546856</ele>
        <time>2017-11-13T13:06:33.352000Z</time>
      </trkpt>
      <trkpt lat="45.58954962529242" lon="10.225203037261963">
        <ele>194.60878622636832</ele>
        <time>2017-11-13T13:06:33.628000Z</time>
      </trkpt>
      <trkpt lat="45.58952808380127" lon="10.225224494934082">
        <ele>194.55967626169186</ele>
        <time>2017-11-13T13:06:33.670000Z</time>
      </trkpt>
      <trkpt lat="45.58935650624335" lon="10.22528886795044">
        <ele>194.22790885918187</ele>
        <time>2017-11-13T13:06:33.954000Z</time>
      </trkpt>
      <trkpt lat="45.58897018432617" lon="10.225374698638916">
        <ele>192.83004596649266</ele>
        <time>2017-11-13T13:06:34.581000Z</time>
      </trkpt>
      <trkpt lat="45.588176250457764" lon="10.225481986999512">
        <ele>190.2108716052766</ele>
        <time>2017-11-13T13:06:35.859000Z</time>
      </trkpt>
      <trkpt lat="45.58798313140869" lon="10.225353240966797">
        <ele>189.95357650414692</ele>
        <time>2017-11-13T13:06:36.201000Z</time>
      </trkpt>
      <trkpt lat="45.587897300720215" lon="10.225331783294678">
        <ele>189.9125414045709</ele>
        <time>2017-11-13T13:06:36.341000Z</time>
      </trkpt>
      <trkpt lat="45.58781147003174" lon="10.225396156311035">
        <ele>189.86689092606142</ele>
        <time>2017-11-13T13:06:36.496000Z</time>
      </trkpt>
      <trkpt lat="45.58768272399902" lon="10.22554636001587">
        <ele>189.78861738953842</ele>
        <time>2017-11-13T13:06:36.762000Z</time>
      </trkpt>
      <trkpt lat="45.58753260411322" lon="10.22554636001587">
        <ele>189.71791986481375</ele>
        <time>2017-11-13T13:06:37.003000Z</time>
      </trkpt>
      <trkpt lat="45.58753252029419" lon="10.22554636001587">
        <ele>189.71788039104226</ele>
        <time>2017-11-13T13:06:37.003000Z</time>
      </trkpt>
      <trkpt lat="45.586717212572694" lon="10.225610733032227">
        <ele>189.0</ele>
        <time>2017-11-13T13:06:38.312000Z</time>
      </trkpt>
      <trkpt lat="45.58652400970459" lon="10.225610733032227">
        <ele>188.57172645496723</ele>
        <time>2017-11-13T13:06:38.622000Z</time>
      </trkpt>
      <trkpt lat="45.58598765172064" lon="10.225675106048584">
        <ele>188.3072311554798</ele>
        <time>2017-11-13T13:06:39.485000Z</time>
      </trkpt>
      <trkpt lat="45.58585890568793" lon="10.225675106048584">
        <ele>188.2439651402215</ele>
        <time>2017-11-13T13:06:39.691000Z</time>
      </trkpt>
      <trkpt lat="45.58579453267157" lon="10.225696563720703">
        <ele>188.54481613958066</ele>
        <time>2017-11-13T13:06:39.797000Z</time>
      </trkpt>
      <trkpt lat="45.58525800704956" lon="10.225739479064941">
        <ele>188.28075378404742</ele>
        <time>2017-11-13T13:06:40.658000Z</time>
      </trkpt>
      <trkpt lat="45.584657192230225" lon="10.225975513458252">
        <ele>186.9763938973249</ele>
        <time>2017-11-13T13:06:41.657000Z</time>
      </trkpt>
      <trkpt lat="45.58409937657416" lon="10.226383209228516">
        <ele>185.0</ele>
        <time>2017-11-13T13:06:42.661000Z</time>
      </trkpt>
      <trkpt lat="45.583884716033936" lon="10.226554870605469">
        <ele>184.72621734813856</ele>
        <time>2017-11-13T13:06:43.055000Z</time>
      </trkpt>
      <trkpt lat="45.583477104082704" lon="10.22700548171997">
        <ele>183.4859616026043</ele>
        <time>2017-11-13T13:06:43.881000Z</time>
      </trkpt>
      <trkpt lat="45.58300495147705" lon="10.227584838867188">
        <ele>182.4599556434351</ele>
        <time>2017-11-13T13:06:44.879000Z</time>
      </trkpt>
      <trkpt lat="45.58203944005072" lon="10.228550434112549">
        <ele>182.0</ele>
        <time>2017-11-13T13:06:46.768000Z</time>
      </trkpt>
      <trkpt lat="45.58203935623169" lon="10.228550434112549">
        <ele>181.99986356500438</ele>
        <time>2017-11-13T13:06:46.768000Z</time>
      </trkpt>
      <trkpt lat="45.58173903264105" lon="10.228807926177979">
        <ele>181.42975675880294</ele>
        <time>2017-11-13T13:06:47.329000Z</time>
      </trkpt>
      <trkpt lat="45.58135271072388" lon="10.22902250289917">
        <ele>180.08841677177716</ele>
        <time>2017-11-13T13:06:47.993000Z</time>
      </trkpt>
      <trkpt lat="45.58105230331421" lon="10.229043960571289">
        <ele>179.59882307792745</ele>
        <time>2017-11-13T13:06:48.475000Z</time>
      </trkpt>
      <trkpt lat="45.580966556444764" lon="10.228936672210693">
        <ele>179.51883013451098</ele>
        <time>2017-11-13T13:06:48.658000Z</time>
      </trkpt>
      <trkpt lat="45.58081635273993" lon="10.228958129882812">
        <ele>178.74622161988577</ele>
        <time>2017-11-13T13:06:48.900000Z</time>
      </trkpt>
      <trkpt lat="45.58075189590454" lon="10.229086875915527">
        <ele>178.7948492108634</ele>
        <time>2017-11-13T13:06:49.078000Z</time>
      </trkpt>
      <trkpt lat="45.58045148849487" lon="10.229365825653076">
        <ele>179.95210306303375</ele>
        <time>2017-11-13T13:06:49.652000Z</time>
      </trkpt>
      <trkpt lat="45.58023691177368" lon="10.229430198669434">
        <ele>180.04833803562693</ele>
        <time>2017-11-13T13:06:50.003000Z</time>
      </trkpt>
      <trkpt lat="45.580194080248475" lon="10.229408740997314">
        <ele>180.06825967521084</ele>
        <time>2017-11-13T13:06:50.076000Z</time>
      </trkpt>
      <trkpt lat="45.58008679188788" lon="10.229451656341553">
        <ele>180.1171609477085</ele>
        <time>2017-11-13T13:06:50.255000Z</time>
      </trkpt>
      <trkpt lat="45.58006525039673" lon="10.229473114013672">
        <ele>180.10957436225658</ele>
        <time>2017-11-13T13:06:50.297000Z</time>
      </trkpt>
      <trkpt lat="45.579893589019775" lon="10.229580402374268">
        <ele>179.38877686944218</ele>
        <time>2017-11-13T13:06:50.597000Z</time>
      </trkpt>
      <trkpt lat="45.57950743474066" lon="10.229623317718506">
        <ele>179.27687909182995</ele>
        <time>2017-11-13T13:06:51.218000Z</time>
      </trkpt>
      <trkpt lat="45.57950735092163" lon="10.229623317718506">
        <ele>179.27685487633585</ele>
        <time>2017-11-13T13:06:51.218000Z</time>
      </trkpt>
      <trkpt lat="45.578550980215084" lon="10.229710153121621">
        <ele>179.0</ele>
        <time>2017-11-13T13:06:52.754000Z</time>
      </trkpt>
      <trkpt lat="45.578483172803445" lon="10.229716309705339">
        <ele>178.9541707061371</ele>
        <time>2017-11-13T13:06:52.863000Z</time>
      </trkpt>
      <trkpt lat="45.57842357084155" lon="10.22972172126174">
        <ele>178.91388726591944</ele>
        <time>2017-11-13T13:06:52.959000Z</time>
      </trkpt>
      <trkpt lat="45.57842365466058" lon="10.22972172126174">
        <ele>178.9138307288332</ele>
        <time>2017-11-13T13:06:52.960000Z</time>
      </trkpt>
      <trkpt lat="45.5780912283808" lon="10.22975206375122">
        <ele>179.02248084502511</ele>
        <time>2017-11-13T13:06:53.494000Z</time>
      </trkpt>
      <trkpt lat="45.57684659957886" lon="10.230116844177246">
        <ele>177.49881197074612</ele>
        <time>2017-11-13T13:06:55.531000Z</time>
      </trkpt>
      <trkpt lat="45.57650327682495" lon="10.230116844177246">
        <ele>176.1981498872186</ele>
        <time>2017-11-13T13:06:56.081000Z</time>
      </trkpt>
      <trkpt lat="45.576481902971864" lon="10.230073928833008">
        <ele>176.1478391872038</ele>
        <time>2017-11-13T13:06:56.140000Z</time>
      </trkpt>
      <trkpt lat="45.57637461461127" lon="10.230052471160889">
        <ele>176.0</ele>
        <time>2017-11-13T13:06:56.314000Z</time>
      </trkpt>
      <trkpt lat="45.57631015777588" lon="10.230116844177246">
        <ele>176.01934825347806</ele>
        <time>2017-11-13T13:06:56.440000Z</time>
      </trkpt>
      <trkpt lat="45.575924003496766" lon="10.230545997619629">
        <ele>176.13971063311683</ele>
        <time>2017-11-13T13:06:57.224000Z</time>
      </trkpt>
      <trkpt lat="45.5757737159729" lon="10.230631828308105">
        <ele>176.51286287138203</ele>
        <time>2017-11-13T13:06:57.483000Z</time>
      </trkpt>
      <trkpt lat="45.575687885284424" lon="10.230631828308105">
        <ele>176.53397909960026</ele>
        <time>2017-11-13T13:06:57.621000Z</time>
      </trkpt>
      <trkpt lat="45.57530173100531" lon="10.230631828308105">
        <ele>176.62898150526567</ele>
        <time>2017-11-13T13:06:58.240000Z</time>
      </trkpt>
      <trkpt lat="45.57515152730048" lon="10.230674743652344">
        <ele>176.66666666666666</ele>
        <time>2017-11-13T13:06:58.486000Z</time>
      </trkpt>
      <trkpt lat="45.57489403523505" lon="10.23076057434082">
        <ele>176.28377274886063</ele>
        <time>2017-11-13T13:06:58.910000Z</time>
      </trkpt>
      <trkpt lat="45.57476528920233" lon="10.230803489685059">
        <ele>176.2589924536911</ele>
        <time>2017-11-13T13:06:59.122000Z</time>
      </trkpt>
      <trkpt lat="45.57463654316962" lon="10.230846405029297">
        <ele>176.23421215558844</ele>
        <time>2017-11-13T13:06:59.334000Z</time>
      </trkpt>
      <trkpt lat="45.574636459350586" lon="10.230846405029297">
        <ele>176.23416940966658</ele>
        <time>2017-11-13T13:06:59.334000Z</time>
      </trkpt>
      <trkpt lat="45.57440050877631" lon="10.230910778045654">
        <ele>176.11166505420658</ele>
        <time>2017-11-13T13:06:59.719000Z</time>
      </trkpt>
      <trkpt lat="45.57403572835028" lon="10.23103952407837">
        <ele>175.92004163121283</ele>
        <time>2017-11-13T13:07:00.321000Z</time>
      </trkpt>
      <trkpt lat="45.573417798333914" lon="10.231238856513691">
        <ele>175.59697648412518</ele>
        <time>2017-11-13T13:07:01.337000Z</time>
      </trkpt>
      <trkpt lat="45.57337054051459" lon="10.23125410079956">
        <ele>175.53392750144872</ele>
        <time>2017-11-13T13:07:01.415000Z</time>
      </trkpt>
      <trkpt lat="45.57335115634845" lon="10.231260519963715">
        <ele>175.50803234635887</ele>
        <time>2017-11-13T13:07:01.447000Z</time>
      </trkpt>
      <trkpt lat="45.573293594643474" lon="10.231279581785202">
        <ele>174.76446945220997</ele>
        <time>2017-11-13T13:07:01.542000Z</time>
      </trkpt>
      <trkpt lat="45.573293678462505" lon="10.231279581785202">
        <ele>174.76436037138083</ele>
        <time>2017-11-13T13:07:01.542000Z</time>
      </trkpt>
      <trkpt lat="45.57311304844916" lon="10.231339931488037">
        <ele>174.5229479613508</ele>
        <time>2017-11-13T13:07:01.839000Z</time>
      </trkpt>
      <trkpt lat="45.57300576008856" lon="10.231361389160156">
        <ele>174.3819628303779</ele>
        <time>2017-11-13T13:07:02.013000Z</time>
      </trkpt>
      <trkpt lat="45.572962844744325" lon="10.231318473815918">
        <ele>174.31378995530363</ele>
        <time>2017-11-13T13:07:02.097000Z</time>
      </trkpt>
      <trkpt lat="45.5728554725647" lon="10.231297016143799">
        <ele>174.172696788974</ele>
        <time>2017-11-13T13:07:02.271000Z</time>
      </trkpt>
      <trkpt lat="45.57279109954834" lon="10.231404304504395">
        <ele>174.04397011131127</ele>
        <time>2017-11-13T13:07:02.430000Z</time>
      </trkpt>
      <trkpt lat="45.57266243733466" lon="10.231468677520752">
        <ele>174.0</ele>
        <time>2017-11-13T13:07:02.649000Z</time>
      </trkpt>
      <trkpt lat="45.5725980643183" lon="10.231468677520752">
        <ele>173.9809946051822</ele>
        <time>2017-11-13T13:07:02.752000Z</time>
      </trkpt>
      <trkpt lat="45.57206162251532" lon="10.231575965881348">
        <ele>173.821071688337</ele>
        <time>2017-11-13T13:07:03.620000Z</time>
      </trkpt>
      <trkpt lat="45.57090290822089" lon="10.23153305053711">
        <ele>173.47885962145574</ele>
        <time>2017-11-13T13:07:05.478000Z</time>
      </trkpt>
      <trkpt lat="45.570902824401855" lon="10.23153305053711">
        <ele>173.4787537292816</ele>
        <time>2017-11-13T13:07:05.478000Z</time>
      </trkpt>
      <trkpt lat="45.570688331499696" lon="10.23151159286499">
        <ele>172.5404453317657</ele>
        <time>2017-11-13T13:07:05.823000Z</time>
      </trkpt>
      <trkpt lat="45.57055950164795" lon="10.23151159286499">
        <ele>172.3776890600785</ele>
        <time>2017-11-13T13:07:06.030000Z</time>
      </trkpt>
      <trkpt lat="45.570430839434266" lon="10.231404304504395">
        <ele>172.18947742030934</ele>
        <time>2017-11-13T13:07:06.269000Z</time>
      </trkpt>
      <trkpt lat="45.57036638259888" lon="10.231425762176514">
        <ele>172.1149726368332</ele>
        <time>2017-11-13T13:07:06.375000Z</time>
      </trkpt>
      <trkpt lat="45.570237720385194" lon="10.231404304504395">
        <ele>171.9691509230117</ele>
        <time>2017-11-13T13:07:06.583000Z</time>
      </trkpt>
      <trkpt lat="45.57023763656616" lon="10.231404304504395">
        <ele>171.96913771159174</ele>
        <time>2017-11-13T13:07:06.583000Z</time>
      </trkpt>
      <trkpt lat="45.56935787200928" lon="10.231168270111084">
        <ele>171.49471275372613</ele>
        <time>2017-11-13T13:07:08.018000Z</time>
      </trkpt>
      <trkpt lat="45.5686713103205" lon="10.230889320373535">
        <ele>171.7155391108653</ele>
        <time>2017-11-13T13:07:09.162000Z</time>
      </trkpt>
      <trkpt lat="45.568671226501465" lon="10.230889320373535">
        <ele>171.7154059391565</ele>
        <time>2017-11-13T13:07:09.162000Z</time>
      </trkpt>
      <trkpt lat="45.568392276763916" lon="10.230696201324463">
        <ele>170.88956891735242</ele>
        <time>2017-11-13T13:07:09.659000Z</time>
      </trkpt>
      <trkpt lat="45.56824207305908" lon="10.230481624603271">
        <ele>169.52442878401905</ele>
        <time>2017-11-13T13:07:10Z</time>
      </trkpt>
      <trkpt lat="45.568220699205995" lon="10.230460166931152">
        <ele>169.4795238391273</ele>
        <time>2017-11-13T13:07:10.042000Z</time>
      </trkpt>
      <trkpt lat="45.5681134108454" lon="10.230374336242676">
        <ele>169.26815608174294</ele>
        <time>2017-11-13T13:07:10.239000Z</time>
      </trkpt>
      <trkpt lat="45.56807041168213" lon="10.230395793914795">
        <ele>169.18986531420651</ele>
        <time>2017-11-13T13:07:10.312000Z</time>
      </trkpt>
      <trkpt lat="45.56785591877997" lon="10.230395793914795">
        <ele>168.82117776438545</ele>
        <time>2017-11-13T13:07:10.656000Z</time>
      </trkpt>
      <trkpt lat="45.5675555113703" lon="10.2302885055542">
        <ele>168.79296194318002</ele>
        <time>2017-11-13T13:07:11.152000Z</time>
      </trkpt>
      <trkpt lat="45.56755542755127" lon="10.2302885055542">
        <ele>168.79295430556525</ele>
        <time>2017-11-13T13:07:11.152000Z</time>
      </trkpt>
      <trkpt lat="45.56738384999335" lon="10.230224132537842">
        <ele>168.7767898202735</ele>
        <time>2017-11-13T13:07:11.436000Z</time>
      </trkpt>
      <trkpt lat="45.56721210479736" lon="10.230159759521484">
        <ele>168.76061055721541</ele>
        <time>2017-11-13T13:07:11.721000Z</time>
      </trkpt>
      <trkpt lat="45.56698885937262" lon="10.230048136555931">
        <ele>168.739058137849</ele>
        <time>2017-11-13T13:07:12.100000Z</time>
      </trkpt>
      <trkpt lat="45.56692473039813" lon="10.23001607216998">
        <ele>168.7328670416289</ele>
        <time>2017-11-13T13:07:12.209000Z</time>
      </trkpt>
      <trkpt lat="45.56686878204346" lon="10.229988098144531">
        <ele>168.72746571404377</ele>
        <time>2017-11-13T13:07:12.304000Z</time>
      </trkpt>
      <trkpt lat="45.56686886586249" lon="10.229988098144531">
        <ele>168.72745807642903</ele>
        <time>2017-11-13T13:07:12.304000Z</time>
      </trkpt>
      <trkpt lat="45.566246509552" lon="10.229644775390625">
        <ele>169.0</ele>
        <time>2017-11-13T13:07:13.374000Z</time>
      </trkpt>
      <trkpt lat="45.566246593371034" lon="10.229644775390625">
        <ele>168.99995696094808</ele>
        <time>2017-11-13T13:07:13.374000Z</time>
      </trkpt>
      <trkpt lat="45.56590327061713" lon="10.229451656341553">
        <ele>168.81049224544174</ele>
        <time>2017-11-13T13:07:13.966000Z</time>
      </trkpt>
      <trkpt lat="45.565688693895936" lon="10.229344367980957">
        <ele>168.3604236661047</ele>
        <time>2017-11-13T13:07:14.330000Z</time>
      </trkpt>
      <trkpt lat="45.56525954045355" lon="10.229129791259766">
        <ele>168.4602863127386</ele>
        <time>2017-11-13T13:07:15.059000Z</time>
      </trkpt>
      <trkpt lat="45.56502342224121" lon="10.22902250289917">
        <ele>168.07696518470263</ele>
        <time>2017-11-13T13:07:15.456000Z</time>
      </trkpt>
      <trkpt lat="45.56483038701117" lon="10.228893756866455">
        <ele>166.74738090964263</ele>
        <time>2017-11-13T13:07:15.798000Z</time>
      </trkpt>
      <trkpt lat="45.564744556322694" lon="10.228850841522217">
        <ele>166.60669727218638</ele>
        <time>2017-11-13T13:07:15.944000Z</time>
      </trkpt>
      <trkpt lat="45.56455143727362" lon="10.228829383850098">
        <ele>166.3070322796905</ele>
        <time>2017-11-13T13:07:16.255000Z</time>
      </trkpt>
      <trkpt lat="45.56440123356879" lon="10.228807926177979">
        <ele>166.0735021931409</ele>
        <time>2017-11-13T13:07:16.497000Z</time>
      </trkpt>
      <trkpt lat="45.5643367767334" lon="10.22876501083374">
        <ele>165.97859238273622</ele>
        <time>2017-11-13T13:07:16.611000Z</time>
      </trkpt>
      <trkpt lat="45.564186656847596" lon="10.228700637817383">
        <ele>165.7938858463949</ele>
        <time>2017-11-13T13:07:16.862000Z</time>
      </trkpt>
      <trkpt lat="45.563993537798524" lon="10.228636264801025">
        <ele>165.2268595187385</ele>
        <time>2017-11-13T13:07:17.180000Z</time>
      </trkpt>
      <trkpt lat="45.5637788772583" lon="10.228636264801025">
        <ele>164.97389631611136</ele>
        <time>2017-11-13T13:07:17.524000Z</time>
      </trkpt>
      <trkpt lat="45.56313523091376" lon="10.22852897644043">
        <ele>163.21025414251017</ele>
        <time>2017-11-13T13:07:18.563000Z</time>
      </trkpt>
      <trkpt lat="45.56283482350409" lon="10.228486061096191">
        <ele>162.85447767291157</ele>
        <time>2017-11-13T13:07:19.047000Z</time>
      </trkpt>
      <trkpt lat="45.562212551012635" lon="10.228421688079834">
        <ele>163.69152127396896</ele>
        <time>2017-11-13T13:07:20.047000Z</time>
      </trkpt>
      <trkpt lat="45.56189068593085" lon="10.228400230407715">
        <ele>163.7527384638349</ele>
        <time>2017-11-13T13:07:20.564000Z</time>
      </trkpt>
      <trkpt lat="45.56167610920966" lon="10.228378772735596">
        <ele>163.79360533468198</ele>
        <time>2017-11-13T13:07:20.909000Z</time>
      </trkpt>
      <trkpt lat="45.56053885258734" lon="10.22825002670288">
        <ele>160.6887249869617</ele>
        <time>2017-11-13T13:07:22.738000Z</time>
      </trkpt>
      <trkpt lat="45.560495937243104" lon="10.22825002670288">
        <ele>160.68306255535907</ele>
        <time>2017-11-13T13:07:22.807000Z</time>
      </trkpt>
      <trkpt lat="45.56013107299805" lon="10.228228569030762">
        <ele>160.6348800324528</ele>
        <time>2017-11-13T13:07:23.392000Z</time>
      </trkpt>
      <trkpt lat="45.56013115681708" lon="10.228228569030762">
        <ele>160.63486897301607</ele>
        <time>2017-11-13T13:07:23.392000Z</time>
      </trkpt>
      <trkpt lat="45.55961608886719" lon="10.228164196014404">
        <ele>160.89998237818762</ele>
        <time>2017-11-13T13:07:24.221000Z</time>
      </trkpt>
      <trkpt lat="45.55922985076904" lon="10.22803544998169">
        <ele>161.14509521512988</ele>
        <time>2017-11-13T13:07:24.857000Z</time>
      </trkpt>
      <trkpt lat="45.5591441038996" lon="10.227992534637451">
        <ele>161.22082030654371</ele>
        <time>2017-11-13T13:07:25.003000Z</time>
      </trkpt>
      <trkpt lat="45.55884369648993" lon="10.227820873260498">
        <ele>161.49048558478015</ele>
        <time>2017-11-13T13:07:25.522000Z</time>
      </trkpt>
      <trkpt lat="45.55837154388428" lon="10.227177143096924">
        <ele>162.3678428699196</ele>
        <time>2017-11-13T13:07:26.568000Z</time>
      </trkpt>
      <trkpt lat="45.55809267796576" lon="10.226855278015137">
        <ele>163.0</ele>
        <time>2017-11-13T13:07:27.143000Z</time>
      </trkpt>
      <trkpt lat="45.5580283049494" lon="10.22679090499878">
        <ele>162.9582537886041</ele>
        <time>2017-11-13T13:07:27.269000Z</time>
      </trkpt>
      <trkpt lat="45.557706439867616" lon="10.226576328277588">
        <ele>162.4362251726839</ele>
        <time>2017-11-13T13:07:27.838000Z</time>
      </trkpt>
      <trkpt lat="45.557191455736756" lon="10.22627592086792">
        <ele>161.80737676113552</ele>
        <time>2017-11-13T13:07:28.730000Z</time>
      </trkpt>
      <trkpt lat="45.556955421343446" lon="10.226104259490967">
        <ele>161.66666666666666</ele>
        <time>2017-11-13T13:07:29.155000Z</time>
      </trkpt>
      <trkpt lat="45.55691250599921" lon="10.226061344146729">
        <ele>161.69606945216506</ele>
        <time>2017-11-13T13:07:29.239000Z</time>
      </trkpt>
      <trkpt lat="45.556810226012324" lon="10.226004124715503">
        <ele>161.75771914376972</ele>
        <time>2017-11-13T13:07:29.415000Z</time>
      </trkpt>
      <trkpt lat="45.55674696240231" lon="10.225968732686074">
        <ele>161.7958515400022</ele>
        <time>2017-11-13T13:07:29.524000Z</time>
      </trkpt>
      <trkpt lat="45.5566918104887" lon="10.225937878713012">
        <ele>161.82909457279277</ele>
        <time>2017-11-13T13:07:29.619000Z</time>
      </trkpt>
      <trkpt lat="45.556691978126764" lon="10.225937962532043">
        <ele>161.82919425586442</ele>
        <time>2017-11-13T13:07:29.619000Z</time>
      </trkpt>
      <trkpt lat="45.55637606419623" lon="10.22576093673706">
        <ele>162.68632133043252</ele>
        <time>2017-11-13T13:07:30.163000Z</time>
      </trkpt>
      <trkpt lat="45.556225860491395" lon="10.225653648376465">
        <ele>162.78057612034905</ele>
        <time>2017-11-13T13:07:30.432000Z</time>
      </trkpt>
      <trkpt lat="45.55583953857422" lon="10.225567817687988">
        <ele>162.89911938305764</ele>
        <time>2017-11-13T13:07:31.059000Z</time>
      </trkpt>
      <trkpt lat="45.555689334869385" lon="10.225589275360107">
        <ele>162.46827659902658</ele>
        <time>2017-11-13T13:07:31.301000Z</time>
      </trkpt>
      <trkpt lat="45.554959857836366" lon="10.22554636001587">
        <ele>161.32999900582408</ele>
        <time>2017-11-13T13:07:32.471000Z</time>
      </trkpt>
      <trkpt lat="45.55412292480469" lon="10.225589275360107">
        <ele>161.12236065941593</ele>
        <time>2017-11-13T13:07:33.814000Z</time>
      </trkpt>
      <trkpt lat="45.553650856018066" lon="10.22552490234375">
        <ele>160.68001325031403</ele>
        <time>2017-11-13T13:07:34.574000Z</time>
      </trkpt>
      <trkpt lat="45.55354356765747" lon="10.225417613983154">
        <ele>160.51608352165007</ele>
        <time>2017-11-13T13:07:34.784000Z</time>
      </trkpt>
      <trkpt lat="45.55335053242743" lon="10.224945545196533">
        <ele>159.37030980507322</ele>
        <time>2017-11-13T13:07:35.398000Z</time>
      </trkpt>
      <trkpt lat="45.5533504486084" lon="10.224945545196533">
        <ele>159.3702385525374</ele>
        <time>2017-11-13T13:07:35.398000Z</time>
      </trkpt>
      <trkpt lat="45.55330761708319" lon="10.224838256835938">
        <ele>158.9633906975616</ele>
        <time>2017-11-13T13:07:35.537000Z</time>
      </trkpt>
      <trkpt lat="45.55262088775635" lon="10.223550796508789">
        <ele>158.0</ele>
        <time>2017-11-13T13:07:37.354000Z</time>
      </trkpt>
      <trkpt lat="45.55256957950525" lon="10.223486661140393">
        <ele>157.9553650104847</ele>
        <time>2017-11-13T13:07:37.463000Z</time>
      </trkpt>
      <trkpt lat="45.55253505706787" lon="10.223443508148193">
        <ele>157.92533265515507</ele>
        <time>2017-11-13T13:07:37.537000Z</time>
      </trkpt>
      <trkpt lat="45.552513350949724" lon="10.223438506003026">
        <ele>157.91094019920817</ele>
        <time>2017-11-13T13:07:37.572000Z</time>
      </trkpt>
      <trkpt lat="45.552454674616456" lon="10.223424984142184">
        <ele>157.2053676108525</ele>
        <time>2017-11-13T13:07:37.667000Z</time>
      </trkpt>
      <trkpt lat="45.55245484225452" lon="10.223425151780248">
        <ele>157.20523364677828</ele>
        <time>2017-11-13T13:07:37.667000Z</time>
      </trkpt>
      <trkpt lat="45.552256191149354" lon="10.223379135131836">
        <ele>157.0734986472293</ele>
        <time>2017-11-13T13:07:37.990000Z</time>
      </trkpt>
      <trkpt lat="45.55184849537909" lon="10.22329330444336">
        <ele>157.1370732969573</ele>
        <time>2017-11-13T13:07:38.651000Z</time>
      </trkpt>
      <trkpt lat="45.55075407028198" lon="10.22303581237793">
        <ele>156.07768044280084</ele>
        <time>2017-11-13T13:07:40.429000Z</time>
      </trkpt>
      <trkpt lat="45.5506713921724" lon="10.222990749445184">
        <ele>156.0505080451678</ele>
        <time>2017-11-13T13:07:40.571000Z</time>
      </trkpt>
      <trkpt lat="45.550607914558505" lon="10.222956151660103">
        <ele>156.02964594986793</ele>
        <time>2017-11-13T13:07:40.680000Z</time>
      </trkpt>
      <trkpt lat="45.55055215023458" lon="10.222925757989287">
        <ele>156.01131885187831</ele>
        <time>2017-11-13T13:07:40.776000Z</time>
      </trkpt>
      <trkpt lat="45.55055231787264" lon="10.222925757989287">
        <ele>156.01126737900063</ele>
        <time>2017-11-13T13:07:40.776000Z</time>
      </trkpt>
      <trkpt lat="45.55051803588867" lon="10.222907066345215">
        <ele>156.0</ele>
        <time>2017-11-13T13:07:40.835000Z</time>
      </trkpt>
      <trkpt lat="45.550174713134766" lon="10.222671031951904">
        <ele>156.0</ele>
        <time>2017-11-13T13:07:41.446000Z</time>
      </trkpt>
      <trkpt lat="45.54944523610175" lon="10.222198963165283">
        <ele>156.5505815672563</ele>
        <time>2017-11-13T13:07:42.730000Z</time>
      </trkpt>
      <trkpt lat="45.549445152282715" lon="10.222198963165283">
        <ele>156.55060430389122</ele>
        <time>2017-11-13T13:07:42.731000Z</time>
      </trkpt>
      <trkpt lat="45.54910191334784" lon="10.221834182739258">
        <ele>156.66666666666666</ele>
        <time>2017-11-13T13:07:43.417000Z</time>
      </trkpt>
      <trkpt lat="45.54890879429877" lon="10.221705436706543">
        <ele>156.59977885722608</ele>
        <time>2017-11-13T13:07:43.759000Z</time>
      </trkpt>
      <trkpt lat="45.54888312475802" lon="10.22169157245676">
        <ele>156.59116579489034</ele>
        <time>2017-11-13T13:07:43.803000Z</time>
      </trkpt>
      <trkpt lat="45.548819574537674" lon="10.221657248717124">
        <ele>156.23650905823408</ele>
        <time>2017-11-13T13:07:43.912000Z</time>
      </trkpt>
      <trkpt lat="45.548763535916805" lon="10.221626982092857">
        <ele>156.21770607194034</ele>
        <time>2017-11-13T13:07:44.008000Z</time>
      </trkpt>
      <trkpt lat="45.548763535916805" lon="10.221627065911889">
        <ele>156.217687650121</ele>
        <time>2017-11-13T13:07:44.008000Z</time>
      </trkpt>
      <trkpt lat="45.54811486043036" lon="10.22127628326416">
        <ele>156.0</ele>
        <time>2017-11-13T13:07:45.120000Z</time>
      </trkpt>
      <trkpt lat="45.54811477661133" lon="10.22127628326416">
        <ele>155.99997158641227</ele>
        <time>2017-11-13T13:07:45.120000Z</time>
      </trkpt>
      <trkpt lat="45.54755687713623" lon="10.220825672149658">
        <ele>155.11602578542576</ele>
        <time>2017-11-13T13:07:46.148000Z</time>
      </trkpt>
      <trkpt lat="45.547020519152284" lon="10.220632553100586">
        <ele>155.5951827260998</ele>
        <time>2017-11-13T13:07:47.035000Z</time>
      </trkpt>
      <trkpt lat="45.54626941680908" lon="10.220375061035156">
        <ele>155.0</ele>
        <time>2017-11-13T13:07:48.273000Z</time>
      </trkpt>
      <trkpt lat="45.54605492390692" lon="10.220310688018799">
        <ele>155.1144101033535</ele>
        <time>2017-11-13T13:07:48.624000Z</time>
      </trkpt>
      <trkpt lat="45.54564507877109" lon="10.22018359401394">
        <ele>155.66666666666666</ele>
        <time>2017-11-13T13:07:49.296000Z</time>
      </trkpt>
      <trkpt lat="45.54557868241066" lon="10.22016300451459">
        <ele>155.6470988428406</ele>
        <time>2017-11-13T13:07:49.405000Z</time>
      </trkpt>
      <trkpt lat="45.54551973938942" lon="10.220144726336002">
        <ele>155.62972761068238</ele>
        <time>2017-11-13T13:07:49.502000Z</time>
      </trkpt>
      <trkpt lat="45.545432567596436" lon="10.220117568969727">
        <ele>155.60403162824784</ele>
        <time>2017-11-13T13:07:49.645000Z</time>
      </trkpt>
      <trkpt lat="45.54534673690796" lon="10.220074653625488">
        <ele>155.57784076997152</ele>
        <time>2017-11-13T13:07:49.791000Z</time>
      </trkpt>
      <trkpt lat="45.54526090621948" lon="10.219988822937012">
        <ele>155.5476623235364</ele>
        <time>2017-11-13T13:07:49.959000Z</time>
      </trkpt>
      <trkpt lat="45.54476737976074" lon="10.219902992248535">
        <ele>155.4044768851355</ele>
        <time>2017-11-13T13:07:50.756000Z</time>
      </trkpt>
      <trkpt lat="45.544746005907655" lon="10.219881534576416">
        <ele>155.39695201084993</ele>
        <time>2017-11-13T13:07:50.798000Z</time>
      </trkpt>
      <trkpt lat="45.544724548235536" lon="10.219860076904297">
        <ele>155.38940737555293</ele>
        <time>2017-11-13T13:07:50.840000Z</time>
      </trkpt>
      <trkpt lat="45.544681549072266" lon="10.219924449920654">
        <ele>155.37146461501945</ele>
        <time>2017-11-13T13:07:50.940000Z</time>
      </trkpt>
      <trkpt lat="45.544681549072266" lon="10.219967365264893">
        <ele>155.36280855786654</ele>
        <time>2017-11-13T13:07:50.988000Z</time>
      </trkpt>
      <trkpt lat="45.54466017521918" lon="10.220074653625488">
        <ele>155.0069766004715</ele>
        <time>2017-11-13T13:07:51.113000Z</time>
      </trkpt>
      <trkpt lat="45.54466014144875" lon="10.22010924244587">
        <ele>155.0</ele>
        <time>2017-11-13T13:07:51.152000Z</time>
      </trkpt>
      <trkpt lat="45.54466009140015" lon="10.220160484313965">
        <ele>155.00916205372238</ele>
        <time>2017-11-13T13:07:51.210000Z</time>
      </trkpt>
      <trkpt lat="45.54465026309838" lon="10.220203822248791">
        <ele>155.04833409158172</ele>
        <time>2017-11-13T13:07:51.261000Z</time>
      </trkpt>
      <trkpt lat="45.54463184438646" lon="10.220285039395094">
        <ele>155.12174421048812</ele>
        <time>2017-11-13T13:07:51.357000Z</time>
      </trkpt>
      <trkpt lat="45.54463184438646" lon="10.220284787937999">
        <ele>155.12196044224808</ele>
        <time>2017-11-13T13:07:51.357000Z</time>
      </trkpt>
      <trkpt lat="45.54455288685858" lon="10.220632553100586">
        <ele>155.43633105612878</ele>
        <time>2017-11-13T13:07:51.767000Z</time>
      </trkpt>
      <trkpt lat="45.54440259933472" lon="10.221254825592041">
        <ele>156.00235791299636</ele>
        <time>2017-11-13T13:07:52.506000Z</time>
      </trkpt>
      <trkpt lat="45.54438122548163" lon="10.22151231765747">
        <ele>156.22533001525935</ele>
        <time>2017-11-13T13:07:52.797000Z</time>
      </trkpt>
      <trkpt lat="45.544395973621356" lon="10.22191050888503">
        <ele>156.90155394938677</ele>
        <time>2017-11-13T13:07:53.245000Z</time>
      </trkpt>
      <trkpt lat="45.544399561570955" lon="10.222007387126528">
        <ele>157.07104136001303</ele>
        <time>2017-11-13T13:07:53.354000Z</time>
      </trkpt>
      <trkpt lat="45.54440268315375" lon="10.222091674804688">
        <ele>157.21850170252324</ele>
        <time>2017-11-13T13:07:53.449000Z</time>
      </trkpt>
      <trkpt lat="45.54440259933472" lon="10.222091674804688">
        <ele>157.21871079017444</ele>
        <time>2017-11-13T13:07:53.449000Z</time>
      </trkpt>
      <trkpt lat="45.54440268315375" lon="10.222091674803687">
        <ele>157.21891987782567</ele>
        <time>2017-11-13T13:07:53.449000Z</time>
      </trkpt>
      <trkpt lat="45.54440259933472" lon="10.222091674805688">
        <ele>157.21912896547693</ele>
        <time>2017-11-13T13:07:53.449000Z</time>
      </trkpt>
      <trkpt lat="45.54435968399048" lon="10.222392082214355">
        <ele>157.75476240025864</ele>
        <time>2017-11-13T13:07:53.793000Z</time>
      </trkpt>
      <trkpt lat="45.54408073425293" lon="10.223443508148193">
        <ele>161.71904189193492</ele>
        <time>2017-11-13T13:07:55.055000Z</time>
      </trkpt>
      <trkpt lat="45.543973529711366" lon="10.223658084869385">
        <ele>162.11272039189615</ele>
        <time>2017-11-13T13:07:55.351000Z</time>
      </trkpt>
      <trkpt lat="45.54382332600653" lon="10.223701000213623">
        <ele>162.1214428281842</ele>
        <time>2017-11-13T13:07:55.597000Z</time>
      </trkpt>
      <trkpt lat="45.5438232421875" lon="10.223701000213623">
        <ele>162.1214476009976</ele>
        <time>2017-11-13T13:07:55.597000Z</time>
      </trkpt>
      <trkpt lat="45.54283627308905" lon="10.223186016082764">
        <ele>161.51461718660684</ele>
        <time>2017-11-13T13:07:57.282000Z</time>
      </trkpt>
      <trkpt lat="45.54283618927002" lon="10.223186016082764">
        <ele>161.5147461558075</ele>
        <time>2017-11-13T13:07:57.282000Z</time>
      </trkpt>
      <trkpt lat="45.542106712237" lon="10.222735404968262">
        <ele>164.73770686521</ele>
        <time>2017-11-13T13:07:58.556000Z</time>
      </trkpt>
      <trkpt lat="45.54210662841797" lon="10.222735404968262">
        <ele>164.73798568416464</ele>
        <time>2017-11-13T13:07:58.556000Z</time>
      </trkpt>
      <trkpt lat="45.541519288951214" lon="10.222366265213598">
        <ele>166.20598000365774</ele>
        <time>2017-11-13T13:07:59.585000Z</time>
      </trkpt>
      <trkpt lat="45.541457102981255" lon="10.222327182154936">
        <ele>166.6423680673784</ele>
        <time>2017-11-13T13:07:59.694000Z</time>
      </trkpt>
      <trkpt lat="45.541401794180274" lon="10.222292421385646">
        <ele>167.03049573428225</ele>
        <time>2017-11-13T13:07:59.791000Z</time>
      </trkpt>
      <trkpt lat="45.54140196181834" lon="10.222292505204678">
        <ele>167.0316365446472</ele>
        <time>2017-11-13T13:07:59.791000Z</time>
      </trkpt>
      <trkpt lat="45.54135569371283" lon="10.22226333618164">
        <ele>167.35648515840998</ele>
        <time>2017-11-13T13:07:59.872000Z</time>
      </trkpt>
      <trkpt lat="45.5413556098938" lon="10.22226333618164">
        <ele>167.35702350705773</ele>
        <time>2017-11-13T13:07:59.872000Z</time>
      </trkpt>
      <trkpt lat="45.54118403233588" lon="10.222177505493164">
        <ele>168.52470573548382</ele>
        <time>2017-11-13T13:08:00.163000Z</time>
      </trkpt>
      <trkpt lat="45.54116257466376" lon="10.222156047821045">
        <ele>168.69296448869986</ele>
        <time>2017-11-13T13:08:00.205000Z</time>
      </trkpt>
      <trkpt lat="45.54114111699164" lon="10.222156047821045">
        <ele>168.83078174252782</ele>
        <time>2017-11-13T13:08:00.239000Z</time>
      </trkpt>
      <trkpt lat="45.54111957550049" lon="10.222177505493164">
        <ele>168.9994817708896</ele>
        <time>2017-11-13T13:08:00.281000Z</time>
      </trkpt>
      <trkpt lat="45.54101228713989" lon="10.222241878509521">
        <ele>169.7469421697411</ele>
        <time>2017-11-13T13:08:00.468000Z</time>
      </trkpt>
      <trkpt lat="45.540969371795654" lon="10.222392082214355">
        <ele>170.4766892053801</ele>
        <time>2017-11-13T13:08:00.650000Z</time>
      </trkpt>
      <trkpt lat="45.54088362492621" lon="10.223207473754883">
        <ele>179.1858340968987</ele>
        <time>2017-11-13T13:08:01.576000Z</time>
      </trkpt>
      <trkpt lat="45.54088354110718" lon="10.223207473754883">
        <ele>179.18617808901777</ele>
        <time>2017-11-13T13:08:01.576000Z</time>
      </trkpt>
      <trkpt lat="45.54079779423773" lon="10.22428035736084">
        <ele>184.2901240397282</ele>
        <time>2017-11-13T13:08:02.788000Z</time>
      </trkpt>
      <trkpt lat="45.5407977104187" lon="10.22428035736084">
        <ele>184.29026700063716</ele>
        <time>2017-11-13T13:08:02.788000Z</time>
      </trkpt>
      <trkpt lat="45.540767292403636" lon="10.225152429685396">
        <ele>185.66666666666666</ele>
        <time>2017-11-13T13:08:03.768000Z</time>
      </trkpt>
      <trkpt lat="45.5407639125549" lon="10.225249316796724">
        <ele>186.01912798293606</ele>
        <time>2017-11-13T13:08:03.877000Z</time>
      </trkpt>
      <trkpt lat="45.54076099768281" lon="10.22533287294209">
        <ele>186.3230932033911</ele>
        <time>2017-11-13T13:08:03.971000Z</time>
      </trkpt>
      <trkpt lat="45.54076108150184" lon="10.225332621484995">
        <ele>186.32410502668517</ele>
        <time>2017-11-13T13:08:03.971000Z</time>
      </trkpt>
      <trkpt lat="45.540733421221375" lon="10.226125717163086">
        <ele>188.87593912550236</ele>
        <time>2017-11-13T13:08:04.863000Z</time>
      </trkpt>
      <trkpt lat="45.54075479507446" lon="10.226318836212158">
        <ele>189.58631505900848</ele>
        <time>2017-11-13T13:08:05.083000Z</time>
      </trkpt>
      <trkpt lat="45.541000929130696" lon="10.226647014319035">
        <ele>198.39209125372804</ele>
        <time>2017-11-13T13:08:05.623000Z</time>
      </trkpt>
      <trkpt lat="45.54105058663956" lon="10.226713224703014">
        <ele>197.87177934337933</ele>
        <time>2017-11-13T13:08:05.732000Z</time>
      </trkpt>
      <trkpt lat="45.54107666015625" lon="10.226747989654541">
        <ele>197.94862544140003</ele>
        <time>2017-11-13T13:08:05.789000Z</time>
      </trkpt>
      <trkpt lat="45.54109342396259" lon="10.22677380591631">
        <ele>198.00173803174485</ele>
        <time>2017-11-13T13:08:05.829000Z</time>
      </trkpt>
      <trkpt lat="45.54109325632453" lon="10.226773638278246">
        <ele>198.00217889397427</ele>
        <time>2017-11-13T13:08:05.829000Z</time>
      </trkpt>
      <trkpt lat="45.54202079772949" lon="10.228207111358643">
        <ele>201.61314098970283</ele>
        <time>2017-11-13T13:08:08.020000Z</time>
      </trkpt>
      <trkpt lat="45.54218583785687" lon="10.228505687304526">
        <ele>197.55206968776648</ele>
        <time>2017-11-13T13:08:08.447000Z</time>
      </trkpt>
      <trkpt lat="45.54222793053451" lon="10.22858183814566">
        <ele>196.94138634108162</ele>
        <time>2017-11-13T13:08:08.556000Z</time>
      </trkpt>
      <trkpt lat="45.54226538166404" lon="10.228649592027068">
        <ele>196.12270558598505</ele>
        <time>2017-11-13T13:08:08.653000Z</time>
      </trkpt>
      <trkpt lat="45.542265214025974" lon="10.228649424389005">
        <ele>196.1199338731033</ele>
        <time>2017-11-13T13:08:08.653000Z</time>
      </trkpt>
      <trkpt lat="45.542471408843994" lon="10.22902250289917">
        <ele>191.61219004703221</ele>
        <time>2017-11-13T13:08:09.187000Z</time>
      </trkpt>
      <trkpt lat="45.54251432418823" lon="10.229344367980957">
        <ele>179.50446454362006</ele>
        <time>2017-11-13T13:08:09.555000Z</time>
      </trkpt>
      <trkpt lat="45.54249286651611" lon="10.230052471160889">
        <ele>183.53487295415107</ele>
        <time>2017-11-13T13:08:10.351000Z</time>
      </trkpt>
      <trkpt lat="45.542471492663026" lon="10.230159759521484">
        <ele>183.59211796737574</ele>
        <time>2017-11-13T13:08:10.476000Z</time>
      </trkpt>
      <trkpt lat="45.54245258585688" lon="10.230613525797983">
        <ele>183.82540477345663</ele>
        <time>2017-11-13T13:08:10.986000Z</time>
      </trkpt>
      <trkpt lat="45.54245003499091" lon="10.230674743652344">
        <ele>183.85687763038604</ele>
        <time>2017-11-13T13:08:11.055000Z</time>
      </trkpt>
      <trkpt lat="45.542449951171875" lon="10.230674743652344">
        <ele>183.85693904890294</ele>
        <time>2017-11-13T13:08:11.055000Z</time>
      </trkpt>
      <trkpt lat="45.542437423652494" lon="10.230703958811725">
        <ele>183.87451930307407</ele>
        <time>2017-11-13T13:08:11.093000Z</time>
      </trkpt>
      <trkpt lat="45.542405527085066" lon="10.230778343975544">
        <ele>183.91928069790495</ele>
        <time>2017-11-13T13:08:11.191000Z</time>
      </trkpt>
      <trkpt lat="45.5424056109041" lon="10.230778260156512">
        <ele>183.91935568218744</ele>
        <time>2017-11-13T13:08:11.191000Z</time>
      </trkpt>
      <trkpt lat="45.54238566197455" lon="10.230824947357178">
        <ele>183.94742278386943</ele>
        <time>2017-11-13T13:08:11.252000Z</time>
      </trkpt>
      <trkpt lat="45.54232128895819" lon="10.230696201324463">
        <ele>184.02860520652564</ele>
        <time>2017-11-13T13:08:11.430000Z</time>
      </trkpt>
      <trkpt lat="45.54232120513916" lon="10.230696201324463">
        <ele>184.02840399180027</ele>
        <time>2017-11-13T13:08:11.430000Z</time>
      </trkpt>
      <trkpt lat="45.54229025639462" lon="10.230386712197513">
        <ele>183.50277410796215</ele>
        <time>2017-11-13T13:08:11.781000Z</time>
      </trkpt>
      <trkpt lat="45.542280652659024" lon="10.230290676088119">
        <ele>183.33966829373335</ele>
        <time>2017-11-13T13:08:11.890000Z</time>
      </trkpt>
      <trkpt lat="45.54227828979492" lon="10.23026704788208">
        <ele>183.29953861349338</ele>
        <time>2017-11-13T13:08:11.917000Z</time>
      </trkpt>
      <trkpt lat="45.54224803112447" lon="10.230221701785922">
        <ele>183.19423355867363</ele>
        <time>2017-11-13T13:08:11.987000Z</time>
      </trkpt>
      <trkpt lat="45.542248114943504" lon="10.230221869423985">
        <ele>183.19388725029015</ele>
        <time>2017-11-13T13:08:11.987000Z</time>
      </trkpt>
      <trkpt lat="45.542192459106445" lon="10.230138301849365">
        <ele>183.0</ele>
        <time>2017-11-13T13:08:12.116000Z</time>
      </trkpt>
      <trkpt lat="45.54210662841797" lon="10.230202674865723">
        <ele>182.72265519021758</ele>
        <time>2017-11-13T13:08:12.271000Z</time>
      </trkpt>
      <trkpt lat="45.54210637841206" lon="10.230206951743865">
        <ele>182.7140564395813</ele>
        <time>2017-11-13T13:08:12.276000Z</time>
      </trkpt>
      <trkpt lat="45.542100727289316" lon="10.23030362537168">
        <ele>182.51969211167344</ele>
        <time>2017-11-13T13:08:12.385000Z</time>
      </trkpt>
      <trkpt lat="45.542095648124814" lon="10.230390513315797">
        <ele>182.3450020707471</ele>
        <time>2017-11-13T13:08:12.483000Z</time>
      </trkpt>
      <trkpt lat="45.542095648124814" lon="10.230390261858702">
        <ele>182.34449826271486</ele>
        <time>2017-11-13T13:08:12.483000Z</time>
      </trkpt>
      <trkpt lat="45.54208861880559" lon="10.230509142224204">
        <ele>182.10546761443462</ele>
        <time>2017-11-13T13:08:12.617000Z</time>
      </trkpt>
      <trkpt lat="45.54208517074585" lon="10.230567455291748">
        <ele>181.98821854276068</ele>
        <time>2017-11-13T13:08:12.683000Z</time>
      </trkpt>
      <trkpt lat="45.5420595102387" lon="10.230577689108383">
        <ele>181.91200301720437</ele>
        <time>2017-11-13T13:08:12.726000Z</time>
      </trkpt>
      <trkpt lat="45.54200026206672" lon="10.230601318180561">
        <ele>181.7360271344775</ele>
        <time>2017-11-13T13:08:12.825000Z</time>
      </trkpt>
      <trkpt lat="45.542000345885754" lon="10.230601318180561">
        <ele>181.73578735778315</ele>
        <time>2017-11-13T13:08:12.825000Z</time>
      </trkpt>
      <trkpt lat="45.541977882385254" lon="10.230610370635986">
        <ele>181.66901668470146</ele>
        <time>2017-11-13T13:08:12.862000Z</time>
      </trkpt>
      <trkpt lat="45.541957132959105" lon="10.230340475236899">
        <ele>181.1250172097449</ele>
        <time>2017-11-13T13:08:13.167000Z</time>
      </trkpt>
      <trkpt lat="45.5419497192899" lon="10.230244044974237">
        <ele>180.9306529020704</ele>
        <time>2017-11-13T13:08:13.276000Z</time>
      </trkpt>
      <trkpt lat="45.54194309748709" lon="10.230157915502787">
        <ele>180.7570507704427</ele>
        <time>2017-11-13T13:08:13.373000Z</time>
      </trkpt>
      <trkpt lat="45.54194309748709" lon="10.230157999321818">
        <ele>180.75688283397628</ele>
        <time>2017-11-13T13:08:13.375000Z</time>
      </trkpt>
      <trkpt lat="45.541935294423304" lon="10.230056720355476">
        <ele>180.55274026064694</ele>
        <time>2017-11-13T13:08:13.489000Z</time>
      </trkpt>
      <trkpt lat="45.541934967041016" lon="10.230052471160889">
        <ele>180.5331597809749</ele>
        <time>2017-11-13T13:08:13.494000Z</time>
      </trkpt>
      <trkpt lat="45.54189733779622" lon="10.22997721265729">
        <ele>183.10961701088885</ele>
        <time>2017-11-13T13:08:13.598000Z</time>
      </trkpt>
      <trkpt lat="45.54189205169678" lon="10.229966640472412">
        <ele>183.0501184184533</ele>
        <time>2017-11-13T13:08:13.613000Z</time>
      </trkpt>
      <trkpt lat="45.54184913635254" lon="10.23000955581665">
        <ele>179.70746773149224</ele>
        <time>2017-11-13T13:08:13.697000Z</time>
      </trkpt>
      <trkpt lat="45.54182015594929" lon="10.230205218314492">
        <ele>178.79142968034913</ele>
        <time>2017-11-13T13:08:13.922000Z</time>
      </trkpt>
      <trkpt lat="45.54180609827903" lon="10.23030012842346">
        <ele>178.3470863456712</ele>
        <time>2017-11-13T13:08:14.031000Z</time>
      </trkpt>
      <trkpt lat="45.54179348051548" lon="10.23038531653583">
        <ele>177.9482585723997</ele>
        <time>2017-11-13T13:08:14.129000Z</time>
      </trkpt>
      <trkpt lat="45.54179356433451" lon="10.230385065078735">
        <ele>177.94698300165388</ele>
        <time>2017-11-13T13:08:14.129000Z</time>
      </trkpt>
      <trkpt lat="45.54176481153834" lon="10.230579306250469">
        <ele>177.03762146740283</ele>
        <time>2017-11-13T13:08:14.352000Z</time>
      </trkpt>
      <trkpt lat="45.541763389483094" lon="10.230588912963867">
        <ele>176.99264656218534</ele>
        <time>2017-11-13T13:08:14.363000Z</time>
      </trkpt>
      <trkpt lat="45.54176330566406" lon="10.230588912963867">
        <ele>176.9920983996922</ele>
        <time>2017-11-13T13:08:14.363000Z</time>
      </trkpt>
      <trkpt lat="45.541703175488195" lon="10.230600026691373">
        <ele>176.59557585420603</ele>
        <time>2017-11-13T13:08:14.460000Z</time>
      </trkpt>
      <trkpt lat="45.541641768068075" lon="10.230611376464367">
        <ele>172.1906306540718</ele>
        <time>2017-11-13T13:08:14.559000Z</time>
      </trkpt>
      <trkpt lat="45.54164185188711" lon="10.230611376464367">
        <ele>172.19008249157864</ele>
        <time>2017-11-13T13:08:14.559000Z</time>
      </trkpt>
      <trkpt lat="45.5393385887146" lon="10.23103952407837">
        <ele>150.0</ele>
        <time>2017-11-13T13:08:18.283000Z</time>
      </trkpt>
      <trkpt lat="45.53910263814032" lon="10.231103897094727">
        <ele>148.46148795190194</ele>
        <time>2017-11-13T13:08:18.668000Z</time>
      </trkpt>
      <trkpt lat="45.538179874420166" lon="10.23127555847168">
        <ele>147.0</ele>
        <time>2017-11-13T13:08:20.160000Z</time>
      </trkpt>
      <trkpt lat="45.5381799582392" lon="10.23127555847168">
        <ele>147.00000304960602</ele>
        <time>2017-11-13T13:08:20.160000Z</time>
      </trkpt>
      <trkpt lat="45.537986755371094" lon="10.231297016143799">
        <ele>147.0070536290046</ele>
        <time>2017-11-13T13:08:20.471000Z</time>
      </trkpt>
      <trkpt lat="45.537986839190125" lon="10.231297016143799">
        <ele>147.0070566786106</ele>
        <time>2017-11-13T13:08:20.471000Z</time>
      </trkpt>
      <trkpt lat="45.53684949874878" lon="10.231297016143799">
        <ele>147.38177011587797</ele>
        <time>2017-11-13T13:08:22.294000Z</time>
      </trkpt>
      <trkpt lat="45.53662908637988" lon="10.231223545218013">
        <ele>146.48464575311266</ele>
        <time>2017-11-13T13:08:22.657000Z</time>
      </trkpt>
      <trkpt lat="45.536562921832854" lon="10.231201490443533">
        <ele>146.42137314986152</ele>
        <time>2017-11-13T13:08:22.766000Z</time>
      </trkpt>
      <trkpt lat="45.53652763366699" lon="10.231189727783203">
        <ele>146.387627373973</ele>
        <time>2017-11-13T13:08:22.824000Z</time>
      </trkpt>
      <trkpt lat="45.53650173358619" lon="10.231192326173186">
        <ele>146.36344856920613</ele>
        <time>2017-11-13T13:08:22.866000Z</time>
      </trkpt>
      <trkpt lat="45.53650164976716" lon="10.231192326173186">
        <ele>146.36337051313697</ele>
        <time>2017-11-13T13:08:22.866000Z</time>
      </trkpt>
      <trkpt lat="45.5363130569458" lon="10.231211185455322">
        <ele>146.18731403853482</ele>
        <time>2017-11-13T13:08:23.169000Z</time>
      </trkpt>
      <trkpt lat="45.536484718322754" lon="10.230889320373535">
        <ele>145.9234304811339</ele>
        <time>2017-11-13T13:08:23.623000Z</time>
      </trkpt>
      <trkpt lat="45.53649823867158" lon="10.230892686460889">
        <ele>145.91942297941236</ele>
        <time>2017-11-13T13:08:23.645000Z</time>
      </trkpt>
      <trkpt lat="45.536565172595026" lon="10.230909350658068">
        <ele>145.89958341617464</ele>
        <time>2017-11-13T13:08:23.754000Z</time>
      </trkpt>
      <trkpt lat="45.536626456305385" lon="10.230924608185887">
        <ele>145.88141860484325</ele>
        <time>2017-11-13T13:08:23.854000Z</time>
      </trkpt>
      <trkpt lat="45.53662637248635" lon="10.230924608185887">
        <ele>145.88139412981783</ele>
        <time>2017-11-13T13:08:23.854000Z</time>
      </trkpt>
      <trkpt lat="45.536742210388184" lon="10.230953693389893">
        <ele>146.51371717617562</ele>
        <time>2017-11-13T13:08:24.043000Z</time>
      </trkpt>
      <trkpt lat="45.537235820665956" lon="10.230932235717773">
        <ele>146.36951695096218</ele>
        <time>2017-11-13T13:08:24.835000Z</time>
      </trkpt>
      <trkpt lat="45.53743455835321" lon="10.230932235717722">
        <ele>146.31148585887598</ele>
        <time>2017-11-13T13:08:25.154000Z</time>
      </trkpt>
      <trkpt lat="45.537502502431884" lon="10.230932235717722">
        <ele>145.95831296143888</ele>
        <time>2017-11-13T13:08:25.263000Z</time>
      </trkpt>
      <trkpt lat="45.5375649780035" lon="10.230932235717773">
        <ele>145.9400701927938</ele>
        <time>2017-11-13T13:08:25.363000Z</time>
      </trkpt>
      <trkpt lat="45.53757905960083" lon="10.230932235717773">
        <ele>145.9359583885228</ele>
        <time>2017-11-13T13:08:25.386000Z</time>
      </trkpt>
      <trkpt lat="45.5377721786499" lon="10.229644775390625">
        <ele>145.0</ele>
        <time>2017-11-13T13:08:26.864000Z</time>
      </trkpt>
      <trkpt lat="45.53850173950195" lon="10.229709148406982">
        <ele>146.23094968312776</ele>
        <time>2017-11-13T13:08:28.036000Z</time>
      </trkpt>
      <trkpt lat="45.53865202702582" lon="10.22975206375122">
        <ele>146.65982116147146</ele>
        <time>2017-11-13T13:08:28.282000Z</time>
      </trkpt>
      <trkpt lat="45.53883393554411" lon="10.229784076943353">
        <ele>147.1726993887543</ele>
        <time>2017-11-13T13:08:28.576000Z</time>
      </trkpt>
      <trkpt lat="45.53890136924884" lon="10.229795944324957">
        <ele>147.36282396873457</ele>
        <time>2017-11-13T13:08:28.685000Z</time>
      </trkpt>
      <trkpt lat="45.538977328687906" lon="10.229809312149882">
        <ele>147.57698625994655</ele>
        <time>2017-11-13T13:08:28.808000Z</time>
      </trkpt>
      <trkpt lat="45.538977244868875" lon="10.22980922833085">
        <ele>147.57727261769946</ele>
        <time>2017-11-13T13:08:28.808000Z</time>
      </trkpt>
      <trkpt lat="45.53901672363281" lon="10.229816436767578">
        <ele>147.68864388067178</ele>
        <time>2017-11-13T13:08:28.872000Z</time>
      </trkpt>
      <trkpt lat="45.53916701115668" lon="10.229172706604004">
        <ele>150.01856884621768</ele>
        <time>2017-11-13T13:08:29.634000Z</time>
      </trkpt>
      <trkpt lat="45.53931721486151" lon="10.228271484375">
        <ele>154.94528586366675</ele>
        <time>2017-11-13T13:08:30.674000Z</time>
      </trkpt>
      <trkpt lat="45.53942450322211" lon="10.227606296539307">
        <ele>155.88742046902644</ele>
        <time>2017-11-13T13:08:31.440000Z</time>
      </trkpt>
      <trkpt lat="45.53944596089423" lon="10.227091312408447">
        <ele>156.59946895277338</ele>
        <time>2017-11-13T13:08:32.019000Z</time>
      </trkpt>
      <trkpt lat="45.539445877075195" lon="10.227091312408447">
        <ele>156.59975988961932</ele>
        <time>2017-11-13T13:08:32.019000Z</time>
      </trkpt>
      <trkpt lat="45.539467418566346" lon="10.226318836212158">
        <ele>160.14592680570996</ele>
        <time>2017-11-13T13:08:32.887000Z</time>
      </trkpt>
      <trkpt lat="45.53944596089423" lon="10.22578239440918">
        <ele>161.71061264828143</ele>
        <time>2017-11-13T13:08:33.490000Z</time>
      </trkpt>
      <trkpt lat="45.539445877075195" lon="10.22578239440918">
        <ele>161.71073841407653</ele>
        <time>2017-11-13T13:08:33.490000Z</time>
      </trkpt>
      <trkpt lat="45.539467418566346" lon="10.225589275360107">
        <ele>161.91625213999106</ele>
        <time>2017-11-13T13:08:33.710000Z</time>
      </trkpt>
      <trkpt lat="45.539531791582704" lon="10.224881172180176">
        <ele>162.33333333333334</ele>
        <time>2017-11-13T13:08:34.512000Z</time>
      </trkpt>
      <trkpt lat="45.53953170776367" lon="10.224881172180176">
        <ele>162.33333333333334</ele>
        <time>2017-11-13T13:08:34.512000Z</time>
      </trkpt>
      <trkpt lat="45.53961753845215" lon="10.223958492279053">
        <ele>162.33333333333334</ele>
        <time>2017-11-13T13:08:35.557000Z</time>
      </trkpt>
      <trkpt lat="45.539724910631776" lon="10.223336219787598">
        <ele>162.33333333333334</ele>
        <time>2017-11-13T13:08:36.277000Z</time>
      </trkpt>
      <trkpt lat="45.53974647971285" lon="10.223131315317204">
        <ele>161.5176904418726</ele>
        <time>2017-11-13T13:08:36.510000Z</time>
      </trkpt>
      <trkpt lat="45.53975657738503" lon="10.223035387024236">
        <ele>161.4687128995246</ele>
        <time>2017-11-13T13:08:36.619000Z</time>
      </trkpt>
      <trkpt lat="45.539767825976014" lon="10.222928524017334">
        <ele>161.4141525060833</ele>
        <time>2017-11-13T13:08:36.740000Z</time>
      </trkpt>
      <trkpt lat="45.53976774215698" lon="10.222928524017334">
        <ele>161.41409208506232</ele>
        <time>2017-11-13T13:08:36.740000Z</time>
      </trkpt>
      <trkpt lat="45.539767825976014" lon="10.222928524016334">
        <ele>161.4140316640413</ele>
        <time>2017-11-13T13:08:36.740000Z</time>
      </trkpt>
      <trkpt lat="45.53938158787787" lon="10.22279977798462">
        <ele>161.12812399624136</ele>
        <time>2017-11-13T13:08:37.376000Z</time>
      </trkpt>
      <trkpt lat="45.539252841845155" lon="10.2227783203125">
        <ele>161.03468708772482</ele>
        <time>2017-11-13T13:08:37.584000Z</time>
      </trkpt>
      <trkpt lat="45.5387806892395" lon="10.222628116607666">
        <ele>160.01932208707814</ele>
        <time>2017-11-13T13:08:38.359000Z</time>
      </trkpt>
      <trkpt lat="45.538780773058534" lon="10.222628116607666">
        <ele>160.01945649045675</ele>
        <time>2017-11-13T13:08:38.359000Z</time>
      </trkpt>
      <trkpt lat="45.537772262468934" lon="10.222349166870117">
        <ele>163.0</ele>
        <time>2017-11-13T13:08:40.006000Z</time>
      </trkpt>
      <trkpt lat="45.537750804796815" lon="10.222349166870117">
        <ele>162.90269446239418</ele>
        <time>2017-11-13T13:08:40.040000Z</time>
      </trkpt>
      <trkpt lat="45.53770788945258" lon="10.222349166870117">
        <ele>162.70808338718257</ele>
        <time>2017-11-13T13:08:40.109000Z</time>
      </trkpt>
      <trkpt lat="45.537428855895996" lon="10.22226333618164">
        <ele>158.74702808690708</ele>
        <time>2017-11-13T13:08:40.567000Z</time>
      </trkpt>
      <trkpt lat="45.536978328600526" lon="10.222134590148926">
        <ele>156.66346548569547</ele>
        <time>2017-11-13T13:08:41.304000Z</time>
      </trkpt>
      <trkpt lat="45.5367350292009" lon="10.222080523476611">
        <ele>155.54687351036566</ele>
        <time>2017-11-13T13:08:41.699000Z</time>
      </trkpt>
      <trkpt lat="45.536667893518036" lon="10.222065604480928">
        <ele>155.23876277491217</ele>
        <time>2017-11-13T13:08:41.808000Z</time>
      </trkpt>
      <trkpt lat="45.53659209050238" lon="10.22204875946045">
        <ele>154.22420776073795</ele>
        <time>2017-11-13T13:08:41.931000Z</time>
      </trkpt>
      <trkpt lat="45.53659200668335" lon="10.22204875946045">
        <ele>154.22417226923247</ele>
        <time>2017-11-13T13:08:41.931000Z</time>
      </trkpt>
      <trkpt lat="45.53659209050238" lon="10.22204875945945">
        <ele>154.22413677772695</ele>
        <time>2017-11-13T13:08:41.931000Z</time>
      </trkpt>
      <trkpt lat="45.53659200668335" lon="10.22204875946145">
        <ele>154.22410128622144</ele>
        <time>2017-11-13T13:08:41.931000Z</time>
      </trkpt>
      <trkpt lat="45.536441802978516" lon="10.222005844116211">
        <ele>154.15923934098055</ele>
        <time>2017-11-13T13:08:42.177000Z</time>
      </trkpt>
      <trkpt lat="45.53657063283026" lon="10.220975875854492">
        <ele>153.51558910605078</ele>
        <time>2017-11-13T13:08:43.352000Z</time>
      </trkpt>
      <trkpt lat="45.536720752716064" lon="10.220503807067871">
        <ele>156.05699319955656</ele>
        <time>2017-11-13T13:08:43.934000Z</time>
      </trkpt>
      <trkpt lat="45.536720836535096" lon="10.220503807067871">
        <ele>156.0570063544609</ele>
        <time>2017-11-13T13:08:43.934000Z</time>
      </trkpt>
      <trkpt lat="45.536877425366754" lon="10.22013843368167">
        <ele>156.1040943201917</ele>
        <time>2017-11-13T13:08:44.415000Z</time>
      </trkpt>
      <trkpt lat="45.53691288590507" lon="10.220055691891162">
        <ele>156.11475774695018</ele>
        <time>2017-11-13T13:08:44.524000Z</time>
      </trkpt>
      <trkpt lat="45.53691395558417" lon="10.22005319595337">
        <ele>156.1150794131646</ele>
        <time>2017-11-13T13:08:44.527000Z</time>
      </trkpt>
      <trkpt lat="45.536956787109375" lon="10.219967365264893">
        <ele>155.1266645653678</ele>
        <time>2017-11-13T13:08:44.645000Z</time>
      </trkpt>
      <trkpt lat="45.537064159289" lon="10.219988822937012">
        <ele>155.14368029421246</ele>
        <time>2017-11-13T13:08:44.819000Z</time>
      </trkpt>
      <trkpt lat="45.53736456669867" lon="10.22003173828125">
        <ele>156.1910629185174</ele>
        <time>2017-11-13T13:08:45.303000Z</time>
      </trkpt>
      <trkpt lat="45.53740748204291" lon="10.22005319595337">
        <ele>156.19819934608802</ele>
        <time>2017-11-13T13:08:45.376000Z</time>
      </trkpt>
      <trkpt lat="45.537520852322615" lon="10.220069391696981">
        <ele>156.88274766618542</ele>
        <time>2017-11-13T13:08:45.559000Z</time>
      </trkpt>
      <trkpt lat="45.53755768574774" lon="10.220074653625488">
        <ele>156.88855732421666</ele>
        <time>2017-11-13T13:08:45.618000Z</time>
      </trkpt>
      <trkpt lat="45.53758697094569" lon="10.220059982375462">
        <ele>156.89342822392075</ele>
        <time>2017-11-13T13:08:45.668000Z</time>
      </trkpt>
      <trkpt lat="45.53760051727295" lon="10.22005319595337">
        <ele>156.89568133505387</ele>
        <time>2017-11-13T13:08:45.691000Z</time>
      </trkpt>
      <trkpt lat="45.53764343261719" lon="10.219988822937012">
        <ele>156.23878409257551</ele>
        <time>2017-11-13T13:08:45.791000Z</time>
      </trkpt>
      <trkpt lat="45.537729347124696" lon="10.21951675415039">
        <ele>156.29240168662798</ele>
        <time>2017-11-13T13:08:46.339000Z</time>
      </trkpt>
      <trkpt lat="45.537729263305664" lon="10.21951675415039">
        <ele>156.29225864296325</ele>
        <time>2017-11-13T13:08:46.339000Z</time>
      </trkpt>
      <trkpt lat="45.53775072097778" lon="10.219366550445557">
        <ele>156.10901583449103</ele>
        <time>2017-11-13T13:08:46.511000Z</time>
      </trkpt>
      <trkpt lat="45.53776669108742" lon="10.21924677547266">
        <ele>155.96327147441187</ele>
        <time>2017-11-13T13:08:46.648000Z</time>
      </trkpt>
      <trkpt lat="45.53777939656181" lon="10.219151484371407">
        <ele>154.18065292509456</ele>
        <time>2017-11-13T13:08:46.757000Z</time>
      </trkpt>
      <trkpt lat="45.53779363632202" lon="10.21904468536377">
        <ele>154.00598657145744</ele>
        <time>2017-11-13T13:08:46.879000Z</time>
      </trkpt>
      <trkpt lat="45.53779363632202" lon="10.218980312347412">
        <ele>153.9025636682973</ele>
        <time>2017-11-13T13:08:46.951000Z</time>
      </trkpt>
      <trkpt lat="45.537471855059266" lon="10.218937397003174">
        <ele>152.82793669070944</ele>
        <time>2017-11-13T13:08:47.469000Z</time>
      </trkpt>
      <trkpt lat="45.53740748204291" lon="10.218915939331055">
        <ele>152.67631103482992</ele>
        <time>2017-11-13T13:08:47.575000Z</time>
      </trkpt>
      <trkpt lat="45.53710707463324" lon="10.218873023986816">
        <ele>151.9838157375509</ele>
        <time>2017-11-13T13:08:48.059000Z</time>
      </trkpt>
      <trkpt lat="45.53691395558417" lon="10.218830108642578">
        <ele>151.8135589403905</ele>
        <time>2017-11-13T13:08:48.372000Z</time>
      </trkpt>
      <trkpt lat="45.53680030809332" lon="10.218818153486174">
        <ele>151.71428928422515</ele>
        <time>2017-11-13T13:08:48.555000Z</time>
      </trkpt>
      <trkpt lat="45.53673254763385" lon="10.218811025442484">
        <ele>151.65510137440063</ele>
        <time>2017-11-13T13:08:48.664000Z</time>
      </trkpt>
      <trkpt lat="45.536655792966485" lon="10.218802951276302">
        <ele>151.588057137453</ele>
        <time>2017-11-13T13:08:48.787000Z</time>
      </trkpt>
      <trkpt lat="45.53665596060455" lon="10.218802951276302">
        <ele>151.5879111036061</ele>
        <time>2017-11-13T13:08:48.787000Z</time>
      </trkpt>
      <trkpt lat="45.536506259813905" lon="10.21878719329834">
        <ele>151.45714888195627</ele>
        <time>2017-11-13T13:08:49.028000Z</time>
      </trkpt>
      <trkpt lat="45.53560495376587" lon="10.218636989593506">
        <ele>150.0</ele>
        <time>2017-11-13T13:08:50.483000Z</time>
      </trkpt>
      <trkpt lat="45.53554058074951" lon="10.21855115890503">
        <ele>149.87971517067572</ele>
        <time>2017-11-13T13:08:50.624000Z</time>
      </trkpt>
      <trkpt lat="45.534320025588165" lon="10.217979015132366">
        <ele>147.12537648437342</ele>
        <time>2017-11-13T13:08:52.684000Z</time>
      </trkpt>
      <trkpt lat="45.53425547220678" lon="10.217948756011847">
        <ele>147.08208712326373</ele>
        <time>2017-11-13T13:08:52.793000Z</time>
      </trkpt>
      <trkpt lat="45.53418179042637" lon="10.217914218083024">
        <ele>147.03267628323502</ele>
        <time>2017-11-13T13:08:52.917000Z</time>
      </trkpt>
      <trkpt lat="45.53416728973389" lon="10.217907428741455">
        <ele>147.02295323285978</ele>
        <time>2017-11-13T13:08:52.941000Z</time>
      </trkpt>
      <trkpt lat="45.53416737355292" lon="10.217907428741455">
        <ele>147.02289982911975</ele>
        <time>2017-11-13T13:08:52.941000Z</time>
      </trkpt>
      <trkpt lat="45.53416728973389" lon="10.217907428742455">
        <ele>147.02284642537973</ele>
        <time>2017-11-13T13:08:52.941000Z</time>
      </trkpt>
      <trkpt lat="45.533738220110536" lon="10.217885971069336">
        <ele>146.41597165723925</ele>
        <time>2017-11-13T13:08:53.629000Z</time>
      </trkpt>
      <trkpt lat="45.53360939025879" lon="10.217907428741455">
        <ele>146.33333333333334</ele>
        <time>2017-11-13T13:08:53.837000Z</time>
      </trkpt>
      <trkpt lat="45.532912678127424" lon="10.21767519070053">
        <ele>146.39869927143965</ele>
        <time>2017-11-13T13:08:54.984000Z</time>
      </trkpt>
      <trkpt lat="45.532846513862125" lon="10.217653136189757">
        <ele>146.31509567747838</ele>
        <time>2017-11-13T13:08:55.093000Z</time>
      </trkpt>
      <trkpt lat="45.53275619633496" lon="10.217623030766845">
        <ele>146.20097260292968</ele>
        <time>2017-11-13T13:08:55.242000Z</time>
      </trkpt>
      <trkpt lat="45.532708168029785" lon="10.217607021331787">
        <ele>146.14028513490177</ele>
        <time>2017-11-13T13:08:55.321000Z</time>
      </trkpt>
      <trkpt lat="45.532751167193055" lon="10.217478275299072">
        <ele>145.35067787646923</ele>
        <time>2017-11-13T13:08:55.481000Z</time>
      </trkpt>
      <trkpt lat="45.53275108337402" lon="10.217478275299072">
        <ele>145.35057473900272</ele>
        <time>2017-11-13T13:08:55.481000Z</time>
      </trkpt>
      <trkpt lat="45.533030116930604" lon="10.216319561004639">
        <ele>143.96111866893446</ele>
        <time>2017-11-13T13:08:56.857000Z</time>
      </trkpt>
      <trkpt lat="45.53325738885197" lon="10.215245185734295">
        <ele>143.01237486650282</ele>
        <time>2017-11-13T13:08:58.117000Z</time>
      </trkpt>
      <trkpt lat="45.533266151323915" lon="10.215203762054443">
        <ele>143.0</ele>
        <time>2017-11-13T13:08:58.166000Z</time>
      </trkpt>
      <trkpt lat="45.5332781775981" lon="10.21515565708792">
        <ele>143.01836636749331</ele>
        <time>2017-11-13T13:08:58.223000Z</time>
      </trkpt>
      <trkpt lat="45.53330906666815" lon="10.21503210067749">
        <ele>143.0655398827101</ele>
        <time>2017-11-13T13:08:58.370000Z</time>
      </trkpt>
      <trkpt lat="45.53330898284912" lon="10.21503210067749">
        <ele>143.06558290935592</ele>
        <time>2017-11-13T13:08:58.370000Z</time>
      </trkpt>
      <trkpt lat="45.53330906666815" lon="10.21503210067649">
        <ele>143.0656259360017</ele>
        <time>2017-11-13T13:08:58.370000Z</time>
      </trkpt>
      <trkpt lat="45.53345927037299" lon="10.214388370513916">
        <ele>143.97627050322907</ele>
        <time>2017-11-13T13:08:59.132000Z</time>
      </trkpt>
      <trkpt lat="45.533502185717225" lon="10.214195251464844">
        <ele>144.04912321981217</ele>
        <time>2017-11-13T13:08:59.360000Z</time>
      </trkpt>
      <trkpt lat="45.53360210865063" lon="10.213757803282515">
        <ele>144.21457333116743</ele>
        <time>2017-11-13T13:08:59.877000Z</time>
      </trkpt>
      <trkpt lat="45.533623172566216" lon="10.213665587368697">
        <ele>144.2494508564905</ele>
        <time>2017-11-13T13:08:59.986000Z</time>
      </trkpt>
      <trkpt lat="45.53365146741271" lon="10.213541714474559">
        <ele>144.2963015114392</ele>
        <time>2017-11-13T13:09:00.132000Z</time>
      </trkpt>
      <trkpt lat="45.53365138359368" lon="10.213541882112622">
        <ele>144.29637557161195</ele>
        <time>2017-11-13T13:09:00.132000Z</time>
      </trkpt>
      <trkpt lat="45.53367384709418" lon="10.213444232940674">
        <ele>144.33333333333334</ele>
        <time>2017-11-13T13:09:00.247000Z</time>
      </trkpt>
      <trkpt lat="45.53367376327515" lon="10.213444232941674">
        <ele>144.33328767408577</ele>
        <time>2017-11-13T13:09:00.247000Z</time>
      </trkpt>
      <trkpt lat="45.5338454246521" lon="10.212628841400146">
        <ele>143.3417349799903</ele>
        <time>2017-11-13T13:09:01.203000Z</time>
      </trkpt>
      <trkpt lat="45.533781135454774" lon="10.212349891662598">
        <ele>143.36780425261463</ele>
        <time>2017-11-13T13:09:01.533000Z</time>
      </trkpt>
      <trkpt lat="45.53378105163574" lon="10.212349891662598">
        <ele>143.36781487509498</ele>
        <time>2017-11-13T13:09:01.533000Z</time>
      </trkpt>
      <trkpt lat="45.53371676243842" lon="10.212178230285645">
        <ele>143.38509518200445</ele>
        <time>2017-11-13T13:09:01.752000Z</time>
      </trkpt>
      <trkpt lat="45.53365238942206" lon="10.21202802658081">
        <ele>143.40072701289913</ele>
        <time>2017-11-13T13:09:01.950000Z</time>
      </trkpt>
      <trkpt lat="45.53354510106146" lon="10.212092399597168">
        <ele>143.41547589674676</ele>
        <time>2017-11-13T13:09:02.137000Z</time>
      </trkpt>
      <trkpt lat="45.533502185717225" lon="10.212113857269287">
        <ele>143.4212385508885</ele>
        <time>2017-11-13T13:09:02.210000Z</time>
      </trkpt>
      <trkpt lat="45.53345927037299" lon="10.212156772613525">
        <ele>143.51721130505737</ele>
        <time>2017-11-13T13:09:02.294000Z</time>
      </trkpt>
      <trkpt lat="45.533223235979676" lon="10.21228551864624">
        <ele>143.6466932746575</ele>
        <time>2017-11-13T13:09:02.699000Z</time>
      </trkpt>
      <trkpt lat="45.53320177830756" lon="10.212349891662598">
        <ele>143.73816221424346</ele>
        <time>2017-11-13T13:09:02.779000Z</time>
      </trkpt>
      <trkpt lat="45.53313732147217" lon="10.212435722351074">
        <ele>143.8996132400139</ele>
        <time>2017-11-13T13:09:02.920000Z</time>
      </trkpt>
      <trkpt lat="45.53311594761908" lon="10.21254301071167">
        <ele>145.37606301332593</ele>
        <time>2017-11-13T13:09:03.045000Z</time>
      </trkpt>
      <trkpt lat="45.53300139282931" lon="10.213000975742657">
        <ele>146.0</ele>
        <time>2017-11-13T13:09:03.591000Z</time>
      </trkpt>
    </trkseg>
  </trk>
</gpx>